Index of /img/temp

[ICO]NameLast modifiedSizeDescription

[PARENTDIR]Parent Directory  -  
[IMG]u0B5y7XXs1fASm8.jpg2022-05-09 09:30 154K 
[IMG]skL0FoLIwBzvxCM.jpg2022-05-09 09:30 108K 
[IMG]OUebvjsL3Mh9oJX.jpg2022-05-09 09:30 240K 
[IMG]Rr7s7GR1clzTtQO.jpg2022-05-09 09:30 303K 
[IMG]O44OSZDHRRJdGit.jpg2022-05-09 09:30 59K 
[IMG]wMwDREElXKLEPq0.jpg2022-05-09 09:30 29K 
[IMG]iKbe3OFeEbUcyli.jpg2022-05-09 09:30 126K 
[IMG]SPQCyDli7WRwqzJ.jpg2022-05-09 09:30 274K 
[IMG]TsjFAcEaed62n3k.jpg2022-05-09 09:30 114K 
[IMG]7QBDeqWN11wd03m.jpg2022-05-09 09:30 67K 
[IMG]lH7QBp8ZPKyDnsP.jpg2022-05-09 09:30 82K 
[IMG]VN0jVksvrNrANOE.jpg2022-05-09 09:30 299K 
[IMG]vw0g2W0joUgvQTD.jpg2022-05-09 09:30 200K 
[IMG]GJGj5TXA98EvbTu.jpg2022-05-09 09:30 208K 
[IMG]FE30Jsc9cIXN3x1.jpg2022-05-09 09:30 121K 
[IMG]T5oGyBmpcts2zRl.jpg2022-05-09 09:30 250K 
[IMG]2XoO2xz372e1lei.jpg2022-05-09 09:30 50K 
[IMG]7qIdu17D3WjjoXT.jpg2022-05-09 09:30 28K 
[IMG]gwBA4fh4vTvNzaB.jpg2022-05-09 09:30 16K 
[IMG]WZfnbFLL7ElvpYr.jpg2022-05-09 09:30 32K 
[IMG]U8IbmkdEwhDB5bi.jpg2022-05-09 09:30 28K 
[IMG]rvRVbSveQaDg2rF.jpg2022-05-09 09:30 42K 
[IMG]JxhWsS2lqJRYOFb.jpg2022-05-09 09:31 32K 
[IMG]MQbOmRmtXSwNRS5.jpg2022-05-09 09:31 32K 
[IMG]vCKhAI7R6qS36Ya.jpg2022-05-09 09:31 54K 
[IMG]MafGMVhZk18kvEl.jpg2022-05-09 09:31 12K 
[IMG]TEbIdQDY4d6jGPv.jpg2022-05-09 09:31 50K 
[IMG]hx15TVM2t9BL4Jr.jpg2022-05-09 09:31 57K 
[IMG]De0s4cFPGbkPYLs.jpg2022-05-09 09:31 68K 
[IMG]fKrbu4BxfWyP0hO.jpg2022-05-09 09:31 76K 
[IMG]iY5RzQmu0TIlKQF.jpg2022-05-09 09:31 62K 
[IMG]Ys4JvlcqUhlJmdR.jpg2022-05-09 09:31 101K 
[IMG]qljdELHaFwIFk3o.jpg2022-05-09 09:31 29K 
[IMG]edicZjoot3Yirww.jpg2022-05-09 09:31 17K 
[IMG]gmxIekEPltDf0U0.jpg2022-05-09 09:31 29K 
[IMG]OjJR4cUYAB15X4d.jpg2022-05-09 09:31 27K 
[IMG]1g6H8rFW1n3jhhD.jpg2022-05-09 09:31 55K 
[IMG]LWLCuoWkixAiaff.jpg2022-05-09 09:31 33K 
[IMG]Vkzntd70S8Y8Nux.jpg2022-05-09 09:31 28K 
[IMG]llRZ8S9JHzk2ukJ.jpg2022-05-09 09:31 67K 
[IMG]qXaXKlX3aj29BEc.jpg2022-05-09 09:31 51K 
[IMG]hrmC5urbRXzZCJw.jpg2022-05-09 09:32 40K 
[IMG]qm7p8S7Y09Vi8Jh.jpg2022-05-09 09:32 34K 
[IMG]q4qkGWWg3QwmO50.jpg2022-05-09 09:32 43K 
[IMG]1Pny83ZyBmZWzZi.jpg2022-05-09 09:32 62K 
[IMG]PurdW6cS74ydoGH.jpg2022-05-09 09:32 16K 
[IMG]SSWnz4pINr8D2Sz.jpg2022-05-09 09:32 29K 
[IMG]4EcvsKA8qOIvBZs.jpg2022-05-09 09:32 84K 
[IMG]7VDnwfvaSkLTa8Q.jpg2022-05-09 09:32 67K 
[IMG]TYBf9FldjWUcnby.jpg2022-05-09 09:32 119K 
[IMG]ciWMaDccSWKlyoz.jpg2022-05-09 09:32 264K 
[IMG]lLNg5F17aahPwRF.jpg2022-05-09 09:32 60K 
[IMG]X8WrWqVrpcetlFa.jpg2022-05-09 09:32 142K 
[IMG]8CNZjSBtwOSGOkq.jpg2022-05-09 09:32 168K 
[IMG]glnyoBR0kAbVHK0.jpg2022-05-09 09:32 40K 
[IMG]DuhYVhlB90sjeEW.jpg2022-05-09 09:32 41K 
[IMG]6KrlGyZUD80t5ot.jpg2022-05-09 09:32 43K 
[IMG]kZwz4IVzEwPtj0Q.jpg2022-05-09 09:32 44K 
[IMG]n84Sn4CzPXllpt1.jpg2022-05-09 09:32 44K 
[IMG]gcWKsA2SwoGNW98.jpg2022-05-09 09:32 43K 
[IMG]7ydshBJ9TZB8yxD.jpg2022-05-09 09:32 157K 
[IMG]Ubnh7BPJ5TmvwpH.jpg2022-05-09 09:32 19K 
[IMG]x42uB9CCSLryq6G.jpg2022-05-09 09:32 18K 
[IMG]RBdHEbOdPFFGuAA.jpg2022-05-09 09:32 16K 
[IMG]2lH9KWt3WtWGW6I.jpg2022-05-09 09:32 19K 
[IMG]LizdXN0Lj5tCisi.jpg2022-05-09 09:32 22K 
[IMG]Df0kqLZijeFs8An.jpg2022-05-09 09:32 16K 
[IMG]0QvOj2eBdOCuicR.jpg2022-05-09 09:32 50K 
[IMG]O9oI66BVVKlIASh.jpg2022-05-09 09:32 88K 
[IMG]PwSKR0ky3z1NJh2.jpg2022-05-09 09:33 33K 
[IMG]4qwQQZF5HL5AApA.jpg2022-05-09 09:33 45K 
[IMG]EMwa1iwzNXh5Fgu.jpg2022-05-09 09:33 81K 
[IMG]2TTeiaeVq8A6ScY.jpg2022-05-09 09:33 64K 
[IMG]Nn7ACcar4vGz5MM.jpg2022-05-09 09:33 104K 
[IMG]rWZM4wTEJrNd57e.jpg2022-05-09 09:33 158K 
[IMG]cylStOojp2mEf3M.jpg2022-05-09 09:33 154K 
[IMG]ziZWivMEqcvxTgj.jpg2022-05-09 09:33 42K 
[IMG]HT2PlfXyJlDqFEU.jpg2022-05-09 09:33 42K 
[IMG]ZSbWJJT1AL2E7kL.jpg2022-05-09 09:33 48K 
[IMG]YbpSueuuF6pkzq5.jpg2022-05-09 09:33 58K 
[IMG]fuBdbnJ8KX4WDAy.jpg2022-05-09 09:33 41K 
[IMG]1ZdRtD0zAjqp1AU.jpg2022-05-09 09:33 42K 
[IMG]rn4f69GYuxdhm5H.jpg2022-05-09 09:33 35K 
[IMG]9KqFRDGjxkv75n1.jpg2022-05-09 09:33 43K 
[IMG]QwtNDgzbSWgdcJG.jpg2022-05-09 09:33 49K 
[IMG]Sfdy4lCjKxWAcf5.jpg2022-05-09 09:33 73K 
[IMG]TpeTRbrh4ESTeaG.jpg2022-05-09 09:33 55K 
[IMG]W2b3xH6CVa0giiq.jpg2022-05-09 09:33 46K 
[IMG]9w3nC3fff838Wk1.jpg2022-05-09 09:33 72K 
[IMG]L2l9mCBcEUrwfov.jpg2022-05-09 09:33 1.4M 
[IMG]leb9SCKbdtiyOxZ.jpg2022-05-09 09:33 83K 
[IMG]F1XWd23EDHckOw2.jpg2022-05-09 09:33 99K 
[IMG]fIpkExqWZLanA1Y.jpg2022-05-09 09:33 122K 
[IMG]05eit8E9V3oG6Nk.jpg2022-05-09 09:33 82K 
[IMG]Xr8R8qniol87YbE.jpg2022-05-09 09:33 109K 
[IMG]AjWei0jfTVIr05Q.jpg2022-05-09 09:33 121K 
[IMG]ZhM0yESvExVOWUg.jpg2022-05-09 09:33 79K 
[IMG]06Vd5y9VNYF70Ki.jpg2022-05-09 09:33 154K 
[IMG]OqLhr16zzCthpAk.jpg2022-05-09 09:33 188K 
[IMG]YLO2U9xRXVGrpEp.jpg2022-05-09 09:33 190K 
[IMG]dIhqoUO8XGt44wa.jpg2022-05-09 09:33 286K 
[IMG]hYkahUWcpeUtXI5.jpg2022-05-09 09:33 202K 
[IMG]GZ7Ja6VU7syaiEo.jpg2022-05-09 09:33 143K 
[IMG]dKJPwPwtMNedl8I.jpg2022-05-09 09:36 17K 
[IMG]C4HIWLi2rY8M20q.jpg2022-05-09 09:36 57K 
[IMG]Z9PtQUjxp3qAUjl.jpg2022-05-09 09:36 90K 
[IMG]ZwernfPD4LHUa8E.jpg2022-05-09 09:36 52K 
[IMG]9UmOhOJ3eoiuCzF.jpg2022-05-09 09:36 63K 
[IMG]B6bUCj2kMPbZqFz.jpg2022-05-09 09:36 46K 
[IMG]906Kpk7yGsmFaV2.jpg2022-05-09 09:36 63K 
[IMG]ug3aLg1E8igJM29.jpg2022-05-09 09:37 21K 
[IMG]cFTwxZSiXCw6wzP.jpg2022-05-09 09:37 27K 
[IMG]w6Gh3XcNjRSukiU.jpg2022-05-09 09:37 41K 
[IMG]2pzd9eUfW3P7L8o.jpg2022-05-09 09:37 29K 
[IMG]coxX8Nw8PRHu5T6.jpg2022-05-09 09:37 9.0K 
[IMG]blljKZ7Q9dWVuja.jpg2022-05-09 09:37 5.7K 
[IMG]ddl69wlpv5DyBLw.jpg2022-05-09 09:38 32K 
[IMG]hpjNAaVcXXNivhP.jpg2022-05-09 09:38 1.1K 
[IMG]9S7TWl6DGfSo004.jpg2022-05-09 09:38 12K 
[IMG]zpvuR8L8Wy1cFWZ.jpg2022-05-09 09:38 7.1K 
[IMG]9j5sSfVqkogIyjT.jpg2022-05-09 09:38 7.4K 
[IMG]FQg9CWXo52CbDTk.jpg2022-05-09 09:39 7.6K 
[IMG]GfKVz0Lbvxpziwh.jpg2022-05-09 09:39 6.0K 
[IMG]NL5iH2wOfBgWriN.jpg2022-05-09 09:39 7.3K 
[IMG]Je25XSEINgSrXKS.jpg2022-05-09 09:39 6.5K 
[IMG]9k9iIkEA2JANVDa.jpg2022-05-09 09:39 3.7K 
[IMG]vTg2PLgAIt1mHn9.jpg2022-05-09 09:39 5.6K 
[IMG]Re4Br4i5QB0YtwG.jpg2022-05-09 09:39 4.8K 
[IMG]5HA4e8uHeWkSpiq.jpg2022-05-09 09:39 5.4K 
[IMG]0sw0f9YRwcw9REL.jpg2022-05-09 09:40 6.3K 
[IMG]EAOqsgUcDGUgdtM.jpg2022-05-09 09:40 6.8K 
[IMG]pcrQpr7RXKPoORN.jpg2022-05-09 09:40 4.6K 
[IMG]O8WrDwjXdEPpK7L.jpg2022-05-09 09:40 7.1K 
[IMG]bW2BAraeWy1NjS7.jpg2022-05-09 09:40 7.4K 
[IMG]Xc87TOOipNCpgF6.jpg2022-05-09 09:40 7.4K 
[IMG]Gt3P917TOZRyBa3.jpg2022-05-09 09:40 10K 
[IMG]UoJWq5TbSO4CgLH.jpg2022-05-09 09:40 6.8K 
[IMG]lq1M59yiiqJasQw.jpg2022-05-09 09:40 10K 
[IMG]qhL7eERWbDMvtbk.jpg2022-05-09 09:41 6.7K 
[IMG]CkpRtsGie7Jz6ps.jpg2022-05-09 09:41 8.7K 
[IMG]ukVyeE7FQ9LyBo2.jpg2022-05-09 09:41 11K 
[IMG]e1kZuewcWpfkiwO.jpg2022-05-09 09:41 6.4K 
[IMG]5itIJgn3pwpgOGe.jpg2022-05-09 09:41 5.5K 
[IMG]JaVVzqJWNyIRv5R.jpg2022-05-09 09:41 8.7K 
[IMG]asrMNRs7f7rKR56.jpg2022-05-09 09:41 37K 
[IMG]AWDip91n9WzeQrg.jpg2022-05-09 09:41 26K 
[IMG]3Rk8n7Nyw09KQbk.jpg2022-05-09 09:41 21K 
[IMG]RuaaU0zS3BkAHDJ.jpg2022-05-09 09:41 12K 
[IMG]aOuoFvv3mwBs3P4.jpg2022-05-09 09:42 14K 
[IMG]9V2sndRVHQi2S0A.jpg2022-05-09 09:42 32K 
[IMG]N7ajHnEyBFz8jRn.jpg2022-05-09 09:42 23K 
[IMG]QE1qcCsgvvLQ09j.jpg2022-05-09 09:42 20K 
[IMG]sMYoewsmoGO3ex3.jpg2022-05-09 09:42 32K 
[IMG]gQUjCyJyzhzhkOM.jpg2022-05-09 09:42 25K 
[IMG]N2vtxLRPM6vRKj9.jpg2022-05-09 09:42 24K 
[IMG]SLh9kp87ZYc5ElH.jpg2022-05-09 09:42 21K 
[IMG]UpIdu1i1IVZD9gP.jpg2022-05-09 09:43 22K 
[IMG]xmqd1aPmL5PlB2b.jpg2022-05-09 09:43 28K 
[IMG]HbC5KfDsG8NlWch.jpg2022-05-09 09:43 36K 
[IMG]9F5yWFmCOF34lzR.jpg2022-05-09 09:43 29K 
[IMG]KhioGXZQao5In2E.jpg2022-05-09 09:43 22K 
[IMG]cLBuJVxOpdWDxls.jpg2022-05-09 09:43 20K 
[IMG]qCzB8MZZx1zxZKU.jpg2022-05-09 09:43 18K 
[IMG]t3ZQ78Ozf9LkmVc.jpg2022-05-09 09:43 56K 
[IMG]FeNzpaPUh8Kh4PY.jpg2022-05-09 09:43 23K 
[IMG]cA8clEANQRc4WjJ.jpg2022-05-09 09:43 19K 
[IMG]5FKxPamPpBRrvW3.jpg2022-05-09 09:44 20K 
[IMG]LLF7UTQppJLqgck.jpg2022-05-09 09:44 19K 
[IMG]QyrIZ6RlhnQatPw.jpg2022-05-09 09:44 27K 
[IMG]h7d4QgPwaekYBI1.jpg2022-05-09 09:44 12K 
[IMG]h9qHwk8rpuGqyG3.jpg2022-05-09 09:44 14K 
[IMG]7ZP0euFMW0IrFwz.jpg2022-05-09 09:44 5.0K 
[IMG]xqPHEeUItB6wuLl.jpg2022-05-09 09:45 32K 
[IMG]rq1lljor9CJRKlF.jpg2022-05-09 09:45 28K 
[IMG]l0k8rDsUvj7i6sh.jpg2022-05-09 09:45 46K 
[IMG]vZg6OUIUZvbt8iq.jpg2022-05-09 09:45 86K 
[IMG]d8ux6WVBaWA1Rqg.jpg2022-05-09 09:45 14K 
[IMG]Yl1lvCwUxFHt6G9.jpg2022-05-09 09:45 26K 
[IMG]8Ykb6qDy1YBR5eT.jpg2022-05-09 09:45 34K 
[IMG]0YwWpD9IJilenbi.jpg2022-05-09 09:45 50K 
[IMG]P33dbc9yoPLCWHY.jpg2022-05-09 09:45 46K 
[IMG]xg6ZXy9hqGYFWCe.jpg2022-05-09 09:46 8.5K 
[IMG]iEO5hNOC00a6ApW.jpg2022-05-09 09:46 15K 
[IMG]052uy0oGPlPi0Ke.jpg2022-05-09 09:46 53K 
[IMG]AFOkAaENAOBEp0T.jpg2022-05-09 09:46 61K 
[IMG]zf4hWtkOw6E7bKI.jpg2022-05-09 09:46 21K 
[IMG]5lNwPbAUdaB9XJy.jpg2022-05-09 09:46 7.4K 
[IMG]638h21dZ3NtKeQB.jpg2022-05-09 09:46 18K 
[IMG]YmaiD6U3WWyGk9V.jpg2022-05-09 09:47 6.6K 
[IMG]9avTd9L6FeDmJCM.jpg2022-05-09 09:47 13K 
[IMG]IHioegNQ0JiGL8N.jpg2022-05-09 09:47 13K 
[IMG]HIBeDafUDG6v74e.jpg2022-05-09 09:48 35K 
[IMG]43T3mzMLHxAAOtW.jpg2022-05-09 09:48 55K 
[IMG]tyKTpXi77Xl4ERY.jpg2022-05-09 09:48 53K 
[IMG]gpT5k4NrFAQ43B1.jpg2022-05-09 09:48 13K 
[IMG]bJKpzDg5aXSssvI.jpg2022-05-09 09:48 56K 
[IMG]p125fK60vaWbxRK.jpg2022-05-09 09:48 15K 
[IMG]c6D3qKiTCM7zttB.jpg2022-05-09 09:48 1.1K 
[IMG]oC2awTF7ppXMa8b.jpg2022-05-09 09:48 27K 
[IMG]yjCdwqvRhkEraXP.jpg2022-05-09 09:48 27K 
[IMG]FwZlN8xjAF2Po6w.jpg2022-05-09 09:48 32K 
[IMG]9UFWzq3weuxbTyp.jpg2022-05-09 09:48 30K 
[IMG]qh58mJ0XfIN9FEI.jpg2022-05-09 09:49 22K 
[IMG]TDW1LDOoBAmiZmU.jpg2022-05-09 09:49 24K 
[IMG]ZrSOJuooAG2PNRP.jpg2022-05-09 09:49 23K 
[IMG]wgAW6jWjwUGtKz7.jpg2022-05-09 09:49 12K 
[IMG]6dkboeB7dL030P5.jpg2022-05-09 09:49 12K 
[IMG]cT1cqXVOmQ2cnIl.jpg2022-05-09 09:49 14K 
[IMG]VsFqQL8PE1Dzc8K.jpg2022-05-09 09:49 15K 
[IMG]qDxwBv0XmLE0DVB.jpg2022-05-09 09:49 13K 
[IMG]C3fyOWwr0iClWkg.jpg2022-05-09 09:49 8.0K 
[IMG]DsYcu9eUUCAvAyk.jpg2022-05-09 09:49 9.3K 
[IMG]4UXgy6nCDfJHrLc.jpg2022-05-09 09:49 12K 
[IMG]L7E798qzT0VXk2X.jpg2022-05-09 09:49 3.9K 
[IMG]5UxUMwy2Uz9uShY.jpg2022-05-09 09:50 23K 
[IMG]bLWl20IR2Ra2U9u.jpg2022-05-09 09:50 12K 
[IMG]XvNXuvZEbisIcrL.jpg2022-05-09 09:50 29K 
[IMG]qtizCdY4rcfMi0l.jpg2022-05-09 09:50 29K 
[IMG]uMl5wQFEVi1w07f.jpg2022-05-09 09:50 25K 
[IMG]I5sK9L3fApndVoT.jpg2022-05-09 09:50 25K 
[IMG]8W6bBKsLVs3lJbe.jpg2022-05-09 09:51 14K 
[IMG]IBIpUKHQNXR7tw7.jpg2022-05-09 09:51 37K 
[IMG]GTwYLayGVkxkWbq.jpg2022-05-09 09:51 35K 
[IMG]wmNBKNDuTUAXH8l.jpg2022-05-09 09:51 35K 
[IMG]SBLwGj4i2YlBCbS.jpg2022-05-09 09:52 15K 
[IMG]x8ky1u7DAF9BDoc.jpg2022-05-09 09:52 15K 
[IMG]rDQsBvvSnvG8tDg.jpg2022-05-09 09:52 26K 
[IMG]hvSoSWKqo2dNTK7.jpg2022-05-09 09:52 23K 
[IMG]2AmutDDsnHkjaip.jpg2022-05-09 09:52 23K 
[IMG]PUvzeCsPNhdtCAS.jpg2022-05-09 09:52 22K 
[IMG]7nrAw9watsKsBOm.jpg2022-05-09 09:52 45K 
[IMG]wdjUk1EjDF2xQI2.jpg2022-05-09 09:53 25K 
[IMG]xlZZgD9U9IAaRjh.jpg2022-05-09 09:53 25K 
[IMG]RZsEBQ0dlDcYNbh.jpg2022-05-09 09:53 22K 
[IMG]4tYnipvRkh1w4dF.jpg2022-05-09 09:53 15K 
[IMG]HSCtYztyqT5kMgC.jpg2022-05-09 09:53 13K 
[IMG]1TFkdKuaHrAz3Gd.jpg2022-05-09 09:53 13K 
[IMG]dp9gKsQzsQvijIq.jpg2022-05-09 09:54 17K 
[IMG]ekrFMmDDtZI3csx.jpg2022-05-09 09:54 17K 
[IMG]fDHcBzyGtzUVsWD.jpg2022-05-09 09:54 9.8K 
[IMG]MLzc2YpZcnSMY8n.jpg2022-05-09 09:54 11K 
[IMG]lId1Yz5cwHfDLB0.jpg2022-05-09 09:54 16K 
[IMG]wPntgxszrOPBq8H.jpg2022-05-09 09:54 16K 
[IMG]r4vKgbHkXcmWtml.jpg2022-05-09 09:54 8.6K 
[IMG]rnGxdO9H6iiukUZ.jpg2022-05-09 09:54 8.6K 
[IMG]1Co6FqLVu9kZLYF.jpg2022-05-09 09:55 11K 
[IMG]xhi5Iot12bTv89k.jpg2022-05-09 09:55 11K 
[IMG]KTFPrZSKNxmtyOn.jpg2022-05-09 09:55 7.0K 
[IMG]j6siQ37GTz923NY.jpg2022-05-09 09:55 7.0K 
[IMG]OtErKBm1cvPXbFP.jpg2022-05-09 09:55 16K 
[IMG]Jh4Qwfi79BBzP0x.jpg2022-05-09 09:56 7.1K 
[IMG]lpwDNcVA7Iu3lxu.jpg2022-05-09 09:56 7.1K 
[IMG]gw3qehk18KHv2CE.jpg2022-05-09 09:56 16K 
[IMG]cXruR8LtpY1QT77.jpg2022-05-09 09:56 16K 
[IMG]QSg39BdEuQJ1mFQ.jpg2022-05-09 09:56 22K 
[IMG]AM3tMGu9XJ8k88J.jpg2022-05-09 09:56 9.2K 
[IMG]0gc6tvdq4c3BlwV.jpg2022-05-09 09:56 12K 
[IMG]nZ4Vnl0N28PeLz0.jpg2022-05-09 09:56 13K 
[IMG]2vXvInsd0kLJiDU.jpg2022-05-09 09:57 28K 
[IMG]aV6rDWyYdfz2a3P.jpg2022-05-09 09:57 16K 
[IMG]vWm0GIISBGQcUy4.jpg2022-05-09 09:57 38K 
[IMG]DCsKixEp7rWagzl.jpg2022-05-09 09:57 16K 
[IMG]TLcz5azAkPBPOXI.jpg2022-05-09 09:57 16K 
[IMG]VuwExyPY7PR9ugl.jpg2022-05-09 09:57 20K 
[IMG]eFT34jx8DtWQavd.jpg2022-05-09 09:57 20K 
[IMG]72i7hq62PleTKxd.jpg2022-05-09 09:57 22K 
[IMG]VubdhdrQkrEX6NQ.jpg2022-05-09 09:57 7.9K 
[IMG]d2kVZrHI9oB2MrJ.jpg2022-05-09 09:58 21K 
[IMG]1iWwOUF7WGl0k6z.jpg2022-05-09 09:58 34K 
[IMG]Vs4wh0jojntAQ0E.jpg2022-05-09 09:58 29K 
[IMG]CWxGUG7bwzXTEWJ.jpg2022-05-09 09:58 16K 
[IMG]IoSZa45MZgtPB79.jpg2022-05-09 09:58 23K 
[IMG]4WjFpOYZyfiF4CW.jpg2022-05-09 09:58 13K 
[IMG]f0vqaifv2ZB3OPT.jpg2022-05-09 09:59 17K 
[IMG]soVGrxkMeY8KuCV.jpg2022-05-09 09:59 16K 
[IMG]msvqgg2LHW8IFJO.jpg2022-05-09 09:59 24K 
[IMG]pDcvcTstJlD1a8v.jpg2022-05-09 09:59 3.6K 
[IMG]lmXCLpU6CYEE478.jpg2022-05-09 09:59 3.4K 
[IMG]pamdpsKCKBcM1N6.jpg2022-05-09 09:59 5.4K 
[IMG]DXsKCKnl7DyvyQm.jpg2022-05-09 09:59 17K 
[IMG]vuaTBM1g91rqlGa.jpg2022-05-09 09:59 33K 
[IMG]5Vl4FUurHUwxIqP.jpg2022-05-09 09:59 43K 
[IMG]KY3Wkume9ZE91uG.jpg2022-05-09 10:00 13K 
[IMG]tcLFA2j62gKDoGf.jpg2022-05-09 10:00 8.9K 
[IMG]5g7mTStwsLFd0R8.jpg2022-05-09 10:00 11K 
[IMG]jfkFYhepIIHiWXm.jpg2022-05-09 10:00 7.7K 
[IMG]px2v2xmwVTydo8I.jpg2022-05-09 10:00 8.4K 
[IMG]lOs2ZHhQXS1AJSr.jpg2022-05-09 10:00 12K 
[IMG]fO3cdZtCEfoAfDU.jpg2022-05-09 10:00 3.2K 
[IMG]D1pbbDX7aG6pji5.jpg2022-05-09 10:00 8.0K 
[IMG]Lsn8EsIldYOTd59.jpg2022-05-09 10:01 7.8K 
[IMG]PCjFw9XtgrrrZv4.jpg2022-05-09 10:01 9.9K 
[IMG]16zzbZDxxKGEVqs.jpg2022-05-09 10:01 14K 
[IMG]r9bENjz16d2nWqi.jpg2022-05-09 10:01 6.3K 
[IMG]1xhWEjV4ucvz1Za.jpg2022-05-09 10:01 7.7K 
[IMG]1wRHq0EdBamBxva.jpg2022-05-09 10:01 12K 
[IMG]ijgIEucHBDW2SHd.jpg2022-05-09 10:01 9.1K 
[IMG]Phd7Y5qpq1b0YfO.jpg2022-05-09 10:01 11K 
[IMG]H5YbSwLLUTqYsyg.jpg2022-05-09 10:01 13K 
[IMG]maXbNyY0xbHhF9N.jpg2022-05-09 10:02 6.2K 
[IMG]fdPNyb1eeH7YHYY.jpg2022-05-09 10:02 7.1K 
[IMG]DQe3MuGcnTrrS5r.jpg2022-05-09 10:02 13K 
[IMG]FzOvdrd4cC2VdlJ.jpg2022-05-09 10:02 7.6K 
[IMG]8tkmjPeEOutl84H.jpg2022-05-09 10:02 8.8K 
[IMG]n4uvFYu87RHhwXj.jpg2022-05-09 10:02 7.1K 
[IMG]MjmRb7lBt2ZsK8d.jpg2022-05-09 10:02 9.7K 
[IMG]acEcg3iJJ68yFeE.jpg2022-05-09 10:02 13K 
[IMG]G9y5GpvS3qpi42w.jpg2022-05-09 10:03 7.9K 
[IMG]I6sGqIbs0rkZSWB.jpg2022-05-09 10:03 9.5K 
[IMG]KcNYlyx0T8Ziy3J.jpg2022-05-09 10:03 12K 
[IMG]QRX6n5IPCbpntDH.jpg2022-05-09 10:03 5.9K 
[IMG]HuNlRceVJcs16NK.jpg2022-05-09 10:03 8.2K 
[IMG]RAnMkaKIrnTbnZf.jpg2022-05-09 10:03 7.4K 
[IMG]TbgDyKXZxIJ8olm.jpg2022-05-09 10:03 5.7K 
[IMG]GMvo46IRWhl9JIy.jpg2022-05-09 10:03 6.3K 
[IMG]LintKF3zHcqVPlb.jpg2022-05-09 10:03 7.2K 
[IMG]jOyCAZKaU4GPLjo.jpg2022-05-09 10:03 9.9K 
[IMG]hpfEY6lVCp2m4Gt.jpg2022-05-09 10:04 5.1K 
[IMG]KORUnDipsap7UqI.jpg2022-05-09 10:04 5.1K 
[IMG]QrYKRSiXHNNr3Df.jpg2022-05-09 10:04 7.0K 
[IMG]g0WBwQ61PkPhOz4.jpg2022-05-09 10:04 5.7K 
[IMG]8xuLIKkllWF5qz5.jpg2022-05-09 10:04 6.5K 
[IMG]YtBZuYrj7ONBT62.jpg2022-05-09 10:04 7.3K 
[IMG]UqFHTNx72cWLq6V.jpg2022-05-09 10:04 12K 
[IMG]2RmMvODaBMJzgWd.jpg2022-05-09 10:04 5.1K 
[IMG]ewXWdm6RB94UXCz.jpg2022-05-09 10:04 6.1K 
[IMG]MuC4J65LwJ7w9ue.jpg2022-05-09 10:04 7.2K 
[IMG]D6qixW3iG4rYuM7.jpg2022-05-09 10:04 8.7K 
[IMG]inlvI2P0D4se81q.jpg2022-05-09 10:05 5.2K 
[IMG]HaWaJWncQnrn7lm.jpg2022-05-09 10:05 9.0K 
[IMG]ILLEDfL5ccsm61p.jpg2022-05-09 10:05 7.5K 
[IMG]wBL4SL422JNrsyw.jpg2022-05-09 10:05 9.1K 
[IMG]wSVKDAEaTjaw0Mz.jpg2022-05-09 10:05 5.3K 
[IMG]velWy1fgq3mvmEd.jpg2022-05-09 10:05 5.6K 
[IMG]A1AokSzWpfjMlWn.jpg2022-05-09 10:05 7.0K 
[IMG]AMlDbQjab4UCTnm.jpg2022-05-09 10:05 10K 
[IMG]cWE3VWsT4igD14O.jpg2022-05-09 10:06 6.9K 
[IMG]6pdTY9wASqG2SXO.jpg2022-05-09 10:06 6.7K 
[IMG]I8P7eRSQs09lTeH.jpg2022-05-09 10:06 8.6K 
[IMG]0x9vq1dkRc1XHHU.jpg2022-05-09 10:06 13K 
[IMG]WQAXNegF8L00jHQ.jpg2022-05-09 10:06 5.6K 
[IMG]9n19ARW8g8GvRI3.jpg2022-05-09 10:06 6.3K 
[IMG]9YwVeAoSXmn5xRM.jpg2022-05-09 10:06 7.8K 
[IMG]IAHOycOBGNi1r3g.jpg2022-05-09 10:06 8.8K 
[IMG]d2gRA3jF6v2G2Q2.jpg2022-05-09 10:06 5.7K 
[IMG]p1wFLO9HVFqIjvG.jpg2022-05-09 10:06 5.9K 
[IMG]DSeoQLdTMc4QNIV.jpg2022-05-09 10:06 7.5K 
[IMG]EMOEnDFuoVml5Zq.jpg2022-05-09 10:06 9.3K 
[IMG]mwCnpcjoU8hcja8.jpg2022-05-09 10:07 6.0K 
[IMG]9mtZStDAJCndDmF.jpg2022-05-09 10:07 7.3K 
[IMG]0wUyum71TGTm1wb.jpg2022-05-09 10:07 7.7K 
[IMG]2b7u1yn2OP7mYIQ.jpg2022-05-09 10:07 9.2K 
[IMG]B3IAxQrT7HDnQcM.jpg2022-05-09 10:07 6.0K 
[IMG]fLNzKOzEJSo1l91.jpg2022-05-09 10:07 6.3K 
[IMG]r1ngdQdyk48PkmA.jpg2022-05-09 10:07 6.0K 
[IMG]8tLYSmwCKErQYnU.jpg2022-05-09 10:07 8.3K 
[IMG]PpwF7aLj6YCRhzz.jpg2022-05-09 10:07 6.9K 
[IMG]SLDSJmNUpbuVPBH.jpg2022-05-09 10:07 8.0K 
[IMG]WiXxefnb9OS5wzs.jpg2022-05-09 10:08 8.8K 
[IMG]rdtLcVWpO2W2EDc.jpg2022-05-09 10:08 8.6K 
[IMG]i2iNSvfXQ4gUCRg.jpg2022-05-09 10:08 6.9K 
[IMG]z3XmaDanwvLBKCI.jpg2022-05-09 10:08 8.2K 
[IMG]Vl0ICuMziO5R2a3.jpg2022-05-09 10:08 35K 
[IMG]yPsXar8rPx6qMI2.jpg2022-05-09 10:08 54K 
[IMG]f8o7qxJ8o3xEAkB.jpg2022-05-09 10:08 53K 
[IMG]SfKVOSiI7fMjdDM.jpg2022-05-09 10:08 13K 
[IMG]mlYlXxZLJltKPRy.jpg2022-05-09 10:08 56K 
[IMG]NyZwuafUEOuaQ7M.jpg2022-05-09 10:09 35K 
[IMG]G1ZNKViApRwAX7a.jpg2022-05-09 10:09 55K 
[IMG]ZpuFYQHroBcqs0x.jpg2022-05-09 10:09 53K 
[IMG]AYWA9ct6LaWM1GB.jpg2022-05-09 10:09 13K 
[IMG]cJQS6KKfTb1SLUx.jpg2022-05-09 10:09 56K 
[IMG]MdeLNiaXgwuc5mP.jpg2022-05-09 10:09 9.5K 
[IMG]fvxkQjR76IiOKZp.jpg2022-05-09 10:09 35K 
[IMG]qpwAwwprZFZF20f.jpg2022-05-09 10:09 54K 
[IMG]RZ3hGWtCGF7DDm2.jpg2022-05-09 10:09 53K 
[IMG]n3u0NttNolMxXqI.jpg2022-05-09 10:09 13K 
[IMG]ewO2DTwrWt9loI2.jpg2022-05-09 10:09 56K 
[IMG]oWKG9ZsozXFy1o0.jpg2022-05-09 10:10 35K 
[IMG]WZxR4V2Jwf8d7OJ.jpg2022-05-09 10:10 54K 
[IMG]uGEXnLFaf4iaSIU.jpg2022-05-09 10:10 53K 
[IMG]HfLv2JiaaVbMUNJ.jpg2022-05-09 10:10 13K 
[IMG]UrLzNudnbUm36ZP.jpg2022-05-09 10:10 56K 
[IMG]a4uZfgSiLqJAlNB.jpg2022-05-09 10:10 35K 
[IMG]OVQ9KxyE0Owf0Ve.jpg2022-05-09 10:10 54K 
[IMG]Kwgi4b2dIOgB3Bh.jpg2022-05-09 10:10 53K 
[IMG]S3rPozOLYVrZD42.jpg2022-05-09 10:10 13K 
[IMG]1JhYWCkJDTyKrfO.jpg2022-05-09 10:10 56K 
[IMG]NIFCdTDWkWngduP.jpg2022-05-09 10:11 10K 
[IMG]AyopyzcK2lVVYe1.jpg2022-05-09 10:11 23K 
[IMG]FMPBYpm5k3ZSNnH.jpg2022-05-09 10:11 41K 
[IMG]Tqj58dlMJC7eo5A.jpg2022-05-09 10:11 27K 
[IMG]CkBf0pPMBUvKPsS.jpg2022-05-09 10:11 107K 
[IMG]rZlu96SLEPojFiT.jpg2022-05-09 10:11 90K 
[IMG]tXzBjO5wUj5eJ9a.jpg2022-05-09 10:11 70K 
[IMG]26544EjDhgcxE4p.jpg2022-05-09 10:11 14K 
[IMG]MAGpiynV6GKkkdY.jpg2022-05-09 10:11 26K 
[IMG]0eVQfP5lNtPLW4q.jpg2022-05-09 10:11 41K 
[IMG]KROYJUEuWLf95DY.jpg2022-05-09 10:11 27K 
[IMG]HhgaHqLqhyfm1pc.jpg2022-05-09 10:11 107K 
[IMG]rytS4JboC0hORZ8.jpg2022-05-09 10:11 90K 
[IMG]a1kfGj6lWMrtuXZ.jpg2022-05-09 10:11 70K 
[IMG]upfivHd8Lip3Fqo.jpg2022-05-09 10:12 13K 
[IMG]hDF1sv6sRErpOKD.jpg2022-05-09 10:12 26K 
[IMG]mqyoXmny1kFuM9v.jpg2022-05-09 10:12 27K 
[IMG]LyYR5VaAL9NPY37.jpg2022-05-09 10:12 45K 
[IMG]VCAyZLHmg7gwff7.jpg2022-05-09 10:12 107K 
[IMG]sjjo7VP02Deh1Ee.jpg2022-05-09 10:12 90K 
[IMG]4nfIXKHlHcbjh0j.jpg2022-05-09 10:12 70K 
[IMG]tBFCSEemXh46n7R.jpg2022-05-09 10:12 19K 
[IMG]6LUNOgUiPcIHQj7.jpg2022-05-09 10:12 19K 
[IMG]gV5DDsLbnJwLsgE.jpg2022-05-09 10:12 35K 
[IMG]NymQf7IuDoAObvs.jpg2022-05-09 10:12 38K 
[IMG]sFByeUJ3jOVRNe1.jpg2022-05-09 10:12 40K 
[IMG]0zgTU5wX2z3SC4u.jpg2022-05-09 10:13 27K 
[IMG]NvN56f2B4XTUuZB.jpg2022-05-09 10:13 24K 
[IMG]OByNd2RivvW43uz.jpg2022-05-09 10:13 17K 
[IMG]CkypF3MoDJJcVfy.jpg2022-05-09 10:13 20K 
[IMG]qIOd4O3V5FAhMQT.jpg2022-05-09 10:13 24K 
[IMG]9B3N69SpuoPJI2G.jpg2022-05-09 10:13 56K 
[IMG]20HFUkFxORVbGWL.jpg2022-05-09 10:13 14K 
[IMG]SbawSduntkl3KUd.jpg2022-05-09 10:14 35K 
[IMG]8ZZAyUCyq1N1Z6M.jpg2022-05-09 10:14 55K 
[IMG]1TJXtEEHFxT7A8B.jpg2022-05-09 10:14 53K 
[IMG]GxmRRQ3uFKQTma1.jpg2022-05-09 10:14 13K 
[IMG]2ux9PVUxcloFkxZ.jpg2022-05-09 10:14 56K 
[IMG]6Ozl95Y3snylxpk.jpg2022-05-09 10:14 35K 
[IMG]X3R3FZMGKCqMzeI.jpg2022-05-09 10:14 55K 
[IMG]7kIQRCqoZaDZVKx.jpg2022-05-09 10:14 53K 
[IMG]0hsHvcFCLST6yHK.jpg2022-05-09 10:14 13K 
[IMG]mmoMVKCNbunyzwl.jpg2022-05-09 10:14 56K 
[IMG]CITmuy3mWo5TTAo.jpg2022-05-09 10:15 13K 
[IMG]hu3BTTQu8z2RqEb.jpg2022-05-09 10:15 26K 
[IMG]Lrq8DM5VLdUF6Wx.jpg2022-05-09 10:15 41K 
[IMG]93oX0VOFb2yPeQR.jpg2022-05-09 10:15 27K 
[IMG]trxVlm0cMBXQCyb.jpg2022-05-09 10:15 107K 
[IMG]369YAz8AYIY2nDx.jpg2022-05-09 10:15 90K 
[IMG]vk0L4taB3RkxjzJ.jpg2022-05-09 10:15 70K 
[IMG]PBs6DDUfsgD6hqY.jpg2022-05-09 10:15 18K 
[IMG]zvCXtpAJ8Pzs9Bc.jpg2022-05-09 10:15 54K 
[IMG]FXUtjFdT4e6sxrz.jpg2022-05-09 10:16 35K 
[IMG]cBAV3gaPsZBPBhx.jpg2022-05-09 10:16 23K 
[IMG]67AoP2MQ4FMSfTF.jpg2022-05-09 10:16 25K 
[IMG]exh9ZPjKt0xCCiJ.jpg2022-05-09 10:16 30K 
[IMG]OTmCuuCRRZIcfRy.jpg2022-05-09 10:16 34K 
[IMG]outF18JDY8vcmDV.jpg2022-05-09 10:16 37K 
[IMG]aLlPwUz3nd0cxT7.jpg2022-05-09 10:16 122K 
[IMG]TxZbwLOt8dmlmvV.jpg2022-05-09 10:16 4.6K 
[IMG]IwDF8GQjDiHCqYW.jpg2022-05-09 10:16 4.9K 
[IMG]eZ4PtcCYYlZBABq.jpg2022-05-09 10:17 24K 
[IMG]4SEz2OYvaCmiLGF.jpg2022-05-09 10:17 6.3K 
[IMG]wp6cvBIRq0k5FTr.jpg2022-05-09 10:17 8.5K 
[IMG]C21GaqfuC0nAaED.jpg2022-05-09 10:17 22K 
[IMG]iEWjmxvk5HRenzW.jpg2022-05-09 10:17 49K 
[IMG]eZxohI24wuKWeAL.jpg2022-05-09 10:18 17K 
[IMG]GnyylhIOS1GIrdR.jpg2022-05-09 10:18 4.8K 
[IMG]amxa6BNd60dllBg.jpg2022-05-09 10:18 7.1K 
[IMG]WdB15nPYsnyGjwl.jpg2022-05-09 10:18 9.6K 
[IMG]CcuZmA7uEpz7rda.jpg2022-05-09 10:18 21K 
[IMG]UgqSA3DPZLhrXFx.jpg2022-05-09 10:18 5.6K 
[IMG]e09bKu091E5B6O2.jpg2022-05-09 10:19 22K 
[IMG]5wa77a0o0cx5ZRw.jpg2022-05-09 10:20 13K 
[IMG]qqfRy1p4iyV96eY.jpg2022-05-09 10:20 8.4K 
[IMG]nqECl1lESsEmYIL.jpg2022-05-09 10:20 34K 
[IMG]g3acd1tUPHO7lkt.jpg2022-05-09 10:20 12K 
[IMG]n9ymY1T8KjlTVx9.jpg2022-05-09 10:20 32K 
[IMG]H8b4fFXApkR3xxq.jpg2022-05-09 10:21 25K 
[IMG]I3twl3vRauGDyKr.jpg2022-05-09 10:21 9.0K 
[IMG]9ZJdNhihaUy00o5.jpg2022-05-09 10:21 9.0K 
[IMG]yjM7AMu5iLwYlzj.jpg2022-05-09 10:21 8.4K 
[IMG]SxfKj9xBtSWTzz3.jpg2022-05-09 10:21 60K 
[IMG]R7s5ugJJVvS9mty.jpg2022-05-09 10:21 35K 
[IMG]X5lmXDyC1Ornh6g.jpg2022-05-09 10:21 14K 
[IMG]d6Es2jxeUxR8qV9.jpg2022-05-09 10:21 66K 
[IMG]7rd4PLMliw68FBq.jpg2022-05-09 10:21 39K 
[IMG]1wa3ilhA1pCUIHV.jpg2022-05-09 10:21 53K 
[IMG]cMftrq9bWHWiFIz.jpg2022-05-09 10:21 39K 
[IMG]Io2pHV1gkZkKerg.jpg2022-05-09 10:21 40K 
[IMG]Dhph6eoHC6222wP.jpg2022-05-09 10:21 48K 
[IMG]n5xz88Ud5EOrUOi.jpg2022-05-09 10:21 69K 
[IMG]DiHHWD5jdWvAGHn.jpg2022-05-09 10:21 45K 
[IMG]j8ZyTXxExHR2Nq7.jpg2022-05-09 10:21 52K 
[IMG]33vyPVt0BsX5YLQ.jpg2022-05-09 10:21 45K 
[IMG]yN7Ti6QoSpvmIpx.jpg2022-05-09 10:21 32K 
[IMG]84hlWdgk01xGspS.jpg2022-05-09 10:21 109K 
[IMG]q08PfwHJhRkv9yk.jpg2022-05-09 10:21 31K 
[IMG]JNBk3zHp9XwEN3I.jpg2022-05-09 10:21 32K 
[IMG]k4FeVyrlkDHDaEn.jpg2022-05-09 10:21 48K 
[IMG]irJhcrcQYpLE2gB.jpg2022-05-09 10:21 59K 
[IMG]NOgLlhHSf1y6VMD.jpg2022-05-09 10:21 54K 
[IMG]otmaAjzzNlHa8y4.jpg2022-05-09 10:21 54K 
[IMG]1O4wBcFkPaPwgMO.jpg2022-05-09 10:21 11K 
[IMG]bgYOuDlcyMq7IkZ.jpg2022-05-09 10:21 39K 
[IMG]hkFt3bhgX6Anv6H.jpg2022-05-09 10:21 64K 
[IMG]e8nbfZXfHc7tdME.jpg2022-05-09 10:21 56K 
[IMG]uX3J9jA7r6Geffw.jpg2022-05-09 10:21 45K 
[IMG]yhlloVB1I9Wir8A.jpg2022-05-09 10:21 47K 
[IMG]wHoZIlEb1AN9foi.jpg2022-05-09 10:21 42K 
[IMG]v74LsecCDZMOKWQ.jpg2022-05-09 10:21 37K 
[IMG]BUHEqWBcJS7qSqZ.jpg2022-05-09 10:21 54K 
[IMG]QCkd5BvWNgXe0kb.jpg2022-05-09 10:21 131K 
[IMG]pSGVV0zbukfsk3U.jpg2022-05-09 10:21 54K 
[IMG]QzgS5B77mcjFHi4.jpg2022-05-09 10:21 49K 
[IMG]zIe0QSTpGS6PoSi.jpg2022-05-09 10:21 42K 
[IMG]ZxRY4W6hOLkKLnK.jpg2022-05-09 10:21 52K 
[IMG]N6K5VmZqQaOL7l4.jpg2022-05-09 10:21 27K 
[IMG]CqGnK6JWQCKVwtQ.jpg2022-05-09 10:21 43K 
[IMG]k8BbbVrPxcvWAaS.jpg2022-05-09 10:22 48K 
[IMG]PaulYtzaLAlm5Z9.jpg2022-05-09 10:22 43K 
[IMG]68qvINZ0ylHzo94.jpg2022-05-09 10:22 46K 
[IMG]1WmGNosLXJhheGk.jpg2022-05-09 10:22 30K 
[IMG]nFsz4gwpCPT5eyR.jpg2022-05-09 10:22 73K 
[IMG]9AlTDgHmXKBxr3T.jpg2022-05-09 10:22 34K 
[IMG]ANm1XOEpj2lIVHQ.jpg2022-05-09 10:22 16K 
[IMG]OGkqxaDxA1q3WT0.jpg2022-05-09 10:22 28K 
[IMG]SOIyG4yyMAuLBDC.jpg2022-05-09 10:22 4.4K 
[IMG]LwGrIl4O6342vOC.jpg2022-05-09 10:22 19K 
[IMG]Dd62xyparOf8SoT.jpg2022-05-09 10:22 42K 
[IMG]ZmE9rTFS0L3iQMF.jpg2022-05-09 10:22 27K 
[IMG]ihXj09NwwtGpoOw.jpg2022-05-09 10:22 30K 
[IMG]PQPPiyaQtkLBoRE.jpg2022-05-09 10:22 59K 
[IMG]3xZTjr8MMEG7Rp9.jpg2022-05-09 10:22 50K 
[IMG]crG003XEVHjef33.jpg2022-05-09 10:22 51K 
[IMG]CPiEZZx9dx5UkMC.jpg2022-05-09 10:22 43K 
[IMG]QcXRN8fS0Crzkqc.jpg2022-05-09 10:22 32K 
[IMG]IBlRmV59gPL8tFX.jpg2022-05-09 10:22 38K 
[IMG]dXLOSPs4oQ1HBvk.jpg2022-05-09 10:22 51K 
[IMG]RWiRdiLWOEEd7Mc.jpg2022-05-09 10:22 68K 
[IMG]m9CmzqIM6u3FrEu.jpg2022-05-09 10:22 41K 
[IMG]ltjaE4JlpeMl7nh.jpg2022-05-09 10:22 36K 
[IMG]c3MoC7xpFgvl81x.jpg2022-05-09 10:22 45K 
[IMG]BXhhq14Us6jZDfU.jpg2022-05-09 10:22 23K 
[IMG]VqW6sUsXvobMTof.jpg2022-05-09 10:22 32K 
[IMG]K0nDcKrShJjTQdv.jpg2022-05-09 10:22 31K 
[IMG]DWxNdlk0k69L6Po.jpg2022-05-09 10:22 51K 
[IMG]onKQ5CdMqrFQ3BM.jpg2022-05-09 10:22 51K 
[IMG]m4AJr585clkkmvV.jpg2022-05-09 10:22 61K 
[IMG]QhiKN7KB0eIHoxV.jpg2022-05-09 10:22 37K 
[IMG]bThih0txAMpnfLL.jpg2022-05-09 10:22 36K 
[IMG]NsfTU1v5Lt8rC8t.jpg2022-05-09 10:22 46K 
[IMG]eOTvj49J6bpl0sJ.jpg2022-05-09 10:22 47K 
[IMG]uoXpddB0cXgiQXk.jpg2022-05-09 10:22 29K 
[IMG]5df9ltdj5YxNrcL.jpg2022-05-09 10:22 31K 
[IMG]NaKP3Wv2TqCDjKf.jpg2022-05-09 10:22 37K 
[IMG]8Ofyc5pbPPGK3K0.jpg2022-05-09 10:22 61K 
[IMG]oR2B3bz2ACqVHgm.jpg2022-05-09 10:22 69K 
[IMG]vTIinf84NXZIxgN.jpg2022-05-09 10:22 58K 
[IMG]WNgJCZFmPYkp04b.jpg2022-05-09 10:22 37K 
[IMG]Zlav9epx3UfLVCC.jpg2022-05-09 10:22 44K 
[IMG]EBsA1uZtgDOVUEm.jpg2022-05-09 10:22 39K 
[IMG]OmaWxmJN26ZHBB8.jpg2022-05-09 10:22 35K 
[IMG]UDefc1fuKGpuBcR.jpg2022-05-09 10:22 57K 
[IMG]dsgkEeQr3lT96KM.jpg2022-05-09 10:22 225K 
[IMG]jx21c2dbxLHr0Kg.jpg2022-05-09 10:22 60K 
[IMG]u6Me11cFjjz75TO.jpg2022-05-09 10:22 54K 
[IMG]A9qJyHyxLU3JxJw.jpg2022-05-09 10:22 48K 
[IMG]tpOvRhbLJ7KTgFc.jpg2022-05-09 10:22 47K 
[IMG]aXf9iLOE2KBOieu.jpg2022-05-09 10:22 45K 
[IMG]qvyFQj0pplzNuya.jpg2022-05-09 10:22 38K 
[IMG]lWc8aXld2hvAtyU.jpg2022-05-09 10:22 218K 
[IMG]lJq1ePpf132mqj6.jpg2022-05-09 10:22 27K 
[IMG]Z97Ay0RdKq4h227.jpg2022-05-09 10:22 14K 
[IMG]rcpzHovwwxMmIyG.jpg2022-05-09 10:22 25K 
[IMG]1EOc7kiaxgQNp77.jpg2022-05-09 10:22 24K 
[IMG]VCsBorNBOWruK2p.jpg2022-05-09 10:22 43K 
[IMG]7jgJ6fRbUfWc4bZ.jpg2022-05-09 10:22 49K 
[IMG]4pmwQdzoI7NT7oo.jpg2022-05-09 10:22 2.9M 
[IMG]GVKX6tNYeMmjnXy.jpg2022-05-09 10:22 63K 
[IMG]1erEyLiZQrcoT7V.jpg2022-05-09 10:22 36K 
[IMG]r5Ba0VgiZaBoEHf.jpg2022-05-09 10:22 29K 
[IMG]QaJGeOLI71ECHdc.jpg2022-05-09 10:22 33K 
[IMG]cDhcF9k22m32b1p.jpg2022-05-09 10:22 44K 
[IMG]AkDNL66b4aBB0Yg.jpg2022-05-09 10:22 69K 
[IMG]A0r8JmgPjDRwwhG.jpg2022-05-09 10:22 9.0K 
[IMG]EvMa9DrDJ5e5GNq.jpg2022-05-09 10:22 54K 
[IMG]QiwDiiMUj7cz0Tz.jpg2022-05-09 10:22 14K 
[IMG]OpRUK7dkNe6Lqpq.jpg2022-05-09 10:22 62K 
[IMG]AKdp1T1NDbBVvqE.jpg2022-05-09 10:22 33K 
[IMG]eYQRAV2VF3Uwwtj.jpg2022-05-09 10:22 46K 
[IMG]8Fka7miYGWqIfgN.jpg2022-05-09 10:22 48K 
[IMG]objhBC6nWvfhT5v.jpg2022-05-09 10:22 42K 
[IMG]LkEpi5a3ll4duqq.jpg2022-05-09 10:22 39K 
[IMG]55V7zpZT50jnmrw.jpg2022-05-09 10:22 29K 
[IMG]aoJDCq2quxzDf2L.jpg2022-05-09 10:22 42K 
[IMG]j1hxn2wS283ps7y.jpg2022-05-09 10:22 37K 
[IMG]S1hhdW3kOUgikXV.jpg2022-05-09 10:22 39K 
[IMG]qFa2OMOcPFcilju.jpg2022-05-09 10:22 36K 
[IMG]0WbJLTOYCGin4zT.jpg2022-05-09 10:22 70K 
[IMG]xp2HCqIgmLmowTR.jpg2022-05-09 10:22 37K 
[IMG]DXisZTJ8evJp42S.jpg2022-05-09 10:22 70K 
[IMG]O1FytbuJH8AQ34o.jpg2022-05-09 10:22 46K 
[IMG]Ya5YX4Sa4FDrdE6.jpg2022-05-09 10:22 38K 
[IMG]u8fwQqhoPpnzNKN.jpg2022-05-09 10:22 41K 
[IMG]0UCndhxL5zcZsHU.jpg2022-05-09 10:22 58K 
[IMG]ej4Ge7jWvefbCpk.jpg2022-05-09 10:22 40K 
[IMG]j7wTvFxyJ19XWss.jpg2022-05-09 10:22 178K 
[IMG]7iAUidaYcLu9OWq.jpg2022-05-09 10:22 87K 
[IMG]Al0GbMDhxBZBMK7.jpg2022-05-09 10:22 38K 
[IMG]UdKQLvDaUqlNEic.jpg2022-05-09 10:22 50K 
[IMG]qiv0H50Lwb109LM.jpg2022-05-09 10:22 38K 
[IMG]TPQeKyZ3lZEz3Cg.jpg2022-05-09 10:22 64K 
[IMG]GyAkIvxxkzUYVSC.jpg2022-05-09 10:22 40K 
[IMG]KycQJOevfy0IH6p.jpg2022-05-09 10:22 32K 
[IMG]QiLs589BC8ea1uL.jpg2022-05-09 10:22 65K 
[IMG]6R5GOqns9tYyWgW.jpg2022-05-09 10:22 99K 
[IMG]5ri2LbUxexJ45Kx.jpg2022-05-09 10:22 62K 
[IMG]3efuAhRpLydI8iY.jpg2022-05-09 10:22 139K 
[IMG]9JTp7U1FZOE7EOc.jpg2022-05-09 10:22 30K 
[IMG]oe0FDxlEHlmk3Fy.jpg2022-05-09 10:22 35K 
[IMG]dlYZHLRxQlXLrii.jpg2022-05-09 10:22 44K 
[IMG]jGRBVVkz58A81hJ.jpg2022-05-09 10:22 42K 
[IMG]C7m2YmmTje24KLb.jpg2022-05-09 10:22 32K 
[IMG]3WrvSwrVamGRtkU.jpg2022-05-09 10:22 66K 
[IMG]Sgo3d2FSow6XDkp.jpg2022-05-09 10:22 39K 
[IMG]iDtNa8I1OrdVtXD.jpg2022-05-09 10:22 50K 
[IMG]8SlcvCLeW9nydmM.jpg2022-05-09 10:22 55K 
[IMG]0wZg6snYDR0i9f2.jpg2022-05-09 10:22 47K 
[IMG]NSEAg2jngYoGdBu.jpg2022-05-09 10:22 50K 
[IMG]S71om9LI2P7XvwX.jpg2022-05-09 10:22 58K 
[IMG]xL0EOgoZ2AuzcQQ.jpg2022-05-09 10:22 33K 
[IMG]Nr68jxWwibSjqsU.jpg2022-05-09 10:22 54K 
[IMG]TKxHAMJexGczKgs.jpg2022-05-09 10:22 61K 
[IMG]a1MqPpWUbS9Xlaf.jpg2022-05-09 10:22 17K 
[IMG]sQVHzn09QTDtWeE.jpg2022-05-09 10:22 51K 
[IMG]ykriGP2svQsenuf.jpg2022-05-09 10:22 57K 
[IMG]II5d8HrqbmjMlRB.jpg2022-05-09 10:22 9.7K 
[IMG]ZBoQQOUGb0OQ2GU.jpg2022-05-09 10:22 9.7K 
[IMG]TopEzCT8ZuCYF0O.jpg2022-05-09 10:22 18K 
[IMG]GIC3jnro4gKdBAX.jpg2022-05-09 10:22 14K 
[IMG]0c36A9kKeinIoC2.jpg2022-05-09 10:22 8.6K 
[IMG]jyDXUbiEJdj2b6i.jpg2022-05-09 10:22 70K 
[IMG]KaK8wlIByMXNUs6.jpg2022-05-09 10:22 67K 
[IMG]gVsO6aRFOwjkdMM.jpg2022-05-09 10:22 62K 
[IMG]V9dBnQiDC6xt48a.jpg2022-05-09 10:22 39K 
[IMG]PvimcjTF71v7bPj.jpg2022-05-09 10:22 61K 
[IMG]UuhE9VNvpQ3t75o.jpg2022-05-09 10:22 63K 
[IMG]y10dDCB6VWHxnT8.jpg2022-05-09 10:22 27K 
[IMG]zo1fWVarqcu5GtJ.jpg2022-05-09 10:22 88K 
[IMG]A3EH0LKb6v8rfLb.jpg2022-05-09 10:22 62K 
[IMG]uZBsc7k1DkQ2IeP.jpg2022-05-09 10:22 51K 
[IMG]5ZLS7aYcTzkBaRe.jpg2022-05-09 10:22 48K 
[IMG]emL84m8424GC75O.jpg2022-05-09 10:22 41K 
[IMG]sZkcPa9gKUAK5ah.jpg2022-05-09 10:22 53K 
[IMG]QxxTVUHiWcaUHiw.jpg2022-05-09 10:22 58K 
[IMG]b0R2rQq4eS1JHgE.jpg2022-05-09 10:22 79K 
[IMG]bbYBLKweBIkXuel.jpg2022-05-09 10:22 53K 
[IMG]tEjVDo6fFLNhh6p.jpg2022-05-09 10:22 44K 
[IMG]bSdufAmmonnJbWH.jpg2022-05-09 10:22 71K 
[IMG]LSbaXVjh2VUFqSj.jpg2022-05-09 10:22 48K 
[IMG]sYz4hAE4OEn98yc.jpg2022-05-09 10:22 44K 
[IMG]j3MtNVvzAmwYrO9.jpg2022-05-09 10:22 62K 
[IMG]Tres1Ljr8ppE7So.jpg2022-05-09 10:22 72K 
[IMG]qgKn3QqMsmsnWTH.jpg2022-05-09 10:22 64K 
[IMG]Cg2J5OpRCoqE8tt.jpg2022-05-09 10:22 51K 
[IMG]lwb7545AGoRWZis.jpg2022-05-09 10:22 45K 
[IMG]Mp9whyaLG0vXvSU.jpg2022-05-09 10:22 60K 
[IMG]XcvN5bubYLKrMVB.jpg2022-05-09 10:22 35K 
[IMG]vHSybJZBYRSclkb.jpg2022-05-09 10:22 47K 
[IMG]lwEPEh9s633jUt6.jpg2022-05-09 10:22 66K 
[IMG]Kk8uRyq3N7AAgwF.jpg2022-05-09 10:23 24K 
[IMG]nhocU4EvLR1Q5yS.jpg2022-05-09 10:23 20K 
[IMG]is0C6wqFks97GC5.jpg2022-05-09 10:24 64K 
[IMG]AJCLqqgKoGuVKdJ.jpg2022-05-09 10:24 63K 
[IMG]pM6UhNerBx0tIcQ.jpg2022-05-09 10:24 38K 
[IMG]KaNWd3FEVVHBJCS.jpg2022-05-09 10:24 66K 
[IMG]CRzbyKGKeGoqfiL.jpg2022-05-09 10:24 32K 
[IMG]EmspxU2ZHiN9pDl.jpg2022-05-09 10:24 50K 
[IMG]bjGHyOCwEUPGhkL.jpg2022-05-09 10:24 90K 
[IMG]YW25rnFsHL7YXDD.jpg2022-05-09 10:24 38K 
[IMG]2xY89AB72si56MS.jpg2022-05-09 10:24 49K 
[IMG]vgv6FclF6oqKrtW.jpg2022-05-09 10:24 22K 
[IMG]9T5y5rrHL0uMfvE.jpg2022-05-09 10:24 32K 
[IMG]UIjXuNJJih9yIP5.jpg2022-05-09 10:24 24K 
[IMG]RKefycQ85BkUDGn.jpg2022-05-09 10:24 28K 
[IMG]q3VhCH9Xy0WXLUp.jpg2022-05-09 10:24 38K 
[IMG]t5bk1lJxVeI0GuY.jpg2022-05-09 10:24 72K 
[IMG]K76Vp5wh7oPIRpp.jpg2022-05-09 10:24 41K 
[IMG]rDhqzv0Zdazibx1.jpg2022-05-09 10:24 45K 
[IMG]M8ZAIXgzS2uej58.jpg2022-05-09 10:24 56K 
[IMG]KlApvbgzE9MqRmr.jpg2022-05-09 10:24 37K 
[IMG]FBmqbbxZJMTSWf7.jpg2022-05-09 10:24 36K 
[IMG]iHfDebnsHV6Og6K.jpg2022-05-09 10:24 2.0M 
[IMG]YxfBjOyuqIOe23i.jpg2022-05-09 10:24 70K 
[IMG]UytQbN3iUGfAZ2R.jpg2022-05-09 10:24 16K 
[IMG]lhw6omarRAK5JjR.jpg2022-05-09 10:24 66K 
[IMG]qwgNuchEmLtH2Ea.jpg2022-05-09 10:25 47K 
[IMG]Xkkfr1LbQ7Bv1OQ.jpg2022-05-09 10:25 19K 
[IMG]oB4eLYTg3Wq62vV.jpg2022-05-09 10:25 34K 
[IMG]AzZgj5AkWWAzbfL.jpg2022-05-09 10:25 30K 
[IMG]pGJETHHrjk7vlQL.jpg2022-05-09 10:25 32K 
[IMG]3c80APR2kHEl4j9.jpg2022-05-09 10:25 33K 
[IMG]X4pvNuV4b4wj0kF.jpg2022-05-09 10:25 1.0M 
[IMG]iYfIMhODYZTIKyx.jpg2022-05-09 10:25 57K 
[IMG]QhASgJ2cUpjixJ2.jpg2022-05-09 10:25 49K 
[IMG]u5qhW1WVuJkDcgy.jpg2022-05-09 10:25 36K 
[IMG]HHRo594YcU3dO9v.jpg2022-05-09 10:25 41K 
[IMG]vpqamAjzyOmwek6.jpg2022-05-09 10:25 63K 
[IMG]e1FjhpOO01AFN6w.jpg2022-05-09 10:25 76K 
[IMG]iEVVBtMKTvXokdx.jpg2022-05-09 10:25 68K 
[IMG]4abohYj83osyHrf.jpg2022-05-09 10:25 76K 
[IMG]2VjojcLnrXRSJzQ.jpg2022-05-09 10:25 42K 
[IMG]Vqjc0u6BENzJvSo.jpg2022-05-09 10:25 73K 
[IMG]yUov6ObsCRV55rC.jpg2022-05-09 10:25 66K 
[IMG]pIDf6bsX4NH8Ydc.jpg2022-05-09 10:25 63K 
[IMG]BPkPVVwr0bY3mJv.jpg2022-05-09 10:25 57K 
[IMG]nz4BXRRx9DeV40E.jpg2022-05-09 10:25 18K 
[IMG]oVXdGHsrRD28ofT.jpg2022-05-09 10:25 9.8K 
[IMG]NSvcAl2lsjtcVCx.jpg2022-05-09 10:25 9.3K 
[IMG]Ir2AZnK3bdAh4HE.jpg2022-05-09 10:25 21K 
[IMG]CpwZG8lvSSTrjNo.jpg2022-05-09 10:25 24K 
[IMG]YAIQPDYMeXmG2Ed.jpg2022-05-09 10:25 54K 
[IMG]UfUvPZGw1Y3TkDT.jpg2022-05-09 10:25 33K 
[IMG]M0aa85Ic1fTRiHU.jpg2022-05-09 10:25 11K 
[IMG]NaorB3qU3gqKsRe.jpg2022-05-09 10:25 26K 
[IMG]9OLCz1edboKAi8K.jpg2022-05-09 10:25 55K 
[IMG]X0yFFmFVdGMy2r9.jpg2022-05-09 10:25 68K 
[IMG]LMSGX8ZcXINqfqh.jpg2022-05-09 10:25 35K 
[IMG]9WRU9br4CL9qBzU.jpg2022-05-09 10:25 54K 
[IMG]TrSNKDma47SeM7W.jpg2022-05-09 10:25 40K 
[IMG]iMr3EYlB2Z9NwJk.jpg2022-05-09 10:25 58K 
[IMG]TXWadpKKmiXQuMe.jpg2022-05-09 10:25 34K 
[IMG]RAwGVe9hKOELBhT.jpg2022-05-09 10:25 59K 
[IMG]TXtlUMLRhgQOSxM.jpg2022-05-09 10:25 27K 
[IMG]KQffTAnZx3M7Yy9.jpg2022-05-09 10:25 51K 
[IMG]0XkydJ7hggys4mX.jpg2022-05-09 10:25 50K 
[IMG]GeHhZRAi3Dc641O.jpg2022-05-09 10:25 80K 
[IMG]xu61JCcStpo8i8w.jpg2022-05-09 10:25 56K 
[IMG]Rvf7FCEsxBRl3Q8.jpg2022-05-09 10:25 27K 
[IMG]lbaKDVOp7QpoU0W.jpg2022-05-09 10:25 61K 
[IMG]zFhR9RPpG3KBGyB.jpg2022-05-09 10:25 53K 
[IMG]AOhluk3QuqgJIW7.jpg2022-05-09 10:25 35K 
[IMG]fUKa6xDLddg2u3T.jpg2022-05-09 10:25 74K 
[IMG]5jBVCYpCFid2Y4B.jpg2022-05-09 10:25 44K 
[IMG]b9ascJ6fPesFu07.jpg2022-05-09 10:25 51K 
[IMG]KSbwj3QYVvjCfJg.jpg2022-05-09 10:25 1.2M 
[IMG]LFB5KWRG1gOmpAm.jpg2022-05-09 10:25 34K 
[IMG]OBG4r3MiHHBR2tk.jpg2022-05-09 10:25 81K 
[IMG]cR9MCriD1ZQb7Gi.jpg2022-05-09 10:25 35K 
[IMG]jREm9prYVVsP2t0.jpg2022-05-09 10:25 80K 
[IMG]Ic0srH7dh8Y1mJx.jpg2022-05-09 10:25 92K 
[IMG]AkjzJ2IUqGTvwNH.jpg2022-05-09 10:25 98K 
[IMG]PytB4ryeOBRP3qQ.jpg2022-05-09 10:25 44K 
[IMG]xeaXesmn19J7dtZ.jpg2022-05-09 10:25 49K 
[IMG]RWFC1cxNBEFkQNE.jpg2022-05-09 10:25 68K 
[IMG]8dRExTzo5FyFZur.jpg2022-05-09 10:25 31K 
[IMG]Bg7dyrZgnMaY7Bo.jpg2022-05-09 10:25 39K 
[IMG]Si8OVadoVHbDxKI.jpg2022-05-09 10:25 65K 
[IMG]0bu5Z2YLPOEpb9w.jpg2022-05-09 10:25 57K 
[IMG]g973JDtDvloNPdl.jpg2022-05-09 10:25 72K 
[IMG]5NGtwhnDDLtv3Do.jpg2022-05-09 10:25 25K 
[IMG]p75QBWf5ky6VjQb.jpg2022-05-09 10:25 43K 
[IMG]kMNZvMFTcU4epzY.jpg2022-05-09 10:25 9.9K 
[IMG]nZPMblceMqHRzod.jpg2022-05-09 10:25 9.0K 
[IMG]8ymLtqq8VZlSYwA.jpg2022-05-09 10:25 71K 
[IMG]L4CknTGvapIO5Wk.jpg2022-05-09 10:25 63K 
[IMG]3AhUsTc4rUmfRD1.jpg2022-05-09 10:25 40K 
[IMG]teRhpMrhLTER03w.jpg2022-05-09 10:25 63K 
[IMG]XALfvsCFV5kLMof.jpg2022-05-09 10:25 80K 
[IMG]HBQZBBC7rOyyBU3.jpg2022-05-09 10:25 28K 
[IMG]ISmxaIOxxUFqx1L.jpg2022-05-09 10:25 46K 
[IMG]GzBdGThTcGo2P2F.jpg2022-05-09 10:25 27K 
[IMG]LZYQ1TePUWslXTJ.jpg2022-05-09 10:25 36K 
[IMG]Xa25zQ5HKyKN3XD.jpg2022-05-09 10:25 85K 
[IMG]flVQSjXb8wn4yez.jpg2022-05-09 10:25 53K 
[IMG]Qe0TKBD1koawzEa.jpg2022-05-09 10:25 52K 
[IMG]0643kVoeolJ12Lk.jpg2022-05-09 10:25 40K 
[IMG]1xWNqJ7CHtgHqA9.jpg2022-05-09 10:25 58K 
[IMG]5lJ67KYrCDce5KW.jpg2022-05-09 10:25 31K 
[IMG]b1kUSau5zPFcXSF.jpg2022-05-09 10:25 77K 
[IMG]D33hsp6ly9uQusJ.jpg2022-05-09 10:25 43K 
[IMG]qOGvmnDahZ7YNkO.jpg2022-05-09 10:25 37K 
[IMG]5ht70AZUbAbO1x9.jpg2022-05-09 10:25 32K 
[IMG]smaVWvUWaLK4aB7.jpg2022-05-09 10:25 33K 
[IMG]aiFYayQ58vz2cJP.jpg2022-05-09 10:25 37K 
[IMG]5xVjPNNw5kqchBo.jpg2022-05-09 10:25 40K 
[IMG]XvKvdOLvJiCta42.jpg2022-05-09 10:25 67K 
[IMG]F5hvpzSvqWKUJmZ.jpg2022-05-09 10:25 55K 
[IMG]sUsOEvVho367tUn.jpg2022-05-09 10:25 60K 
[IMG]U1VL3H6klhE5x4q.jpg2022-05-09 10:25 51K 
[IMG]W4GWxhlWGjHv0av.jpg2022-05-09 10:25 50K 
[IMG]TPLwywNv9VcomMK.jpg2022-05-09 10:25 42K 
[IMG]BZb0QiCJXEg8xha.jpg2022-05-09 10:25 73K 
[IMG]eHmpE0iXSYqO7VT.jpg2022-05-09 10:25 61K 
[IMG]QpxrD2AIdH5KBkK.jpg2022-05-09 10:26 56K 
[IMG]qaHrVt4CsiEdDQU.jpg2022-05-09 10:26 51K 
[IMG]6xr69R4rZVAJAZM.jpg2022-05-09 10:26 45K 
[IMG]RLRYe5rg5UmIWZL.jpg2022-05-09 10:26 60K 
[IMG]vzW3D9PnOnZiNFq.jpg2022-05-09 10:26 50K 
[IMG]dSDyH8Q8UpH8Vy5.jpg2022-05-09 10:26 35K 
[IMG]L2dyq3l2TOaI0kc.jpg2022-05-09 10:26 53K 
[IMG]ohgcniJRCZxwX0t.jpg2022-05-09 10:26 46K 
[IMG]N71pBRlgtIJ4MJT.jpg2022-05-09 10:26 45K 
[IMG]t8g5uyKvE6EoSmZ.jpg2022-05-09 10:26 44K 
[IMG]fyLmocOcTsVIiMN.jpg2022-05-09 10:26 46K 
[IMG]msg6GsqZNPfLZ9Q.jpg2022-05-09 10:26 46K 
[IMG]YNUX5Ato1kzyRmr.jpg2022-05-09 10:26 50K 
[IMG]KsxwLlZ2NTqg1AC.jpg2022-05-09 10:26 17K 
[IMG]g6UROHSPScPioZz.jpg2022-05-09 10:26 68K 
[IMG]0MAAmx8jFDlJ3jr.jpg2022-05-09 10:26 55K 
[IMG]W9efzL5YHXPUsNd.jpg2022-05-09 10:26 9.7K 
[IMG]Ka0WgbKV7N8CXef.jpg2022-05-09 10:26 40K 
[IMG]gLUUCG1Zh2d5IOO.jpg2022-05-09 10:26 38K 
[IMG]ClCZWX7ViUs6LHc.jpg2022-05-09 10:26 9.7K 
[IMG]TtvI2nJYTmVJ4iQ.jpg2022-05-09 10:26 44K 
[IMG]wPDnmWMszWmHbmd.jpg2022-05-09 10:26 46K 
[IMG]6BvlGBFc9Tvlm1D.jpg2022-05-09 10:26 40K 
[IMG]IGyjSyoJ4ipGYLr.jpg2022-05-09 10:26 18K 
[IMG]POeFX644KVPvVMF.jpg2022-05-09 10:26 37K 
[IMG]i6EnQfq29jAIN6j.jpg2022-05-09 10:26 34K 
[IMG]Tt2y13t7qJqc9ei.jpg2022-05-09 10:26 39K 
[IMG]BTChkoxy9sQNQPL.jpg2022-05-09 10:26 14K 
[IMG]E1ff9ukv0myPUt6.jpg2022-05-09 10:26 46K 
[IMG]K8MDtCKmAvg3WdX.jpg2022-05-09 10:26 37K 
[IMG]U1CoGJ0puB9oyfO.jpg2022-05-09 10:26 64K 
[IMG]Oxl3RNMbqfS2SYh.jpg2022-05-09 10:26 8.6K 
[IMG]JbqLyp3TOXnlU0P.jpg2022-05-09 10:26 79K 
[IMG]mRqKnEQPD3jVs1U.jpg2022-05-09 10:26 58K 
[IMG]6ZMsvzN5D8tVW0i.jpg2022-05-09 10:26 66K 
[IMG]raSH8HUZyAKTlb3.jpg2022-05-09 10:26 26K 
[IMG]6skNte9LNIMJzsv.jpg2022-05-09 10:26 34K 
[IMG]PpjKtN6tnlYdwgv.jpg2022-05-09 10:26 45K 
[IMG]vMFDV8ZGzxinSlO.jpg2022-05-09 10:26 34K 
[IMG]63cJnUfPoAK1Kfe.jpg2022-05-09 10:26 35K 
[IMG]DsUdiHzTmh7KKCp.jpg2022-05-09 10:26 49K 
[IMG]TsnNRHfE6bz0gto.jpg2022-05-09 10:26 83K 
[IMG]nJo4vFFaw0JNmVm.jpg2022-05-09 10:26 39K 
[IMG]GSi66zLyjwjfzo3.jpg2022-05-09 10:26 29K 
[IMG]ObuMcv4vVSXcD1I.jpg2022-05-09 10:26 40K 
[IMG]HNIVhrilXatK4BU.jpg2022-05-09 10:26 44K 
[IMG]7uyduL3t3BwsXvo.jpg2022-05-09 10:26 39K 
[IMG]1r7pyEcz1ptpTAc.jpg2022-05-09 10:26 26K 
[IMG]4q0ZenQME4VYgx2.jpg2022-05-09 10:26 47K 
[IMG]IttHkOl1aeMdX8t.jpg2022-05-09 10:26 31K 
[IMG]LCvW8Cj6IyD1SQ5.jpg2022-05-09 10:26 35K 
[IMG]0xVC1boB4dKzfFW.jpg2022-05-09 10:26 71K 
[IMG]ui5IQPfD2j973SM.jpg2022-05-09 10:26 40K 
[IMG]fqKFMS0QXQ4zRPc.jpg2022-05-09 10:26 26K 
[IMG]RWCLPLoLxcJU2MR.jpg2022-05-09 10:26 68K 
[IMG]AjdLOaSVN847Cqa.jpg2022-05-09 10:26 34K 
[IMG]vtlEoLifVPx3nCL.jpg2022-05-09 10:26 66K 
[IMG]o1yP7u2gwZGA65R.jpg2022-05-09 10:26 75K 
[IMG]epYPR7Ws2nNxBIf.jpg2022-05-09 10:26 55K 
[IMG]p4nmOYVmHiE5qpz.jpg2022-05-09 10:26 54K 
[IMG]gdYCfJIyUCdTIbL.jpg2022-05-09 10:26 45K 
[IMG]QBKqGqQOftHU0GX.jpg2022-05-09 10:26 51K 
[IMG]0LrJ1s4NO3uupUw.jpg2022-05-09 10:26 34K 
[IMG]WFaSrNaIpgNhaW4.jpg2022-05-09 10:26 60K 
[IMG]AaB0c6ucfClLzPp.jpg2022-05-09 10:26 53K 
[IMG]9yriXZ2HJGP9vvE.jpg2022-05-09 10:26 29K 
[IMG]x3Mz9FgCj0C6PoO.jpg2022-05-09 10:26 36K 
[IMG]aVHdk3DdnuyDxlj.jpg2022-05-09 10:26 50K 
[IMG]iSvTUNbYiFdBRGT.jpg2022-05-09 10:26 62K 
[IMG]dIl8bcp7SrKYjPX.jpg2022-05-09 10:26 55K 
[IMG]IfwEfGidlpPKYfB.jpg2022-05-09 10:26 69K 
[IMG]VFUQzhK0XQA6JoC.jpg2022-05-09 10:26 53K 
[IMG]hFNSxE4kXSV0zVx.jpg2022-05-09 10:26 51K 
[IMG]Wu4LuAoZVExVa5B.jpg2022-05-09 10:26 38K 
[IMG]CXvmT6p8S1Z2V2Y.jpg2022-05-09 10:26 53K 
[IMG]svIWbCOmptwqeog.jpg2022-05-09 10:26 50K 
[IMG]SlFNUcm4QkPjF7Y.jpg2022-05-09 10:26 68K 
[IMG]AFYL37miEJtDCdQ.jpg2022-05-09 10:26 47K 
[IMG]4yZIS5k7HC6zxBj.jpg2022-05-09 10:26 45K 
[IMG]2coHvUzLmmGCR8h.jpg2022-05-09 10:26 55K 
[IMG]HRzt3QBq5024Xqd.jpg2022-05-09 10:26 40K 
[IMG]FOZ5M7WIQM7X0pc.jpg2022-05-09 10:26 49K 
[IMG]QZtum4KwRFJtqDr.jpg2022-05-09 10:26 59K 
[IMG]m6csWBEdMqUDehD.jpg2022-05-09 10:26 75K 
[IMG]oksao5m8hWxQ4AB.jpg2022-05-09 10:26 53K 
[IMG]1EUZt8Lgx5roZBs.jpg2022-05-09 10:27 53K 
[IMG]ZB8SDexgjHRh6E6.jpg2022-05-09 10:27 45K 
[IMG]X7Zvk7AYTuVXJqD.jpg2022-05-09 10:27 21K 
[IMG]qJ1lHHEq2DDz0Nc.jpg2022-05-09 10:27 32K 
[IMG]0IWZPPnBuzja1DC.jpg2022-05-09 10:27 23K 
[IMG]EqXGtYvqr3IYbfp.jpg2022-05-09 10:27 31K 
[IMG]euFR2AcqxF70AA0.jpg2022-05-09 10:27 28K 
[IMG]LUYsm5u4OOUL3TR.jpg2022-05-09 10:27 42K 
[IMG]IrdN7zYVtYy7j0B.jpg2022-05-09 10:27 14K 
[IMG]x4oyIlyDJ3KBui0.jpg2022-05-09 10:27 43K 
[IMG]avw4g1N2AhhN0L5.jpg2022-05-09 10:27 52K 
[IMG]OYzGZNeOsXDtX8G.jpg2022-05-09 10:27 78K 
[IMG]nCnGnoI7I5hiaMo.jpg2022-05-09 10:27 49K 
[IMG]eMwxC6KvkGWiGg6.jpg2022-05-09 10:27 36K 
[IMG]0KtI174whXgX5wa.jpg2022-05-09 10:28 39K 
[IMG]wskgR4YmmI7FazC.jpg2022-05-09 10:28 47K 
[IMG]zxA8CGcAA0U2p8S.jpg2022-05-09 10:28 34K 
[IMG]HdUiEZOnNKHiZNA.jpg2022-05-09 10:28 53K 
[IMG]lZ83DFvKLTtuj1s.jpg2022-05-09 10:28 77K 
[IMG]tKseFNqQ46NsbQ2.jpg2022-05-09 10:28 18K 
[IMG]7V5SLvaTSO6zCJD.jpg2022-05-09 10:28 41K 
[IMG]7RLWW7kyAomzKcn.jpg2022-05-09 10:28 15K 
[IMG]6Y6jsrJUiItN0HH.jpg2022-05-09 10:28 12K 
[IMG]1Ql5iiNiiCsROz4.jpg2022-05-09 10:28 14K 
[IMG]KEXFmXaZxF5dLVM.jpg2022-05-09 10:28 50K 
[IMG]RfdCTqYkIoxBFHP.jpg2022-05-09 10:28 47K 
[IMG]0DUX7pIe6HshtEC.jpg2022-05-09 10:28 32K 
[IMG]HaJwBirAl8jdfRt.jpg2022-05-09 10:28 39K 
[IMG]HlfGVubINzRKrqM.jpg2022-05-09 10:28 29K 
[IMG]By3hAjeGLyB4TCj.jpg2022-05-09 10:28 53K 
[IMG]5q6R90TJcc7suO4.jpg2022-05-09 10:28 42K 
[IMG]GC7FmxX9m9tOEE9.jpg2022-05-09 10:28 57K 
[IMG]hBORejdQSvJwhAk.jpg2022-05-09 10:28 65K 
[IMG]QwreXGM29GL8UDR.jpg2022-05-09 10:28 97K 
[IMG]7g9HGLQR6nAThfW.jpg2022-05-09 10:28 63K 
[IMG]6TrDgLKf7yiBQfL.jpg2022-05-09 10:28 23K 
[IMG]lxNqZ60MAcBtZna.jpg2022-05-09 10:28 21K 
[IMG]7PbnnIY48SDfiIp.jpg2022-05-09 10:28 24K 
[IMG]fMEJyHKAhQ3FjAI.jpg2022-05-09 10:28 21K 
[IMG]coA0wwD1RMUCncs.jpg2022-05-09 10:28 57K 
[IMG]FgUIwJpsDcPNinB.jpg2022-05-09 10:28 49K 
[IMG]2kPlxNXrkhfvk4T.jpg2022-05-09 10:28 41K 
[IMG]1O8GolSfKZTwiwl.jpg2022-05-09 10:28 36K 
[IMG]S2MwAFqW1UB2XgK.jpg2022-05-09 10:28 63K 
[IMG]8yr2BxUehY64LDU.jpg2022-05-09 10:28 76K 
[IMG]fs5O8JnTrbl7UOt.jpg2022-05-09 10:28 46K 
[IMG]AEHduIm8253waA3.jpg2022-05-09 10:28 46K 
[IMG]QYO6nfNGSuyV24m.jpg2022-05-09 10:28 24K 
[IMG]p3CwDSZrtKz718A.jpg2022-05-09 10:28 63K 
[IMG]ZpDq0AqYu71tnoR.jpg2022-05-09 10:28 41K 
[IMG]49e23ORpSQdkY8C.jpg2022-05-09 10:28 45K 
[IMG]rgIhQDonlEcdBzT.jpg2022-05-09 10:28 97K 
[IMG]lW2XG57fKZ2mtRo.jpg2022-05-09 10:28 68K 
[IMG]YDd0nk3eAMgfF6B.jpg2022-05-09 10:28 58K 
[IMG]8lcExP0dhhVbQQX.jpg2022-05-09 10:28 49K 
[IMG]LizAfxDiv2tyz5L.jpg2022-05-09 10:28 40K 
[IMG]CVOgfwtByDFppi4.jpg2022-05-09 10:28 78K 
[IMG]OMJsXB8e4BFnp5c.jpg2022-05-09 10:28 57K 
[IMG]GOVSCTHeOrDWeAm.jpg2022-05-09 10:28 18K 
[IMG]Ej8mlJr0B9GpJaS.jpg2022-05-09 10:28 71K 
[IMG]KYqaSn2dQkztDod.jpg2022-05-09 10:28 28K 
[IMG]euqTAa2gJFopAzW.jpg2022-05-09 10:28 73K 
[IMG]MEZVgAmZlrLT4Zg.jpg2022-05-09 10:28 46K 
[IMG]CxvmeHCSlInn75i.jpg2022-05-09 10:28 33K 
[IMG]pFX2LQK30TZS9FJ.jpg2022-05-09 10:28 36K 
[IMG]svVlm9dlpaOvmRA.jpg2022-05-09 10:28 70K 
[IMG]gGikZNR4CuH8xAH.jpg2022-05-09 10:28 50K 
[IMG]9h6gnIMvTmqtQgf.jpg2022-05-09 10:28 43K 
[IMG]5nRQVliNAHqEd6T.jpg2022-05-09 10:28 49K 
[IMG]N0I7c1qENDdhVRm.jpg2022-05-09 10:28 54K 
[IMG]G3EnseUlet2yjPc.jpg2022-05-09 10:28 71K 
[IMG]coCZt8JGBe7yrC2.jpg2022-05-09 10:28 69K 
[IMG]0bDw6aBE46FPYDa.jpg2022-05-09 10:28 59K 
[IMG]SyWectkuNaf1fjV.jpg2022-05-09 10:28 42K 
[IMG]mCshM70YgFSAU6I.jpg2022-05-09 10:28 48K 
[IMG]YRphny0GZx4YInC.jpg2022-05-09 10:28 46K 
[IMG]DxT4jP2twXFXftS.jpg2022-05-09 10:28 45K 
[IMG]g3HBG5qeafRF5eo.jpg2022-05-09 10:28 73K 
[IMG]1BGjL4OYs43dojE.jpg2022-05-09 10:28 83K 
[IMG]DJjVTC7nfEn4I4W.jpg2022-05-09 10:28 69K 
[IMG]g5toLazUWMkETm1.jpg2022-05-09 10:28 40K 
[IMG]2YTwfqbOs3mkS0L.jpg2022-05-09 10:28 69K 
[IMG]mJd4Nni0wBOB9k0.jpg2022-05-09 10:28 49K 
[IMG]jCJiV60qi0qOca5.jpg2022-05-09 10:28 39K 
[IMG]7SwNJySYr8HnX6e.jpg2022-05-09 10:28 79K 
[IMG]qxoNEpboI6Wd2MG.jpg2022-05-09 10:28 64K 
[IMG]32O4eliFj4O88Ig.jpg2022-05-09 10:28 80K 
[IMG]oP4mHPL1jgCCLpP.jpg2022-05-09 10:28 71K 
[IMG]UPEwwkL4sFKDiXC.jpg2022-05-09 10:28 44K 
[IMG]hMFrhoXNzYGP1zC.jpg2022-05-09 10:28 45K 
[IMG]fkB5lUks6CDvoXJ.jpg2022-05-09 10:28 59K 
[IMG]4VEaDZbbUabYQxg.jpg2022-05-09 10:28 62K 
[IMG]dJiA2SQaCSxrGfH.jpg2022-05-09 10:29 62K 
[IMG]raQShqxSUS5UH4n.jpg2022-05-09 10:29 35K 
[IMG]VvMrEZG5VQ7Hzkc.jpg2022-05-09 10:29 52K 
[IMG]nGYrZv1QOjwmMBf.jpg2022-05-09 10:29 28K 
[IMG]T5yY0qbTqvFWFOC.jpg2022-05-09 10:29 44K 
[IMG]s4a9Xk3Iws6o279.jpg2022-05-09 10:29 36K 
[IMG]aIBJLAtPJyNAEi1.jpg2022-05-09 10:29 66K 
[IMG]1F0U2I1LGguF0WQ.jpg2022-05-09 10:29 48K 
[IMG]dDoGmODGudpxdF5.jpg2022-05-09 10:29 30K 
[IMG]d3PnRZyScZ20AGi.jpg2022-05-09 10:29 36K 
[IMG]DNcNEptKoRXUHn8.jpg2022-05-09 10:29 37K 
[IMG]pSzraSkBzFk7dAk.jpg2022-05-09 10:29 71K 
[IMG]jkJdCVmkaU9IvNF.jpg2022-05-09 10:29 37K 
[IMG]YlbZZMGvehKZU6K.jpg2022-05-09 10:29 69K 
[IMG]kBqfeS9J7ezH7de.jpg2022-05-09 10:29 61K 
[IMG]gnAhQV6zHJu3fzF.jpg2022-05-09 10:29 99K 
[IMG]osStk4SRpKGY9KK.jpg2022-05-09 10:29 69K 
[IMG]L0i85f7cUEKJAk9.jpg2022-05-09 10:29 95K 
[IMG]juRvMNtS63sqfod.jpg2022-05-09 10:29 74K 
[IMG]kyibfW0pMq9Wh5p.jpg2022-05-09 10:29 47K 
[IMG]m50jvu8p7oW0KJb.jpg2022-05-09 10:29 54K 
[IMG]i1foL2CXS3L4W2H.jpg2022-05-09 10:29 82K 
[IMG]zm3Ut989mET6SaN.jpg2022-05-09 10:29 31K 
[IMG]A5PPRkLTsf6wPW6.jpg2022-05-09 10:29 35K 
[IMG]qTHfqPjkyaihw9m.jpg2022-05-09 10:29 56K 
[IMG]PHUtkXyshxa5Sap.jpg2022-05-09 10:29 55K 
[IMG]XGj0rcGkEWEnk5I.jpg2022-05-09 10:29 52K 
[IMG]1uIqx5eVqyfB2a8.jpg2022-05-09 10:29 42K 
[IMG]EmPVrGjmLLLcovU.jpg2022-05-09 10:29 55K 
[IMG]2IwjYBqO6SzPiTx.jpg2022-05-09 10:29 55K 
[IMG]g1h8tvSOXOlqxPm.jpg2022-05-09 10:29 51K 
[IMG]gFmwblrIIaERBkZ.jpg2022-05-09 10:29 47K 
[IMG]sOeBD73RhK5ZraM.jpg2022-05-09 10:29 47K 
[IMG]BN0YOje4SlG5S19.jpg2022-05-09 10:29 51K 
[IMG]xm67WpvM5NNgvhW.jpg2022-05-09 10:29 31K 
[IMG]ssilsPo5dGWMOnp.jpg2022-05-09 10:29 52K 
[IMG]OMMNcpf7HwEUIuE.jpg2022-05-09 10:29 35K 
[IMG]lzsZI1awFsaJzoo.jpg2022-05-09 10:29 73K 
[IMG]Hzm9xWxrIH1Qkp3.jpg2022-05-09 10:29 53K 
[IMG]7f3ORwTE1nxGTfz.jpg2022-05-09 10:29 45K 
[IMG]f7Wfa3iQXaxxasZ.jpg2022-05-09 10:29 819K 
[IMG]GMEfeD8nxcB240U.jpg2022-05-09 10:29 21K 
[IMG]A3RFpSNyXv6VvKC.jpg2022-05-09 10:29 32K 
[IMG]ClTy3OUXexxHsHT.jpg2022-05-09 10:29 23K 
[IMG]rw7iWrTHOPHsGqm.jpg2022-05-09 10:29 25K 
[IMG]CcPWTTksaVDLvTf.jpg2022-05-09 10:29 31K 
[IMG]4xkYKIeJnNXiw0j.jpg2022-05-09 10:29 68K 
[IMG]jbfr9dSp4BsExrD.jpg2022-05-09 10:29 43K 
[IMG]bbx81JbKmjAHltF.jpg2022-05-09 10:29 73K 
[IMG]eqUpk4rTxIerBvB.jpg2022-05-09 10:29 63K 
[IMG]LkpDtLyWISeYCWd.jpg2022-05-09 10:29 66K 
[IMG]ZRh8h1YPVi4HxmG.jpg2022-05-09 10:29 53K 
[IMG]HyvrX4qsrW5GmXU.jpg2022-05-09 10:29 57K 
[IMG]LO7byRMNHMsTr9j.jpg2022-05-09 10:29 31K 
[IMG]uQSjV0ejKBMuz6S.jpg2022-05-09 10:29 21K 
[IMG]4BvNb2UhX5SFXxL.jpg2022-05-09 10:29 29K 
[IMG]8lZjMP2WOWQtMDG.jpg2022-05-09 10:29 16K 
[IMG]ldkv4WgbD9X7Nhm.jpg2022-05-09 10:29 19K 
[IMG]yHDbE7xEsgJd7Ql.jpg2022-05-09 10:29 8.5K 
[IMG]uWtJB6ElnsfW1x7.jpg2022-05-09 10:29 43K 
[IMG]WqJTrg9p2utXbRG.jpg2022-05-09 10:29 43K 
[IMG]45sMI6HOGEkjONn.jpg2022-05-09 10:29 69K 
[IMG]eP3lepBorVjHnJ0.jpg2022-05-09 10:29 92K 
[IMG]zctgqBrlOZxGX2y.jpg2022-05-09 10:29 115K 
[IMG]gdjWCA3ciGjuIRW.jpg2022-05-09 10:29 13K 
[IMG]oheEuqwG4TbNn7u.jpg2022-05-09 10:29 45K 
[IMG]a8y5FIYvR7UDWLM.jpg2022-05-09 10:29 46K 
[IMG]6mgzf1pQZk1vyw8.jpg2022-05-09 10:29 63K 
[IMG]NMdRg6efYBwCApj.jpg2022-05-09 10:29 36K 
[IMG]lszQLFjYkpfUaEx.jpg2022-05-09 10:29 29K 
[IMG]Qn76hL2kosBVX71.jpg2022-05-09 10:29 33K 
[IMG]1bNXhGi4MyyzTXw.jpg2022-05-09 10:29 44K 
[IMG]dIG3cexCBGjuyWF.jpg2022-05-09 10:29 69K 
[IMG]bOVBiFGcCNIQ7v0.jpg2022-05-09 10:29 29K 
[IMG]qmL0efVj3aVHEIJ.jpg2022-05-09 10:29 54K 
[IMG]jtFLcNDhFjwejQ2.jpg2022-05-09 10:29 39K 
[IMG]4jUHOFYJ96G9d7l.jpg2022-05-09 10:29 42K 
[IMG]Lxl7Fw93K5VYfqe.jpg2022-05-09 10:29 33K 
[IMG]Q8k1TfYFjBWrTP1.jpg2022-05-09 10:29 43K 
[IMG]LlCqPQ1kIYQRiuf.jpg2022-05-09 10:29 59K 
[IMG]umxucLoJtu0fbnZ.jpg2022-05-09 10:29 56K 
[IMG]b0x3K90mzXgOEaK.jpg2022-05-09 10:29 35K 
[IMG]2OuIjd5pbnKpWmM.jpg2022-05-09 10:29 35K 
[IMG]VRtaPmlWDaTt3cN.jpg2022-05-09 10:29 47K 
[IMG]LhW8WsgqBRiCOMj.jpg2022-05-09 10:29 53K 
[IMG]s4J1ijnOWMSvi1B.jpg2022-05-09 10:29 41K 
[IMG]hEBtEDlB67unMcb.jpg2022-05-09 10:29 29K 
[IMG]Q9PwgZ2FpfUDgIf.jpg2022-05-09 10:29 88K 
[IMG]MwYpBlLnkPc831J.jpg2022-05-09 10:29 26K 
[IMG]ZZhEOQjsWugzYTi.jpg2022-05-09 10:29 52K 
[IMG]4qtWcReP1H9wEOq.jpg2022-05-09 10:29 24K 
[IMG]w114VZaYFYieICM.jpg2022-05-09 10:29 27K 
[IMG]dMBxhtSInL6xK07.jpg2022-05-09 10:29 17K 
[IMG]Gz16uNQF7DG52tA.jpg2022-05-09 10:29 11K 
[IMG]VzCcLh2R3qhE3iR.jpg2022-05-09 10:29 65K 
[IMG]K05LZh4quxV9RYw.jpg2022-05-09 10:30 45K 
[IMG]s6z3W9SCw7xPCAS.jpg2022-05-09 10:30 47K 
[IMG]Dqp0UrapYvnks7N.jpg2022-05-09 10:30 94K 
[IMG]bZE1fKmIJMkqdfU.jpg2022-05-09 10:30 31K 
[IMG]dIODWFOi1YOV2Ic.jpg2022-05-09 10:30 36K 
[IMG]uonNH1cq7voY9VV.jpg2022-05-09 10:30 39K 
[IMG]imU64ay94vjinVS.jpg2022-05-09 10:30 28K 
[IMG]xCivhIuBMqecB7A.jpg2022-05-09 10:30 38K 
[IMG]DuMfuWBW5Z37hxP.jpg2022-05-09 10:31 60K 
[IMG]qg7KUcIoxIFTFeC.jpg2022-05-09 10:31 67K 
[IMG]xwkGQs4C9yslhpo.jpg2022-05-09 10:31 56K 
[IMG]2BnTMKYSZZK5gFc.jpg2022-05-09 10:31 11K 
[IMG]lRZqrx3iNwKQs6N.jpg2022-05-09 10:31 37K 
[IMG]8BAH3N0Br4IQsiV.jpg2022-05-09 10:31 41K 
[IMG]WJJ6LJELU5UoHcr.jpg2022-05-09 10:31 49K 
[IMG]CUQCyDJ9QA9Td7G.jpg2022-05-09 10:31 14K 
[IMG]FFYLc8MpkRZYwwc.jpg2022-05-09 10:31 59K 
[IMG]v5Kb8zlQwA8rd2j.jpg2022-05-09 10:31 66K 
[IMG]hxiXfbxZNy8gC5c.jpg2022-05-09 10:31 16K 
[IMG]WUkPdsqnqvqz1Jn.jpg2022-05-09 10:32 53K 
[IMG]LrecJkdjCdCjVT8.jpg2022-05-09 10:32 54K 
[IMG]7pAyKbY7Qck150C.jpg2022-05-09 10:32 11K 
[IMG]yrc1Z49Vqh73k3f.jpg2022-05-09 10:32 45K 
[IMG]8OKCl2wwTZwkLl2.jpg2022-05-09 10:32 39K 
[IMG]3zigx2KBI7WOhLJ.jpg2022-05-09 10:33 38K 
[IMG]KkWju3PA4CyxIkx.jpg2022-05-09 10:33 49K 
[IMG]LnDYZmxyTMn3RMK.jpg2022-05-09 10:33 41K 
[IMG]gqntM4qfO5H63fo.jpg2022-05-09 10:33 43K 
[IMG]pGCDYe1LqVJGeEa.jpg2022-05-09 10:33 42K 
[IMG]fen0xQJp4RYy1PD.jpg2022-05-09 10:33 40K 
[IMG]5GjQbQPwsmUj8ie.jpg2022-05-09 10:33 39K 
[IMG]DrEAjBArIQsD2zN.jpg2022-05-09 10:33 45K 
[IMG]uafA26ZRmQNsji5.jpg2022-05-09 10:33 52K 
[IMG]4VzTNnDiF5yDOi8.jpg2022-05-09 10:33 61K 
[IMG]x2rGQesiFaceUT8.jpg2022-05-09 10:33 19K 
[IMG]pyi3OpTdY8XXLvG.jpg2022-05-09 10:33 50K 
[IMG]OMDuwhOOpwBOszI.jpg2022-05-09 10:33 57K 
[IMG]6Ni4bIYn0v9ZRbj.jpg2022-05-09 10:33 54K 
[IMG]ig1g5oF2HAeMFuO.jpg2022-05-09 10:33 14K 
[IMG]ZjlCyOEjdPCz6yp.jpg2022-05-09 10:34 40K 
[IMG]VolLyAkKbDosXOe.jpg2022-05-09 10:34 45K 
[IMG]R1ZchTSRPfnLAqc.jpg2022-05-09 10:34 8.5K 
[IMG]YgBxGqvpBEER6wF.jpg2022-05-09 10:34 58K 
[IMG]Zsw9yJOPx12DXcU.jpg2022-05-09 10:34 63K 
[IMG]jt8i77zrpfiAv2y.jpg2022-05-09 10:34 16K 
[IMG]8kP7krVIIc8jomf.jpg2022-05-09 10:35 38K 
[IMG]a9aA8rmuGMPKtWN.jpg2022-05-09 10:35 53K 
[IMG]RBNMLLKB6OwgxZQ.jpg2022-05-09 10:35 60K 
[IMG]1KJDsd21NhjDlw3.jpg2022-05-09 10:35 20K 
[IMG]XIcWRfxfnhR1jLi.jpg2022-05-09 10:35 48K 
[IMG]n1aTrbgv1sd90gL.jpg2022-05-09 10:35 57K 
[IMG]KzQtqXXHsSteMwV.jpg2022-05-09 10:35 62K 
[IMG]45JK3lERBNhaTBz.jpg2022-05-09 10:35 18K 
[IMG]adU9g8zcCvHZPSE.jpg2022-05-09 10:35 41K 
[IMG]1tY5K8DCWJDUGEZ.jpg2022-05-09 10:35 50K 
[IMG]JUDe22vW54Gr3Vx.jpg2022-05-09 10:35 61K 
[IMG]5t1LGMyraYaCn2n.jpg2022-05-09 10:35 8.4K 
[IMG]QoW65vL8WWmqIYs.jpg2022-05-09 10:36 31K 
[IMG]Y9aMqirFRPfqroU.jpg2022-05-09 10:36 29K 
[IMG]qF0ipAhCwHoe0mF.jpg2022-05-09 10:36 38K 
[IMG]sHAgARpgRi8pHkN.jpg2022-05-09 10:36 38K 
[IMG]3pZwTKBCz6h3SaI.jpg2022-05-09 10:36 33K 
[IMG]yovq5z3n226FGlp.jpg2022-05-09 10:36 52K 
[IMG]FlqfiXse6UAcA0U.jpg2022-05-09 10:36 937K 
[IMG]LtXv188b7G0TJDI.jpg2022-05-09 10:36 85K 
[IMG]aMolonvqYOoAEy3.jpg2022-05-09 10:37 28K 
[IMG]ebduQl61qCsrPNo.jpg2022-05-09 10:37 46K 
[IMG]upjeidgVFELJTaW.jpg2022-05-09 10:37 55K 
[IMG]vFWw12BZ12BS0F7.jpg2022-05-09 10:37 57K 
[IMG]Ztvj8SwVZAEbioY.jpg2022-05-09 10:37 35K 
[IMG]CbsHgmhxBsB2cAo.jpg2022-05-09 10:37 102K 
[IMG]fgUVY9bbyd32JKT.jpg2022-05-09 10:37 31K 
[IMG]mdxgSVixtFmuCdp.jpg2022-05-09 10:37 29K 
[IMG]utSS4qeJwXR6h7S.jpg2022-05-09 10:37 48K 
[IMG]O4OgFQ9dJac01Yh.jpg2022-05-09 10:37 31K 
[IMG]EnFZMeaetdIGNwC.jpg2022-05-09 10:37 33K 
[IMG]MruG36947COP5XA.jpg2022-05-09 10:37 38K 
[IMG]hzS29WYj8mPqS95.jpg2022-05-09 10:37 937K 
[IMG]b5IQnztwzWJNEcH.jpg2022-05-09 10:38 23K 
[IMG]oIeEQudUpYqbCNW.jpg2022-05-09 10:38 24K 
[IMG]qTQYWYFWZ4JwuYZ.jpg2022-05-09 10:38 26K 
[IMG]yTVZDuUySgFabCT.jpg2022-05-09 10:38 28K 
[IMG]6BQt1uVPEcC87nO.jpg2022-05-09 10:38 34K 
[IMG]2QnMss3BOCWexZK.jpg2022-05-09 10:38 44K 
[IMG]nl2Jh6EOq5dXIJX.jpg2022-05-09 10:38 24K 
[IMG]YvF0LxHvBlVMddU.jpg2022-05-09 10:38 37K 
[IMG]Y6I4UUcjME9IQee.jpg2022-05-09 10:39 23K 
[IMG]XsdfFSxC0C2slFc.jpg2022-05-09 10:39 19K 
[IMG]wUhtb8Noa5zx0iB.jpg2022-05-09 10:39 34K 
[IMG]vBQo6EoDWxLSkPf.jpg2022-05-09 10:39 17K 
[IMG]o7MJwpBjbOLGBgR.jpg2022-05-09 10:39 78K 
[IMG]CImfengTmcMxGuZ.jpg2022-05-09 10:39 44K 
[IMG]yby7LhqG6YIgFpL.jpg2022-05-09 10:39 56K 
[IMG]AuTaYL3Y3bxyRni.jpg2022-05-09 10:39 10K 
[IMG]BHLo2tRhwed011d.jpg2022-05-09 10:40 54K 
[IMG]3P2UfK2VG3ToXuM.jpg2022-05-09 10:40 29K 
[IMG]eGKc7q3BtnphRIo.jpg2022-05-09 10:40 38K 
[IMG]tezCGqT41powlha.jpg2022-05-09 10:40 31K 
[IMG]v18nn6JSkGUHRK2.jpg2022-05-09 10:40 59K 
[IMG]W17KWomdDKb2Ln7.jpg2022-05-09 10:40 48K 
[IMG]ddwTv9YERgc0tjZ.jpg2022-05-09 10:40 53K 
[IMG]dgdyZyyOtoLisnh.jpg2022-05-09 10:40 47K 
[IMG]1yKq91yU03BwNop.jpg2022-05-09 10:40 43K 
[IMG]QYmzBTU1UTFH3w8.jpg2022-05-09 10:40 43K 
[IMG]IOEtXeeq3EqSqdb.jpg2022-05-09 10:40 43K 
[IMG]hrQP8nEMVxjO7KO.jpg2022-05-09 10:40 32K 
[IMG]CGzlQTFzQNxIGmz.jpg2022-05-09 10:40 95K 
[IMG]e7Jvdyn7F2oRB7d.jpg2022-05-09 10:40 56K 
[IMG]ehNf3gp6FCiJgCX.jpg2022-05-09 10:41 40K 
[IMG]KkLRPHHdc0clOhc.jpg2022-05-09 10:41 25K 
[IMG]ZZcTqW6X2agPtm3.jpg2022-05-09 10:41 42K 
[IMG]ppUO0IT9ohWET8x.jpg2022-05-09 10:41 29K 
[IMG]Ff74Y4fnr8imiMU.jpg2022-05-09 10:41 50K 
[IMG]YV5CkEd3Wy7OFAG.jpg2022-05-09 10:41 39K 
[IMG]fB3rezAjMFZokwM.jpg2022-05-09 10:41 17K 
[IMG]pqSVSlERh6WyetU.jpg2022-05-09 10:41 54K 
[IMG]aRFw0TchoHWAAx6.jpg2022-05-09 10:42 34K 
[IMG]WLCRxqnsw3edDuu.jpg2022-05-09 10:42 11K 
[IMG]zmHFMCQkONrL47V.jpg2022-05-09 10:42 18K 
[IMG]vRykuL9f07scPXz.jpg2022-05-09 10:42 29K 
[IMG]IMHvZmMCFd8AEac.jpg2022-05-09 10:42 33K 
[IMG]8T3tdhuvPnUjo6k.jpg2022-05-09 10:42 34K 
[IMG]DpYqIDT0qyKmMfr.jpg2022-05-09 10:42 40K 
[IMG]7ZScoIaJ9t98hKW.jpg2022-05-09 13:35 201K 
[IMG]Gp95bjawiMyhGFh.jpg2022-05-09 13:35 250K 
[IMG]HnRqjc1JHl6asZy.jpg2022-05-09 13:35 304K 
[IMG]NkvYCCAvJpXldZ1.jpg2022-05-09 13:35 261K 
[IMG]MoswYla4bkQH6ku.jpg2022-05-09 13:35 100K 
[IMG]vJ7XnKRmOoF18GZ.jpg2022-05-09 13:35 320K 
[IMG]PbgQFsUe9yfK2SV.jpg2022-05-09 13:35 246K 
[IMG]0qdqTiKq5bGY13g.jpg2022-05-09 13:35 178K 
[IMG]2pBFVItBVOyym63.jpg2022-05-09 13:36 59K 
[IMG]7C63di0jbAXci49.jpg2022-05-09 13:36 25K 
[IMG]0YsplsvDM7r2Y9b.jpg2022-05-09 13:36 59K 
[IMG]s9DVeigu9YTvvPT.jpg2022-05-09 13:36 50K 
[IMG]sX9qsGJVpV8aPWW.jpg2022-05-09 13:36 92K 
[IMG]Lrn8cddP3fkMjc1.jpg2022-05-09 13:36 20K 
[IMG]Pd94FepWX31LMiy.jpg2022-05-09 13:36 95K 
[IMG]QFF2O2sh8vcdYQN.jpg2022-05-09 13:36 69K 
[IMG]7UVxdpWUllAzqBN.jpg2022-05-09 13:36 33K 
[IMG]Y3mGI1ltj2Q1bot.jpg2022-05-09 13:36 107K 
[IMG]o57l7uWmnXXb2yL.jpg2022-05-09 13:36 33K 
[IMG]p25xqPdxLVv0y4s.jpg2022-05-09 13:36 45K 
[IMG]bw63TE2d9ZKoLy1.jpg2022-05-09 13:36 32K 
[IMG]VtqpX9nCSHb4BvD.jpg2022-05-09 13:36 34K 
[IMG]Pn23JtjhetuiHO8.jpg2022-05-09 13:37 349K 
[IMG]OvZl7GGyznQvgSo.jpg2022-05-09 13:37 216K 
[IMG]EsmX2KEu2ACPmX8.jpg2022-05-09 13:37 653K 
[IMG]PlVf51E4lEjTNuk.jpg2022-05-09 13:37 578K 
[IMG]XFRBDqkbbIhyYKh.jpg2022-05-09 13:37 274K 
[IMG]q8pOpJ3NTrBCET0.jpg2022-05-09 13:37 499K 
[IMG]yzP4wkPwmmjsmfJ.jpg2022-05-09 13:37 770K 
[IMG]N7F0oR6gtod8cBp.jpg2022-05-09 13:37 620K 
[IMG]VUV3b8dIS2i3WzX.jpg2022-05-09 13:38 478K 
[IMG]o3qQE0lYc8jrCOm.jpg2022-05-09 13:38 808K 
[IMG]pAKt3GxNpgf4GT7.jpg2022-05-09 13:38 536K 
[IMG]evp6luUfamKku2I.jpg2022-05-09 13:38 516K 
[IMG]8ymlXRI9QOxetOG.jpg2022-05-09 13:38 468K 
[IMG]50amlpWaFPYKXoq.jpg2022-05-09 13:38 692K 
[IMG]dqRPguJaF42WnY9.jpg2022-05-09 13:38 549K 
[IMG]W5iKBZrhr1oIA14.jpg2022-05-09 13:41 162K 
[IMG]ozmUXIeA5kmZvub.jpg2022-05-09 13:41 108K 
[IMG]uDsWMGwdSj9Gpnf.jpg2022-05-09 13:42 124K 
[IMG]64h2HWIZB2DfdAZ.jpg2022-05-09 13:42 104K 
[IMG]VXX4J5aWNfiqFgA.jpg2022-05-09 13:42 100K 
[IMG]Kon44nNsvIAm7ns.jpg2022-05-09 13:42 114K 
[IMG]FBpogLMnopsNxob.jpg2022-05-09 13:42 87K 
[IMG]z1lMDqEswDRY84T.jpg2022-05-09 13:42 330K 
[IMG]IYzoKokTZPu8MFJ.jpg2022-05-09 13:42 836K 
[IMG]4NzPANYLJV8VKVw.jpg2022-05-09 13:42 434K 
[IMG]KhVmktlOQWEpS61.jpg2022-05-09 13:42 394K 
[IMG]Gi1LJDVBrIGjMw8.jpg2022-05-09 13:42 390K 
[IMG]9sqpmB9nEqdaQRU.jpg2022-05-09 13:42 651K 
[IMG]WPQXqCEzhGLV671.jpg2022-05-09 13:42 406K 
[IMG]2D4OYnPg2rjvoh5.jpg2022-05-09 13:42 26K 
[IMG]4q77aFqnTLi8z5W.jpg2022-05-09 13:42 28K 
[IMG]U4Wedx8gEpdm5FJ.jpg2022-05-09 13:42 48K 
[IMG]2lcJxZqRsyifY0Y.jpg2022-05-09 13:42 33K 
[IMG]WWBjQIIYvojbbno.jpg2022-05-09 13:42 33K 
[IMG]ck8RwXJHgqBc6ul.jpg2022-05-09 13:42 52K 
[IMG]rh2SukHroWcR5VA.jpg2022-05-09 13:42 47K 
[IMG]nQqKasaC9k5C1AV.jpg2022-05-09 13:43 324K 
[IMG]vSQM15FOSsxUO4R.jpg2022-05-09 13:43 226K 
[IMG]wYACHmev1I0lBZa.jpg2022-05-09 13:43 372K 
[IMG]rR7jcTQwZsGL4mQ.jpg2022-05-09 13:43 595K 
[IMG]D0u2lT46Aw6gDtV.jpg2022-05-09 13:43 31K 
[IMG]5Mir2ekhG0AR39n.jpg2022-05-09 13:46 310K 
[IMG]1jN3PJbXcesrA0n.jpg2022-05-09 13:46 351K 
[IMG]XHBkKVahAPQmJcB.jpg2022-05-09 13:46 619K 
[IMG]VmbSIFdQlingry4.jpg2022-05-09 13:46 497K 
[IMG]UYANZgqDZlcE6lk.jpg2022-05-09 13:46 259K 
[IMG]PmuHz87DH1uwIRf.jpg2022-05-09 13:46 486K 
[IMG]AgVae1tRkSSxv4o.jpg2022-05-09 13:46 696K 
[IMG]prlwElqSiTbjUgt.jpg2022-05-09 13:46 623K 
[IMG]bcvNfOsi6iP2cez.jpg2022-05-09 13:51 16K 
[IMG]zpIChyc4ajLAlkU.jpg2022-05-09 13:51 17K 
[IMG]mjeONf2HdUPpri2.jpg2022-05-09 13:51 24K 
[IMG]aUrta8NBKeoTQt6.jpg2022-05-09 13:51 25K 
[IMG]dn1EDTgZNzmNkWP.jpg2022-05-09 13:51 23K 
[IMG]XhDAMTJOaTaHHBK.jpg2022-05-09 13:51 27K 
[IMG]TD4iDu2Y2K6xul4.jpg2022-05-09 13:51 55K 
[IMG]C5xmWAu5G32nghH.jpg2022-05-09 13:52 117K 
[IMG]9haXxMvwXV4Ffv3.jpg2022-05-09 13:52 48K 
[IMG]XU8S9vuZKDFZNSR.jpg2022-05-09 13:52 267K 
[IMG]37X5FGAKBMliyAB.jpg2022-05-09 13:52 306K 
[IMG]P5giyQjS9T11Afh.jpg2022-05-09 13:52 278K 
[IMG]yiRXnphHEcfHlh1.jpg2022-05-09 13:52 304K 
[IMG]TFC5BOTe6AycrcN.jpg2022-05-09 13:52 165K 
[IMG]TRCBsTZ6PhqoFzF.jpg2022-05-09 13:52 266K 
[IMG]umQQHkHuZtz1tOs.jpg2022-05-09 13:52 117K 
[IMG]CgEEXRzK6wHXBxu.jpg2022-05-09 13:53 28K 
[IMG]OYafNKXuU0m0jZ0.jpg2022-05-09 13:53 16K 
[IMG]ZRepVhZWFAf1xQz.jpg2022-05-09 13:53 32K 
[IMG]z7PrCgXb66ROIQk.jpg2022-05-09 13:53 28K 
[IMG]Qnqe40axh07iGoW.jpg2022-05-09 13:53 31K 
[IMG]p8eBEdVnqjbl0gL.jpg2022-05-09 13:53 29K 
[IMG]3ut6IevFnpeNG2w.jpg2022-05-09 13:53 55K 
[IMG]e8eKyz8K9t5N2ck.jpg2022-05-09 13:54 28K 
[IMG]UKhi2ZWrbCiDXa1.jpg2022-05-09 13:54 21K 
[IMG]ZCFztO2xAd3ROwj.jpg2022-05-09 13:54 32K 
[IMG]28gHXLalbpxRigO.jpg2022-05-09 13:54 44K 
[IMG]hcodkMZir5AZ8qt.jpg2022-05-09 13:54 40K 
[IMG]sMULAiqbWh0t0eO.jpg2022-05-09 13:54 46K 
[IMG]jWVOryw2NVPiUCX.jpg2022-05-09 13:54 33K 
[IMG]yaf3bYATUTlmSZP.jpg2022-05-09 13:55 34K 
[IMG]QSslM3mwtjBtvst.jpg2022-05-09 13:55 39K 
[IMG]YCdqVBpEFoVgtrQ.jpg2022-05-09 13:55 31K 
[IMG]cO9Q0qsycdlSnzf.jpg2022-05-09 13:55 47K 
[IMG]FGE1q4OZbzx7pIT.jpg2022-05-09 13:55 43K 
[IMG]E7MToeEr24IibF2.jpg2022-05-09 13:55 26K 
[IMG]qTwW4mgG8j321LE.jpg2022-05-09 13:55 23K 
[IMG]3QEYDMh06tmTwca.jpg2022-05-09 13:56 56K 
[IMG]sp9LVdWHEV66HMZ.jpg2022-05-09 13:56 31K 
[IMG]u2mlEscXi3MDzRm.jpg2022-05-09 13:56 118K 
[IMG]X5lJQMsqnlBV4Kj.jpg2022-05-09 13:56 41K 
[IMG]W44dHPT2zU5FHka.jpg2022-05-09 13:56 109K 
[IMG]LpWQ5bWN1CdHLhX.jpg2022-05-09 13:56 60K 
[IMG]syHu6n4k91v6S2J.jpg2022-05-09 13:56 98K 
[IMG]wCGwbhf6XEJvxoa.jpg2022-05-09 13:56 27K 
[IMG]Z2xbgqCJNKxrJFk.jpg2022-05-09 13:56 29K 
[IMG]Yd5W8Egd8dkq05s.jpg2022-05-09 13:56 30K 
[IMG]6nlhywQw6aox5O3.jpg2022-05-09 13:57 36K 
[IMG]HELy5igAhnCzInX.jpg2022-05-09 13:57 43K 
[IMG]6hSkrfJGnqTbFvt.jpg2022-05-09 13:57 44K 
[IMG]AglE4Uldev9FwGE.jpg2022-05-09 13:57 23K 
[IMG]Oqz7J9zJMgxJlss.jpg2022-05-09 13:59 611K 
[IMG]TLzfMZRtTlRK4dq.jpg2022-05-09 13:59 673K 
[IMG]YdwXpYJp9F1xz9c.jpg2022-05-09 13:59 159K 
[IMG]Av4XS6O57j1cTiU.jpg2022-05-09 13:59 300K 
[IMG]Yv9gVt0jXDHCoES.jpg2022-05-09 13:59 251K 
[IMG]m5h5ZI98QvELHgz.jpg2022-05-09 13:59 165K 
[IMG]m23FncuQE6dwj9N.jpg2022-05-09 14:01 112K 
[IMG]ioKcKOKPOQw5fSM.jpg2022-05-09 14:01 67K 
[IMG]PiDnsHgQvDaYddY.jpg2022-05-09 14:01 148K 
[IMG]WImZUbpo14qgCBe.jpg2022-05-09 14:01 169K 
[IMG]JssMIs1yoPMOvCL.jpg2022-05-09 14:01 132K 
[IMG]Pj6xxm8DXErAkVh.jpg2022-05-09 14:01 86K 
[IMG]LQ87S5MeltQFDJx.jpg2022-05-09 14:01 143K 
[IMG]6Uet94WaimRzpyB.jpg2022-05-09 14:03 28K 
[IMG]fan0OWverJhPfQC.jpg2022-05-09 14:03 22K 
[IMG]AGkXw1tWfMYghPR.jpg2022-05-09 14:03 25K 
[IMG]NN9fISbRvNCx5Zw.jpg2022-05-09 14:04 50K 
[IMG]F9nxwKLJehO99WG.jpg2022-05-09 14:05 278K 
[IMG]uzfMCfA1153HC2T.jpg2022-05-09 14:05 238K 
[IMG]mWCPYKNujka8TRj.jpg2022-05-09 14:05 138K 
[IMG]PBl7GFV6aJtUIwU.jpg2022-05-09 14:05 130K 
[IMG]VQWgxS1VNL4Jre0.jpg2022-05-09 14:05 254K 
[IMG]2clqW4ACMVUrX4A.jpg2022-05-09 14:05 169K 
[IMG]uk2Nle6Yd0ApQFx.jpg2022-05-09 14:05 170K 
[IMG]nKoPeZPRRRl15Vz.jpg2022-05-09 14:05 124K 
[IMG]to1VB72Rw11TNay.jpg2022-05-09 14:05 162K 
[IMG]HtLb8qjZqxBIZry.jpg2022-05-09 14:06 106K 
[IMG]lKBMyEb0XeD6V2n.jpg2022-05-09 14:06 159K 
[IMG]d3UYafYLRzFtt9i.jpg2022-05-09 14:06 148K 
[IMG]dCJLwej3T2fpUDx.jpg2022-05-09 14:06 98K 
[IMG]3dsX9zONBwqO73g.jpg2022-05-09 14:06 186K 
[IMG]7s65oJcyscDLn8v.jpg2022-05-09 14:06 96K 
[IMG]gz5FD57zqQa1gZF.jpg2022-05-09 14:06 147K 
[IMG]Rlu6qaHKKHW1b89.jpg2022-05-09 14:07 24K 
[IMG]kAE47JvrN5HYBKV.jpg2022-05-09 14:07 32K 
[IMG]3owgrymdLmOTqyN.jpg2022-05-09 14:07 29K 
[IMG]McaCc5k00K1cTIR.jpg2022-05-09 14:07 24K 
[IMG]Z0iUdecK4YPyQtA.jpg2022-05-09 14:07 24K 
[IMG]u4jsbdrur5b5SvX.jpg2022-05-09 14:07 38K 
[IMG]XbsWWLebgGQQXol.jpg2022-05-09 14:07 50K 
[IMG]oh6u9wL98VfXAAJ.jpg2022-05-09 14:08 32K 
[IMG]Yzk9XUUF0Rnwuai.jpg2022-05-09 14:08 33K 
[IMG]z1AXolcZOSe3ZYn.jpg2022-05-09 14:08 29K 
[IMG]j9QAjBlolRFW1DR.jpg2022-05-09 14:08 36K 
[IMG]yIjWAZrknDAN5Jj.jpg2022-05-09 14:08 39K 
[IMG]NIUVo6kewXFb06x.jpg2022-05-09 14:08 35K 
[IMG]hCdRsiH78S5talT.jpg2022-05-09 14:08 707K 
[IMG]S4tLIpdC4OAtfd9.jpg2022-05-09 14:10 58K 
[IMG]o0rqWbLUmdH8igq.jpg2022-05-09 14:10 54K 
[IMG]qzeEvlW5tamTu2T.jpg2022-05-09 14:10 48K 
[IMG]uf0PlXqG8TSt9K6.jpg2022-05-09 14:10 47K 
[IMG]Ncyn9kskeM8LWxV.jpg2022-05-09 14:10 28K 
[IMG]q1HYbp0wBCul7ey.jpg2022-05-09 14:10 24K 
[IMG]zfF3Q9YV6QSlSGn.jpg2022-05-09 14:10 45K 
[IMG]0UsExdeqZ8MQgPS.jpg2022-05-09 14:10 159K 
[IMG]TiDD6NVVNoLafNX.jpg2022-05-09 14:10 198K 
[IMG]JMrpH1PJprhxNyc.jpg2022-05-09 14:11 152K 
[IMG]YBsHy7zEZS32gkj.jpg2022-05-09 14:11 91K 
[IMG]z66pcX3v7hrIAHV.jpg2022-05-09 14:11 31K 
[IMG]0qNNTu0XIglCKsw.jpg2022-05-09 14:11 120K 
[IMG]RibN18DMtFBvOvC.jpg2022-05-09 14:11 61K 
[IMG]vU9hQoNNFbdapei.jpg2022-05-09 14:11 36K 
[IMG]pqRgsLg6ki0yYFZ.jpg2022-05-09 14:11 195K 
[IMG]3tmNZfyFyxQklZY.jpg2022-05-09 14:11 217K 
[IMG]hlXMF2KwwLi8CJK.jpg2022-05-09 14:11 243K 
[IMG]Y1Ah6p3xJgYhrgo.jpg2022-05-09 14:11 253K 
[IMG]CesqgNNPazqBI49.jpg2022-05-09 14:11 155K 
[IMG]DtlDkEgzuODEnnz.jpg2022-05-09 14:11 218K 
[IMG]7kyd6SLiE0itJIg.jpg2022-05-09 14:11 91K 
[IMG]SENsaLQvIdxDUG0.jpg2022-05-09 14:11 67K 
[IMG]o08XlUDRRguBQaA.jpg2022-05-09 14:14 52K 
[IMG]f4VY3ZH3hU8LS3s.jpg2022-05-09 14:14 40K 
[IMG]mcbmpGMJXL7ZKMn.jpg2022-05-09 14:14 50K 
[IMG]bZEb8sZhzegmUgu.jpg2022-05-09 14:14 45K 
[IMG]G8SFFHltiXoUFRO.jpg2022-05-09 14:14 48K 
[IMG]1nBYNSLNGySpdPx.jpg2022-05-09 14:14 41K 
[IMG]V7yT0LIabqx2sX3.jpg2022-05-09 14:14 54K 
[IMG]lAyJw03Yd52wWlb.jpg2022-05-09 14:14 42K 
[IMG]1z1z21XDksCG3YJ.jpg2022-05-09 14:14 42K 
[IMG]PUS73opn8EYsD6H.jpg2022-05-09 14:14 38K 
[IMG]MxewBuNTbj8QDf5.jpg2022-05-09 14:14 40K 
[IMG]LpA4sW0Flm5rgqu.jpg2022-05-09 14:14 40K 
[IMG]r74Jshczqr3vdot.jpg2022-05-09 14:14 32K 
[IMG]z5mMn4cvDLc1ZCu.jpg2022-05-09 14:14 37K 
[IMG]oz2uoyoPXUOY0By.jpg2022-05-09 14:15 49K 
[IMG]hPVCOumJ6KPQqQW.jpg2022-05-09 14:15 35K 
[IMG]lqusfAsoRDrSXQe.jpg2022-05-09 14:15 35K 
[IMG]st0T2RhRLTJBpDy.jpg2022-05-09 14:15 22K 
[IMG]Cbkolz3PA0tSlgX.jpg2022-05-09 14:15 32K 
[IMG]GfAez0CjtvgYAIX.jpg2022-05-09 14:15 30K 
[IMG]hQcRujg8rwaKyd6.jpg2022-05-09 14:15 19K 
[IMG]IG6njxFCPRyOx0v.jpg2022-05-09 14:16 61K 
[IMG]Y6ge7B9RA112Gz3.jpg2022-05-09 14:16 48K 
[IMG]sUKppVQtbxynwKK.jpg2022-05-09 14:16 50K 
[IMG]lP6N1NjvfGBa2Tf.jpg2022-05-09 14:16 33K 
[IMG]usitwXd2d5L0YtO.jpg2022-05-09 14:16 43K 
[IMG]1AYxCSoZ9YvqhVv.jpg2022-05-09 14:16 47K 
[IMG]RLVdQWwf60BmOlZ.jpg2022-05-09 14:16 40K 
[IMG]LrQbOlUp9puMcIv.jpg2022-05-09 14:17 154K 
[IMG]sMSFGEfGlE23dnT.jpg2022-05-09 14:17 273K 
[IMG]jPGh91Rzr7Fx8Dl.jpg2022-05-09 14:17 188K 
[IMG]IgnjmTrQILcvSPf.jpg2022-05-09 14:17 125K 
[IMG]lQNSZxR6ZpoHlBh.jpg2022-05-09 14:17 170K 
[IMG]oPTSQWXxAKxuAS5.jpg2022-05-09 14:17 109K 
[IMG]fU7reMDqHJrgcZ6.jpg2022-05-09 14:17 163K 
[IMG]N7QQ5IUMDouikpw.jpg2022-05-09 14:17 174K 
[IMG]pRPblQ5C2BUADja.jpg2022-05-09 14:17 34K 
[IMG]g0zAyMp6B30PmX5.jpg2022-05-09 14:17 48K 
[IMG]TmqlsOXJBmsfrtX.jpg2022-05-09 14:17 192K 
[IMG]BVj4lJTez3TIJJO.jpg2022-05-09 14:17 34K 
[IMG]9xY4zkW1xYSvbYp.jpg2022-05-09 14:17 163K 
[IMG]DVoDcsQPs8vKHiG.jpg2022-05-09 14:17 180K 
[IMG]UhHlQElu1FWbcNy.jpg2022-05-09 14:17 25K 
[IMG]XNTicHOgzNe0XR7.jpg2022-05-09 14:17 24K 
[IMG]jxm1aXVASR6E9K4.jpg2022-05-09 14:17 30K 
[IMG]ZZu699BFvbhGWux.jpg2022-05-09 14:17 205K 
[IMG]8HQkVD9RIidT7Nx.jpg2022-05-09 14:17 19K 
[IMG]oTSe0ao7RgqqVfd.jpg2022-05-09 14:17 313K 
[IMG]P02Q3K21IsW7IjL.jpg2022-05-09 14:17 357K 
[IMG]vzZf0qoXmy9lyRc.jpg2022-05-09 14:17 133K 
[IMG]2VNxM8klLsem7Cs.jpg2022-05-09 14:17 237K 
[IMG]UDxbAifAEf3oOSA.jpg2022-05-09 14:17 144K 
[IMG]qFSoPAKRcSxxS61.jpg2022-05-09 14:17 171K 
[IMG]5YfVNUOd4TApMhH.jpg2022-05-09 14:17 104K 
[IMG]5g8SHowkPm8RG7G.jpg2022-05-09 14:20 196K 
[IMG]k9bIrCOYzv316j4.jpg2022-05-09 14:20 174K 
[IMG]wxGz7iWxt1fEAWT.jpg2022-05-09 14:20 135K 
[IMG]ANdeNri9W6HNfdY.jpg2022-05-09 14:20 155K 
[IMG]AXBCRvBSrG0ImuU.jpg2022-05-09 14:20 156K 
[IMG]HCSZ5cHD0w8oGGn.jpg2022-05-09 14:20 204K 
[IMG]9jydWwGayj95Uhy.jpg2022-05-09 14:20 170K 
[IMG]QnyZKIBrDDTDHuA.jpg2022-05-09 14:21 283K 
[IMG]uS7gly8L1Hfmq9X.jpg2022-05-09 14:21 149K 
[IMG]2dxpHnHUTG0gmsg.jpg2022-05-09 14:21 202K 
[IMG]wd9hUPvahkjKcfl.jpg2022-05-09 14:21 201K 
[IMG]EDiy8DrLFQlkFMX.jpg2022-05-09 14:21 242K 
[IMG]K5aGddePhTfFWnS.jpg2022-05-09 14:21 335K 
[IMG]LEiE7a6BmGEayxN.jpg2022-05-09 14:21 184K 
[IMG]LZJJi0nslqjs0fw.jpg2022-05-09 14:21 141K 
[IMG]NaL9AfUtcygf3Xt.jpg2022-05-09 14:22 24K 
[IMG]URCLnGqhqOmRogu.jpg2022-05-09 14:22 32K 
[IMG]wiQR7qOFxvKD33P.jpg2022-05-09 14:22 13K 
[IMG]ytJrWLxVcJUL8aT.jpg2022-05-09 14:22 8.4K 
[IMG]UrLwKPSupyYizh6.jpg2022-05-09 14:22 8.3K 
[IMG]LVNTLDH0vPMiiwh.jpg2022-05-09 14:22 38K 
[IMG]hLmA1o90JHaXypE.jpg2022-05-09 14:22 48K 
[IMG]RUMkKN5FGWqnBDx.jpg2022-05-09 14:22 25K 
[IMG]P9PS8bGSBiHJgrv.jpg2022-05-09 14:22 40K 
[IMG]XovWxmYio7dvqul.jpg2022-05-09 14:22 25K 
[IMG]O3Nd5z4WNkE4njg.jpg2022-05-09 14:22 56K 
[IMG]xE3rEwpymlrdj6o.jpg2022-05-09 14:22 65K 
[IMG]Ffrd8yN2Oen7mO6.jpg2022-05-09 14:22 37K 
[IMG]jeavkgUqYggZ2Z4.jpg2022-05-09 14:27 27K 
[IMG]7yYujaxHiUgETqs.jpg2022-05-09 14:27 24K 
[IMG]m2MOY1QbrsNoRKj.jpg2022-05-09 14:27 111K 
[IMG]c9piYPfP9BhRwbr.jpg2022-05-09 14:27 16K 
[IMG]YDFcm6bdGOS0JBu.jpg2022-05-09 14:27 16K 
[IMG]hjedZpMTuunQAsT.jpg2022-05-09 14:58 175K 
[IMG]o3uVNie1EAlgqcU.jpg2022-05-09 14:58 171K 
[IMG]5U9d3ueB6OdcTTf.jpg2022-05-09 14:58 150K 
[IMG]iOpWbglocFtInpF.jpg2022-05-09 14:58 183K 
[IMG]6t59hYae7uOYI8K.jpg2022-05-09 14:58 196K 
[IMG]4hM2rturvh5ocb7.jpg2022-05-09 14:58 319K 
[IMG]CYzh9WitIBBXoRl.jpg2022-05-09 14:58 258K 
[IMG]6dMfnCasbrzOhcv.jpg2022-05-09 14:59 111K 
[IMG]OtBidsnnkzL7kuY.jpg2022-05-09 14:59 100K 
[IMG]ox2wZTb3zFiLPoL.jpg2022-05-09 14:59 132K 
[IMG]48CuWWBBZt3EVbK.jpg2022-05-09 14:59 106K 
[IMG]IlSWXpx2IlzmKRM.jpg2022-05-09 14:59 111K 
[IMG]FnjElyZv82WzpMP.jpg2022-05-09 14:59 112K 
[IMG]nRelivZRtpJLupK.jpg2022-05-09 14:59 100K 
[IMG]FFTJDunD8qQ4XMC.jpg2022-05-09 15:00 48K 
[IMG]pudv12cjQjy4pKX.jpg2022-05-09 15:00 33K 
[IMG]g3NkYrdpB2lOz4Q.jpg2022-05-09 15:00 25K 
[IMG]Eee7Yd1rSXbHKTE.jpg2022-05-09 15:00 34K 
[IMG]uraupw2cxw7EnOB.jpg2022-05-09 15:00 28K 
[IMG]CeujO4bfFaBbM72.jpg2022-05-09 15:00 26K 
[IMG]uypmMHs1vRkqrio.jpg2022-05-09 15:00 19K 
[IMG]pbGfBNEKL5OHAbn.jpg2022-05-09 15:01 13K 
[IMG]34qeHLCBShzx1hn.jpg2022-05-09 15:01 10K 
[IMG]KEczhn21lc8CzWS.jpg2022-05-09 15:01 34K 
[IMG]rBk2iNTHFABIXnj.jpg2022-05-09 15:01 54K 
[IMG]x9SQfIXtcMcd7wv.jpg2022-05-09 15:01 122K 
[IMG]u2KRWqzavPB1H5K.jpg2022-05-09 15:01 29K 
[IMG]G9eixZc3woaifLv.jpg2022-05-09 15:01 22K 
[IMG]QPCYJIwgk6n8Dhs.jpg2022-05-09 15:02 51K 
[IMG]Gt8ZKLYFHn40geX.jpg2022-05-09 15:02 37K 
[IMG]D5Idb2ieZCQYy69.jpg2022-05-09 15:02 16K 
[IMG]PULhUAJfOBzNmZG.jpg2022-05-09 15:02 39K 
[IMG]kQblkuqPyXOeWKM.jpg2022-05-09 15:02 33K 
[IMG]wITmUqQNGPEa0z5.jpg2022-05-09 15:02 34K 
[IMG]niiwTlVKIXWrlwB.jpg2022-05-09 15:02 19K 
[IMG]aqWyalb1RLd1LLv.jpg2022-05-09 15:02 11K 
[IMG]dDKIwqCJyYkSKMF.jpg2022-05-09 15:02 47K 
[IMG]SlWtSW9e5mTaD5k.jpg2022-05-09 15:02 192K 
[IMG]R0x9tQ9tX3iJpd3.jpg2022-05-09 15:02 377K 
[IMG]dkyya4SWtr7x7Iu.jpg2022-05-09 15:02 618K 
[IMG]IsMiv0tw2fn3Gn7.jpg2022-05-09 15:02 113K 
[IMG]dWWirzba881rcjE.jpg2022-05-09 15:02 144K 
[IMG]a5VkaDiFPowiU3K.jpg2022-05-09 15:02 191K 
[IMG]8Dk97cZ3JszEVHg.jpg2022-05-09 15:03 242K 
[IMG]HzIufHQAnsNTNUZ.jpg2022-05-09 15:03 138K 
[IMG]PTFTmKi24YMBgjv.jpg2022-05-09 15:03 149K 
[IMG]fk0H2kfI09y9nXd.jpg2022-05-09 15:03 212K 
[IMG]o1f3RxzMSLrIrAI.jpg2022-05-09 15:03 241K 
[IMG]t4b9tApeyQ4nSZL.jpg2022-05-09 15:03 393K 
[IMG]bar9c4gfN3JM1bc.jpg2022-05-09 15:05 37K 
[IMG]qOeSs54yScXlBKi.jpg2022-05-09 15:05 55K 
[IMG]EVO5QQaubwV3Po0.jpg2022-05-09 15:05 49K 
[IMG]MVyGkS9CKCPo2gu.jpg2022-05-09 15:05 66K 
[IMG]lek7q7SsYxGfbVn.jpg2022-05-09 15:05 34K 
[IMG]alheAHoUkbNdcGt.jpg2022-05-09 15:05 44K 
[IMG]TqwjoeE0TNyb6XW.jpg2022-05-09 15:05 66K 
[IMG]4a5bEKZVZOvruxk.jpg2022-05-09 15:05 226K 
[IMG]hoBmFjujMwkgYtQ.jpg2022-05-09 15:05 138K 
[IMG]Coq1eCXJfU4HcTk.jpg2022-05-09 15:05 149K 
[IMG]Fcxh9oreWx9dhk1.jpg2022-05-09 15:05 255K 
[IMG]YoE0YELPBCQQ5cO.jpg2022-05-09 15:05 241K 
[IMG]59FnQbX9EKxVQMz.jpg2022-05-09 15:05 375K 
[IMG]sq0BmdHOFqYmTsI.jpg2022-05-09 15:06 13K 
[IMG]lYsdYIpR7PX7H6u.jpg2022-05-09 15:06 14K 
[IMG]0Acwsx3sKypgxLU.jpg2022-05-09 15:06 13K 
[IMG]Gw7E7hSxCP8hEgg.jpg2022-05-09 15:06 16K 
[IMG]CVQkIizyuvvj3uE.jpg2022-05-09 15:06 13K 
[IMG]hNcDszTa9gb5wGq.jpg2022-05-09 15:06 16K 
[IMG]JXlDodUagPalKiZ.jpg2022-05-09 15:06 21K 
[IMG]rSJTPSmXoQFCEvB.jpg2022-05-09 15:09 33K 
[IMG]5qxqOEyDFWmIAfG.jpg2022-05-09 15:09 31K 
[IMG]p1V2q79enEQvoK4.jpg2022-05-09 15:09 44K 
[IMG]rdqwLHXGdwc6SGf.jpg2022-05-09 15:09 36K 
[IMG]7PhnwFecC9g9MLw.jpg2022-05-09 15:09 34K 
[IMG]toyQeclnRbB4I7E.jpg2022-05-09 15:09 22K 
[IMG]83Q24Cn7fSjGdJy.jpg2022-05-09 15:09 22K 
[IMG]znZmqa3QJgAPjPf.jpg2022-05-09 15:10 38K 
[IMG]6Dc0E5sLYwgtRVQ.jpg2022-05-09 15:10 21K 
[IMG]TdcPAPNRnQLLnNC.jpg2022-05-09 15:10 34K 
[IMG]nwI9q0eni5LzQbX.jpg2022-05-09 15:10 32K 
[IMG]BYxVToUHS3aXSCE.jpg2022-05-09 15:10 26K 
[IMG]PHfZlYKAR5Q5qsF.jpg2022-05-09 15:10 25K 
[IMG]2chm3Sz22KqTbNn.jpg2022-05-09 15:10 22K 
[IMG]AhN0KS9sG43TqPB.jpg2022-05-09 15:11 33K 
[IMG]WZXhITDYGagq9HV.jpg2022-05-09 15:11 46K 
[IMG]pzxsl60Noo8xpK7.jpg2022-05-09 15:11 36K 
[IMG]lWazNTbPjeOLjW5.jpg2022-05-09 15:11 30K 
[IMG]8xaqKLobygySDn3.jpg2022-05-09 15:11 19K 
[IMG]7ZzE2q5C5hBul2k.jpg2022-05-09 15:11 37K 
[IMG]3wBORgpNKCQRH2Y.jpg2022-05-09 15:11 61K 
[IMG]NXxTxNOmKF66Wau.jpg2022-05-09 15:11 37K 
[IMG]NmwNhVYO43jsJn7.jpg2022-05-09 15:11 39K 
[IMG]r8m3IobtTIt9uWK.jpg2022-05-09 15:11 42K 
[IMG]i1chqrNbanS7heN.jpg2022-05-09 15:11 49K 
[IMG]Re5SIiDrmiSm9Ql.jpg2022-05-09 15:12 38K 
[IMG]9tqc7sGNXzpPYHI.jpg2022-05-09 15:12 32K 
[IMG]rolFnrOdREBSwg4.jpg2022-05-09 15:12 33K 
[IMG]Iqnjp5V39aYvLxa.jpg2022-05-09 15:12 43K 
[IMG]Ctrpyi4IVlHRUYZ.jpg2022-05-09 15:12 36K 
[IMG]7V410aowZdpVA0C.jpg2022-05-09 15:12 32K 
[IMG]U5zGcMyPuWGpvgT.jpg2022-05-09 15:12 24K 
[IMG]QalzE7sNtphUdsJ.jpg2022-05-09 15:12 44K 
[IMG]i0sQQ3pxtbyW1Y6.jpg2022-05-09 15:12 29K 
[IMG]1Zd5jKjS5QnEA8S.jpg2022-05-09 15:12 26K 
[IMG]5PeRiQ1sTsKkxxm.jpg2022-05-09 15:12 24K 
[IMG]kteB1RIhnPmbb74.jpg2022-05-09 15:12 31K 
[IMG]nXeq45s8L0sPN2q.jpg2022-05-09 15:12 29K 
[IMG]lGrXhK0CtNNtAwP.jpg2022-05-09 15:12 23K 
[IMG]020DBBh2m8lteyr.jpg2022-05-09 15:12 34K 
[IMG]6xxxIEIjpdkMKiL.jpg2022-05-09 15:12 40K 
[IMG]z8RjFCyUmymh3Uy.jpg2022-05-09 15:12 43K 
[IMG]bnvQx3j3QiVj2Wh.jpg2022-05-09 15:13 20K 
[IMG]x3HIBwlNOcokQQH.jpg2022-05-09 15:13 46K 
[IMG]jT37gnu5LOd4lvc.jpg2022-05-09 15:13 13K 
[IMG]uT6qBDa0QwSGrm8.jpg2022-05-09 15:13 11K 
[IMG]cnpK7ZK5L4gTi9n.jpg2022-05-09 15:14 52K 
[IMG]ONDAn5TW3OWSR4K.jpg2022-05-09 15:14 18K 
[IMG]ZDJ1mOlqvbGowrH.jpg2022-05-09 15:14 42K 
[IMG]p4YmohL9FrTGhv4.jpg2022-05-09 15:14 38K 
[IMG]XyNON16gIQnWYzz.jpg2022-05-09 15:14 33K 
[IMG]Mtg0viiJk0XctB6.jpg2022-05-09 15:14 22K 
[IMG]7OQHTpbPcXZJoIy.jpg2022-05-09 15:14 43K 
[IMG]Dgor0uwRv33oCzX.jpg2022-05-09 15:15 50K 
[IMG]8JXuGicxaEfPuOk.jpg2022-05-09 15:15 30K 
[IMG]FuM0qtFHnps0ksl.jpg2022-05-09 15:15 27K 
[IMG]cA08dkWGsBvKjMJ.jpg2022-05-09 15:15 26K 
[IMG]73jmCLHHEKeTZ1r.jpg2022-05-09 15:15 50K 
[IMG]gC38DF6y4xYjj6i.jpg2022-05-09 15:15 63K 
[IMG]JtuJfj5RS3iM2Be.jpg2022-05-09 15:16 159K 
[IMG]tIAL44df3Bs0mjw.jpg2022-05-09 15:16 151K 
[IMG]2hcKP3ODCeU7a2k.jpg2022-05-09 15:16 206K 
[IMG]CzQmILCfzj2BiNq.jpg2022-05-09 15:16 185K 
[IMG]BfPtC7FDK1jDlSF.jpg2022-05-09 15:16 166K 
[IMG]jg0J6ynIagoLjEp.jpg2022-05-09 15:16 160K 
[IMG]E8yN8PbiNxnTA0A.jpg2022-05-09 15:16 152K 
[IMG]FeaZaKw0tKOqeAP.jpg2022-05-09 15:16 32K 
[IMG]lrNAzi84CmaARrp.jpg2022-05-09 15:16 21K 
[IMG]SJPMvi31qiLw7fZ.jpg2022-05-09 15:16 19K 
[IMG]BBVeixHtJLcN0pr.jpg2022-05-09 15:16 30K 
[IMG]4ACkuGPMriNWkXr.jpg2022-05-09 15:16 11K 
[IMG]P7WiTRxrAFPCcTQ.jpg2022-05-09 15:16 11K 
[IMG]r57uPvL6tFOM3Pq.jpg2022-05-09 15:16 19K 
[IMG]El30zEcOa6twFIY.jpg2022-05-09 15:17 51K 
[IMG]dN2NLlLFfZgVmfp.jpg2022-05-09 15:17 49K 
[IMG]VRoKjBnHzl8ePqe.jpg2022-05-09 15:17 45K 
[IMG]yyQGAjj7H10vujo.jpg2022-05-09 15:17 41K 
[IMG]VpBiUi5kF7PMy95.jpg2022-05-09 15:17 52K 
[IMG]1Ml2Xz1DDebBryN.jpg2022-05-09 15:17 58K 
[IMG]mbYteBVdAVHSavI.jpg2022-05-09 15:17 52K 
[IMG]tHRSowD0czUIbx7.jpg2022-05-09 15:17 63K 
[IMG]AHLdYTmVp9ypvwz.jpg2022-05-09 15:17 42K 
[IMG]3Sq5Wm5CQQY1In9.jpg2022-05-09 15:17 65K 
[IMG]2M7BqDqJTjuxSrb.jpg2022-05-09 15:17 43K 
[IMG]d58eMBQw2Tj5x88.jpg2022-05-09 15:17 17K 
[IMG]P86tis0xiNAYQef.jpg2022-05-09 15:17 32K 
[IMG]uRfQuExZ1nWENyJ.jpg2022-05-09 15:17 23K 
[IMG]iIYi01uUkkoUf7l.jpg2022-05-09 15:17 18K 
[IMG]JM4jXR5icy6Bok2.jpg2022-05-09 15:17 38K 
[IMG]2cgauBhGRLCDAl7.jpg2022-05-09 15:18 45K 
[IMG]qJM5XImrBW0KQ25.jpg2022-05-09 15:18 43K 
[IMG]m4P5R0AqT5aljle.jpg2022-05-09 15:18 45K 
[IMG]GlbwBMdcyKjQd3l.jpg2022-05-09 15:18 49K 
[IMG]QL6YblnC1uqDOZA.jpg2022-05-09 15:18 55K 
[IMG]kAD2v7kMLowJSbv.jpg2022-05-09 15:18 50K 
[IMG]2Fx0oi9A51UGtjD.jpg2022-05-09 15:18 281K 
[IMG]pPwXICgjsWWHPsf.jpg2022-05-09 15:18 218K 
[IMG]E2WOn3aA7ZTawRl.jpg2022-05-09 15:18 224K 
[IMG]Atwys5Aip6jaBjl.jpg2022-05-09 15:18 229K 
[IMG]j2OIXzM5lGpGt96.jpg2022-05-09 15:18 252K 
[IMG]6x53wlpcNkWKT0r.jpg2022-05-09 15:18 105K 
[IMG]816Mu5kA8WLojd4.jpg2022-05-09 15:18 212K 
[IMG]k5rdZ3NRh1NeeGE.jpg2022-05-09 15:18 109K 
[IMG]gCSurmJJWjM3xAM.jpg2022-05-09 15:18 159K 
[IMG]h51nyUPuAhPTWXs.jpg2022-05-09 15:18 175K 
[IMG]F6ikO7qy8bngY7s.jpg2022-05-09 15:18 209K 
[IMG]azXMcmHuwVu7Qd2.jpg2022-05-09 15:18 300K 
[IMG]1TzsOPlRrHgtwq8.jpg2022-05-09 15:18 194K 
[IMG]cvbDCIj0gBMhL1O.jpg2022-05-09 15:18 156K 
[IMG]D33q9FBUV9d3AhU.jpg2022-05-09 15:18 306K 
[IMG]JQ1pLM5cyBIHp47.jpg2022-05-09 15:18 193K 
[IMG]FLJ5dF9Ad1yxS2U.jpg2022-05-09 15:18 132K 
[IMG]Ukj0KPQmCYZrWTz.jpg2022-05-09 15:18 222K 
[IMG]C1XMMEqMK8emySn.jpg2022-05-09 15:18 163K 
[IMG]jMqI5NI1bGuUtwo.jpg2022-05-09 15:18 199K 
[IMG]5JBcj3Diu6pYlVp.jpg2022-05-09 15:18 194K 
[IMG]mfgi24BpfFe7AKM.jpg2022-05-09 15:18 249K 
[IMG]bo9CEJ6qaLqwS6o.jpg2022-05-09 15:19 59K 
[IMG]YlCOHFiWFuJfiQQ.jpg2022-05-09 15:19 63K 
[IMG]QQGePTIzMRriDYM.jpg2022-05-09 15:19 77K 
[IMG]u2jLtMAdo4XkkGr.jpg2022-05-09 15:19 111K 
[IMG]UwImZfgSBqZYzUM.jpg2022-05-09 15:19 174K 
[IMG]UI1sjkXtrOHYd8U.jpg2022-05-09 15:19 35K 
[IMG]0yuXc7X1sLyqWrw.jpg2022-05-09 15:19 40K 
[IMG]MaY12iflutcvwLM.jpg2022-05-09 15:19 26K 
[IMG]MBi4absduLWCHNy.jpg2022-05-09 15:19 34K 
[IMG]9itXokV2xAM8xGT.jpg2022-05-09 15:19 29K 
[IMG]7KDzb8eJct1Vb5j.jpg2022-05-09 15:19 135K 
[IMG]Nz3x7ic55xWW7Si.jpg2022-05-09 15:19 37K 
[IMG]URSGlmVZ82JlosH.jpg2022-05-09 15:19 30K 
[IMG]8jTMHm5LQz0A6sG.jpg2022-05-09 15:19 216K 
[IMG]tt6RXbsB6OgZCr0.jpg2022-05-09 15:19 228K 
[IMG]FkMHt5Kbtk04WKl.jpg2022-05-09 15:20 51K 
[IMG]V7iEt45tNr9hraX.jpg2022-05-09 15:20 37K 
[IMG]RhPtFvVwpNXRJts.jpg2022-05-09 15:20 59K 
[IMG]upFMLPkn38DHvs7.jpg2022-05-09 15:20 45K 
[IMG]sEgecypLl2PcwUP.jpg2022-05-09 15:20 64K 
[IMG]zNgQDJxRRqbW7eP.jpg2022-05-09 15:20 40K 
[IMG]XXtyZA2qa6GnEqd.jpg2022-05-09 15:20 35K 
[IMG]MsVHYTnHTzrrktO.jpg2022-05-09 15:20 22K 
[IMG]xoJZ5ricn1WtjDb.jpg2022-05-09 15:20 17K 
[IMG]xKmK66Ipw7qpi39.jpg2022-05-09 15:20 17K 
[IMG]UEX4713kMzrvK0b.jpg2022-05-09 15:20 18K 
[IMG]X7Ctd3fqfYG3nyg.jpg2022-05-09 15:20 24K 
[IMG]j9h5lPvyhjcKFoG.jpg2022-05-09 15:20 11K 
[IMG]bnmWoJYPYUOstcQ.jpg2022-05-09 15:20 13K 
[IMG]LWp0P0fPrIjk8dY.jpg2022-05-09 15:20 18K 
[IMG]ycVSSbMqj4Kknam.jpg2022-05-09 15:20 17K 
[IMG]CWY3kvY2t1WFjYz.jpg2022-05-09 15:21 27K 
[IMG]g9pUN4bgrrNuwpP.jpg2022-05-09 15:21 49K 
[IMG]dr5t72L1uwK0ibV.jpg2022-05-09 15:21 28K 
[IMG]dJJ4BcsUInUbL5D.jpg2022-05-09 15:21 27K 
[IMG]wwx2VP5qkKWaaF8.jpg2022-05-09 15:21 29K 
[IMG]V7BQd8Mt8hlvABQ.jpg2022-05-09 15:21 17K 
[IMG]7Kvc7NSWY1TKlLS.jpg2022-05-09 15:21 35K 
[IMG]dqaihhBRsAYfGZf.jpg2022-05-09 15:21 161K 
[IMG]8XK2pX3ESZ0DRxA.jpg2022-05-09 15:21 226K 
[IMG]R7VNDYis8qi0zzv.jpg2022-05-09 15:21 163K 
[IMG]ZcCCP1WOwmvJayP.jpg2022-05-09 15:21 207K 
[IMG]j8xshlOncVkNLeo.jpg2022-05-09 15:21 188K 
[IMG]Eg9aOBmzsm40jxy.jpg2022-05-09 15:21 159K 
[IMG]j0mrfcC9gqBSeLy.jpg2022-05-09 15:21 183K 
[IMG]GwF75WrjHN6XBc7.jpg2022-05-09 15:21 89K 
[IMG]NMQ1axLLLrrD7JX.jpg2022-05-09 15:21 93K 
[IMG]mNldDT3Pu3SuNns.jpg2022-05-09 15:21 47K 
[IMG]dFvM6KzSWyhbcYu.jpg2022-05-09 15:21 23K 
[IMG]QMlfdNzqdxoSixb.jpg2022-05-09 15:21 34K 
[IMG]Vwucyf7bjh4bZ5m.jpg2022-05-09 15:22 82K 
[IMG]LZRpule6VQrCotL.jpg2022-05-09 15:22 59K 
[IMG]4rDR5ue741TjAFC.jpg2022-05-09 15:22 47K 
[IMG]MOAoEgBEK0gcRmf.jpg2022-05-09 15:22 49K 
[IMG]QewzUGwGXVmvz3q.jpg2022-05-09 15:22 42K 
[IMG]prn0ZYTc2AMX14h.jpg2022-05-09 15:22 59K 
[IMG]pSCmNB6lgJxEJkw.jpg2022-05-09 15:22 54K 
[IMG]GyT49e4r37ZQE8y.jpg2022-05-09 15:22 56K 
[IMG]PVKiNw7ywxcq97T.jpg2022-05-09 15:22 51K 
[IMG]sgs8ankjkDjAncR.jpg2022-05-09 15:22 41K 
[IMG]bv6UIclDBsmO3Jd.jpg2022-05-09 15:22 35K 
[IMG]lmZh4ZXn0yF8oEd.jpg2022-05-09 15:22 161K 
[IMG]M5YqVNggcTXTKzn.jpg2022-05-09 15:22 226K 
[IMG]D5XAq1rsI75ovBc.jpg2022-05-09 15:22 163K 
[IMG]EZcEGH878YXDeOT.jpg2022-05-09 15:22 207K 
[IMG]3bezKO9u59y6ueh.jpg2022-05-09 15:22 188K 
[IMG]mxl7YJZqok8Jgzm.jpg2022-05-09 15:22 197K 
[IMG]5VZv6WVH0T6XWDk.jpg2022-05-09 15:22 159K 
[IMG]MPFV1j1xiZ4MRev.jpg2022-05-09 15:22 183K 
[IMG]Rq3l52mcydZViUP.jpg2022-05-09 15:23 34K 
[IMG]kJkNTGWOv5V9DEr.jpg2022-05-09 15:23 29K 
[IMG]sG3em4LmCmbzXVY.jpg2022-05-09 15:24 58K 
[IMG]uxegHowfyPEhgfS.jpg2022-05-09 15:24 49K 
[IMG]bjicejonSzFvDYX.jpg2022-05-09 15:24 25K 
[IMG]zCFqzWsRILvEdB8.jpg2022-05-09 15:24 41K 
[IMG]j8K943echKLcQkM.jpg2022-05-09 15:24 42K 
[IMG]O8DCWI1BBhxLeMH.jpg2022-05-09 15:24 42K 
[IMG]r5WZayouZLiqVwM.jpg2022-05-09 15:24 32K 
[IMG]RreSmqopJ1kfBwf.jpg2022-05-09 15:24 32K 
[IMG]FXYZYUFkU0ZLs4k.jpg2022-05-09 15:24 24K 
[IMG]vvwBq6Rfw1RW3TQ.jpg2022-05-09 15:24 37K 
[IMG]1wGKkKqNvi8BIlN.jpg2022-05-09 15:24 33K 
[IMG]pxlQii7ySwVrDQ4.jpg2022-05-09 15:24 39K 
[IMG]QySWtogMruxQC9h.jpg2022-05-09 15:24 28K 
[IMG]iIeYfS7ok2Ip849.jpg2022-05-09 15:24 501K 
[IMG]Vi4ZaKgTotS41ZE.jpg2022-05-09 15:25 12K 
[IMG]0twatLpPpszA2QP.jpg2022-05-09 15:25 46K 
[IMG]ApWke8EoWo970ya.jpg2022-05-09 15:25 38K 
[IMG]keafTlWq5DNGKzZ.jpg2022-05-09 15:25 14K 
[IMG]e2d0qeotfG95YYN.jpg2022-05-09 15:25 18K 
[IMG]NCUzXqo6ACrHaMG.jpg2022-05-09 15:25 24K 
[IMG]Br54ZSHXWosjBGl.jpg2022-05-09 15:25 37K 
[IMG]nPoK16K8XLhNB6L.jpg2022-05-09 15:29 74K 
[IMG]xXf0axYBkkNWf3V.jpg2022-05-09 15:29 44K 
[IMG]twFfmlB3yYDl32T.jpg2022-05-09 15:29 64K 
[IMG]E7KFJUF4T3bn6kl.jpg2022-05-09 15:29 41K 
[IMG]DtUYFxNK5LpV2la.jpg2022-05-09 15:29 44K 
[IMG]Ej09UkIA4mNSX9M.jpg2022-05-09 15:29 86K 
[IMG]ddkEFtJruf3Njsk.jpg2022-05-09 15:29 78K 
[IMG]n5RjSkeJsd5NMoq.jpg2022-05-09 15:30 203K 
[IMG]xXocFpIpTw2FXoz.jpg2022-05-09 15:30 110K 
[IMG]f8ihWMU2z7hU46r.jpg2022-05-09 15:30 82K 
[IMG]4U5kecgEnBLLC5R.jpg2022-05-09 15:30 83K 
[IMG]np6cWDxAnQzmpR7.jpg2022-05-09 15:30 80K 
[IMG]aMsJ9nhWYDv9YLv.jpg2022-05-09 15:30 205K 
[IMG]67UPMmDpvo79ZaL.jpg2022-05-09 15:31 50K 
[IMG]x7DMtKwqnpndvb2.jpg2022-05-09 15:31 39K 
[IMG]7HyYYifbrcH8mw7.jpg2022-05-09 15:31 55K 
[IMG]jfba0bWVZOO01yv.jpg2022-05-09 15:31 62K 
[IMG]imsemoTFo4RxM77.jpg2022-05-09 15:31 128K 
[IMG]NoIRWEfuktrWftT.jpg2022-05-09 15:31 26K 
[IMG]OG18YebtmKa4zGG.jpg2022-05-09 15:32 71K 
[IMG]bESab7iOpitDmhA.jpg2022-05-09 15:32 40K 
[IMG]3HhIASSPSbsLnox.jpg2022-05-09 15:32 33K 
[IMG]74JX2sIZKO2IPGV.jpg2022-05-09 15:32 70K 
[IMG]gHFWi7WLexgTaST.jpg2022-05-09 15:33 34K 
[IMG]tajRhQZxVw5D4Hr.jpg2022-05-09 15:33 34K 
[IMG]qGaD6CVmnf4vPUL.jpg2022-05-09 15:33 41K 
[IMG]z1YXwLlqdKotgtc.jpg2022-05-09 15:33 33K 
[IMG]u9SKeVayRUINEGc.jpg2022-05-09 15:33 30K 
[IMG]OrqBrc64Ei8UnGT.jpg2022-05-09 15:33 27K 
[IMG]nEXBZv291P2o0Ji.jpg2022-05-09 15:34 63K 
[IMG]B1IixBfHzywdMD6.jpg2022-05-09 15:34 70K 
[IMG]uLvYk0wsTQnxEwW.jpg2022-05-09 15:34 49K 
[IMG]T3Q6aLTobF8lj6q.jpg2022-05-09 15:34 85K 
[IMG]LAO0DHUp4tZ8xxR.jpg2022-05-09 15:37 168K 
[IMG]VLCXXtQ1H51cb2y.jpg2022-05-09 15:37 106K 
[IMG]eCD0BT09ILsYj3x.jpg2022-05-09 15:37 129K 
[IMG]sTx39x0M85kbXzk.jpg2022-05-09 15:37 73K 
[IMG]sS3dpNgWoEUJWAh.jpg2022-05-09 15:37 152K 
[IMG]FPlnvFdCDJUVoTq.jpg2022-05-09 15:38 37K 
[IMG]FAD3bwqdTkG1htI.jpg2022-05-09 15:38 75K 
[IMG]dpKlKHLQilGcvNh.jpg2022-05-09 15:38 34K 
[IMG]4RziW7jpMiSW4lx.jpg2022-05-09 15:38 18K 
[IMG]9rkCgPSQtNmGMrl.jpg2022-05-09 15:38 12K 
[IMG]hwnudXXMCUBBt7Q.jpg2022-05-09 15:38 31K 
[IMG]dyezB0zVzWoMOMQ.jpg2022-05-09 15:38 37K 
[IMG]yqxLMCgDN8JMCuJ.jpg2022-05-09 15:40 62K 
[IMG]UbkWz8Y7P8l6GVg.jpg2022-05-09 15:40 39K 
[IMG]0mgqy1z5fKjCT8m.jpg2022-05-09 15:40 39K 
[IMG]GfFYhhFViIlIKQk.jpg2022-05-09 15:40 36K 
[IMG]VgllJFBn57tyuJH.jpg2022-05-09 15:40 20K 
[IMG]n8ciyFVBDfF3zy5.jpg2022-05-09 15:40 35K 
[IMG]TfKPxGFBjShut1Z.jpg2022-05-09 15:40 46K 
[IMG]Ld5p9d7ThMrJfKO.jpg2022-05-09 15:40 40K 
[IMG]bO9AgrFAJdOl2BC.jpg2022-05-09 15:40 46K 
[IMG]7uwjKEISpr3G9A7.jpg2022-05-09 15:40 43K 
[IMG]1NgImwELDPcWJhQ.jpg2022-05-09 15:40 70K 
[IMG]DEl17IaVS7efshP.jpg2022-05-09 15:40 85K 
[IMG]OIItJEjoDyDHoZg.jpg2022-05-09 15:41 12K 
[IMG]w4PXVeDBR79fKni.jpg2022-05-09 15:41 23K 
[IMG]VDUZbfQtp5yjTfh.jpg2022-05-09 15:41 7.7K 
[IMG]Uho3YRUWdpYMGTj.jpg2022-05-09 15:41 9.9K 
[IMG]yGosdHd9HyJZcY3.jpg2022-05-09 15:41 11K 
[IMG]7G6J3Tec9DdEUzn.jpg2022-05-09 15:41 6.8K 
[IMG]iQiP1MnuR8oGrXK.jpg2022-05-09 15:41 56K 
[IMG]bBwXZpUjYnldpe2.jpg2022-05-09 15:41 32K 
[IMG]l8BvrlKOmF5aouG.jpg2022-05-09 15:41 91K 
[IMG]fcqks9CmmXDz0rH.jpg2022-05-09 15:41 88K 
[IMG]9ZHjaQcvckmcpXj.jpg2022-05-09 15:41 218K 
[IMG]jrnVnz2U09BcaVn.jpg2022-05-09 15:41 119K 
[IMG]yfisgvlUQifMobB.jpg2022-05-09 15:41 57K 
[IMG]jNswDXja6QnpN98.jpg2022-05-09 15:41 80K 
[IMG]0NESNxsh6fCNHHJ.jpg2022-05-09 15:41 122K 
[IMG]UmrUeJxaiyV7erc.jpg2022-05-09 15:41 51K 
[IMG]lIDAAzm4CVu56JT.jpg2022-05-09 15:41 41K 
[IMG]9ghzRnKl34iQwnp.jpg2022-05-09 15:41 78K 
[IMG]Kiib5rFljktfHHP.jpg2022-05-09 15:42 30K 
[IMG]fCoZ4QtfmXuugZ1.jpg2022-05-09 15:42 39K 
[IMG]Lxi4kSdRCChMDY9.jpg2022-05-09 15:42 39K 
[IMG]dQJiIWQRjSGVtgX.jpg2022-05-09 15:42 25K 
[IMG]ui32DLtyDBt5TNp.jpg2022-05-09 15:42 31K 
[IMG]Ens0i3YbB9Ppxbe.jpg2022-05-09 15:42 30K 
[IMG]beqnAr5JpcjNCQf.jpg2022-05-09 15:50 55K 
[IMG]OVBIvFJt0SMvS8f.jpg2022-05-09 15:50 30K 
[IMG]gZD1uKhtauT2NGb.jpg2022-05-09 15:50 42K 
[IMG]nXHL4c1J7rwbMA1.jpg2022-05-09 15:50 38K 
[IMG]2Nbh5J2rw0efsJI.jpg2022-05-09 16:02 57K 
[IMG]2qf6iNHL1aTcQIK.jpg2022-05-09 16:02 22K 
[IMG]7ruobc3tPwDuXx2.jpg2022-05-09 16:02 26K 
[IMG]m2jQMMLZkV5tLi8.jpg2022-05-09 16:02 25K 
[IMG]FooA9xqxQUgpwud.jpg2022-05-09 16:02 11K 
[IMG]QCAGqTaOOsQMmGL.jpg2022-05-09 16:02 16K 
[IMG]exqMm7fd2tYV2WQ.jpg2022-05-09 16:02 92K 
[IMG]rvnbBfCtwSlR7jG.jpg2022-05-09 16:03 216K 
[IMG]qb2bbZNgXmlgpSE.jpg2022-05-09 16:03 226K 
[IMG]nq264BkrrP1z0YK.jpg2022-05-09 16:03 204K 
[IMG]P4mOBuLcJztJ8Le.jpg2022-05-09 16:03 39K 
[IMG]pbekX7TD6gLD5IR.jpg2022-05-09 16:03 15K 
[IMG]vcofIxjQYYA7e89.jpg2022-05-09 16:04 39K 
[IMG]6PvHrfj4TruAX9Z.jpg2022-05-09 16:04 50K 
[IMG]M6JHbkLOUG0vmqI.jpg2022-05-09 16:04 78K 
[IMG]wKwfYuxXepg06Ag.jpg2022-05-09 16:04 69K 
[IMG]4Tl1VxP7WPOPs1y.jpg2022-05-09 16:04 66K 
[IMG]PJ2hHWML1N3zrqm.jpg2022-05-09 16:04 61K 
[IMG]HL6u8kWCM2jMW28.jpg2022-05-09 16:04 43K 
[IMG]aODpSONnm8F2eOm.jpg2022-05-09 16:06 289K 
[IMG]tFgVHJnIqraNFHU.jpg2022-05-09 16:06 346K 
[IMG]vkVDKnGAp3Nfpod.jpg2022-05-09 16:06 263K 
[IMG]Zqb4nSWZ2of8mIE.jpg2022-05-09 16:06 384K 
[IMG]bYhfIX9fQQjDn4S.jpg2022-05-09 16:06 63K 
[IMG]Gb0cRUugKqv3uEH.jpg2022-05-09 16:06 37K 
[IMG]5tWiM4wvUBhv44V.jpg2022-05-09 16:06 178K 
[IMG]GpMwYNLWEYTznrW.jpg2022-05-09 16:06 88K 
[IMG]slrC28VdYUaTG0b.jpg2022-05-09 16:06 81K 
[IMG]YdtoDW5ANA1HEXD.jpg2022-05-09 16:06 96K 
[IMG]3LGNPoewn85e2ce.jpg2022-05-09 16:06 106K 
[IMG]7DwW1VXdSTghkQ7.jpg2022-05-09 16:06 84K 
[IMG]u57nKvRNPhR8Hou.jpg2022-05-09 16:06 71K 
[IMG]FC34XIrKqxAlxLe.jpg2022-05-09 16:06 120K 
[IMG]wR9qeLyZzJOIhWL.jpg2022-05-09 16:06 284K 
[IMG]PTX4RsGm1XN83kK.jpg2022-05-09 16:06 230K 
[IMG]Mtqa18TBkiiRDI4.jpg2022-05-09 16:06 296K 
[IMG]n1PhCBBIKikuccC.jpg2022-05-09 16:06 291K 
[IMG]vemIFgvsUvlpwvL.jpg2022-05-09 16:06 290K 
[IMG]jOZ4r1k4Hhs4W32.jpg2022-05-09 16:06 150K 
[IMG]0TSQ1IXu444AiGJ.jpg2022-05-09 16:06 272K 
[IMG]L2Xb5vTpgGlF9ur.jpg2022-05-09 16:07 57K 
[IMG]sMnPhi6Dq6kWWuX.jpg2022-05-09 16:07 34K 
[IMG]lTaVqOFa6kVZP4W.jpg2022-05-09 16:07 49K 
[IMG]Qc1GenT6sCRgN60.jpg2022-05-09 16:07 53K 
[IMG]x3FdQDF0z8Iov5b.jpg2022-05-09 16:07 28K 
[IMG]D76bDH460lldtnF.jpg2022-05-09 16:07 26K 
[IMG]7fuygUexk7bSLiR.jpg2022-05-09 16:07 27K 
[IMG]hj2TK0vpXzWUDqT.jpg2022-05-09 16:07 85K 
[IMG]GTHRuWkgwnPf7RV.jpg2022-05-09 16:07 52K 
[IMG]udwCDlSlxcVTevj.jpg2022-05-09 16:07 56K 
[IMG]o1Ojx9golq44shM.jpg2022-05-09 16:07 62K 
[IMG]Leeu9Obn5VNWkf4.jpg2022-05-09 16:07 49K 
[IMG]4bg9YcJIzqszYPR.jpg2022-05-09 16:07 54K 
[IMG]50PDM5E3o914xm1.jpg2022-05-09 16:07 55K 
[IMG]AiSeJEbtYaxO0uf.jpg2022-05-09 16:08 60K 
[IMG]5JixK90ZVveZLH0.jpg2022-05-09 16:08 49K 
[IMG]BuZaDmhklxHM2Pf.jpg2022-05-09 16:08 58K 
[IMG]iWUJBzgyy11QJ0S.jpg2022-05-09 16:08 53K 
[IMG]A8vewuVIRFjLh0o.jpg2022-05-09 16:08 51K 
[IMG]slBjhvengR6EiVl.jpg2022-05-09 16:08 48K 
[IMG]LLu5ZrFgSP74GoT.jpg2022-05-09 16:08 33K 
[IMG]HdWtWGClUT0QRYn.jpg2022-05-09 16:09 33K 
[IMG]BzpreabayfjNu3J.jpg2022-05-09 16:09 48K 
[IMG]FEMSKZ6ZxHZHvNj.jpg2022-05-09 16:09 55K 
[IMG]5BuUKaVUYFOUa0u.jpg2022-05-09 16:09 16K 
[IMG]byCihYEPOq5tlhA.jpg2022-05-09 16:09 28K 
[IMG]aGWOYXQgwGvKlqm.jpg2022-05-09 16:09 34K 
[IMG]liVfBWMkJSgRu3B.jpg2022-05-09 16:09 34K 
[IMG]zajNNVeh9n4pSsP.jpg2022-05-09 16:10 64K 
[IMG]Bstj0CZXA5Ps5sS.jpg2022-05-09 16:10 46K 
[IMG]ccxIPHEGfzc5Vz3.jpg2022-05-09 16:10 29K 
[IMG]aXVaTsxInoimnzO.jpg2022-05-09 16:10 36K 
[IMG]lX0z0fmGB6X1jWQ.jpg2022-05-09 16:10 49K 
[IMG]tg9VT74O1S6Voqw.jpg2022-05-09 16:10 47K 
[IMG]Oha0s8i2GOsYKet.jpg2022-05-09 16:10 35K 
[IMG]xXaxp24eFRZdyRj.jpg2022-05-09 16:12 62K 
[IMG]VLLsgo3UUk383KQ.jpg2022-05-09 16:12 37K 
[IMG]A0XUftGdaQWnXVS.jpg2022-05-09 16:12 53K 
[IMG]ukfOKDVh144usJ0.jpg2022-05-09 16:12 41K 
[IMG]WFv9yynjx04oSzd.jpg2022-05-09 16:12 30K 
[IMG]QhYKLqG1SeyWnCI.jpg2022-05-09 16:12 51K 
[IMG]TBFcn59Xo7i2SZb.jpg2022-05-09 16:12 57K 
[IMG]yiXucfAubSPYLLf.jpg2022-05-09 16:13 49K 
[IMG]MIQbqhIPblB6V88.jpg2022-05-09 16:13 17K 
[IMG]YlXSEp0jJTq7NhF.jpg2022-05-09 16:13 13K 
[IMG]LZKcCU1najFA0Zc.jpg2022-05-09 16:13 12K 
[IMG]s9rlKoN0QBqOuVl.jpg2022-05-09 16:13 13K 
[IMG]SEM2zNqW7ctBmY5.jpg2022-05-09 16:14 79K 
[IMG]4q9l3NOikEcD3z9.jpg2022-05-09 16:14 148K 
[IMG]c66YyglqlMZCbNR.jpg2022-05-09 16:14 127K 
[IMG]xKi3NGLb81YanSU.jpg2022-05-09 16:14 105K 
[IMG]cdXvsFnyjyquKO7.jpg2022-05-09 16:14 120K 
[IMG]vehWm2Z6kB7YoxV.jpg2022-05-09 16:14 127K 
[IMG]Tkb68w4jFHzqKGi.jpg2022-05-09 16:14 86K 
[IMG]QYwqvtgq001BRyg.jpg2022-05-09 16:14 147K 
[IMG]n0LAQRLfBQsXoIF.jpg2022-05-09 16:14 175K 
[IMG]3MOLd44tVda1klH.jpg2022-05-09 16:14 94K 
[IMG]trDrdvsN5v7AsCA.jpg2022-05-09 16:14 17K 
[IMG]naUbGbQElsBakIE.jpg2022-05-09 16:14 35K 
[IMG]oyoY5HGOOfdNiJ6.jpg2022-05-09 16:14 21K 
[IMG]5cHLWzFjdkJOZQQ.jpg2022-05-09 16:14 38K 
[IMG]cFq0yplgULtszbo.jpg2022-05-09 16:14 20K 
[IMG]L8NTFGHQzU9BeaS.jpg2022-05-09 16:14 43K 
[IMG]IfJMnlxqhqtlntS.jpg2022-05-09 16:14 63K 
[IMG]VXMbxo2Hils1HwQ.jpg2022-05-09 16:15 35K 
[IMG]JdHQ1c9silJvvYN.jpg2022-05-09 16:15 35K 
[IMG]yVzCh5HQWVsNCO3.jpg2022-05-09 16:15 23K 
[IMG]DIXu7QCL8po4QBg.jpg2022-05-09 16:16 174K 
[IMG]ijgbX3VqKKSC2RL.jpg2022-05-09 16:16 158K 
[IMG]QZXaEbXfHICgIqN.jpg2022-05-09 16:16 142K 
[IMG]UklvZar7PmZMoxF.jpg2022-05-09 16:16 68K 
[IMG]94c715MXjMQfsfL.jpg2022-05-09 16:17 42K 
[IMG]D2zT3YeQ1b31mxh.jpg2022-05-09 16:17 26K 
[IMG]iDMv3lBoBk5U1vp.jpg2022-05-09 16:17 42K 
[IMG]9XmOYIgDfk3CuZj.jpg2022-05-09 16:17 30K 
[IMG]qrRcfNoGt0FgFPf.jpg2022-05-09 16:17 35K 
[IMG]lTqVIwclDsExTOi.jpg2022-05-09 16:17 34K 
[IMG]0myfdzX3T1paYM1.jpg2022-05-09 16:17 26K 
[IMG]9sWPxLeIHDj22SR.jpg2022-05-09 16:18 17K 
[IMG]58FHf8Sw9I8Ul8n.jpg2022-05-09 16:18 18K 
[IMG]G4cm0TPad4Xgy6E.jpg2022-05-09 16:18 13K 
[IMG]EL8X2KAKhR2KNxq.jpg2022-05-09 16:18 14K 
[IMG]g1SLDZ5rdJnMR5F.jpg2022-05-09 16:18 16K 
[IMG]SMCOzAe5h96qRlj.jpg2022-05-09 16:18 17K 
[IMG]j9K5wmnYiuW9yPR.jpg2022-05-09 16:18 22K 
[IMG]o3ccLATOJbvSUwd.jpg2022-05-09 16:18 71K 
[IMG]QZMpvPS4ESsKDpN.jpg2022-05-09 16:18 96K 
[IMG]H6gAOJId3AXbC7H.jpg2022-05-09 16:18 80K 
[IMG]MWY9GSiJVda7Fe8.jpg2022-05-09 16:18 103K 
[IMG]eZcuTuf5rI3D8ir.jpg2022-05-09 16:18 147K 
[IMG]kR68joWbNbM6G3P.jpg2022-05-09 16:18 140K 
[IMG]RU7f0ZeEj2xTrt3.jpg2022-05-09 16:18 107K 
[IMG]nqvdtTNJ1Fbb9xD.jpg2022-05-09 16:18 23K 
[IMG]tmRXh6YV7dfQnWo.jpg2022-05-09 16:18 26K 
[IMG]nRKgSQg2uGAoHPR.jpg2022-05-09 16:18 28K 
[IMG]3sROsJexKLKG2hy.jpg2022-05-09 16:18 34K 
[IMG]fNgBkf4K3xOVyum.jpg2022-05-09 16:18 34K 
[IMG]8cxBSsrBIdhcNQy.jpg2022-05-09 16:18 43K 
[IMG]AAeGfJ94ahDXU2F.jpg2022-05-09 16:19 80K 
[IMG]B0R5crzNOhY9jqV.jpg2022-05-09 16:19 77K 
[IMG]caMnDV9SVPrZbw4.jpg2022-05-09 16:19 82K 
[IMG]YdwvSu9Sirpd5UO.jpg2022-05-09 16:19 73K 
[IMG]KgrJdahEKent0fT.jpg2022-05-09 16:19 90K 
[IMG]JbnHy85LUMAH9FT.jpg2022-05-09 16:19 98K 
[IMG]UvwKBN9a3ZjTbee.jpg2022-05-09 16:19 137K 
[IMG]gNvBvbTcVSeLgdK.jpg2022-05-09 16:23 141K 
[IMG]7Tdtis2EMtGOaVU.jpg2022-05-09 16:23 153K 
[IMG]4e7RoqJKewNPDop.jpg2022-05-09 16:23 112K 
[IMG]e0sOHcQ92esWqci.jpg2022-05-09 16:23 91K 
[IMG]2AONcCcDAhc6AtH.jpg2022-05-09 16:23 506K 
[IMG]gi81f05o493I7EQ.jpg2022-05-09 16:23 125K 
[IMG]YCNmWH4bo6wDMRt.jpg2022-05-09 16:23 308K 
[IMG]4rmFUonl5Pux2Ma.jpg2022-05-09 16:23 170K 
[IMG]2xJzNwcIt4qrvAx.jpg2022-05-09 16:23 52K 
[IMG]DlzwNHocdaRC6nH.jpg2022-05-09 16:23 55K 
[IMG]xZj1GEFaREQQOFe.jpg2022-05-09 16:23 151K 
[IMG]wpguFgqJBfdAAIu.jpg2022-05-09 16:23 173K 
[IMG]0Fa47KAJNlgP7YL.jpg2022-05-09 16:23 94K 
[IMG]TC6IHeN1DF6OSS3.jpg2022-05-09 16:23 118K 
[IMG]kfXQ76SDPV18Eif.jpg2022-05-09 16:23 143K 
[IMG]KzobOxNiYQrG10g.jpg2022-05-09 16:23 95K 
[IMG]g1hcNxE2lpvqIQh.jpg2022-05-09 16:24 29K 
[IMG]bKmyNFec2H6a40N.jpg2022-05-09 16:24 42K 
[IMG]EttTFu54oJ8G99z.jpg2022-05-09 16:24 29K 
[IMG]fDakePLxzNywz6W.jpg2022-05-09 16:24 80K 
[IMG]scoLuy9YR9pgP2V.jpg2022-05-09 16:24 51K 
[IMG]RUwLdHB79Fd9ccL.jpg2022-05-09 16:24 76K 
[IMG]S2kP8heaPgWVspX.jpg2022-05-09 16:24 68K 
[IMG]JLzj2Zns9QpEQ4K.jpg2022-05-09 16:24 28K 
[IMG]wAceuccWUIrwnl0.jpg2022-05-09 16:24 12K 
[IMG]YnlSY46MqgX64Fv.jpg2022-05-09 16:24 25K 
[IMG]rc4rZUQkdIxYGeF.jpg2022-05-09 16:24 47K 
[IMG]T5jMwhzoAwDERZK.jpg2022-05-09 16:24 24K 
[IMG]aVEtHet6vyunm4m.jpg2022-05-09 16:24 21K 
[IMG]lg9T9tyRYn0E7P8.jpg2022-05-09 16:24 24K 
[IMG]AhmvkZrZKoA5se3.jpg2022-05-09 16:24 44K 
[IMG]5RDtLUK5dU6CXYR.jpg2022-05-09 16:24 50K 
[IMG]KLmxUPtrLySsohf.jpg2022-05-09 16:24 54K 
[IMG]mvjfkNJveE3a9wa.jpg2022-05-09 16:25 159K 
[IMG]D8FLyITkVT7SXfj.jpg2022-05-09 16:25 315K 
[IMG]2sOlTHRXX7VffsZ.jpg2022-05-09 16:25 138K 
[IMG]Ccd9P4mc3KTW8Kc.jpg2022-05-09 16:25 194K 
[IMG]n1OZv0yZ1vDCjnl.jpg2022-05-09 16:25 378K 
[IMG]CyEehqCKW5n1S7C.jpg2022-05-09 16:25 143K 
[IMG]xXdvsrvTLDpiYij.jpg2022-05-09 16:25 332K 
[IMG]qitzjSFGuKUpN2z.jpg2022-05-09 16:25 319K 
[IMG]nNgWS7AyICAdHMd.jpg2022-05-09 16:25 280K 
[IMG]FWwvggP6NLM7GbE.jpg2022-05-09 16:26 45K 
[IMG]N0JhKeeA4taHzuk.jpg2022-05-09 16:26 50K 
[IMG]gG64Nm5DU7WA1xH.jpg2022-05-09 16:26 52K 
[IMG]4x6LBQ2PcOtGruz.jpg2022-05-09 16:26 61K 
[IMG]qREwq1NKzDgWg1Z.jpg2022-05-09 16:26 54K 
[IMG]A8accdeELyeKJ62.jpg2022-05-09 16:26 44K 
[IMG]8EArFRBI9LlchbX.jpg2022-05-09 16:26 26K 
[IMG]RLUVrGMEZNaG3yx.jpg2022-05-09 16:27 190K 
[IMG]76oNqByoqtw37OT.jpg2022-05-09 16:27 211K 
[IMG]vuMb8W80QjU2Fsg.jpg2022-05-09 16:27 233K 
[IMG]NLTEfV6Yp0QGmGM.jpg2022-05-09 16:27 276K 
[IMG]7nwoRunTKTTPRwu.jpg2022-05-09 16:27 230K 
[IMG]dThFvqbj6juyhZq.jpg2022-05-09 16:27 246K 
[IMG]Ux05djxmm18mcXm.jpg2022-05-09 16:28 319K 
[IMG]sJAtMxkrOlEMwGQ.jpg2022-05-09 16:28 242K 
[IMG]iui1QaZZhGkG37n.jpg2022-05-09 16:28 202K 
[IMG]R1r7fS4jjlENpl3.jpg2022-05-09 16:28 215K 
[IMG]6Kb5vOsKMBWx8Av.jpg2022-05-09 16:28 280K 
[IMG]tvwFYce4c8tNUgG.jpg2022-05-09 16:28 294K 
[IMG]yx9PwrSuAX9kKKf.jpg2022-05-09 16:28 183K 
[IMG]yRX3UshpCcjwc24.jpg2022-05-09 16:28 32K 
[IMG]dIcAcREYdqw0sR2.jpg2022-05-09 16:28 52K 
[IMG]IeLuADpZHhSUR4b.jpg2022-05-09 16:28 62K 
[IMG]RBUrIttLpvuKo12.jpg2022-05-09 16:28 42K 
[IMG]QYLy2m5a7ZkgiNQ.jpg2022-05-09 16:28 50K 
[IMG]g3PE69QF4zYjWC1.jpg2022-05-09 16:28 66K 
[IMG]aX0nW7iwgd7UZNk.jpg2022-05-09 16:28 60K 
[IMG]xqQX6W7uA31B62k.jpg2022-05-09 16:29 30K 
[IMG]OCZlk6HQYqALlnV.jpg2022-05-09 16:29 36K 
[IMG]sZqFe7rbKHzzEss.jpg2022-05-09 16:29 29K 
[IMG]bZur3j42Mn3XS1v.jpg2022-05-09 16:29 23K 
[IMG]x06FnNcpo1YlOIJ.jpg2022-05-09 16:29 25K 
[IMG]MiZ6ypFlH5izCxZ.jpg2022-05-09 16:29 19K 
[IMG]zdTV6a4sS7JUZ4h.jpg2022-05-09 16:29 27K 
[IMG]SZnQMxRcGXgzqaT.jpg2022-05-09 16:29 59K 
[IMG]REzDYtnEEneAZaD.jpg2022-05-09 16:29 39K 
[IMG]zXAJel42ovE1R3u.jpg2022-05-09 16:29 76K 
[IMG]F3US5kVmvw9zZe8.jpg2022-05-09 16:29 24K 
[IMG]t88OSlaEzNc8OOC.jpg2022-05-09 16:29 32K 
[IMG]ddnrQqqIKUGG6ap.jpg2022-05-09 16:29 41K 
[IMG]xWSd4wgVDB1o1wl.jpg2022-05-09 16:29 78K 
[IMG]HjBcV7acJfMkkub.jpg2022-05-09 16:30 27K 
[IMG]3BkYtT7VeLAv7D2.jpg2022-05-09 16:30 26K 
[IMG]kh59Dc5rwnVXPcy.jpg2022-05-09 16:30 23K 
[IMG]pS7yk6pvoWEA089.jpg2022-05-09 16:30 26K 
[IMG]54JxZx0xrtnqMOi.jpg2022-05-09 16:30 21K 
[IMG]YH4i1FnxKmsatsX.jpg2022-05-09 16:30 42K 
[IMG]M0Ee8DVlnKwIyPD.jpg2022-05-09 16:30 49K 
[IMG]X0Sm7rriXkkSMN2.jpg2022-05-09 16:30 35K 
[IMG]fkuNLjZfN6unoqR.jpg2022-05-09 16:30 16K 
[IMG]9wFVYAmT69OjFal.jpg2022-05-09 16:30 70K 
[IMG]o39MYQ8cNZ1sf95.jpg2022-05-09 16:31 286K 
[IMG]CJXsw9Jh7lAZUCS.jpg2022-05-09 16:31 220K 
[IMG]rjgRBU9yzGEHc48.jpg2022-05-09 16:31 213K 
[IMG]J4v7f9kKXRP0c00.jpg2022-05-09 16:31 154K 
[IMG]rKtpnZ15nKPir0d.jpg2022-05-09 16:31 286K 
[IMG]XabBRo8NPaDyiKP.jpg2022-05-09 16:31 15K 
[IMG]REULr9x7P7CZ77O.jpg2022-05-09 16:31 41K 
[IMG]qf8MJ0luUEUkSeE.jpg2022-05-09 16:31 49K 
[IMG]166IJd4qgRAbc7E.jpg2022-05-09 16:31 11K 
[IMG]o7UonNbJzzTVD3e.jpg2022-05-09 16:31 14K 
[IMG]lJAN05RA2yY2ylG.jpg2022-05-09 16:31 13K 
[IMG]JN5kFWQwAUVSzIB.jpg2022-05-09 16:31 13K 
[IMG]rkorKlSbDWS0ZsP.jpg2022-05-09 16:31 15K 
[IMG]eZbtVUVuISnkqPA.jpg2022-05-09 16:31 38K 
[IMG]qa8rrPLJhe6L3sv.jpg2022-05-09 16:31 15K 
[IMG]Ydmc7xkp6HqOUGx.jpg2022-05-09 16:31 13K 
[IMG]vmFXQNdSKoCaZax.jpg2022-05-09 16:31 24K 
[IMG]3o6fRgV000Ojwvk.jpg2022-05-09 16:31 19K 
[IMG]TjoVZlTrW9peYmS.jpg2022-05-09 16:31 35K 
[IMG]UbHpFYN4ZBZYJ2M.jpg2022-05-09 16:36 25K 
[IMG]Dh42iQv4Ru4dBBJ.jpg2022-05-09 16:37 86K 
[IMG]nmbRLEoAsTHyXvh.jpg2022-05-09 16:37 98K 
[IMG]ayNQ49txeyhnpjZ.jpg2022-05-09 16:37 60K 
[IMG]bnoC8Fn7pUIespp.jpg2022-05-09 16:37 127K 
[IMG]sna9egV4WcbbnKK.jpg2022-05-09 16:37 121K 
[IMG]cicQKUOdSFrdOOH.jpg2022-05-09 16:38 58K 
[IMG]RkshuIOmCmoO828.jpg2022-05-09 16:38 55K 
[IMG]EsCJNIUGLHVYZFm.jpg2022-05-09 16:38 48K 
[IMG]Y983sVNGBLDULui.jpg2022-05-09 16:38 58K 
[IMG]AgIlXhT9ze5uhIP.jpg2022-05-09 16:38 62K 
[IMG]apW4rUabXKbbvVO.jpg2022-05-09 16:38 53K 
[IMG]CjFR0xyvwhwAXJ9.jpg2022-05-09 16:38 528K 
[IMG]ty3JTezXFtoCgNY.jpg2022-05-09 16:39 102K 
[IMG]0I2Kdxzck2VF4Eb.jpg2022-05-09 16:39 112K 
[IMG]wWfUyUKH5FypXmy.jpg2022-05-09 16:39 111K 
[IMG]a6XXNYr9NGjUk1n.jpg2022-05-09 16:39 157K 
[IMG]ABPMh83I2ImSlSb.jpg2022-05-09 16:39 210K 
[IMG]q1ulluUDCXtoJ4U.jpg2022-05-09 16:39 58K 
[IMG]vfOl0LRxELgHuzv.jpg2022-05-09 16:39 163K 
[IMG]bR4GE3TL7puWwMH.jpg2022-05-09 16:39 205K 
[IMG]kh8OOJJyw8QRUv4.jpg2022-05-09 16:39 81K 
[IMG]eXWLKHspIb9SpJR.jpg2022-05-09 16:39 252K 
[IMG]4mwj8C6KNtAs8y6.jpg2022-05-09 16:39 288K 
[IMG]qCCvC5Xd00jCu0s.jpg2022-05-09 16:40 47K 
[IMG]rffipSviH3k47VK.jpg2022-05-09 16:40 33K 
[IMG]2iB7itYNCGYsbWk.jpg2022-05-09 16:40 30K 
[IMG]mqh6vz4j4UJpEA0.jpg2022-05-09 16:40 31K 
[IMG]mvMP6w4YSWdM4No.jpg2022-05-09 16:40 27K 
[IMG]QPvaPXmmRtAfJCT.jpg2022-05-09 16:40 52K 
[IMG]Hr9Yb3DI8V0UsyJ.jpg2022-05-09 16:41 40K 
[IMG]kYGClMtFhK5bAJH.jpg2022-05-09 16:41 36K 
[IMG]CjFUWtHjZbwRiw0.jpg2022-05-09 16:41 32K 
[IMG]VAz2n74MzEEuLTE.jpg2022-05-09 16:41 37K 
[IMG]ISB21KIBmblMlZL.jpg2022-05-09 16:41 30K 
[IMG]28XmOBZYpXbvpnS.jpg2022-05-09 16:41 1.6M 
[IMG]OnoNCJNPDqE7LI5.jpg2022-05-09 16:41 170K 
[IMG]fNbrozKg0BBvjMY.jpg2022-05-09 16:41 93K 
[IMG]FoXJwZdpSiMBlKn.jpg2022-05-09 16:41 99K 
[IMG]hqhcJ5f08zH9XhT.jpg2022-05-09 16:41 85K 
[IMG]bgMHAzLBnSIsX0u.jpg2022-05-09 16:41 45K 
[IMG]v9BsTM7CaxOM2lB.jpg2022-05-09 16:41 45K 
[IMG]ekU6FbD8NcCYzSz.jpg2022-05-09 16:41 40K 
[IMG]eXdCBfNgo234wB1.jpg2022-05-09 16:41 36K 
[IMG]gHlT2mZHP3ZkHe3.jpg2022-05-09 16:41 37K 
[IMG]Ucav6T5R5h6MVHv.jpg2022-05-09 16:41 34K 
[IMG]KwEvxgqZOGkZYfF.jpg2022-05-09 16:41 36K 
[IMG]oXBRy5n49jiiq50.jpg2022-05-09 16:43 52K 
[IMG]10UnvOT3F1CvcZx.jpg2022-05-09 16:43 35K 
[IMG]7s1tTsQHCmCJq1X.jpg2022-05-09 16:43 29K 
[IMG]AQBKozQQSblW4Mh.jpg2022-05-09 16:43 26K 
[IMG]TOstJ96HAjdT9CN.jpg2022-05-09 16:44 30K 
[IMG]veo6uSNNhzdKeiX.jpg2022-05-09 16:44 27K 
[IMG]2aINpp8rlJyGZgi.jpg2022-05-09 16:44 25K 
[IMG]olaTbqhusVDh2ua.jpg2022-05-09 16:44 30K 
[IMG]gm3Sz5n2LaoySru.jpg2022-05-09 16:44 26K 
[IMG]GRUU84l1fba1s8E.jpg2022-05-09 16:44 27K 
[IMG]8eZEBgYkxddNBvt.jpg2022-05-09 16:44 24K 
[IMG]JyK5B8fDDm6Plw2.jpg2022-05-09 16:45 131K 
[IMG]QhSTbKGC86Ggr8m.jpg2022-05-09 16:45 228K 
[IMG]7gIDTMyQhYWGWKQ.jpg2022-05-09 16:45 134K 
[IMG]T6Bv4wlh4Glsva7.jpg2022-05-09 16:45 248K 
[IMG]HfItjetlbRQCK5i.jpg2022-05-09 16:45 128K 
[IMG]ImmOzVu5uPEnM5H.jpg2022-05-09 16:45 125K 
[IMG]wm5kAVzEsVykHu2.jpg2022-05-09 16:45 220K 
[IMG]6HOCL9u27EyMUCD.jpg2022-05-09 16:45 198K 
[IMG]9AXXNAquRZ5fMWC.jpg2022-05-09 16:45 119K 
[IMG]bJh9m72I69dYH7r.jpg2022-05-09 16:45 118K 
[IMG]rTQjyF5zGILDGyF.jpg2022-05-09 16:45 275K 
[IMG]MdVn4V4FAArKVHb.jpg2022-05-09 16:45 248K 
[IMG]LzBARrASSnIVWT2.jpg2022-05-09 16:45 133K 
[IMG]lW2nCIvtplk6d37.jpg2022-05-09 16:45 186K 
[IMG]WhK9BEFHk87f6xK.jpg2022-05-09 16:45 140K 
[IMG]zGN892I6ixjFP4l.jpg2022-05-09 16:45 151K 
[IMG]ZPIbSxANbztVQkV.jpg2022-05-09 16:45 214K 
[IMG]lKRt3585aGVw0bq.jpg2022-05-09 16:48 25K 
[IMG]3oBx5bvg0ra0JHw.jpg2022-05-09 16:48 28K 
[IMG]OwHNkYGo5fd2Spp.jpg2022-05-09 16:48 28K 
[IMG]sX2QaLja8e67S38.jpg2022-05-09 16:48 24K 
[IMG]5tdZsRU6IAsWEoW.jpg2022-05-09 16:48 90K 
[IMG]w7nhZbm69h6p8l2.jpg2022-05-09 16:48 26K 
[IMG]6P0Ded3Cmckcltn.jpg2022-05-09 16:48 134K 
[IMG]Z4DBrkeonnDiyhP.jpg2022-05-09 16:48 105K 
[IMG]ZJbP3Is4zwpn56X.jpg2022-05-09 16:48 115K 
[IMG]bWBMXrhmFWnoVtG.jpg2022-05-09 16:48 222K 
[IMG]HsFxteuQYSxu6b6.jpg2022-05-09 16:48 472K 
[IMG]trAOUxDGecaK1Rk.jpg2022-05-09 16:48 94K 
[IMG]b31ZnLcoGe86cKh.jpg2022-05-09 16:48 134K 
[IMG]TtEFu1WwiguHGQU.jpg2022-05-09 16:48 49K 
[IMG]511e2Wj4wC4KSoD.jpg2022-05-09 16:48 16K 
[IMG]BNWTj8IHTCcXnZX.jpg2022-05-09 16:48 31K 
[IMG]aU5tYs4k0ymdQbD.jpg2022-05-09 16:48 28K 
[IMG]ilTZ5MZ6AmP1MAR.jpg2022-05-09 16:48 19K 
[IMG]8xGuMehUdhP9F8T.jpg2022-05-09 16:48 32K 
[IMG]C2kyHtwWVhMT4vX.jpg2022-05-09 16:48 40K 
[IMG]w64G4PMNGzMBpQx.jpg2022-05-09 16:48 321K 
[IMG]gxtXjjONvzcsygk.jpg2022-05-09 16:49 71K 
[IMG]dsp56GC5jmBpaLk.jpg2022-05-09 16:49 219K 
[IMG]QylLwQtqkq3ce4M.jpg2022-05-09 16:49 284K 
[IMG]1jRhTxo1mexg3Xl.jpg2022-05-09 16:49 177K 
[IMG]mqmyVnktMbYOpfb.jpg2022-05-09 16:49 139K 
[IMG]Q4RwwmsNBEyasXS.jpg2022-05-09 16:49 192K 
[IMG]Qu4KsoXN0bulge7.jpg2022-05-09 16:49 103K 
[IMG]eKMS0PJmdSTlzIv.jpg2022-05-09 16:49 137K 
[IMG]FHABetpjZuMxrzQ.jpg2022-05-09 16:49 219K 
[IMG]CYA2lGYlHlzJEiE.jpg2022-05-09 16:50 301K 
[IMG]TwQEwp0b3oNvbbu.jpg2022-05-09 16:50 113K 
[IMG]1inwLRkQZoDdM4v.jpg2022-05-09 16:50 173K 
[IMG]wW2nRBEwJXRAQ3G.jpg2022-05-09 16:50 220K 
[IMG]U4EpphOAfv7PRRX.jpg2022-05-09 16:50 110K 
[IMG]OqrBjZFhYuvILjZ.jpg2022-05-09 16:50 165K 
[IMG]wtQFych97yb4g7j.jpg2022-05-09 16:50 334K 
[IMG]8TKELACf7f6Th0e.jpg2022-05-09 16:51 301K 
[IMG]g3ziRiZKAGw1dta.jpg2022-05-09 16:51 120K 
[IMG]3bWdB74aRhib7Da.jpg2022-05-09 16:51 44K 
[IMG]x738UkBe7wsn2JS.jpg2022-05-09 17:00 168K 
[IMG]NTeQy3KudNpko48.jpg2022-05-09 17:00 115K 
[IMG]Rxy9BPen7xdfYOf.jpg2022-05-09 17:00 94K 
[IMG]jye5W6xlQKJgYHE.jpg2022-05-09 17:00 50K 
[IMG]5a79hdma3c3C9aT.jpg2022-05-09 17:01 53K 
[IMG]VXMV4ifo9LuZi9N.jpg2022-05-09 17:01 89K 
[IMG]26j8egbFQs3Kjh7.jpg2022-05-09 17:01 57K 
[IMG]mTcS957ohuSgVzA.jpg2022-05-09 17:02 22K 
[IMG]jkeZ0itapY9Yst4.jpg2022-05-09 17:02 40K 
[IMG]xKyz396yczyd4SS.jpg2022-05-09 17:02 41K 
[IMG]35pOTF3g0fQ6wAf.jpg2022-05-09 17:02 97K 
[IMG]rbfJ9q5momrC6LY.jpg2022-05-09 17:02 34K 
[IMG]Ng66PYiqkMgUycR.jpg2022-05-09 17:02 45K 
[IMG]uv6uHBDn6bOq9Su.jpg2022-05-09 17:02 47K 
[IMG]jyfPVgxpvaKtLIc.jpg2022-05-09 17:02 33K 
[IMG]TJS7aq1qt0sqr7s.jpg2022-05-09 17:02 39K 
[IMG]mZzE1eeJR4gfax3.jpg2022-05-09 17:02 44K 
[IMG]XxCa86JpeoHyTJH.jpg2022-05-09 17:02 43K 
[IMG]Z01O6kVcp7owRwf.jpg2022-05-09 17:03 18K 
[IMG]CYSKto1MfQ1qJxq.jpg2022-05-09 17:03 29K 
[IMG]fN1E9kSDeK3EaL7.jpg2022-05-09 17:03 36K 
[IMG]GPik7ZmP6maquap.jpg2022-05-09 17:03 33K 
[IMG]0LpWrdfzwatiT7L.jpg2022-05-09 17:03 37K 
[IMG]TPac9gO55ZkmU86.jpg2022-05-09 17:03 29K 
[IMG]FDa0rLoKIL6eWPL.jpg2022-05-09 17:03 35K 
[IMG]rxFY3WPebrDSpgX.jpg2022-05-09 17:04 440K 
[IMG]kafKp4y90CwMlnE.jpg2022-05-09 17:04 155K 
[IMG]wjccx4orVFTdSxH.jpg2022-05-09 17:04 161K 
[IMG]8oGzOsQfU8rnQpC.jpg2022-05-09 17:04 324K 
[IMG]17xQOER26WxVheo.jpg2022-05-09 17:04 487K 
[IMG]cUiA1iPMwj2XC4t.jpg2022-05-09 17:04 433K 
[IMG]fM74Z9uMuetLfZj.jpg2022-05-09 17:04 398K 
[IMG]M4xuauyoTOE3UIv.jpg2022-05-09 17:04 431K 
[IMG]c6mebib2FeT4Zy4.jpg2022-05-09 17:04 427K 
[IMG]t3cj0cUie3I64Uu.jpg2022-05-09 17:06 275K 
[IMG]n63v8XGcyzrpUJp.jpg2022-05-09 17:06 294K 
[IMG]NHBwhkPGhrXVPPd.jpg2022-05-09 17:06 315K 
[IMG]y1fgA3kpRnNvQYz.jpg2022-05-09 17:06 255K 
[IMG]IoQyW5NGt7BywAV.jpg2022-05-09 17:06 287K 
[IMG]ZdhXrqCCZ0RaocU.jpg2022-05-09 17:06 232K 
[IMG]n0IjTg5bsc7oYjV.jpg2022-05-09 17:06 294K 
[IMG]KscCiDccRB5ATvo.jpg2022-05-09 18:01 15K 
[IMG]q5X5xKfn0D62F4j.jpg2022-05-09 18:02 48K 
[IMG]DHdiJW4SLorwpNn.jpg2022-05-09 18:02 10K 
[IMG]rP2qhtYEs3WDJPo.jpg2022-05-09 18:02 31K 
[IMG]1NQ5gcJBCU4jki3.jpg2022-05-09 18:02 31K 
[IMG]rhoernVFQ35TJjl.jpg2022-05-09 18:03 21K 
[IMG]G8Thku6Ype2vXHT.jpg2022-05-09 18:03 17K 
[IMG]s4vvHdVOM7assgL.jpg2022-05-09 18:03 20K 
[IMG]VhSJdMTsuWPcMTy.jpg2022-05-09 18:03 36K 
[IMG]5ToMopAeevhuF6F.jpg2022-05-09 18:03 51K 
[IMG]IZZXeRRVXMIharI.jpg2022-05-09 18:03 38K 
[IMG]YxN9sLUlEDRCwlD.jpg2022-05-09 18:03 33K 
[IMG]tDj2M4r3k25lN0s.jpg2022-05-09 18:03 29K 
[IMG]H8xDYROmdwgDzlO.jpg2022-05-09 18:04 26K 
[IMG]jDztrWy2m45Awn7.jpg2022-05-09 18:04 26K 
[IMG]JntVBXvW8iaXoxl.jpg2022-05-09 18:04 23K 
[IMG]jyamPsIKcMPOQ4v.jpg2022-05-09 18:04 22K 
[IMG]Ubic8jMHbxCnpYP.jpg2022-05-09 18:04 21K 
[IMG]pL84oXJ9ZSoELus.jpg2022-05-09 18:04 24K 
[IMG]FXThJtLYrRRN6T1.jpg2022-05-09 18:05 15K 
[IMG]DgzKoDqlQ1niaQw.jpg2022-05-09 18:05 7.9K 
[IMG]Q1Er7F1xEArhSWT.jpg2022-05-09 18:05 26K 
[IMG]FekwjZ47DK6Aoe0.jpg2022-05-09 18:05 20K 
[IMG]7kmZSj59wedDLD9.jpg2022-05-09 18:05 16K 
[IMG]rgry82Awg2eRNTK.jpg2022-05-09 18:05 20K 
[IMG]2AJebyac2SJmsk7.jpg2022-05-09 18:05 60K 
[IMG]wQqnKBY8VoAjPVD.jpg2022-05-09 18:05 33K 
[IMG]1lkSwB0Iqocaf95.jpg2022-05-09 18:05 16K 
[IMG]FrhGDDff4oXhIPE.jpg2022-05-09 18:06 60K 
[IMG]OctdVMCq1AdGaPR.jpg2022-05-09 18:06 17K 
[IMG]s5ZSdgHsMphe6wm.jpg2022-05-09 18:06 52K 
[IMG]Q8QYDfZBo0OUEDz.jpg2022-05-09 18:06 19K 
[IMG]dYosvjyOk4wVf4n.jpg2022-05-09 18:06 42K 
[IMG]zTEWm4jKnHPIENR.jpg2022-05-09 18:06 23K 
[IMG]9gJr5BdXWGBuoj7.jpg2022-05-09 18:06 22K 
[IMG]jsyIUsEIBi6rfbV.jpg2022-05-09 18:06 20K 
[IMG]uD0t27mKe27Y7Qq.jpg2022-05-09 18:06 31K 
[IMG]j9cPS6KeYEon3BW.jpg2022-05-09 18:06 26K 
[IMG]02EtrrLyG3OZwcU.jpg2022-05-09 18:06 33K 
[IMG]1J85nm3ecUEGPMR.jpg2022-05-09 18:06 33K 
[IMG]x9HQbRaAYhk8qwm.jpg2022-05-09 18:06 61K 
[IMG]UgYx2DduqA3Bcky.jpg2022-05-09 18:06 33K 
[IMG]tasDCdSArsRKSCq.jpg2022-05-09 18:06 27K 
[IMG]LBMW3meJbiWWLgu.jpg2022-05-09 18:06 36K 
[IMG]bQos07h50pt1lzS.jpg2022-05-09 18:06 31K 
[IMG]7dkOUyDNwi0kSUt.jpg2022-05-09 18:06 41K 
[IMG]mQrO06vIUhHX6I1.jpg2022-05-09 18:06 40K 
[IMG]GBrBfEVRlZ2TAFN.jpg2022-05-09 18:06 81K 
[IMG]45V4BWz81VBVUWP.jpg2022-05-09 18:06 24K 
[IMG]pxByxh0xrNovQ52.jpg2022-05-09 18:06 45K 
[IMG]astY0kuFryiBYYs.jpg2022-05-09 18:06 34K 
[IMG]hJHucOC1kPDqEOB.jpg2022-05-09 18:06 40K 
[IMG]QoyJ1YJsStcyrJz.jpg2022-05-09 18:06 40K 
[IMG]FHV3vc17bOWhBAg.jpg2022-05-09 18:06 29K 
[IMG]92NWt1dyuajgyUo.jpg2022-05-09 18:06 21K 
[IMG]K8qpFahckVaRXAr.jpg2022-05-09 18:06 24K 
[IMG]BRsvzEDXCwfj6gs.jpg2022-05-09 18:06 66K 
[IMG]aKwanZAJGN9Rp2Q.jpg2022-05-09 18:06 52K 
[IMG]DS5fspMZoh1ELJq.jpg2022-05-09 18:06 48K 
[IMG]RIax1wJXcb4LO9O.jpg2022-05-09 18:06 34K 
[IMG]vRgGRfHsE8aZsn2.jpg2022-05-09 18:06 31K 
[IMG]Rd1f4cuxdqp4EXe.jpg2022-05-09 18:06 29K 
[IMG]UZJBdWlYzvABYHa.jpg2022-05-09 18:06 65K 
[IMG]Muen5CDLoBd0OmW.jpg2022-05-09 18:06 46K 
[IMG]aa0hZIIjgC363XE.jpg2022-05-09 18:06 47K 
[IMG]KIBiPmbhW2WyAXh.jpg2022-05-09 18:06 20K 
[IMG]LPxgajWoLW6oaUj.jpg2022-05-09 18:06 85K 
[IMG]f4mbOLXYSPe7aXP.jpg2022-05-09 18:06 22K 
[IMG]t4y8JtAEOPBugQY.jpg2022-05-09 18:06 64K 
[IMG]N722KA6S11deCon.jpg2022-05-09 18:06 11K 
[IMG]yKeGNFgUx9C5Epq.jpg2022-05-09 18:06 16K 
[IMG]PcR4xTX0qW0tGhO.jpg2022-05-09 18:06 51K 
[IMG]s2Rdyv96KGszszR.jpg2022-05-09 18:06 30K 
[IMG]2Ph366EWBgBjIYq.jpg2022-05-09 18:07 22K 
[IMG]42FP48NFTSaKJnB.jpg2022-05-09 18:07 34K 
[IMG]SzF1w0oakVeCU40.jpg2022-05-09 18:07 44K 
[IMG]gk7hpdIyjN2Vm30.jpg2022-05-09 18:07 29K 
[IMG]zYNzY1ZJcS0cVuT.jpg2022-05-09 18:07 25K 
[IMG]XY49bTfjiqj24Qu.jpg2022-05-09 18:07 36K 
[IMG]Aw3heQeylw5rajc.jpg2022-05-09 18:07 32K 
[IMG]blMenPin7rDDsj2.jpg2022-05-09 18:07 41K 
[IMG]8MMBkdYDzOzzFED.jpg2022-05-09 18:07 15K 
[IMG]uCPy5oZR2220bos.jpg2022-05-09 18:07 26K 
[IMG]V0Pt40ymv2ds4Ir.jpg2022-05-09 18:07 33K 
[IMG]nFbzAyrd2sj7dhq.jpg2022-05-09 18:07 27K 
[IMG]ZJzK0o1MIukuVat.jpg2022-05-09 18:07 44K 
[IMG]z0erv1WLCb6Ya0v.jpg2022-05-09 18:07 24K 
[IMG]5P9CNwwNZUfTT8v.jpg2022-05-09 18:07 18K 
[IMG]IQptO9mvN1nMcSZ.jpg2022-05-09 18:07 20K 
[IMG]kJZUAawVI7fzcZ4.jpg2022-05-09 18:07 34K 
[IMG]FrNMuus8ZXdD5qY.jpg2022-05-09 18:07 16K 
[IMG]nbOR7HFctUb3xEN.jpg2022-05-09 18:07 33K 
[IMG]9ofmHSqkmiDjU7J.jpg2022-05-09 18:07 22K 
[IMG]MjqNnIlrbwwFy3V.jpg2022-05-09 18:07 11K 
[IMG]YbZyrrzjcBHbN35.jpg2022-05-09 18:07 21K 
[IMG]g83GPUa3AUpoSje.jpg2022-05-09 18:07 23K 
[IMG]cB6QVQjErvCAA6V.jpg2022-05-09 18:07 27K 
[IMG]hP5mYpPouwoD7VE.jpg2022-05-09 18:07 27K 
[IMG]V5DAnxP8KbGFJFO.jpg2022-05-09 18:07 25K 
[IMG]YvZEOMNuNtYy4hU.jpg2022-05-09 18:07 17K 
[IMG]Lhjy6McPmpmdT9T.jpg2022-05-09 18:07 28K 
[IMG]OTUGewAFZuKaaNq.jpg2022-05-09 18:07 9.2K 
[IMG]mAW9kxcRZSVbV97.jpg2022-05-09 18:07 49K 
[IMG]MFLz0sgloidJlYa.jpg2022-05-09 18:07 21K 
[IMG]UeoXbPHVzPHEouH.jpg2022-05-09 18:07 20K 
[IMG]fLMRzy9qQU4rBRS.jpg2022-05-09 18:07 24K 
[IMG]bXHlTf7IRPtpEiX.jpg2022-05-09 18:07 21K 
[IMG]huMQqxpOmTD8rds.jpg2022-05-09 18:07 6.0K 
[IMG]rHREd3BADWMxHcR.jpg2022-05-09 18:07 5.3K 
[IMG]TqtCoEw4VTaSNRY.jpg2022-05-09 18:07 10K 
[IMG]JjYbv2DaFrL0Zay.jpg2022-05-09 18:07 17K 
[IMG]XGkSBJhtYA10T2p.jpg2022-05-09 18:07 15K 
[IMG]emB91YnZwAqxhQz.jpg2022-05-09 18:07 29K 
[IMG]ao6Lvj9wTLq341U.jpg2022-05-09 18:07 33K 
[IMG]8tEhxCbAlH28o38.jpg2022-05-09 18:07 23K 
[IMG]6YKsyd3L0q9xnxk.jpg2022-05-09 18:07 41K 
[IMG]xEwLRtQfwmpxIzw.jpg2022-05-09 18:07 24K 
[IMG]41A6QScydWdFE0L.jpg2022-05-09 18:07 26K 
[IMG]AYdydRTDQZvoWLE.jpg2022-05-09 18:07 19K 
[IMG]IdFPUCfl8EtZ95Q.jpg2022-05-09 18:07 29K 
[IMG]LE13JZkMdh5XDnr.jpg2022-05-09 18:07 33K 
[IMG]t78CfE8T7SXmZuX.jpg2022-05-09 18:07 45K 
[IMG]XjwyPGeIcygwW5U.jpg2022-05-09 18:07 31K 
[IMG]PuCBTkFMW2y2SaQ.jpg2022-05-09 18:07 43K 
[IMG]kbROn2Nn3C37trf.jpg2022-05-09 18:07 26K 
[IMG]Xx6JeWZ8gaxHlfI.jpg2022-05-09 18:07 36K 
[IMG]UdwI59OU46ylvwY.jpg2022-05-09 18:07 22K 
[IMG]kvF1BJcoJCOFo4p.jpg2022-05-09 18:07 45K 
[IMG]vnoM1qGQyP3aosD.jpg2022-05-09 18:07 54K 
[IMG]DOR0mPcMHmfXoiM.jpg2022-05-09 18:07 24K 
[IMG]1usZU0MXPiCFvfG.jpg2022-05-09 18:07 32K 
[IMG]Pbdqzqh2e2qeLVc.jpg2022-05-09 18:07 46K 
[IMG]FHUWIY1HYkCGpgo.jpg2022-05-09 18:07 27K 
[IMG]b6ZQz8IaslgoHnv.jpg2022-05-09 18:07 31K 
[IMG]yb0kR1ASFkkzfGR.jpg2022-05-09 18:07 31K 
[IMG]7VPPWQW1VNLZ5tr.jpg2022-05-09 18:07 34K 
[IMG]7UjS76EpisLXEUg.jpg2022-05-09 18:07 29K 
[IMG]Sd0YJoSJu3JX2HB.jpg2022-05-09 18:07 29K 
[IMG]Jnu1g3IiLl89mop.jpg2022-05-09 18:07 29K 
[IMG]I6xajX08NpY7SIo.jpg2022-05-09 18:07 18K 
[IMG]WL6A7KALHLGh9N2.jpg2022-05-09 18:07 35K 
[IMG]EQHy3TIFMEvMydI.jpg2022-05-09 18:07 33K 
[IMG]0dfWhtEYP439pZs.jpg2022-05-09 18:07 24K 
[IMG]qFXGWmxp31t6dEJ.jpg2022-05-09 18:07 38K 
[IMG]2mGwHaom7Uc1jXW.jpg2022-05-09 18:07 23K 
[IMG]YFjPpCz2rR9lpI7.jpg2022-05-09 18:07 912K 
[IMG]6zSZ1rOccWBV8bu.jpg2022-05-09 18:07 37K 
[IMG]fIPIBecAzzxYSip.jpg2022-05-09 18:07 58K 
[IMG]aUEhg84XEuvUv72.jpg2022-05-09 18:07 41K 
[IMG]njSWev6ih1bjgRb.jpg2022-05-09 18:07 43K 
[IMG]fOwaQHQITjnEs0a.jpg2022-05-09 18:07 56K 
[IMG]wEKUP95g0of1ptj.jpg2022-05-09 18:07 59K 
[IMG]TEGUKWK43AuJRtZ.jpg2022-05-09 18:07 101K 
[IMG]WZUI8J7ePaD0cVA.jpg2022-05-09 18:07 37K 
[IMG]ZAy4akeM6cHeS3G.jpg2022-05-09 18:07 58K 
[IMG]NiKoUnbfEvjBc6w.jpg2022-05-09 18:07 33K 
[IMG]hyIytu1ofJgdMK0.jpg2022-05-09 18:07 39K 
[IMG]8ESHT1kZ8uI5pns.jpg2022-05-09 18:07 39K 
[IMG]23E2vyJJw4kSEBO.jpg2022-05-09 18:07 71K 
[IMG]oRhrS8ZLBnIx2Jd.jpg2022-05-09 18:07 49K 
[IMG]ugHURAFNclwVB0t.jpg2022-05-09 18:07 16K 
[IMG]moKjiJiab8Oi19p.jpg2022-05-09 18:07 18K 
[IMG]2GyQ4gfN3B3p7Q2.jpg2022-05-09 18:07 12K 
[IMG]YmP32v5yE1q2d0V.jpg2022-05-09 18:07 16K 
[IMG]sdJKeHlcSSJ8IzQ.jpg2022-05-09 18:07 28K 
[IMG]bVfaepVCSoWh5gx.jpg2022-05-09 18:08 30K 
[IMG]PEKoucqE5LXSZjj.jpg2022-05-09 18:08 64K 
[IMG]bJQE8SDWLXKQfeV.jpg2022-05-09 18:08 74K 
[IMG]1fZYzfWWKNEUEEd.jpg2022-05-09 18:08 54K 
[IMG]kr2XtLCdlgR8xJQ.jpg2022-05-09 18:08 51K 
[IMG]pydZmDMSpACHXXR.jpg2022-05-09 18:08 32K 
[IMG]RRts00CV767C77n.jpg2022-05-09 18:08 27K 
[IMG]I9nPyWwOQsKRZzJ.jpg2022-05-09 18:08 25K 
[IMG]VeWEeFcvf3oXmTp.jpg2022-05-09 18:08 24K 
[IMG]wR5Wgzn1iSX5q5w.jpg2022-05-09 18:08 33K 
[IMG]pjGouUjGqg923Rv.jpg2022-05-09 18:08 31K 
[IMG]8rKSpWc9LcC9WgU.jpg2022-05-09 18:08 58K 
[IMG]nHy2LrCFj0ddEiD.jpg2022-05-09 18:08 31K 
[IMG]LUTDOAUqcG3QmY1.jpg2022-05-09 18:08 27K 
[IMG]Z7pWToj6qWXNhNd.jpg2022-05-09 18:08 72K 
[IMG]UE1fruvD1XaIh91.jpg2022-05-09 18:08 62K 
[IMG]Ory7N13YyTQXX0z.jpg2022-05-09 18:08 60K 
[IMG]y4lv1Mam5hpbsf5.jpg2022-05-09 18:08 45K 
[IMG]ImcdPdUGOawFRwB.jpg2022-05-09 18:08 54K 
[IMG]FsONTeqtznx7kh0.jpg2022-05-09 18:08 43K 
[IMG]32ow4pj1IEFuLSz.jpg2022-05-09 18:08 68K 
[IMG]ejUnxSYto62VcQS.jpg2022-05-09 18:08 27K 
[IMG]7rIhMT74vmyNrYU.jpg2022-05-09 18:08 27K 
[IMG]wcZPkiBSr1YpJtU.jpg2022-05-09 18:08 31K 
[IMG]VVlPRdNysoA6hOQ.jpg2022-05-09 18:08 27K 
[IMG]UsI1RjY0vcgPoxu.jpg2022-05-09 18:08 29K 
[IMG]AYL0z6xiRqv5OD0.jpg2022-05-09 18:08 16K 
[IMG]zf67hEEwn67vlJT.jpg2022-05-09 18:08 19K 
[IMG]pSwgIrweE3yJg19.jpg2022-05-09 18:08 55K 
[IMG]MUhR4QmF3chGcxH.jpg2022-05-09 18:08 37K 
[IMG]x6STmDqhsPz2fNP.jpg2022-05-09 18:08 21K 
[IMG]LxQLtOkyqX9Gzam.jpg2022-05-09 18:08 55K 
[IMG]4eIq0GLcIGVvIjm.jpg2022-05-09 18:08 22K 
[IMG]0lREBYHT8GKzwuK.jpg2022-05-09 18:08 31K 
[IMG]x01qIgf7kmO86X3.jpg2022-05-09 18:08 34K 
[IMG]3tH8ahENeQcom2m.jpg2022-05-09 18:08 19K 
[IMG]E5tRy5xTm7Ho2Wk.jpg2022-05-09 18:08 21K 
[IMG]KOBrrzPohODma40.jpg2022-05-09 18:08 39K 
[IMG]K5c1xx0IjI0wi33.jpg2022-05-09 18:08 8.8K 
[IMG]Suh0oFqVKIj1UJU.jpg2022-05-09 18:08 27K 
[IMG]DIoSPRU3eqG1bvK.jpg2022-05-09 18:08 43K 
[IMG]lw1FoVBi3pseK2s.jpg2022-05-09 18:08 29K 
[IMG]zjCc3BgTWpcSW01.jpg2022-05-09 18:08 30K 
[IMG]KZ5KAdmzhPc4Gpg.jpg2022-05-09 18:08 65K 
[IMG]l5GfCmlx5HFtiKC.jpg2022-05-09 18:08 27K 
[IMG]yPrs2pp0cR3HmU1.jpg2022-05-09 18:08 21K 
[IMG]031yzDAFqCmvP7E.jpg2022-05-09 18:08 23K 
[IMG]2YdnwdZWlAgw1Pe.jpg2022-05-09 18:08 31K 
[IMG]Pn2hZ2Pwuqh7sQe.jpg2022-05-09 18:08 37K 
[IMG]b1li5d9HcFuoReD.jpg2022-05-09 18:08 32K 
[IMG]jq8ZkMTkZ7dGrse.jpg2022-05-09 18:08 33K 
[IMG]Itse1H1P2TZSQvu.jpg2022-05-09 18:08 34K 
[IMG]9oSR7klQGnDNVIy.jpg2022-05-09 18:09 55K 
[IMG]om3AvWGvbk4QwIE.jpg2022-05-09 18:09 42K 
[IMG]s7yxEIjSZfIA7d3.jpg2022-05-09 18:09 23K 
[IMG]GeNExNcJnxreVFv.jpg2022-05-09 18:09 33K 
[IMG]RxMe9kF6v9NmSem.jpg2022-05-09 18:09 37K 
[IMG]2PrzmYOzpQO9I2F.jpg2022-05-09 18:09 58K 
[IMG]Gk11U6rdWzdziy5.jpg2022-05-09 18:09 30K 
[IMG]EPZ0ZOzRmTPmqdt.jpg2022-05-09 18:09 27K 
[IMG]pLwct4oakzxtQZM.jpg2022-05-09 18:09 29K 
[IMG]8zG8GmAmuWjvwaM.jpg2022-05-09 18:09 23K 
[IMG]eAC35xLodIwWCzm.jpg2022-05-09 18:09 46K 
[IMG]VvEBN2GVAJ8KPTC.jpg2022-05-09 18:09 29K 
[IMG]1Nxh4yyDAHCzpAO.jpg2022-05-09 18:09 49K 
[IMG]f6n9FvZMiZ8wyRx.jpg2022-05-09 18:09 32K 
[IMG]eaWCP5k8g6NlnkG.jpg2022-05-09 18:09 38K 
[IMG]qcyWrBJUG9KYMSC.jpg2022-05-09 18:09 28K 
[IMG]id7l9ai6lNcopOB.jpg2022-05-09 18:09 752K 
[IMG]4uoURqJkqKAmBrN.jpg2022-05-09 18:09 24K 
[IMG]qSsusRNylcUGdLH.jpg2022-05-09 18:09 51K 
[IMG]te40zPPM1JWhEHB.jpg2022-05-09 18:09 32K 
[IMG]I6OGPh0KlVgeXrs.jpg2022-05-09 18:09 15K 
[IMG]OepzfTuD836FAsL.jpg2022-05-09 18:09 25K 
[IMG]FxfvuY1YVRZIn8B.jpg2022-05-09 18:09 39K 
[IMG]IkIcR6alkUUgmLT.jpg2022-05-09 18:09 39K 
[IMG]zibkBgdHAbWdRaf.jpg2022-05-09 18:09 25K 
[IMG]rA5HBwit0D8wtIO.jpg2022-05-09 18:09 31K 
[IMG]VvFXAiMifXAx15H.jpg2022-05-09 18:09 24K 
[IMG]PKCTDZsMBx1bP4z.jpg2022-05-09 18:09 18K 
[IMG]L931w3LR0q7fC0s.jpg2022-05-09 18:09 24K 
[IMG]5Badr7CRqyqEo9j.jpg2022-05-09 18:09 31K 
[IMG]25LfbsEh9dY1ZHi.jpg2022-05-09 18:09 29K 
[IMG]8nKpL77YfE8QhRm.jpg2022-05-09 18:09 28K 
[IMG]WPXtwIdsefmREGT.jpg2022-05-09 18:09 33K 
[IMG]sOU3CTUyror1C6F.jpg2022-05-09 18:09 12K 
[IMG]BTPEbDassQpvkrr.jpg2022-05-09 18:09 47K 
[IMG]pZv6Kjw7nWxpZh7.jpg2022-05-09 18:09 39K 
[IMG]KMeVWGM5S5L4Qrb.jpg2022-05-09 18:09 36K 
[IMG]owzdMOQxkv9XqjS.jpg2022-05-09 18:09 80K 
[IMG]7rcBHuSg9c4T3io.jpg2022-05-09 18:09 52K 
[IMG]IpLCKkA2q8vhI9o.jpg2022-05-09 18:09 63K 
[IMG]WLO2BVOgMK3KzSu.jpg2022-05-09 18:09 24K 
[IMG]6sZTAeGIcnFbhk3.jpg2022-05-09 18:09 19K 
[IMG]i8TlErTk0xmFV2d.jpg2022-05-09 18:09 27K 
[IMG]6rSXDuAf3VM0BlG.jpg2022-05-09 18:09 31K 
[IMG]13hov2zjU7xID03.jpg2022-05-09 18:09 33K 
[IMG]FpZVgHsd6NyQUMn.jpg2022-05-09 18:09 23K 
[IMG]eibH2aKO1V8AdIu.jpg2022-05-09 18:09 20K 
[IMG]uQADwCfF2hih4ii.jpg2022-05-09 18:09 22K 
[IMG]oQPOF1daF2oF9Nm.jpg2022-05-09 18:09 27K 
[IMG]qDF59KLqpJm3wDA.jpg2022-05-09 18:09 19K 
[IMG]Q9nADk9zUv86RgI.jpg2022-05-09 18:09 61K 
[IMG]kxncGNBwutigch2.jpg2022-05-09 18:09 22K 
[IMG]IwO70AEFdUkyWhd.jpg2022-05-09 18:09 72K 
[IMG]MXBb0h1rnP4CBGI.jpg2022-05-09 18:09 24K 
[IMG]PVOBdKv1aysz7Z7.jpg2022-05-09 18:09 45K 
[IMG]mOB8dtIfzoJFiaB.jpg2022-05-09 18:09 43K 
[IMG]Gnauo7LSihAXtxv.jpg2022-05-09 18:09 44K 
[IMG]l7E0kD3adVGYHMi.jpg2022-05-09 18:09 18K 
[IMG]XDQwhfq2q1k9izc.jpg2022-05-09 18:09 45K 
[IMG]S1ehmY7yCqm54KW.jpg2022-05-09 18:09 14K 
[IMG]o3IOzXhowC4gqDJ.jpg2022-05-09 18:09 25K 
[IMG]1Xq1ZUd9E0Cyzjq.jpg2022-05-09 18:09 46K 
[IMG]icFLROJ5ZMOH3UR.jpg2022-05-09 18:09 36K 
[IMG]VV976qBsnjHk1ja.jpg2022-05-09 18:09 58K 
[IMG]1ogeToLepgOgSHn.jpg2022-05-09 18:09 21K 
[IMG]6ePljk44QDdrDjb.jpg2022-05-09 18:09 51K 
[IMG]VZu1x16ZyxznOaa.jpg2022-05-09 18:09 30K 
[IMG]7l6pPzbPEwPxGKu.jpg2022-05-09 18:09 43K 
[IMG]WnhQ82FuTL9Tj22.jpg2022-05-09 18:09 56K 
[IMG]MwYajFvxnCH84DB.jpg2022-05-09 18:09 46K 
[IMG]7aYSUM8i7NamNVu.jpg2022-05-09 18:09 36K 
[IMG]AX9N0cj0VVjb4da.jpg2022-05-09 18:09 35K 
[IMG]0TucN76RE73XNHJ.jpg2022-05-09 18:09 70K 
[IMG]Lzj4JvNipK9SofD.jpg2022-05-09 18:09 62K 
[IMG]8s1k4UM55bIHnEr.jpg2022-05-09 18:09 40K 
[IMG]eazPPeTRKzz52yM.jpg2022-05-09 18:09 46K 
[IMG]dF6Td7eN4brK7Uh.jpg2022-05-09 18:09 55K 
[IMG]LbsT3xgKGYhqrct.jpg2022-05-09 18:09 42K 
[IMG]qkyvzZSoAxhITSE.jpg2022-05-09 18:09 38K 
[IMG]svoUjm65sDusXGq.jpg2022-05-09 18:09 53K 
[IMG]dbKyBMyN9yIswgS.jpg2022-05-09 18:09 27K 
[IMG]6VmuXG2ATi2C6lU.jpg2022-05-09 18:09 54K 
[IMG]25CCUKjaIlS6X8q.jpg2022-05-09 18:09 47K 
[IMG]rP14J244afhheQM.jpg2022-05-09 18:09 55K 
[IMG]Zm0QiQhm33zBWW5.jpg2022-05-09 18:09 60K 
[IMG]jvbR4l50dLXr9W6.jpg2022-05-09 18:09 59K 
[IMG]5OH3EzL3deBvEtV.jpg2022-05-09 18:09 56K 
[IMG]vm7rfidyCkvDszE.jpg2022-05-09 18:09 56K 
[IMG]tv2e36JcsVMfEgB.jpg2022-05-09 18:09 24K 
[IMG]u0bbCGJ2q4Sg4EG.jpg2022-05-09 18:09 41K 
[IMG]vn3luYAppsYBdZk.jpg2022-05-09 18:09 32K 
[IMG]y0OoWcnwjQn7JMj.jpg2022-05-09 18:09 35K 
[IMG]PLH6nr0oTvNRIel.jpg2022-05-09 18:09 29K 
[IMG]bn6sYS5FUdFT4V7.jpg2022-05-09 18:09 62K 
[IMG]yhWMr2dzhSYd5UW.jpg2022-05-09 18:09 43K 
[IMG]rqyHIMEYlFD5We2.jpg2022-05-09 18:09 34K 
[IMG]nB8RCOpXpvjBr7D.jpg2022-05-09 18:09 73K 
[IMG]Xb5hDPw4xYv5c1C.jpg2022-05-09 18:09 158K 
[IMG]NprQV7IKTWahELa.jpg2022-05-09 18:09 36K 
[IMG]D8n19e7vjrqQvs0.jpg2022-05-09 18:09 38K 
[IMG]bcFOpX9rsH6R2Dj.jpg2022-05-09 18:09 70K 
[IMG]361w81o8sWSdasL.jpg2022-05-09 18:09 46K 
[IMG]9sD4PxoSfnTnS8r.jpg2022-05-09 18:09 26K 
[IMG]4vaa3DM9UjlSUw2.jpg2022-05-09 18:09 22K 
[IMG]D1F0rpLS0YwGDIL.jpg2022-05-09 18:09 41K 
[IMG]rQ4Cjiaua6X5qTJ.jpg2022-05-09 18:09 24K 
[IMG]lIDQfErvAkpcf7Y.jpg2022-05-09 18:09 32K 
[IMG]quUuJoNeQxeaycK.jpg2022-05-09 18:09 35K 
[IMG]yjrluSsqcBjC3Q5.jpg2022-05-09 18:09 51K 
[IMG]3CpbWmMZJUAAl6F.jpg2022-05-09 18:09 82K 
[IMG]lI4Aj4hK5mAJFoi.jpg2022-05-09 18:09 32K 
[IMG]tgG9g1NgtG6snpb.jpg2022-05-09 18:09 46K 
[IMG]VMENNPMiZjGhrWl.jpg2022-05-09 18:09 32K 
[IMG]EtMK0rOT8RBmzU7.jpg2022-05-09 18:09 41K 
[IMG]p8LmX0LTmhNfIwR.jpg2022-05-09 18:09 36K 
[IMG]yYKYuujWhC7Jx6s.jpg2022-05-09 18:09 58K 
[IMG]ZQllrP18hjteXnY.jpg2022-05-09 18:09 34K 
[IMG]F9YMcZButmOg5c1.jpg2022-05-09 18:09 19K 
[IMG]RkPfsFHAPspw65W.jpg2022-05-09 18:09 22K 
[IMG]J4gmnUMadIDcutp.jpg2022-05-09 18:09 36K 
[IMG]HJal5yAWEcgrS8h.jpg2022-05-09 18:09 28K 
[IMG]Y7k4a4iqhc4V3df.jpg2022-05-09 18:09 46K 
[IMG]klzIdw3ozdWEVtd.jpg2022-05-09 18:09 26K 
[IMG]6rMIjhDPDeehNLk.jpg2022-05-09 18:10 26K 
[IMG]sLJEF2fC2bemGZC.jpg2022-05-09 18:10 33K 
[IMG]vtO6XPPmQAbCiGf.jpg2022-05-09 18:10 33K 
[IMG]gqlDoDYarp5zN95.jpg2022-05-09 18:10 35K 
[IMG]Z7345J24YUDbYoE.jpg2022-05-09 18:10 32K 
[IMG]Ngf8vkma2mny9b0.jpg2022-05-09 18:10 16K 
[IMG]D2qdFsCgStaymOj.jpg2022-05-09 18:10 50K 
[IMG]NVF2otfH258gamg.jpg2022-05-09 18:10 64K 
[IMG]ei7KJfl2RQlSapK.jpg2022-05-09 18:10 72K 
[IMG]zIdbltffwzXWPTZ.jpg2022-05-09 18:10 61K 
[IMG]iEY9swE0te7ZR0P.jpg2022-05-09 18:10 41K 
[IMG]Xh3r0QcWLtiTn6W.jpg2022-05-09 18:10 29K 
[IMG]poPD0kOOXkk8HR5.jpg2022-05-09 18:10 42K 
[IMG]cSDsdlk0AIIlWyD.jpg2022-05-09 18:10 34K 
[IMG]gpuzmTIQS4lhjXm.jpg2022-05-09 18:10 19K 
[IMG]6tSJPD35GTtxPPe.jpg2022-05-09 18:10 26K 
[IMG]WPsOj6CHe6s4PlN.jpg2022-05-09 18:10 20K 
[IMG]5BuP1l5sj0m1vla.jpg2022-05-09 18:10 25K 
[IMG]dWn1ZKNyz1PjWTK.jpg2022-05-09 18:10 36K 
[IMG]GEdKPMogY8LkzWE.jpg2022-05-09 18:10 24K 
[IMG]zHU0FX97ZeF94jL.jpg2022-05-09 18:10 50K 
[IMG]ZKt3S6I5gRqEtEm.jpg2022-05-09 18:10 12K 
[IMG]MSJw27BGX6p5OtV.jpg2022-05-09 18:10 19K 
[IMG]KLpYqkww3KznE5g.jpg2022-05-09 18:10 38K 
[IMG]JGIAlBRzQVP9ABS.jpg2022-05-09 18:10 43K 
[IMG]ewi7p6TGeKhLNba.jpg2022-05-09 18:10 69K 
[IMG]Ixh3o6dyJRYG7wh.jpg2022-05-09 18:10 101K 
[IMG]kSZmvDswphcaWkF.jpg2022-05-09 18:10 63K 
[IMG]GQWGWKBbDW8e3hW.jpg2022-05-09 18:10 43K 
[IMG]EoOjX6HMM4iKu0i.jpg2022-05-09 18:10 57K 
[IMG]Z1fd6Jxwrv7TTZp.jpg2022-05-09 18:10 42K 
[IMG]DOMbG9lvTa2XmF6.jpg2022-05-09 18:10 59K 
[IMG]OtCmEx1BkSWfD0g.jpg2022-05-09 18:10 55K 
[IMG]oH33B6Puaaoxkn7.jpg2022-05-09 18:10 47K 
[IMG]UfFDfCaI3ftc8iw.jpg2022-05-09 18:10 53K 
[IMG]Nak6SdBn2AJT7QF.jpg2022-05-09 18:10 10K 
[IMG]RpzAI2vhAVsF4Pv.jpg2022-05-09 18:10 11K 
[IMG]m0naZuIP2WpX85s.jpg2022-05-09 18:10 11K 
[IMG]w0jDygQRHwBUrbH.jpg2022-05-09 18:10 21K 
[IMG]vVXBaPqXqCr43TV.jpg2022-05-09 18:10 23K 
[IMG]G1OA0EbP6nAcnkr.jpg2022-05-09 18:10 39K 
[IMG]EJYikDFT6QER3bg.jpg2022-05-09 18:10 267K 
[IMG]5YG8SoUgDXjj7nG.jpg2022-05-09 18:10 28K 
[IMG]OlISkUsVjsz0ZTE.jpg2022-05-09 18:10 47K 
[IMG]vFRaIKumzMRubES.jpg2022-05-09 18:10 11K 
[IMG]gmN75Rbk1buUgNG.jpg2022-05-09 18:10 11K 
[IMG]nCRwrjp3W25ALNA.jpg2022-05-09 18:10 12K 
[IMG]LvOH61p5yXKaNlp.jpg2022-05-09 18:10 56K 
[IMG]6xkHX2eIYHmPDPL.jpg2022-05-09 18:10 29K 
[IMG]xVj1EBUNMLXBNXQ.jpg2022-05-09 18:10 16K 
[IMG]nM3HVYVXwlHFTec.jpg2022-05-09 18:10 27K 
[IMG]PODJIpKbOnbXJ2O.jpg2022-05-09 18:10 19K 
[IMG]lzi8tGQXqJ4yY64.jpg2022-05-09 18:10 11K 
[IMG]m8UL9e0ZTe0oBze.jpg2022-05-09 18:10 18K 
[IMG]Fz4XqtdQZR5HM28.jpg2022-05-09 18:10 25K 
[IMG]9qubRb7yS4ytC81.jpg2022-05-09 18:10 8.4K 
[IMG]78w7LFbkmMFYEgK.jpg2022-05-09 18:10 21K 
[IMG]GyC6Sy7jXxe7D9H.jpg2022-05-09 18:10 30K 
[IMG]E6fiEVGuXNv1fZk.jpg2022-05-09 18:10 23K 
[IMG]d1maZXqiguryywx.jpg2022-05-09 18:10 32K 
[IMG]CmDMhqDVfsiNhI2.jpg2022-05-09 18:10 52K 
[IMG]mzpCdHG0M5wdA8s.jpg2022-05-09 18:10 35K 
[IMG]QjB6P2obSlxCXco.jpg2022-05-09 18:10 48K 
[IMG]4tJ8SkbkLXRDXdm.jpg2022-05-09 18:10 50K 
[IMG]MjQILtuoLVZfxGy.jpg2022-05-09 18:10 18K 
[IMG]IsYgqDjj7dlSqWb.jpg2022-05-09 18:10 57K 
[IMG]MC5lvpfScN2wIXu.jpg2022-05-09 18:11 63K 
[IMG]etlrD5gPhg2uDm8.jpg2022-05-09 18:11 55K 
[IMG]7n2M1creqMggUXW.jpg2022-05-09 18:11 54K 
[IMG]2SLsb4zGgeufrwO.jpg2022-05-09 18:11 45K 
[IMG]944CJIAmS1FY4EO.jpg2022-05-09 18:11 55K 
[IMG]6vCRLgI0SoSF36v.jpg2022-05-09 18:11 57K 
[IMG]MQOkT7e3aAy6m1u.jpg2022-05-09 18:11 52K 
[IMG]dPmCIEuBAaxMEJo.jpg2022-05-09 18:11 31K 
[IMG]C5Tt6gUFBO4brZp.jpg2022-05-09 18:11 25K 
[IMG]C6nuKJmdmbDtO87.jpg2022-05-09 18:11 17K 
[IMG]yEbagaTjUCfPfY0.jpg2022-05-09 18:11 42K 
[IMG]M2AIj5TBz8ZJok6.jpg2022-05-09 18:11 23K 
[IMG]oRaZzx8DF3DXoUE.jpg2022-05-09 18:11 37K 
[IMG]dPJmaaqg0haUymC.jpg2022-05-09 18:11 29K 
[IMG]Xi5zDUfmhO38n4O.jpg2022-05-09 18:11 34K 
[IMG]71oBJERWIDJOPzt.jpg2022-05-09 18:11 48K 
[IMG]IKzC0su5FHwMi89.jpg2022-05-09 18:11 24K 
[IMG]u7R6INUhGn9FwQ8.jpg2022-05-09 18:11 25K 
[IMG]MmzOXSdJWtTYTV2.jpg2022-05-09 18:11 29K 
[IMG]qkIA86XB0lFA40r.jpg2022-05-09 18:11 28K 
[IMG]RUCzs1q2RaLrDV0.jpg2022-05-09 18:11 30K 
[IMG]4PiqAuHH1Mj1oIf.jpg2022-05-09 18:11 35K 
[IMG]KrBjbL39DrA1ifc.jpg2022-05-09 18:11 37K 
[IMG]vqeuUHQNyQSwQYh.jpg2022-05-09 18:12 32K 
[IMG]XES4DCRknhHU6rN.jpg2022-05-09 18:12 45K 
[IMG]Ldaz1Fp34ADS6wU.jpg2022-05-09 18:12 17K 
[IMG]I86LxoOaaY1CbbF.jpg2022-05-09 18:12 15K 
[IMG]xlanfhgfp3QGCqE.jpg2022-05-09 18:12 21K 
[IMG]pENXIlO8pZyNGHu.jpg2022-05-09 18:12 16K 
[IMG]wXpee2Cpl99qUus.jpg2022-05-09 18:12 50K 
[IMG]igKMfGMotQ725Ef.jpg2022-05-09 18:12 18K 
[IMG]qdq2KZUq3O1ufqG.jpg2022-05-09 18:12 18K 
[IMG]60Ly1hc1TjxMSTV.jpg2022-05-09 18:12 33K 
[IMG]sKaaX1jeLTnP9dT.jpg2022-05-09 18:12 21K 
[IMG]T0Zf95Fpf0Rm78p.jpg2022-05-09 18:12 30K 
[IMG]64icottN7JslfSQ.jpg2022-05-09 18:12 35K 
[IMG]gzF9YUd9KYoHGRY.jpg2022-05-09 18:12 6.7K 
[IMG]WdpLAAUnJMswoNY.jpg2022-05-09 18:12 11K 
[IMG]T1FPv0IDeKK9nLp.jpg2022-05-09 18:12 15K 
[IMG]mGeBIGi7pMrYD3R.jpg2022-05-09 18:12 37K 
[IMG]TSmF9xh54zizVYb.jpg2022-05-09 18:12 11K 
[IMG]nwQ4zX2yAsdHYos.jpg2022-05-09 18:12 19K 
[IMG]Ko25YBrKXK56yca.jpg2022-05-09 18:12 29K 
[IMG]9y7naMT2PuT2wMC.jpg2022-05-09 18:12 19K 
[IMG]mYINofKB5WMJuZH.jpg2022-05-09 18:12 16K 
[IMG]O45bD4g2B0pTQVO.jpg2022-05-09 18:12 32K 
[IMG]xcnHoo59aYKgyHD.jpg2022-05-09 18:12 23K 
[IMG]QOnmaYVKr8erXdh.jpg2022-05-09 18:12 42K 
[IMG]RP8eKSBBlRdl4sY.jpg2022-05-09 18:12 33K 
[IMG]cmG5vID7R2TKpxa.jpg2022-05-09 18:12 24K 
[IMG]IK5XwwPdFqdB2LI.jpg2022-05-09 18:13 29K 
[IMG]h6SLwlKm8ZzSax0.jpg2022-05-09 18:13 39K 
[IMG]64CXqnceVIJG1c8.jpg2022-05-09 18:13 41K 
[IMG]N62bJakAbGm7pJJ.jpg2022-05-09 18:13 31K 
[IMG]m9D0OK8sbg2zcLo.jpg2022-05-09 18:13 20K 
[IMG]kf42nKywcBYhsTi.jpg2022-05-09 18:13 22K 
[IMG]tiGhrFIxugB8CwO.jpg2022-05-09 18:13 27K 
[IMG]mgDKo4sOQdyrMJs.jpg2022-05-09 18:13 85K 
[IMG]qyd28D19FRqWIiM.jpg2022-05-09 18:13 44K 
[IMG]OW9lXAOvbaSzeaZ.jpg2022-05-09 18:13 58K 
[IMG]pNamjkVTTf71Lcz.jpg2022-05-09 18:13 87K 
[IMG]AVegSdNopy0uMLI.jpg2022-05-09 18:13 89K 
[IMG]J4ErzyNivCuzvEf.jpg2022-05-09 18:13 75K 
[IMG]IhtLM0OcZmaejvv.jpg2022-05-09 18:13 64K 
[IMG]3lCfAPTAuICxlJq.jpg2022-05-09 18:13 24K 
[IMG]2Cn8TGW2VX1BIZd.jpg2022-05-09 18:13 45K 
[IMG]NRyC90oAdJGBgH0.jpg2022-05-09 18:13 24K 
[IMG]ErVn0IPdavX7tWV.jpg2022-05-09 18:13 57K 
[IMG]d4ddiNDDThP3khR.jpg2022-05-09 18:13 21K 
[IMG]CtwncLQr9c5BHOE.jpg2022-05-09 18:13 52K 
[IMG]aUo6f6l2U8Trvqi.jpg2022-05-09 18:13 48K 
[IMG]0x8m0hzRHn2uOca.jpg2022-05-09 18:14 39K 
[IMG]qsSMq2Mc72ZeUJE.jpg2022-05-09 18:14 33K 
[IMG]PrY0RsgQ2Xk1wUl.jpg2022-05-09 18:14 27K 
[IMG]aZzuGN0jGuNIFZH.jpg2022-05-09 18:14 24K 
[IMG]C9XDLdK99jHdxKM.jpg2022-05-09 18:14 33K 
[IMG]q7c1q4T4EPtnow2.jpg2022-05-09 18:14 44K 
[IMG]g15tMD9rLgFxKfc.jpg2022-05-09 18:14 34K 
[IMG]q0K4J6tERSPf6Rd.jpg2022-05-09 18:14 5.8K 
[IMG]ayeThcmzdd2JG8t.jpg2022-05-09 18:14 15K 
[IMG]ylx7JNJUwyZf6LS.jpg2022-05-09 18:14 51K 
[IMG]yMVG6m4tbXwwEYm.jpg2022-05-09 18:14 57K 
[IMG]9I8BoOP9zKRhNYC.jpg2022-05-09 18:14 57K 
[IMG]FwMntFZNUYEIzet.jpg2022-05-09 18:14 49K 
[IMG]2Aegx7ZtF9qvz2x.jpg2022-05-09 18:14 53K 
[IMG]H1KyXOR9zuYR47H.jpg2022-05-09 18:14 40K 
[IMG]fGMxUfilgPZfX1y.jpg2022-05-09 18:14 29K 
[IMG]Qg0s0zGEQeVt26J.jpg2022-05-09 18:14 34K 
[IMG]ee7htHi3yru4TA7.jpg2022-05-09 18:14 33K 
[IMG]btiVqhcgOPITAOX.jpg2022-05-09 18:14 39K 
[IMG]l6wqqZatOzkK0zC.jpg2022-05-09 18:14 30K 
[IMG]W7CqfEIQjfb49zb.jpg2022-05-09 18:14 38K 
[IMG]BnVAth1bPudBb0y.jpg2022-05-09 18:14 66K 
[IMG]7g778NekgVPLQsP.jpg2022-05-09 18:14 51K 
[IMG]785K2VbkNauSyqK.jpg2022-05-09 18:14 45K 
[IMG]dC481pRelyNUpOM.jpg2022-05-09 18:14 61K 
[IMG]FThT7ILhBto9h1R.jpg2022-05-09 18:14 33K 
[IMG]WeP4bvck4s3FgOz.jpg2022-05-09 18:14 58K 
[IMG]hJdIKw3YjUYSRa3.jpg2022-05-09 18:14 52K 
[IMG]DNNnANHydbwLZCG.jpg2022-05-09 18:14 52K 
[IMG]aRB7KBQpEcJoPyx.jpg2022-05-09 18:14 54K 
[IMG]xs0qgQQcGoMKfmw.jpg2022-05-09 18:14 41K 
[IMG]gY2WaeHP0Ejsy4L.jpg2022-05-09 18:14 49K 
[IMG]p93vG4UNg2DkxXR.jpg2022-05-09 18:14 42K 
[IMG]IOPUOCjzmudGN3M.jpg2022-05-09 18:14 30K 
[IMG]9TE03Y1s7tIRzrG.jpg2022-05-09 18:14 43K 
[IMG]CMANcyCwd5SRR89.jpg2022-05-09 18:14 70K 
[IMG]KvNXuzTdojJZCSZ.jpg2022-05-09 18:14 39K 
[IMG]fZHAxkNeTkZ6een.jpg2022-05-09 18:14 61K 
[IMG]jgfCl2Yf9ATMELb.jpg2022-05-09 18:14 72K 
[IMG]IQBFhUkoS9FHyLx.jpg2022-05-09 18:14 49K 
[IMG]dINE8zfNX69Z2P1.jpg2022-05-09 18:14 36K 
[IMG]qS9KV8lJoPNlS7w.jpg2022-05-09 18:14 29K 
[IMG]qdDvjC7RSG4hMQX.jpg2022-05-09 18:14 31K 
[IMG]D4ptlhnEc2kHFSk.jpg2022-05-09 18:14 44K 
[IMG]pT6q4hNtCZMfEOb.jpg2022-05-09 18:14 73K 
[IMG]YuSwO8f3CZ1eDnw.jpg2022-05-09 18:14 50K 
[IMG]UOhJECarwKHTjKm.jpg2022-05-09 18:15 20K 
[IMG]I8Pt9MO2GsVlksz.jpg2022-05-09 18:15 28K 
[IMG]zF5UM4dUs2hMHh9.jpg2022-05-09 18:15 35K 
[IMG]ONatpzLqNdNPB4h.jpg2022-05-09 18:15 13K 
[IMG]xjvQ7PrtZIAVNAw.jpg2022-05-09 18:15 30K 
[IMG]Lb4qxryL3u7eiw6.jpg2022-05-09 18:15 44K 
[IMG]stsIOy0cjMZZloK.jpg2022-05-09 18:15 31K 
[IMG]Wwtxjd2FJ9a6e7n.jpg2022-05-09 18:15 40K 
[IMG]mYfByj0ZudMYbmc.jpg2022-05-09 18:15 28K 
[IMG]Vtp23LfZlnAz0W4.jpg2022-05-09 18:15 42K 
[IMG]lycLU99nbWyTMQx.jpg2022-05-09 18:15 20K 
[IMG]MCIptu4qxCufa0U.jpg2022-05-09 18:15 44K 
[IMG]f3ai70R9QlaTALD.jpg2022-05-09 18:15 31K 
[IMG]9ZWQGgOYDGcgFcT.jpg2022-05-09 18:15 15K 
[IMG]AUfGO0dOscQoPC2.jpg2022-05-09 18:15 30K 
[IMG]jNOwrls8rMbcEEG.jpg2022-05-09 18:15 59K 
[IMG]Yusd3dLETEWu4vG.jpg2022-05-09 18:15 63K 
[IMG]CQ9GZJ5N9GI9iGw.jpg2022-05-09 18:15 40K 
[IMG]huu2b1minq8V5P4.jpg2022-05-09 18:15 22K 
[IMG]HQ36gKhzYommTxQ.jpg2022-05-09 18:15 40K 
[IMG]BjuScLXJx5Z9kre.jpg2022-05-09 18:15 37K 
[IMG]Lcih4LjLT6rbd3g.jpg2022-05-09 18:15 33K 
[IMG]nuKw45G32uocu3S.jpg2022-05-09 18:15 30K 
[IMG]6r1igkUO6Pfvcog.jpg2022-05-09 18:15 467K 
[IMG]XSBa3n2R4HJ4pgU.jpg2022-05-09 18:15 45K 
[IMG]JzT0D6Ufm3Vewxh.jpg2022-05-09 18:15 57K 
[IMG]De9BNLt9yRW3DM7.jpg2022-05-09 18:15 25K 
[IMG]dvNFGYAU07dRsdM.jpg2022-05-09 18:15 20K 
[IMG]G7W3zgrHIrvHmky.jpg2022-05-09 18:15 39K 
[IMG]nvmcISa8sjSBhC1.jpg2022-05-09 18:15 32K 
[IMG]ywIlzwmHlNu3EYl.jpg2022-05-09 18:15 34K 
[IMG]kXjUFNfVyxzAcRE.jpg2022-05-09 18:15 31K 
[IMG]UJVRbD5KaWUab8J.jpg2022-05-09 18:15 35K 
[IMG]QCJPkxdWlesvPv5.jpg2022-05-09 18:15 35K 
[IMG]zEKg33it3QSPhLc.jpg2022-05-09 18:15 197K 
[IMG]vi03udtpwSNWIZh.jpg2022-05-09 18:15 23K 
[IMG]L8jYScdOC7Hg0P6.jpg2022-05-09 18:15 10K 
[IMG]lF1FhTkdIyiY0dd.jpg2022-05-09 18:15 10K 
[IMG]ejP8nub6vlSrrsZ.jpg2022-05-09 18:15 12K 
[IMG]FbqkFWQ14avfteN.jpg2022-05-09 18:15 50K 
[IMG]mnSbV9w0ar167vy.jpg2022-05-09 18:15 32K 
[IMG]QWkaBO5kcLLVXur.jpg2022-05-09 18:15 35K 
[IMG]0dcVolL9SRvO0wA.jpg2022-05-09 18:15 19K 
[IMG]B9P2REqofGmMZZ9.jpg2022-05-09 18:15 38K 
[IMG]elJZNLuS5XOllT8.jpg2022-05-09 18:15 44K 
[IMG]3z1d0E0TpRyTBX2.jpg2022-05-09 18:15 17K 
[IMG]D42L5DC6qqRw4rt.jpg2022-05-09 18:15 20K 
[IMG]32rY0bCBp1iBUi1.jpg2022-05-09 18:15 28K 
[IMG]sxmx2dabCAqI6dY.jpg2022-05-09 18:15 28K 
[IMG]ckXVSj9CFKpf5ZL.jpg2022-05-09 18:15 33K 
[IMG]YnfXbE2YmPb0eQq.jpg2022-05-09 18:15 46K 
[IMG]vx2BsgxTTHpAwZn.jpg2022-05-09 18:15 73K 
[IMG]jeW6Abqzte3bykb.jpg2022-05-09 18:15 30K 
[IMG]pQKTqn0qo3vNxDo.jpg2022-05-09 18:15 5.0K 
[IMG]k41ervOSm47MaDn.jpg2022-05-09 18:15 24K 
[IMG]VMp9iZFu0ET2ySl.jpg2022-05-09 18:15 13K 
[IMG]JZUcIbaTypwKskb.jpg2022-05-09 18:15 7.5K 
[IMG]AAynNbMeU3QL97V.jpg2022-05-09 18:15 29K 
[IMG]WfGMrru9Af25YVp.jpg2022-05-09 18:15 39K 
[IMG]Sc4lydc4jyitY9I.jpg2022-05-09 18:15 13K 
[IMG]tHt83JPg2YHKBJR.jpg2022-05-09 18:15 14K 
[IMG]aCwihpLKihXAKs6.jpg2022-05-09 18:15 20K 
[IMG]7jK6QYg8KJq1087.jpg2022-05-09 18:15 19K 
[IMG]z45pkq3Ig3L9gLp.jpg2022-05-09 18:15 13K 
[IMG]5oXqluNczBtGPnP.jpg2022-05-09 18:15 9.6K 
[IMG]bteUH1qucw6TNXg.jpg2022-05-09 18:15 19K 
[IMG]MHPXOW303tDnGD4.jpg2022-05-09 18:15 49K 
[IMG]xRN2y7jXyVSxMHb.jpg2022-05-09 18:15 60K 
[IMG]yLuk5aJW0fvYUXg.jpg2022-05-09 18:15 35K 
[IMG]m9Cuzx3Nv1PXJuZ.jpg2022-05-09 18:15 50K 
[IMG]qEVdpEjiH5NwChZ.jpg2022-05-09 18:15 26K 
[IMG]Z7cVf1wKnfESQKu.jpg2022-05-09 18:15 29K 
[IMG]YaQcVieskZ9lu7L.jpg2022-05-09 18:15 30K 
[IMG]FKVmArlxYE2VHWK.jpg2022-05-09 18:15 35K 
[IMG]HCrQyXdPhHVwgeZ.jpg2022-05-09 18:15 42K 
[IMG]uYFzxfh1rk5HP9j.jpg2022-05-09 18:15 24K 
[IMG]S6oSzBkOLP2iezB.jpg2022-05-09 18:15 29K 
[IMG]gYEWolmUUVQDBum.jpg2022-05-09 18:15 31K 
[IMG]WdeEZirwBz5MjQ2.jpg2022-05-09 18:15 37K 
[IMG]jSy8375ouHCU9KO.jpg2022-05-09 18:15 41K 
[IMG]wy80k3wHbiRurbY.jpg2022-05-09 18:15 13K 
[IMG]bxh48vS91LBe8ae.jpg2022-05-09 18:16 14K 
[IMG]2WQKsRDj7B1b2Gj.jpg2022-05-09 18:16 13K 
[IMG]SH0DmQhOPp6WdKQ.jpg2022-05-09 18:16 25K 
[IMG]uG9hT84DOcnKk0o.jpg2022-05-09 18:16 31K 
[IMG]UQyeC8sSEuNfdz4.jpg2022-05-09 18:16 41K 
[IMG]sf0UpzCWHxVrr56.jpg2022-05-09 18:16 6.5K 
[IMG]E8fbXdJUhTOvzKm.jpg2022-05-09 18:16 20K 
[IMG]9QmTTtWBEP0CRcv.jpg2022-05-09 18:16 44K 
[IMG]QI7S39l3VsHGpMw.jpg2022-05-09 18:16 66K 
[IMG]ey6YBlNGXT2WYf3.jpg2022-05-09 18:16 30K 
[IMG]GzIZpUGQ5VzcopW.jpg2022-05-09 18:16 69K 
[IMG]aGC7qgNoXkX0cWC.jpg2022-05-09 18:16 28K 
[IMG]FoftoU4r4J2DrUh.jpg2022-05-09 18:16 41K 
[IMG]n5pLR6XmSfWL9LM.jpg2022-05-09 18:16 20K 
[IMG]QqI6vDuwzSHaYBu.jpg2022-05-09 18:16 41K 
[IMG]K1gf2A4bKlYe64J.jpg2022-05-09 18:16 20K 
[IMG]CiAwkDbddCKv0Ro.jpg2022-05-09 18:16 40K 
[IMG]pJ6A5hb6q19iYYD.jpg2022-05-09 18:16 27K 
[IMG]N3N2IS4Afu50hPa.jpg2022-05-09 18:16 33K 
[IMG]DXM5AXk9c8YQxQy.jpg2022-05-09 18:16 40K 
[IMG]SzHFKxKlmQ7l0fI.jpg2022-05-09 18:16 40K 
[IMG]xhUH5iqaokYZgDT.jpg2022-05-09 18:16 34K 
[IMG]pXfNBqDWyszUF0M.jpg2022-05-09 18:16 31K 
[IMG]C6BAbZtjrEBt3bA.jpg2022-05-09 18:16 23K 
[IMG]FRue8jyunAPYMov.jpg2022-05-09 18:16 37K 
[IMG]KjobWIougcVBa9H.jpg2022-05-09 18:16 25K 
[IMG]ecvCCDLTCuwrbuH.jpg2022-05-09 18:16 33K 
[IMG]dxzI3QXBp9ygvby.jpg2022-05-09 18:16 34K 
[IMG]54u75gJ75ji5OcD.jpg2022-05-09 18:16 26K 
[IMG]Ko4HZ99WUz7pgm0.jpg2022-05-09 18:16 51K 
[IMG]VVKGdFJVZ9QRwpN.jpg2022-05-09 18:16 28K 
[IMG]bYWKqw2FcUQmlBR.jpg2022-05-09 18:16 38K 
[IMG]6z4jpuDDINt3SPJ.jpg2022-05-09 18:16 20K 
[IMG]JiFZ9fs6f0b0M9i.jpg2022-05-09 18:16 40K 
[IMG]2SImIW24XSe3ueC.jpg2022-05-09 18:16 24K 
[IMG]qeU9az43eAF6C0u.jpg2022-05-09 18:16 53K 
[IMG]JvekX8OKkRz0v6o.jpg2022-05-09 18:16 37K 
[IMG]B8GCaoYlGMw7A1W.jpg2022-05-09 18:16 17K 
[IMG]4bqPkrcaWqi3Afq.jpg2022-05-09 18:16 21K 
[IMG]NOsB7uPW1cTEeEf.jpg2022-05-09 18:16 35K 
[IMG]ZMRmczHoDXHTLRH.jpg2022-05-09 18:16 27K 
[IMG]8sYLIeVB1I5HPin.jpg2022-05-09 18:16 27K 
[IMG]yhtO7JKD3cTNt3F.jpg2022-05-09 18:16 74K 
[IMG]MVLrvY2ud6tEF56.jpg2022-05-09 18:16 53K 
[IMG]FpjUtq8j5nWHAOj.jpg2022-05-09 18:16 27K 
[IMG]nmu7TSmctICz4eS.jpg2022-05-09 18:16 69K 
[IMG]Qh9kWfaozBS6EK3.jpg2022-05-09 18:16 30K 
[IMG]bjVSbkcjLMdKbdD.jpg2022-05-09 18:16 32K 
[IMG]zaX48fsFFKj2zKc.jpg2022-05-09 18:16 20K 
[IMG]womt5CSrZjyQLX6.jpg2022-05-09 18:16 26K 
[IMG]m8INsWeYdBFdIYx.jpg2022-05-09 18:16 31K 
[IMG]4RI0GDnPZb9Vgsr.jpg2022-05-09 18:16 58K 
[IMG]e6GgLykyCoauWuu.jpg2022-05-09 18:16 29K 
[IMG]xqkFUclt3woAMsk.jpg2022-05-09 18:16 14K 
[IMG]NOp3h9pFe7EXCja.jpg2022-05-09 18:16 32K 
[IMG]zBajEJe6NBjLu1X.jpg2022-05-09 18:16 36K 
[IMG]ODoLdu3YeAhWO8M.jpg2022-05-09 18:16 19K 
[IMG]LCVKtCTriu1gm6z.jpg2022-05-09 18:16 38K 
[IMG]cOLuImz8XL9FZhJ.jpg2022-05-09 18:16 35K 
[IMG]7E7FJmh2xh25yzr.jpg2022-05-09 18:16 1.1M 
[IMG]w5hUw4HFMwd921X.jpg2022-05-09 18:17 24K 
[IMG]A3Jn3uG1XRjOJnQ.jpg2022-05-09 18:17 25K 
[IMG]qADGpBm0yCFPvRz.jpg2022-05-09 18:17 39K 
[IMG]tnCQ9hRiOtMSWnb.jpg2022-05-09 18:17 24K 
[IMG]1f9CWyr79VlP3r4.jpg2022-05-09 18:17 57K 
[IMG]wtE0K4WIgYIq7hi.jpg2022-05-09 18:17 24K 
[IMG]etl1AbmlqbPuDRQ.jpg2022-05-09 18:17 25K 
[IMG]kDEAOKe4NYQ9vrt.jpg2022-05-09 18:17 28K 
[IMG]qnMZfOXZ3hYCHmt.jpg2022-05-09 18:17 62K 
[IMG]EDF6FfWnG7mvXYb.jpg2022-05-09 18:17 49K 
[IMG]wor1f0AoiPzyDPS.jpg2022-05-09 18:17 96K 
[IMG]SY2OWX9ezEhAnRs.jpg2022-05-09 18:17 8.8K 
[IMG]nNHaQdK4GyONBMU.jpg2022-05-09 18:17 70K 
[IMG]2lRHrsvw96lJCJB.jpg2022-05-09 18:17 9.9K 
[IMG]ZKYvRs42tI0Qe3E.jpg2022-05-09 18:17 14K 
[IMG]AYgI7nTyKe7hU5e.jpg2022-05-09 18:17 68K 
[IMG]XW3iCxbPK3Lvznh.jpg2022-05-09 18:17 25K 
[IMG]FO9bomagwsKKJtM.jpg2022-05-09 18:17 67K 
[IMG]acOCVxf3Ui2mtlo.jpg2022-05-09 18:17 28K 
[IMG]1QLqif335XAnEXm.jpg2022-05-09 18:17 25K 
[IMG]vWhTs8W9p7DI8GC.jpg2022-05-09 18:17 24K 
[IMG]iEc14mi4olqw4Jp.jpg2022-05-09 18:17 27K 
[IMG]Rty6V9BL7S8j76L.jpg2022-05-09 18:17 30K 
[IMG]Lpy8TgETEngpc2m.jpg2022-05-09 18:17 20K 
[IMG]wiwF9y24KKQ5vpY.jpg2022-05-09 18:17 45K 
[IMG]ZVTY6GkOzyErzYT.jpg2022-05-09 18:17 41K 
[IMG]n9FBLWHem2hXpyF.jpg2022-05-09 18:17 69K 
[IMG]3tEBzeewAiR9voZ.jpg2022-05-09 18:17 24K 
[IMG]GyJuCUmhqmEvU23.jpg2022-05-09 18:17 25K 
[IMG]645UhCJd1JuLIh6.jpg2022-05-09 18:17 21K 
[IMG]yEQZWKJNuHHH2Sx.jpg2022-05-09 18:17 12K 
[IMG]D1ol1rKADOosZXB.jpg2022-05-09 18:17 20K 
[IMG]LNC6uCvqjDJg1Gm.jpg2022-05-09 18:17 21K 
[IMG]UjJRXrd0aTopOQ0.jpg2022-05-09 18:17 52K 
[IMG]ISAt5A6dbyT1nUf.jpg2022-05-09 18:17 20K 
[IMG]w0Nzy58mwfT85TM.jpg2022-05-09 18:17 44K 
[IMG]3oXQGb0k0j6oQIv.jpg2022-05-09 18:17 43K 
[IMG]WMB6ywvEmMa0eAZ.jpg2022-05-09 18:17 34K 
[IMG]9rpw1XczYbSJUfI.jpg2022-05-09 18:17 39K 
[IMG]DZO3X3ZP24tfp6f.jpg2022-05-09 18:17 36K 
[IMG]IndZwxI0ufMqCoa.jpg2022-05-09 18:17 19K 
[IMG]9rjY7O5OqW5Tkko.jpg2022-05-09 18:17 21K 
[IMG]OWuyTGLSd6wvPwe.jpg2022-05-09 18:17 44K 
[IMG]nOMXLakHDHAc8lw.jpg2022-05-09 18:17 47K 
[IMG]Ige0CpIiBioE1gh.jpg2022-05-09 18:17 40K 
[IMG]Bpg06AweahkWMPp.jpg2022-05-09 18:17 42K 
[IMG]XeiheebPmov4q8o.jpg2022-05-09 18:17 47K 
[IMG]WnbXTRB4frMd0mN.jpg2022-05-09 18:17 46K 
[IMG]4P0I6SY4ijqMKQn.jpg2022-05-09 18:17 16K 
[IMG]Q4hafluWOVH3FnR.jpg2022-05-09 18:17 70K 
[IMG]rrvf750W6KlZ9Jw.jpg2022-05-09 18:17 32K 
[IMG]3ummtV8FOzN79Kc.jpg2022-05-09 18:17 28K 
[IMG]v53UcWuqZiUdVhW.jpg2022-05-09 18:17 48K 
[IMG]yxDO3EykSIZnpEv.jpg2022-05-09 18:17 69K 
[IMG]CehlOGLI9my2ueb.jpg2022-05-09 18:17 25K 
[IMG]vFrpFmPbFZeLjuv.jpg2022-05-09 18:17 18K 
[IMG]3QlBUuMqfq53LR4.jpg2022-05-09 18:17 12K 
[IMG]ue3wi4HhWq5azla.jpg2022-05-09 18:17 13K 
[IMG]JZWyRTAiA27ZsJ2.jpg2022-05-09 18:17 37K 
[IMG]2VFJmX1672992rF.jpg2022-05-09 18:17 24K 
[IMG]Mfzfa01djgGOVa4.jpg2022-05-09 18:17 31K 
[IMG]6BUtyFvE5OQEY1d.jpg2022-05-09 18:17 34K 
[IMG]AbB4kzmnol4kAfp.jpg2022-05-09 18:17 30K 
[IMG]Q9ExYnjsXLUCBuz.jpg2022-05-09 18:17 42K 
[IMG]FYRcgg9DSAbsgDB.jpg2022-05-09 18:17 20K 
[IMG]jyC8hZo2R0624Iw.jpg2022-05-09 18:17 29K 
[IMG]yPnXE0reTH2Jkf1.jpg2022-05-09 18:17 35K 
[IMG]vu16wgvWNitGI8o.jpg2022-05-09 18:17 18K 
[IMG]tsQYd5O1hRpVkuE.jpg2022-05-09 18:17 41K 
[IMG]HdmjUvrHTH16F55.jpg2022-05-09 18:17 28K 
[IMG]xiasAiPGNN6JlWh.jpg2022-05-09 18:17 43K 
[IMG]vbhj84MuKZuqAqJ.jpg2022-05-09 18:17 28K 
[IMG]oci30yC4gaclxBr.jpg2022-05-09 18:17 50K 
[IMG]mvQiZk15izMkUzs.jpg2022-05-09 18:17 56K 
[IMG]ExKrOUDoYrXMMev.jpg2022-05-09 18:17 51K 
[IMG]j4oYMH82dhbYQaj.jpg2022-05-09 18:17 50K 
[IMG]LqQ6gTsKRmZ0eKj.jpg2022-05-09 18:17 37K 
[IMG]MRvCfwffNzpcKf4.jpg2022-05-09 18:17 60K 
[IMG]FjzC6ev2M9Go6ve.jpg2022-05-09 18:17 17K 
[IMG]LJY5cU7Pgq6RtxI.jpg2022-05-09 18:17 10K 
[IMG]pTeUnkTl4AOPcc9.jpg2022-05-09 18:17 13K 
[IMG]AE5yugFA2FXN3b2.jpg2022-05-09 18:17 11K 
[IMG]i7OSiNZQA1u9gBW.jpg2022-05-09 18:17 8.8K 
[IMG]987rkl7AhVt88uT.jpg2022-05-09 18:17 11K 
[IMG]4Ho0BbKX4erx6bd.jpg2022-05-09 18:17 31K 
[IMG]CGXG3PinwHtaR0l.jpg2022-05-09 18:17 20K 
[IMG]yoSEZBQ7YJCAF4K.jpg2022-05-09 18:17 39K 
[IMG]jndTlafIm50DdOj.jpg2022-05-09 18:17 21K 
[IMG]uRIwiizRwpyIYq3.jpg2022-05-09 18:17 33K 
[IMG]t6N2DmDa2pr7Fbq.jpg2022-05-09 18:17 35K 
[IMG]br6E4FZRI61ByrE.jpg2022-05-09 18:17 37K 
[IMG]aEj7u3wx3kyJdtT.jpg2022-05-09 18:17 37K 
[IMG]tmYSECmIbLS2HNm.jpg2022-05-09 18:17 39K 
[IMG]TaiYWEOKqIsRF3y.jpg2022-05-09 18:17 40K 
[IMG]qTyyyRMgzTXP5qp.jpg2022-05-09 18:17 32K 
[IMG]L897BhUXpMtdNGH.jpg2022-05-09 18:17 55K 
[IMG]49ei0oEcauvxy9W.jpg2022-05-09 18:17 35K 
[IMG]g9oMZOFvPIOPpgD.jpg2022-05-09 18:17 682  
[IMG]pOJkqUYAVzsT07T.jpg2022-05-09 18:17 56K 
[IMG]m1hugAWEIDaL17K.jpg2022-05-09 18:17 59K 
[IMG]KQ6NVF57DyhOhQF.jpg2022-05-09 18:17 48K 
[IMG]AF4XmjE8jcwHjjH.jpg2022-05-09 18:17 45K 
[IMG]mIcruQFzS9eGyJb.jpg2022-05-09 18:17 54K 
[IMG]WfvjtXpWxynJA93.jpg2022-05-09 18:17 66K 
[IMG]8rdf8poUiuxqwrQ.jpg2022-05-09 18:17 89K 
[IMG]PoBuZDK08kUHtI8.jpg2022-05-09 18:17 32K 
[IMG]XQEbDVRyN4ojwuS.jpg2022-05-09 18:17 14K 
[IMG]5U0rWKI2nhh7IAn.jpg2022-05-09 18:17 44K 
[IMG]7U6lY0F7GQNvTBV.jpg2022-05-09 18:17 44K 
[IMG]X6ELVyXLhkiX5ks.jpg2022-05-09 18:17 24K 
[IMG]Ca3uXrYHaj0dBSx.jpg2022-05-09 18:17 43K 
[IMG]MClkfL4KDzI5lx4.jpg2022-05-09 18:17 31K 
[IMG]F5Y5xTGf3QWw25H.jpg2022-05-09 18:17 38K 
[IMG]L02C5ac2hZlVDus.jpg2022-05-09 18:17 42K 
[IMG]InSxJD1oOJQ5Ipz.jpg2022-05-09 18:17 29K 
[IMG]9GwmCnHbcRZ35Of.jpg2022-05-09 18:17 26K 
[IMG]EViLVMbfeDP0mDM.jpg2022-05-09 18:17 26K 
[IMG]edb2MPiIX6nir2a.jpg2022-05-09 18:17 29K 
[IMG]F6P9ZNpuDOz9Jw4.jpg2022-05-09 18:17 36K 
[IMG]pXswSfBGdNeXWg3.jpg2022-05-09 18:18 28K 
[IMG]66F29XLhKPjZw2u.jpg2022-05-09 18:18 35K 
[IMG]JIhpMuGBuW8Tck3.jpg2022-05-09 18:18 29K 
[IMG]VxRFXKwCIuE68Nu.jpg2022-05-09 18:18 39K 
[IMG]iPc2AyVVLEQU1Yd.jpg2022-05-09 18:18 29K 
[IMG]fpfeC0aS9RXJ8kB.jpg2022-05-09 18:18 27K 
[IMG]3yXaAjh4axIIt7h.jpg2022-05-09 18:18 41K 
[IMG]DdiZns7WUCqDCOX.jpg2022-05-09 18:18 12K 
[IMG]OSw1xNzcYIsiEIK.jpg2022-05-09 18:18 11K 
[IMG]d348F0aflIhRdNU.jpg2022-05-09 18:18 11K 
[IMG]jUSYNGK4AZv12Yr.jpg2022-05-09 18:18 8.7K 
[IMG]faoeIDhtluVsBau.jpg2022-05-09 18:18 8.5K 
[IMG]5yZyMkIXX6VFW8t.jpg2022-05-09 18:18 20K 
[IMG]60eeKVfxLkYNafv.jpg2022-05-09 18:18 46K 
[IMG]BLBG9HlW9oy4ILb.jpg2022-05-09 18:18 12K 
[IMG]CK9a3mnPQegvcl4.jpg2022-05-09 18:18 33K 
[IMG]T7Bkz37dieimfjn.jpg2022-05-09 18:18 44K 
[IMG]aleZY6n41Z4yppI.jpg2022-05-09 18:18 29K 
[IMG]nRM7lrNNvcgOqkO.jpg2022-05-09 18:18 50K 
[IMG]JJ3qkTyqbluW7Ri.jpg2022-05-09 18:18 58K 
[IMG]0iXeQuwDuZVxevk.jpg2022-05-09 18:18 49K 
[IMG]S2f1A5JTxMJdJ4B.jpg2022-05-09 18:18 57K 
[IMG]0nH39IBpUvZ7vJk.jpg2022-05-09 18:18 64K 
[IMG]bnD13Po9wqUneoj.jpg2022-05-09 18:18 60K 
[IMG]duNqWeMhSGZXerS.jpg2022-05-09 18:18 13K 
[IMG]Fdye0H7Pa8fhmdg.jpg2022-05-09 18:18 26K 
[IMG]JsbdqjtRdyO4AMR.jpg2022-05-09 18:18 24K 
[IMG]nq1A1hCw7XTinm4.jpg2022-05-09 18:18 31K 
[IMG]JSuFU7V9SbZfjeJ.jpg2022-05-09 18:18 32K 
[IMG]OBaxE5lcIJvILxn.jpg2022-05-09 18:18 38K 
[IMG]0SFc9DeJLuYVH3g.jpg2022-05-09 18:18 21K 
[IMG]ctONdTBjdd93RPn.jpg2022-05-09 18:18 21K 
[IMG]hrjQGUk0vj6Hf4P.jpg2022-05-09 18:18 25K 
[IMG]53uFVChGXHMvWqU.jpg2022-05-09 18:18 32K 
[IMG]PBY1QSt0C7dfjfd.jpg2022-05-09 18:18 17K 
[IMG]fttuGdqDDg1moEX.jpg2022-05-09 18:18 35K 
[IMG]Nw9QU7KPUziGT0S.jpg2022-05-09 18:18 28K 
[IMG]O6K6Yf5S7qd04np.jpg2022-05-09 18:18 45K 
[IMG]Lyd6nE8oFf2FoBi.jpg2022-05-09 18:18 32K 
[IMG]yFA1rP7qLumJbVX.jpg2022-05-09 18:18 22K 
[IMG]1Ud3onQaghQjeuI.jpg2022-05-09 18:18 16K 
[IMG]F5WzLbjKf4o1Pk5.jpg2022-05-09 18:18 43K 
[IMG]z8L4PjaC35QmYD7.jpg2022-05-09 18:18 42K 
[IMG]zxd9I3NW7eebnOJ.jpg2022-05-09 18:18 20K 
[IMG]TVmlefYavMJMydN.jpg2022-05-09 18:18 18K 
[IMG]t9LQ30IcFO3TYdZ.jpg2022-05-09 18:18 18K 
[IMG]IchXS1GzLgIdCYO.jpg2022-05-09 18:18 24K 
[IMG]tYGHe03fVKp33go.jpg2022-05-09 18:18 12K 
[IMG]I4AKMKPxZqLxN2i.jpg2022-05-09 18:18 12K 
[IMG]0DrTo9dCbxvB3BM.jpg2022-05-09 18:18 13K 
[IMG]FtSxy6Xb5ppp70Q.jpg2022-05-09 18:18 29K 
[IMG]MWBaekZ9z2Zo1lH.jpg2022-05-09 18:18 25K 
[IMG]a74lY9u61VCRWfs.jpg2022-05-09 18:18 28K 
[IMG]lCdlE20BN2t8xay.jpg2022-05-09 18:18 29K 
[IMG]lovXpgb86M18Br3.jpg2022-05-09 18:18 51K 
[IMG]FDjGPqO0yZmcviJ.jpg2022-05-09 18:18 32K 
[IMG]GB3EJjtjswLY9rw.jpg2022-05-09 18:18 37K 
[IMG]BP52NbLLbiRgbqy.jpg2022-05-09 18:18 42K 
[IMG]XANarye9jkAU52y.jpg2022-05-09 18:18 34K 
[IMG]viAgRkV6qHyYvXt.jpg2022-05-09 18:18 26K 
[IMG]HERzDvKwBGTMNQY.jpg2022-05-09 18:18 38K 
[IMG]LIUSoc1VrZ7GPck.jpg2022-05-09 18:18 29K 
[IMG]XjduQG7SQ9PjuRf.jpg2022-05-09 18:18 48K 
[IMG]7eePN9AmOXdxpSQ.jpg2022-05-09 18:18 27K 
[IMG]gJlrgP2f9pf4VzN.jpg2022-05-09 18:18 46K 
[IMG]Fu1X0lFmsumpAiM.jpg2022-05-09 18:18 45K 
[IMG]XTWcW0naiywKeNS.jpg2022-05-09 18:18 56K 
[IMG]iLczjXVkou9botk.jpg2022-05-09 18:18 40K 
[IMG]Kt6F9lxYHgo6ydA.jpg2022-05-09 18:18 54K 
[IMG]XRhm9jw3LuMBLSl.jpg2022-05-09 18:18 25K 
[IMG]O7pih8GoxLh0RLq.jpg2022-05-09 18:18 47K 
[IMG]qTqx2EkXL7ywsmZ.jpg2022-05-09 18:18 39K 
[IMG]0Loqdl5OEHCuUef.jpg2022-05-09 18:18 41K 
[IMG]LbjVE1e6Rkj1z83.jpg2022-05-09 18:18 24K 
[IMG]f2yvB7nBLbc6tPr.jpg2022-05-09 18:18 67K 
[IMG]BVH37S6JYXZ9yYz.jpg2022-05-09 18:18 17K 
[IMG]om284QKVAlPy8CD.jpg2022-05-09 18:18 23K 
[IMG]ZwRbiMg8PB5kDHJ.jpg2022-05-09 18:18 17K 
[IMG]QulwjA7k0ZIWsza.jpg2022-05-09 18:18 20K 
[IMG]Oy8UQEvdfcCZgAP.jpg2022-05-09 18:18 41K 
[IMG]MvyPBjrCzv4wBwU.jpg2022-05-09 18:18 39K 
[IMG]YzDOPmJxMqeeuLA.jpg2022-05-09 18:18 33K 
[IMG]yFLwb7aUPmgS2bG.jpg2022-05-09 18:18 27K 
[IMG]DZL81IcAUnRl2fz.jpg2022-05-09 18:18 34K 
[IMG]Ik8LrX4ak8qLlke.jpg2022-05-09 18:18 24K 
[IMG]oKK37DeeEKQru6b.jpg2022-05-09 18:18 19K 
[IMG]uUEPdPQmoBf3Rha.jpg2022-05-09 18:18 47K 
[IMG]NYzHdYnu7nCwbQr.jpg2022-05-09 18:19 45K 
[IMG]vVQDooApbvbj6Ag.jpg2022-05-09 18:19 34K 
[IMG]hN69KFaBZxZmP4N.jpg2022-05-09 18:19 32K 
[IMG]9dS6yd5lWzu7Ick.jpg2022-05-09 18:19 39K 
[IMG]nspxdDdTkag7VUg.jpg2022-05-09 18:19 36K 
[IMG]hJ5qlg4w3SaXLQz.jpg2022-05-09 18:19 30K 
[IMG]8U00YakPrSIdTGd.jpg2022-05-09 18:19 32K 
[IMG]sMdAh1JSbgZpkh8.jpg2022-05-09 18:19 40K 
[IMG]9Xbg7uyyozLH6Kl.jpg2022-05-09 18:19 49K 
[IMG]lWP3llwofo8H44i.jpg2022-05-09 18:19 4.9K 
[IMG]IKWqS2Pnsxkeznl.jpg2022-05-09 18:19 34K 
[IMG]vvk0k147YoX4ijC.jpg2022-05-09 18:19 18K 
[IMG]5OOXAyuj8dUs0XY.jpg2022-05-09 18:19 27K 
[IMG]wlyrxUJGg3h3mRg.jpg2022-05-09 18:19 20K 
[IMG]8MKbH9H6truNGbC.jpg2022-05-09 18:19 23K 
[IMG]sbgJqOHQy4MeEjN.jpg2022-05-09 18:19 35K 
[IMG]4edwkJeCBOfV2k2.jpg2022-05-09 18:19 26K 
[IMG]4ECAhTlv81SFEmo.jpg2022-05-09 18:19 39K 
[IMG]xyyuEIrut2O1Ovw.jpg2022-05-09 18:19 40K 
[IMG]6F29VL6vwmBzfKr.jpg2022-05-09 18:19 52K 
[IMG]hvptqIE6vcpje1g.jpg2022-05-09 18:19 48K 
[IMG]SKLXnf1LhvZWnAH.jpg2022-05-09 18:19 29K 
[IMG]6wrIszigmS8guzA.jpg2022-05-09 18:19 19K 
[IMG]0lbltkgVeHPvtNO.jpg2022-05-09 18:19 45K 
[IMG]CYqCNx6f5nQ2xmU.jpg2022-05-09 18:19 39K 
[IMG]Gm87Izf4a1m64j8.jpg2022-05-09 18:19 30K 
[IMG]UQqV1xAE2kwUr72.jpg2022-05-09 18:19 16K 
[IMG]FuMyLRFxNZmpoFU.jpg2022-05-09 18:19 62K 
[IMG]LJXmqrvZaQ5GCzd.jpg2022-05-09 18:19 63K 
[IMG]kHDE0MSXGO2wOVY.jpg2022-05-09 18:19 41K 
[IMG]IxwhvbkKgHF0Y1j.jpg2022-05-09 18:19 36K 
[IMG]hWZMB7CTc7A98YP.jpg2022-05-09 18:19 52K 
[IMG]HkWUI0IfzQbKeot.jpg2022-05-09 18:19 36K 
[IMG]yR42XBdasLM4ylW.jpg2022-05-09 18:19 17K 
[IMG]zJ0y7B5n5qeB05X.jpg2022-05-09 18:19 47K 
[IMG]ZxGWkJVDwC8O8vx.jpg2022-05-09 18:19 66K 
[IMG]uRPlE71QPawCwy4.jpg2022-05-09 18:19 20K 
[IMG]IUeahkzWMgFAb7A.jpg2022-05-09 18:19 19K 
[IMG]T4SqXNfqmRlvICA.jpg2022-05-09 18:19 22K 
[IMG]3uaN0G0fiIGAB5o.jpg2022-05-09 18:19 16K 
[IMG]U31xEu0c6YBy5tm.jpg2022-05-09 18:19 11K 
[IMG]OEO7FltRn1Wanyk.jpg2022-05-09 18:19 19K 
[IMG]9XZkIJKe2Rkp8Oi.jpg2022-05-09 18:19 12K 
[IMG]7Z47HX1y1qDUh42.jpg2022-05-09 18:19 36K 
[IMG]I2aNTXO3kUDN8te.jpg2022-05-09 18:19 45K 
[IMG]aIuiwIjaQUA8yDd.jpg2022-05-09 18:19 35K 
[IMG]lpHG6HIf3MZ8gIr.jpg2022-05-09 18:19 58K 
[IMG]nV6jIwkA8GJ4mHy.jpg2022-05-09 18:19 33K 
[IMG]MqTT3ico7bmkNj4.jpg2022-05-09 18:19 39K 
[IMG]oqn9qzSrM2b63Yf.jpg2022-05-09 18:19 28K 
[IMG]Fe0eq3R11sh0y5D.jpg2022-05-09 18:19 25K 
[IMG]Gjz6tyvomjBYMJP.jpg2022-05-09 18:19 36K 
[IMG]lrphpFKELue4fD9.jpg2022-05-09 18:19 30K 
[IMG]uPHojoUKtqmAaYb.jpg2022-05-09 18:19 34K 
[IMG]W27HPBbf3Gf4LVH.jpg2022-05-09 18:19 152K 
[IMG]5S99ctxrbjTabbz.jpg2022-05-09 18:19 44K 
[IMG]PS40E3DEFrCcHTW.jpg2022-05-09 18:19 23K 
[IMG]pDER79KhhfGuixh.jpg2022-05-09 18:19 46K 
[IMG]gGY27XVccgsqEYw.jpg2022-05-09 18:19 47K 
[IMG]m7Vi0tGmVAXv79b.jpg2022-05-09 18:19 36K 
[IMG]ZAceDTR8C5S1Ove.jpg2022-05-09 18:19 25K 
[IMG]qIkTfUY4cW7CF79.jpg2022-05-09 18:19 23K 
[IMG]oC4YbGMVFvxq0OD.jpg2022-05-09 18:19 57K 
[IMG]wcTaiJC061kZDJh.jpg2022-05-09 18:19 18K 
[IMG]4R3zRSmQlgJ1tDT.jpg2022-05-09 18:19 42K 
[IMG]R2q7TXfQxLlmwzD.jpg2022-05-09 18:19 26K 
[IMG]kYBl9pIbQo7wBFM.jpg2022-05-09 18:19 59K 
[IMG]z80PMKMSxX2auIK.jpg2022-05-09 18:19 41K 
[IMG]2qbqfresOr59mVW.jpg2022-05-09 18:19 30K 
[IMG]xt8G5WQ9Syie3fB.jpg2022-05-09 18:19 50K 
[IMG]Kc8E21112lNRdXt.jpg2022-05-09 18:19 53K 
[IMG]BCqIIFUAywfuZGj.jpg2022-05-09 18:19 25K 
[IMG]fjI81lSXWEAMBmm.jpg2022-05-09 18:19 55K 
[IMG]2LsRuWS7NSy0lV8.jpg2022-05-09 18:19 36K 
[IMG]OwjTMFGbEbxee7z.jpg2022-05-09 18:19 31K 
[IMG]KbC9ttFzW6wZpZT.jpg2022-05-09 18:19 86K 
[IMG]4Ynn0FaAvYTggNQ.jpg2022-05-09 18:20 43K 
[IMG]1P1s4mVgwchFz4J.jpg2022-05-09 18:20 5.9K 
[IMG]jCJ1nScorGsFJKR.jpg2022-05-09 18:20 25K 
[IMG]lS02cwbrDXdP2Kb.jpg2022-05-09 18:20 28K 
[IMG]JfxKE6EmcD3Y7py.jpg2022-05-09 18:20 23K 
[IMG]CCaRd3SrRvLcmOB.jpg2022-05-09 18:20 5.8K 
[IMG]Jc0RW22iPhgCPtf.jpg2022-05-09 18:20 821K 
[IMG]Pv2HMRnr3PBadqQ.jpg2022-05-09 18:20 31K 
[IMG]w5hxSBjQYsrNGek.jpg2022-05-09 18:20 62K 
[IMG]yEAdfOtmXDtP3Gk.jpg2022-05-09 18:20 39K 
[IMG]u35qGz2v54Q4hsM.jpg2022-05-09 18:20 45K 
[IMG]7Vgh93wJBb4SPTV.jpg2022-05-09 18:20 45K 
[IMG]VZ5FHw3uPaAmaBZ.jpg2022-05-09 18:20 29K 
[IMG]LgPk5O0unZtgtIj.jpg2022-05-09 18:20 43K 
[IMG]Dj0a5SoDdv9vQJd.jpg2022-05-09 18:20 48K 
[IMG]89m7XT2hPofCroq.jpg2022-05-09 18:20 74K 
[IMG]1Pl8FYC6G3IRNV5.jpg2022-05-09 18:20 58K 
[IMG]x73N6aBcRav2NHu.jpg2022-05-09 18:20 49K 
[IMG]qlDvsJvExu8Dvre.jpg2022-05-09 18:20 35K 
[IMG]CJLDbgBfsaCi7St.jpg2022-05-09 18:20 22K 
[IMG]elDRoc8i7LHmqLE.jpg2022-05-09 18:20 26K 
[IMG]Nh4EsX9lSUg083X.jpg2022-05-09 18:20 53K 
[IMG]5D1pgfmRKFcjzEu.jpg2022-05-09 18:20 52K 
[IMG]HxzMQ9GdaeCks3P.jpg2022-05-09 18:20 58K 
[IMG]4mxynXIL445NUEx.jpg2022-05-09 18:20 76K 
[IMG]R8K6LFxNK2EgytF.jpg2022-05-09 18:20 43K 
[IMG]XfLrz01MBDMoeXh.jpg2022-05-09 18:20 570  
[IMG]HuJoHbZeJkvfpcY.jpg2022-05-09 18:20 52K 
[IMG]dUfSjjFHYhuCY1a.jpg2022-05-09 18:20 42K 
[IMG]mcYo8EG1IY74euT.jpg2022-05-09 18:20 37K 
[IMG]7mUfUXKNY8462X7.jpg2022-05-09 18:20 37K 
[IMG]ydaXbB0qhlavgk6.jpg2022-05-09 18:20 41K 
[IMG]FIBtmiypsHrc2Ol.jpg2022-05-09 18:20 52K 
[IMG]MXf2Bre4nOP2ECi.jpg2022-05-09 18:20 48K 
[IMG]Tl4Wk3Msec5qF2K.jpg2022-05-09 18:20 42K 
[IMG]HEjzTJStblynUb8.jpg2022-05-09 18:20 36K 
[IMG]FSpBno7xOENCNmx.jpg2022-05-09 18:20 54K 
[IMG]g4PaMCgHUVHdNFo.jpg2022-05-09 18:20 79K 
[IMG]HIdITVrYUJinSAH.jpg2022-05-09 18:20 51K 
[IMG]A36KTGX3Khz36zL.jpg2022-05-09 18:20 76K 
[IMG]8DWpsIXzOVIjTms.jpg2022-05-09 18:20 76K 
[IMG]hPpmDeW8WZpE9Kc.jpg2022-05-09 18:20 53K 
[IMG]HKhRDMuwGn9AoUk.jpg2022-05-09 18:20 58K 
[IMG]5HpyBPtAkDLMCk6.jpg2022-05-09 18:20 57K 
[IMG]Pti7Epcxl1LFXKx.jpg2022-05-09 18:20 74K 
[IMG]Q6HunFTmZrh1i2X.jpg2022-05-09 18:20 36K 
[IMG]bpnJX15o85AFYnP.jpg2022-05-09 18:20 50K 
[IMG]5DPI7nmOzq5Yr3g.jpg2022-05-09 18:20 49K 
[IMG]ILeMAF9n6EKhWCu.jpg2022-05-09 18:20 37K 
[IMG]YmvHEmZtZwioYi4.jpg2022-05-09 18:20 31K 
[IMG]R0KsnINBeiVvVgf.jpg2022-05-09 18:20 25K 
[IMG]03gc6hr8WN0W9rx.jpg2022-05-09 18:20 27K 
[IMG]8SWEoyeDG5s2MzR.jpg2022-05-09 18:20 36K 
[IMG]06w0e6W9cSRgvPr.jpg2022-05-09 18:20 23K 
[IMG]0Jrz6LUuW0EfTP1.jpg2022-05-09 18:20 46K 
[IMG]HVWCQHQtJ2IiGrT.jpg2022-05-09 18:20 11K 
[IMG]fCoTQN0wa3rvuVE.jpg2022-05-09 18:20 62K 
[IMG]iAom5xCzfsrZ8jN.jpg2022-05-09 18:20 38K 
[IMG]8yrCbFZAvrkDKWt.jpg2022-05-09 18:20 29K 
[IMG]10QRLqPqm0aBNlg.jpg2022-05-09 18:20 56K 
[IMG]T5S9ktBZzQPqrc6.jpg2022-05-09 18:20 57K 
[IMG]AnLhCBUScZDb5wb.jpg2022-05-09 18:20 48K 
[IMG]GatVk4j3y3U7Vhw.jpg2022-05-09 18:20 70K 
[IMG]OCWeECJURhRigqJ.jpg2022-05-09 18:20 59K 
[IMG]TxkusW6ezxFk9wE.jpg2022-05-09 18:20 57K 
[IMG]DpUcSED1tFilwVb.jpg2022-05-09 18:20 66K 
[IMG]kjTUM3WOUVhSmWD.jpg2022-05-09 18:20 42K 
[IMG]M05mF33XGYA0cx3.jpg2022-05-09 18:20 49K 
[IMG]sI4Urp9yxBnzInY.jpg2022-05-09 18:20 50K 
[IMG]YEJgchRSSF4nUxc.jpg2022-05-09 18:20 35K 
[IMG]AidJ79GAoKLzQVe.jpg2022-05-09 18:20 37K 
[IMG]bfZXISiQ9tCU4Kn.jpg2022-05-09 18:20 50K 
[IMG]nHtvc6AvCy9dOJT.jpg2022-05-09 18:20 3.3M 
[IMG]BWNYcJ2mkEhzoU8.jpg2022-05-09 18:21 47K 
[IMG]uz6hMGF48n5y4dd.jpg2022-05-09 18:21 35K 
[IMG]NC4yQI5Jx5wmeHD.jpg2022-05-09 18:21 33K 
[IMG]H7wLwRu0U02JSpL.jpg2022-05-09 18:21 28K 
[IMG]bFwHlRDdwjwHQG7.jpg2022-05-09 18:21 27K 
[IMG]YGrzLCbQX0Usx04.jpg2022-05-09 18:21 14K 
[IMG]e87y4ZsQjvoVocU.jpg2022-05-09 18:21 14K 
[IMG]Moi4PSgobqg0WlB.jpg2022-05-09 18:21 14K 
[IMG]UqbnlN5v0sB3Ikt.jpg2022-05-09 18:21 14K 
[IMG]EstdMYtt777gNAu.jpg2022-05-09 18:21 14K 
[IMG]b6ufdw2oAfNjniS.jpg2022-05-09 18:21 14K 
[IMG]4GTLALNO885EqOQ.jpg2022-05-09 18:21 14K 
[IMG]2lcNa2sdwYusNah.jpg2022-05-09 18:21 26K 
[IMG]QTnUcOuR7RLP3ib.jpg2022-05-09 18:21 44K 
[IMG]Bxk3ULoEqCesm5F.jpg2022-05-09 18:21 45K 
[IMG]kAM9JGzNvUAQYHL.jpg2022-05-09 18:21 20K 
[IMG]1SmHL2wE59M4QgE.jpg2022-05-09 18:21 21K 
[IMG]PQVBlG65BpYKC5C.jpg2022-05-09 18:21 38K 
[IMG]s2lAolpnsuh7qKE.jpg2022-05-09 18:21 21K 
[IMG]32uXYX4ghzjDMyp.jpg2022-05-09 18:21 43K 
[IMG]nj5aiZKGuzWDh67.jpg2022-05-09 18:21 31K 
[IMG]SxnU0r3pMqAVNYr.jpg2022-05-09 18:21 18K 
[IMG]em7ahY0atCK2MeP.jpg2022-05-09 18:21 25K 
[IMG]5aJeqp03Ejcaqsf.jpg2022-05-09 18:21 33K 
[IMG]Arh2lEYYCrxyxxW.jpg2022-05-09 18:21 31K 
[IMG]4mJr8SuhIHiSVWF.jpg2022-05-09 18:22 19K 
[IMG]7x2Zv6OUTn7JcH8.jpg2022-05-09 18:22 17K 
[IMG]U8kV1UEeD7nHH2H.jpg2022-05-09 18:22 46K 
[IMG]fb15mNdh6zRgFsd.jpg2022-05-09 18:22 52K 
[IMG]gOeEhXMqjly4sny.jpg2022-05-09 18:22 40K 
[IMG]0UpOGGlTMc1Z1gT.jpg2022-05-09 18:22 24K 
[IMG]WhtnoDFcrIoNjAf.jpg2022-05-09 18:22 18K 
[IMG]ZTvAX1RMBcVkP0H.jpg2022-05-09 18:22 20K 
[IMG]MABxzyvqOd7DPhp.jpg2022-05-09 18:22 61K 
[IMG]G2EnW2Z3F129pcV.jpg2022-05-09 18:22 34K 
[IMG]3UhAVd8IrWhmNzv.jpg2022-05-09 18:22 16K 
[IMG]BczLxF8qoyY0RU8.jpg2022-05-09 18:22 22K 
[IMG]Jk8Ksa1lIWWspvu.jpg2022-05-09 18:22 72K 
[IMG]7TWUd2phtTzVFAD.jpg2022-05-09 18:22 35K 
[IMG]6csrQtEajcxUK4k.jpg2022-05-09 18:22 20K 
[IMG]XxS0ojzzB0KRdgY.jpg2022-05-09 18:22 28K 
[IMG]PX4mS7DQvBZzW9i.jpg2022-05-09 18:22 21K 
[IMG]I55PaYrHpNIBfNv.jpg2022-05-09 18:22 18K 
[IMG]RtLlKN4kmLI9ius.jpg2022-05-09 18:22 25K 
[IMG]XOLPxDJExrjiZOV.jpg2022-05-09 18:22 28K 
[IMG]ETmS5TZY2WLXI5A.jpg2022-05-09 18:22 34K 
[IMG]rAAoW0CMUIQFP8O.jpg2022-05-09 18:22 20K 
[IMG]Zv6tVcj6gzo5Csb.jpg2022-05-09 18:22 36K 
[IMG]ZABvQql5x1K41WZ.jpg2022-05-09 18:22 27K 
[IMG]jCx4hWBNVQDRz0z.jpg2022-05-09 18:22 33K 
[IMG]1hCDLWopxA3B1iY.jpg2022-05-09 18:23 21K 
[IMG]2MRkHv1qshWx1Hz.jpg2022-05-09 18:23 23K 
[IMG]epSQ5g6MCI6qjzV.jpg2022-05-09 18:23 23K 
[IMG]7LE27wEoQdm3SdV.jpg2022-05-09 18:23 28K 
[IMG]oHqeLrqnywV73pc.jpg2022-05-09 18:23 17K 
[IMG]w1TpgY7zqN7UY8u.jpg2022-05-09 18:23 32K 
[IMG]Sf7Gg92oZ06KxUA.jpg2022-05-09 18:23 17K 
[IMG]lMRrNXk2B17ewLS.jpg2022-05-09 18:24 29K 
[IMG]3MHXrvKd4pMmSSq.jpg2022-05-09 18:24 11K 
[IMG]0k2OumsKS3SCy4J.jpg2022-05-09 18:24 19K 
[IMG]33DXfJc4PvnPvbx.jpg2022-05-09 18:24 28K 
[IMG]RBQI7pO2xsF85Lb.jpg2022-05-09 18:24 35K 
[IMG]6I0bFZfcuB1U1HI.jpg2022-05-09 18:24 35K 
[IMG]kiW4CU5H1YFAGQu.jpg2022-05-09 18:24 31K 
[IMG]jrvGFJrJx7TUcJp.jpg2022-05-09 18:24 20K 
[IMG]3ZL39W6wukjRcDJ.jpg2022-05-09 18:24 27K 
[IMG]o3eTc9U6miHnm8P.jpg2022-05-09 18:24 31K 
[IMG]VlS2GX3rvoSpiFM.jpg2022-05-09 18:24 33K 
[IMG]FvV72oCrEvZlDSq.jpg2022-05-09 18:24 41K 
[IMG]nZn3CzxwqCf4Rkl.jpg2022-05-09 18:24 32K 
[IMG]bOkq8BFDXvjCZPl.jpg2022-05-09 18:24 22K 
[IMG]jHb14tNbvErdf0H.jpg2022-05-09 18:24 8.9K 
[IMG]ax3YLfrIACCklpY.jpg2022-05-09 18:24 40K 
[IMG]hoTXAZzBW2I1sAx.jpg2022-05-09 18:24 28K 
[IMG]4C7qggmskdQ6lzb.jpg2022-05-09 18:24 30K 
[IMG]2gMAGjWQalMEs3i.jpg2022-05-09 18:24 34K 
[IMG]BZdp6r3jkrrKnaY.jpg2022-05-09 18:24 23K 
[IMG]ZXaG4WqtAHxzkbN.jpg2022-05-09 18:24 34K 
[IMG]QjMOHYMWgmUfscs.jpg2022-05-09 18:24 45K 
[IMG]C3hVdENDoIwm3lO.jpg2022-05-09 18:24 32K 
[IMG]AhL9mWqkdH4Gah2.jpg2022-05-09 18:24 40K 
[IMG]RGo3r8auhOD1pNp.jpg2022-05-09 18:24 51K 
[IMG]qj71Djr9hUJ7TRu.jpg2022-05-09 18:24 46K 
[IMG]5ewZKj1iJtsx75Y.jpg2022-05-09 18:24 22K 
[IMG]dI5ZAKfaHUPeXmZ.jpg2022-05-09 18:24 58K 
[IMG]4jmAocp3OzagkYo.jpg2022-05-09 18:24 44K 
[IMG]6HcifkoziAYo0d4.jpg2022-05-09 18:24 51K 
[IMG]bMUGSvyVVtYVHjd.jpg2022-05-09 18:24 14K 
[IMG]0S2ewwyUS6l5zJN.jpg2022-05-09 18:24 50K 
[IMG]oyWCJnNfw5jtCdq.jpg2022-05-09 18:24 66K 
[IMG]cXfC5CThj6Ff0w6.jpg2022-05-09 18:24 55K 
[IMG]T0aHRJUiB7FkJuf.jpg2022-05-09 18:24 48K 
[IMG]g6XhoLLwfCpqinS.jpg2022-05-09 18:24 92K 
[IMG]rhdpPVC3Ambtvjt.jpg2022-05-09 18:24 5.3K 
[IMG]eNw9k7794DjgvC3.jpg2022-05-09 18:24 21K 
[IMG]OCznPv43rn2zN02.jpg2022-05-09 18:24 11K 
[IMG]NnUjDmT5g0aKqUO.jpg2022-05-09 18:24 29K 
[IMG]tE5NxK4RSmM1LoJ.jpg2022-05-09 18:24 32K 
[IMG]wRpbXkn0T8xonVe.jpg2022-05-09 18:24 36K 
[IMG]YxNeomUHMznaBdd.jpg2022-05-09 18:24 53K 
[IMG]KbRiu4DqlzsEIb0.jpg2022-05-09 18:24 48K 
[IMG]DzG809w0BcAU96w.jpg2022-05-09 18:24 30K 
[IMG]TBq6KDwjfw2D7kp.jpg2022-05-09 18:24 52K 
[IMG]9q4Q1iKFZWrU38W.jpg2022-05-09 18:24 28K 
[IMG]Y2T1cYz6u3feqwB.jpg2022-05-09 18:24 34K 
[IMG]BXs3BE1igPh7HD9.jpg2022-05-09 18:24 59K 
[IMG]m4wXouZB1md5O9b.jpg2022-05-09 18:24 34K 
[IMG]W2IUvT2UM7G8AlT.jpg2022-05-09 18:24 49K 
[IMG]OF882EKjMgdjwpL.jpg2022-05-09 18:24 1.0K 
[IMG]9OqszQJpOV5HnDG.jpg2022-05-09 18:24 620  
[IMG]RRQpiNudeb0zM1W.jpg2022-05-09 18:25 18K 
[IMG]CEA2D8QSbyPrq6N.jpg2022-05-09 18:25 25K 
[IMG]gP8GIJFVxvKMmW9.jpg2022-05-09 18:25 19K 
[IMG]l2crptAbWgAssw1.jpg2022-05-09 18:25 19K 
[IMG]gzUjmmmGrGMp0vZ.jpg2022-05-09 18:25 25K 
[IMG]eyQmKuhjZIJNopu.jpg2022-05-09 18:25 29K 
[IMG]QQkbBUI9ri52fM1.jpg2022-05-09 18:25 57K 
[IMG]oLyADVEK1NjWq6M.jpg2022-05-09 18:25 52K 
[IMG]KJ7EAMdl7VeeOsk.jpg2022-05-09 18:25 60K 
[IMG]jgxsJ2xv3yDiuco.jpg2022-05-09 18:25 21K 
[IMG]tadZ3LSLLKibgcv.jpg2022-05-09 18:25 32K 
[IMG]3yd85ZchHFGCIJ1.jpg2022-05-09 18:25 84K 
[IMG]mSbhvfjK5WSqA7z.jpg2022-05-09 18:25 33K 
[IMG]PCDXXoffKWkk3ju.jpg2022-05-09 18:25 22K 
[IMG]XFUzQyrGtravcMB.jpg2022-05-09 18:25 25K 
[IMG]RVlJOnckrdIhdWg.jpg2022-05-09 18:25 30K 
[IMG]Ljsqd15omB8KV8w.jpg2022-05-09 18:25 30K 
[IMG]bwOfmoYI5Wddh0B.jpg2022-05-09 18:25 22K 
[IMG]akhuPvL1CK2v6OG.jpg2022-05-09 18:25 17K 
[IMG]ykDP62SXsZQtRrW.jpg2022-05-09 18:25 49K 
[IMG]Tr7QXEVfEGR3K4j.jpg2022-05-09 18:25 13K 
[IMG]TFNFNZuBxMQP62d.jpg2022-05-09 18:25 35K 
[IMG]eesxriV8YPo6u8k.jpg2022-05-09 18:25 26K 
[IMG]WDRggQBw525lZTH.jpg2022-05-09 18:25 51K 
[IMG]JXLzrAiXW1tlBQX.jpg2022-05-09 18:25 30K 
[IMG]WfMOdwa0khgnqIX.jpg2022-05-09 18:25 49K 
[IMG]tqjgLpjZKZWS6Pu.jpg2022-05-09 18:25 11K 
[IMG]qPHcQt0JS4QrYKx.jpg2022-05-09 18:25 54K 
[IMG]vxlK7ywuT9Ba6Ke.jpg2022-05-09 18:25 39K 
[IMG]0WQR2xa5oCM5RE6.jpg2022-05-09 18:25 42K 
[IMG]RLIDM82LTdGN17M.jpg2022-05-09 18:25 50K 
[IMG]HYDMW48QDezWidp.jpg2022-05-09 18:25 46K 
[IMG]fPXIflGGJuK1SXi.jpg2022-05-09 18:25 19K 
[IMG]lBYRB5JuYkNhCe0.jpg2022-05-09 18:25 41K 
[IMG]W8hclr8nwQeuH87.jpg2022-05-09 18:25 49K 
[IMG]fryIPJYFiabX1kJ.jpg2022-05-09 18:25 35K 
[IMG]MxEvPdvyMrB9xjM.jpg2022-05-09 18:25 24K 
[IMG]LaXLvsIelwD6tKR.jpg2022-05-09 18:25 40K 
[IMG]eWCjq853yeJ3xOi.jpg2022-05-09 18:25 33K 
[IMG]7PRKqiYZfuCfZuz.jpg2022-05-09 18:25 57K 
[IMG]SJ1TVOgIfE24FNl.jpg2022-05-09 18:26 27K 
[IMG]PhTYI0SwL6ggZYp.jpg2022-05-09 18:26 28K 
[IMG]JPZ8TDs4tGBrLdN.jpg2022-05-09 18:26 40K 
[IMG]ytpWR9JA6Fhiw2c.jpg2022-05-09 18:26 41K 
[IMG]i6iCSayPOnFENDe.jpg2022-05-09 18:26 38K 
[IMG]61yQ08jmksZr79l.jpg2022-05-09 18:26 30K 
[IMG]ftHhjrjpYtmi5b5.jpg2022-05-09 18:26 36K 
[IMG]GqhUy0htxPMYLUt.jpg2022-05-09 18:26 53K 
[IMG]MpIco0zS7uypf6Y.jpg2022-05-09 18:26 47K 
[IMG]FhjUuRTZ05hN4Cj.jpg2022-05-09 18:26 21K 
[IMG]CCyIqX4qhJBpveD.jpg2022-05-09 18:26 27K 
[IMG]dn2ciW5qoxoIKWP.jpg2022-05-09 18:26 934K 
[IMG]HlnRVaoSvZ23ANy.jpg2022-05-09 18:26 28K 
[IMG]LcHdRerbb2qY5KI.jpg2022-05-09 18:26 25K 
[IMG]DWoOB3QW2q1Qs5V.jpg2022-05-09 18:26 33K 
[IMG]6onv3BXB6eRWTT1.jpg2022-05-09 18:26 23K 
[IMG]vxWhLMOTAPofMR3.jpg2022-05-09 18:26 30K 
[IMG]udhX6woJTAYMy8V.jpg2022-05-09 18:26 33K 
[IMG]GPj5pQ7hso1nbcD.jpg2022-05-09 18:26 22K 
[IMG]2jrXtJsuy57Dpgf.jpg2022-05-09 18:26 7.1K 
[IMG]lsIXdHCM1qWOex1.jpg2022-05-09 18:26 21K 
[IMG]QxAR34j6DkZLm7e.jpg2022-05-09 18:26 28K 
[IMG]TMmNRqvIOEd1bK9.jpg2022-05-09 18:26 22K 
[IMG]Qx8XzrPwxBRD0QY.jpg2022-05-09 18:26 26K 
[IMG]tkhPmP7Xxc4lgdz.jpg2022-05-09 18:26 39K 
[IMG]WHXnqQLMZruq0D1.jpg2022-05-09 18:26 38K 
[IMG]Hrv7ejgmCp8cDOi.jpg2022-05-09 18:26 49K 
[IMG]ndVAnDYtpPkH2Lf.jpg2022-05-09 18:26 65K 
[IMG]34vOfg2WUj8oEhE.jpg2022-05-09 18:26 49K 
[IMG]Z9qcNSm5tG59ZMR.jpg2022-05-09 18:26 29K 
[IMG]pZUUQ50fgqHtIQ4.jpg2022-05-09 18:26 49K 
[IMG]CzCr4goZeRYRVw6.jpg2022-05-09 18:26 455K 
[IMG]cZXpfjKzoquWlSh.jpg2022-05-09 18:26 23K 
[IMG]B38MaLzKYgJlUOL.jpg2022-05-09 18:26 17K 
[IMG]BEzbJq13QFEHUTk.jpg2022-05-09 18:26 19K 
[IMG]Lq1Er8O0iRMQNOd.jpg2022-05-09 18:26 10K 
[IMG]h0xybt4VejgoUGb.jpg2022-05-09 18:26 26K 
[IMG]fck8EkLGz3JPiUF.jpg2022-05-09 18:26 12K 
[IMG]u4VA7GU78taOf4E.jpg2022-05-09 18:26 36K 
[IMG]tcZE7941aDbAUFW.jpg2022-05-09 18:26 42K 
[IMG]b3rpVlv9n3ohHVj.jpg2022-05-09 18:26 38K 
[IMG]oJLJrJa1OtXwc05.jpg2022-05-09 18:26 40K 
[IMG]X0DqqqNpzbyb6f6.jpg2022-05-09 18:26 23K 
[IMG]HIhWdwuX7LpPc5Y.jpg2022-05-09 18:26 220K 
[IMG]r5SWkCLwSqwTJHi.jpg2022-05-09 18:26 30K 
[IMG]MGI6xfzDAPI8f00.jpg2022-05-09 18:26 26K 
[IMG]nCPHP0mYhcwKtEb.jpg2022-05-09 18:26 41K 
[IMG]BssIx151zNi5Clb.jpg2022-05-09 18:26 47K 
[IMG]b9SpUWVS35YiuCD.jpg2022-05-09 18:26 40K 
[IMG]6a4jNGxDGrGpRM3.jpg2022-05-09 18:26 44K 
[IMG]M61GysxbXwaUmfu.jpg2022-05-09 18:26 35K 
[IMG]vYbkNlDaY6Vs0Bt.jpg2022-05-09 18:27 34K 
[IMG]QlW0ikzVewhOYks.jpg2022-05-09 18:27 36K 
[IMG]M3b020paDwfQSuQ.jpg2022-05-09 18:27 28K 
[IMG]cRMTwbnwnt1SuWU.jpg2022-05-09 18:27 38K 
[IMG]R5XcPBWsA5jqZbS.jpg2022-05-09 18:27 36K 
[IMG]o22d7bAEZoWoOhn.jpg2022-05-09 18:27 47K 
[IMG]EAfiv3POjNzJY0C.jpg2022-05-09 18:27 32K 
[IMG]dV67ZYTHiqpj43c.jpg2022-05-09 18:27 29K 
[IMG]IIz8PMIujNeiVwm.jpg2022-05-09 18:27 25K 
[IMG]B6FK1JkbTACWy0K.jpg2022-05-09 18:27 36K 
[IMG]Nql9WW8cNAYghkG.jpg2022-05-09 18:27 28K 
[IMG]Fqrm3tlX8edG83z.jpg2022-05-09 18:27 26K 
[IMG]HDlMF4gAzN0lDvX.jpg2022-05-09 18:27 29K 
[IMG]RfGpeQ6GjoxNLtq.jpg2022-05-09 18:27 43K 
[IMG]O2XwyoDph9O2kh2.jpg2022-05-09 18:27 42K 
[IMG]xl1G8PbpypNQBmq.jpg2022-05-09 18:27 39K 
[IMG]CIJfF3rhGVznn2u.jpg2022-05-09 18:27 40K 
[IMG]n8SqDrHxXmQcdeQ.jpg2022-05-09 18:27 24K 
[IMG]zfrPzdFJfipYEOg.jpg2022-05-09 18:27 41K 
[IMG]QKguWmWEeebmXbp.jpg2022-05-09 18:27 55K 
[IMG]kRcMjfD0bECl8B7.jpg2022-05-09 18:27 40K 
[IMG]23gRmf8zKWi6dxl.jpg2022-05-09 18:27 31K 
[IMG]FCHam0qVy3jJn79.jpg2022-05-09 18:27 45K 
[IMG]i2F1IZLhwO1odb0.jpg2022-05-09 18:27 14K 
[IMG]YevvrE7Tmd1XGIO.jpg2022-05-09 18:27 14K 
[IMG]AmskxqSRZljhfXK.jpg2022-05-09 18:27 62K 
[IMG]fU43P6kpl5JmEWa.jpg2022-05-09 18:27 33K 
[IMG]UaaQEXVNShUuyfl.jpg2022-05-09 18:27 37K 
[IMG]RT00LcevhURs2Jp.jpg2022-05-09 18:27 7.9K 
[IMG]03cInIlSKDZhwLm.jpg2022-05-09 18:27 50K 
[IMG]bbJdZQbg8cvCCLB.jpg2022-05-09 18:27 46K 
[IMG]zEV4qssTKE97Q0G.jpg2022-05-09 18:27 33K 
[IMG]hPrZ8IzobYhP6UQ.jpg2022-05-09 18:27 36K 
[IMG]dgmuiM2Z0sG20Lo.jpg2022-05-09 18:27 33K 
[IMG]LCPuhUYTu24UXFJ.jpg2022-05-09 18:27 45K 
[IMG]1BUwBJbBlBsYECY.jpg2022-05-09 18:27 41K 
[IMG]GQBuD1WdCjwIoil.jpg2022-05-09 18:27 39K 
[IMG]LqjO4iz01abCyAu.jpg2022-05-09 18:27 26K 
[IMG]nWNh5ejNAeCdylu.jpg2022-05-09 18:27 21K 
[IMG]5y3dP71SuA5Gk66.jpg2022-05-09 18:27 26K 
[IMG]NtAzA0m07f3AqXN.jpg2022-05-09 18:27 21K 
[IMG]Lk5Wst5LN1AgToq.jpg2022-05-09 18:27 26K 
[IMG]9X7by69o78XKVw1.jpg2022-05-09 18:27 37K 
[IMG]jtylxydJyGn5aTz.jpg2022-05-09 18:27 23K 
[IMG]l4tgzBcgTS5lvoL.jpg2022-05-09 18:27 33K 
[IMG]6i2MyTSWkceDSwD.jpg2022-05-09 18:27 26K 
[IMG]KusEOrs2ouG6q2r.jpg2022-05-09 18:27 32K 
[IMG]YCX8Buu7LbLYcFk.jpg2022-05-09 18:27 31K 
[IMG]BzClIy6ivmvHBdH.jpg2022-05-09 18:27 31K 
[IMG]v5J2oVn2JERek1u.jpg2022-05-09 18:27 29K 
[IMG]paL1n0f16LypNQz.jpg2022-05-09 18:27 29K 
[IMG]o8TKXchBD2Bhi3A.jpg2022-05-09 18:27 34K 
[IMG]hn9ThLkVGLKmTzA.jpg2022-05-09 18:27 44K 
[IMG]zWOPMrgw2gAOLIi.jpg2022-05-09 18:27 650  
[IMG]F97tIIBAmw6BZui.jpg2022-05-09 18:27 37K 
[IMG]4Jnjw6J6VDfFpcq.jpg2022-05-09 18:27 30K 
[IMG]3CS4CP0GD2e7ZE8.jpg2022-05-09 18:27 32K 
[IMG]2mOmi7wGDr782iV.jpg2022-05-09 18:27 45K 
[IMG]M4poFuV1gzSWyAD.jpg2022-05-09 18:27 54K 
[IMG]3h7Cd3V1mruaHHe.jpg2022-05-09 18:27 39K 
[IMG]eZUEn4m4obzBkDL.jpg2022-05-09 18:27 27K 
[IMG]o8ioxAvy4AI69ob.jpg2022-05-09 18:27 32K 
[IMG]2KMC6hVzhmz47B2.jpg2022-05-09 18:27 14K 
[IMG]iV0x5XIgZLzV5fY.jpg2022-05-09 18:27 38K 
[IMG]TU8xGA42XtJaG3s.jpg2022-05-09 18:27 48K 
[IMG]PHLXt91mav5CfD7.jpg2022-05-09 18:27 37K 
[IMG]IHXl4JJzBm4N2jf.jpg2022-05-09 18:27 29K 
[IMG]EGCa7jvw0un42kM.jpg2022-05-09 18:27 36K 
[IMG]SHBzTvZ1fVJOrbe.jpg2022-05-09 18:27 32K 
[IMG]ur9dTw9x2rsSUnz.jpg2022-05-09 18:27 37K 
[IMG]6vxYuHnSzjFmxoe.jpg2022-05-09 18:27 41K 
[IMG]YFag9mKXMK5s648.jpg2022-05-09 18:27 38K 
[IMG]QB3qDZUQ2cY0cs5.jpg2022-05-09 18:27 34K 
[IMG]ihDeczBj9SPfXLb.jpg2022-05-09 18:27 47K 
[IMG]d0TqJtyAEUpQYvO.jpg2022-05-09 18:27 33K 
[IMG]GR4ccVN0nnaal4k.jpg2022-05-09 18:27 32K 
[IMG]I7hC9Lmz24JL7wL.jpg2022-05-09 18:27 26K 
[IMG]swSnww3rSrFAAmb.jpg2022-05-09 18:27 39K 
[IMG]wbbhCCphQ7RSpN2.jpg2022-05-09 18:27 37K 
[IMG]d9ddaemhIYyclzc.jpg2022-05-09 18:27 34K 
[IMG]eoBuqSgG2FGp9Er.jpg2022-05-09 18:27 46K 
[IMG]TW6MXp0RC800lmI.jpg2022-05-09 18:27 34K 
[IMG]kZ1vkeeX1ibmNEf.jpg2022-05-09 18:27 62K 
[IMG]wpl5IzbTlBsU6Sp.jpg2022-05-09 18:27 22K 
[IMG]rkQF7UFFQqX0axN.jpg2022-05-09 18:27 27K 
[IMG]EW68QpSvDjBs9sI.jpg2022-05-09 18:27 35K 
[IMG]QXmnniSxoLLz5Nq.jpg2022-05-09 18:27 22K 
[IMG]BxFCDO6ZBTZgZpo.jpg2022-05-09 18:27 8.4K 
[IMG]mKskTsrUEBJXtaV.jpg2022-05-09 18:27 30K 
[IMG]xITyO5NY1XKMieH.jpg2022-05-09 18:27 22K 
[IMG]iWBDLyZDqYOBQsI.jpg2022-05-09 18:27 19K 
[IMG]0fGlz0Pfkp7oikQ.jpg2022-05-09 18:27 7.2K 
[IMG]wWYg8UFJJGZikUD.jpg2022-05-09 18:27 33K 
[IMG]CIzYfA9ztoylHEP.jpg2022-05-09 18:27 26K 
[IMG]ChhL6cmFXK88BDd.jpg2022-05-09 18:27 27K 
[IMG]iJkbEY72eiBYwbM.jpg2022-05-09 18:27 11K 
[IMG]yRdmKylOshMRbsx.jpg2022-05-09 18:28 49K 
[IMG]69L41jcst2V2kp9.jpg2022-05-09 18:28 10K 
[IMG]29BVI9Rzi2Vs6SD.jpg2022-05-09 18:28 47K 
[IMG]NRww5KFsOjmWwYD.jpg2022-05-09 18:28 28K 
[IMG]a3NMVflDS1NAZU5.jpg2022-05-09 18:28 20K 
[IMG]WsY8B49aVpkRjU5.jpg2022-05-09 18:28 15K 
[IMG]V1yueAhn70XPOS4.jpg2022-05-09 18:28 28K 
[IMG]8FkJMYCbL38Oiz2.jpg2022-05-09 18:28 35K 
[IMG]CuTl9Jfw7ZJ1D1a.jpg2022-05-09 18:28 19K 
[IMG]0qB3STdMU4cPkaw.jpg2022-05-09 18:28 26K 
[IMG]z57hXfv4KRQrgJK.jpg2022-05-09 18:28 31K 
[IMG]W88ifClAuIM5kSJ.jpg2022-05-09 18:28 28K 
[IMG]KpP2Vel3lEifpFg.jpg2022-05-09 18:28 48K 
[IMG]ugusN7ZfCVeiqwP.jpg2022-05-09 18:28 34K 
[IMG]IivL1mlh8bSsfHO.jpg2022-05-09 18:28 20K 
[IMG]20XvmkkKRo7VPLV.jpg2022-05-09 18:28 43K 
[IMG]Cum5tpieJe76z45.jpg2022-05-09 18:28 32K 
[IMG]cdtzg0Qgjae1TX8.jpg2022-05-09 18:28 14K 
[IMG]bHUr0YURBZ3psjx.jpg2022-05-09 18:28 42K 
[IMG]HZRjf8OCkjazO7u.jpg2022-05-09 18:28 20K 
[IMG]jbK2A9wvDD8asTK.jpg2022-05-09 18:28 10K 
[IMG]VdopPv1J7425xxn.jpg2022-05-09 18:28 18K 
[IMG]I2pOHdFPA6Fss2k.jpg2022-05-09 18:28 19K 
[IMG]IMhvr3XJbOYnXEt.jpg2022-05-09 18:28 39K 
[IMG]h1PxMnLkwiEGA8u.jpg2022-05-09 18:28 33K 
[IMG]7L6mwfyVfXKGLhl.jpg2022-05-09 18:28 39K 
[IMG]m7EmWajGMc2YyZ6.jpg2022-05-09 18:28 23K 
[IMG]EZRdt4iYn0mHEvn.jpg2022-05-09 18:28 26K 
[IMG]0A4lUEKxHUWJyOo.jpg2022-05-09 18:28 39K 
[IMG]7r6oJ2NTPdFRKLC.jpg2022-05-09 18:28 39K 
[IMG]mSLmjtamuqkF3d6.jpg2022-05-09 18:28 25K 
[IMG]jM5hOZdu8UxnwMn.jpg2022-05-09 18:28 30K 
[IMG]Cu1xSJygirNQ8yh.jpg2022-05-09 18:28 38K 
[IMG]2i8WzZp4sT6HMvI.jpg2022-05-09 18:28 49K 
[IMG]zl5ZFVfxro8rbL2.jpg2022-05-09 18:28 18K 
[IMG]rVupEH5MxWi0kWp.jpg2022-05-09 18:28 49K 
[IMG]8cYUakBE0FD7CQr.jpg2022-05-09 18:28 48K 
[IMG]xgm3Rg7lAUc7ybr.jpg2022-05-09 18:28 43K 
[IMG]k1RmABKEdDYFA3M.jpg2022-05-09 18:28 35K 
[IMG]5Ta7wMsG4fZZWlw.jpg2022-05-09 18:28 37K 
[IMG]nBGxK2JIUnJQmXx.jpg2022-05-09 18:28 54K 
[IMG]uDcFK77dF11BxYZ.jpg2022-05-09 18:28 25K 
[IMG]bDhRVzoAMP1DNJE.jpg2022-05-09 18:28 26K 
[IMG]Eo11CBakWa8bTeV.jpg2022-05-09 18:28 29K 
[IMG]B8vUQQDImnM3Un3.jpg2022-05-09 18:28 37K 
[IMG]7HdhA21wZCUC3ra.jpg2022-05-09 18:28 37K 
[IMG]WpnuysjYfsvFvku.jpg2022-05-09 18:28 35K 
[IMG]QmD8avxuNMIyDAj.jpg2022-05-09 18:28 20K 
[IMG]uQ7mNOp7WFySIiF.jpg2022-05-09 18:28 38K 
[IMG]G8Nrq18HNVNMjpe.jpg2022-05-09 18:28 29K 
[IMG]n4hwE3fbCdXi4GP.jpg2022-05-09 18:28 34K 
[IMG]6FN08m0H1YGehQz.jpg2022-05-09 18:28 30K 
[IMG]2UBZNzloKyb0wIY.jpg2022-05-09 18:28 29K 
[IMG]2jqFvx2O6JdHqm5.jpg2022-05-09 18:28 24K 
[IMG]yhYBrwQ9xs51bGr.jpg2022-05-09 18:28 23K 
[IMG]otzcymgBWty67wY.jpg2022-05-09 18:28 37K 
[IMG]fBXlihWIJncPRuh.jpg2022-05-09 18:28 26K 
[IMG]y507p5GuOv3zsm1.jpg2022-05-09 18:28 36K 
[IMG]1REP7UJCzJe8Kgm.jpg2022-05-09 18:28 31K 
[IMG]cbIzxHZTuQwTBJy.jpg2022-05-09 18:28 31K 
[IMG]O8bMRs28AL68LAj.jpg2022-05-09 18:28 72K 
[IMG]djllcoZPrDY0xxx.jpg2022-05-09 18:28 21K 
[IMG]3GT8JSWeLDQYuLT.jpg2022-05-09 18:28 21K 
[IMG]hpZsI3HHn2Mx7yq.jpg2022-05-09 18:28 30K 
[IMG]nzGiWXKKa4jxqBx.jpg2022-05-09 18:28 25K 
[IMG]tXmlDk3jaa0xJm9.jpg2022-05-09 18:28 37K 
[IMG]Wit8nopWUtVL2hy.jpg2022-05-09 18:28 23K 
[IMG]ouisFKmgBBTp9Cq.jpg2022-05-09 18:28 23K 
[IMG]mzKI0YLNlYVZhfq.jpg2022-05-09 18:28 19K 
[IMG]g2W1eVvs18X30BH.jpg2022-05-09 18:28 76K 
[IMG]vOV6DQK3G4bxRoV.jpg2022-05-09 18:28 30K 
[IMG]O0OcnAKs7kAl5p1.jpg2022-05-09 18:28 24K 
[IMG]BvO4WsxqoR3jkQ7.jpg2022-05-09 18:28 34K 
[IMG]bgw3u4eJh5PBjhM.jpg2022-05-09 18:28 35K 
[IMG]BpsmDYBO58zMFmR.jpg2022-05-09 18:28 26K 
[IMG]WJdtkpzXabwp24A.jpg2022-05-09 18:28 29K 
[IMG]XbWoLfm4RkpxwYh.jpg2022-05-09 18:28 20K 
[IMG]6zZkO525YHoDjoQ.jpg2022-05-09 18:28 25K 
[IMG]pagQdFmhTQ47DQF.jpg2022-05-09 18:28 32K 
[IMG]DEb5BgHhZKRZaeM.jpg2022-05-09 18:28 34K 
[IMG]tiqXejU9Dh5fyZ5.jpg2022-05-09 18:28 26K 
[IMG]LnWFb9gAMv10gi4.jpg2022-05-09 18:28 32K 
[IMG]GVlxMvgeJwQBIRg.jpg2022-05-09 18:28 45K 
[IMG]WMoj2q3FSsbD1Wc.jpg2022-05-09 18:28 40K 
[IMG]xKZhBdtnpIMXHrR.jpg2022-05-09 18:28 23K 
[IMG]9uGp99Rtm1ivXzK.jpg2022-05-09 18:28 32K 
[IMG]gUERL55QkbnNHkq.jpg2022-05-09 18:28 23K 
[IMG]Vir4gxIXdibrg43.jpg2022-05-09 18:28 30K 
[IMG]FW9ET6m36Ib1Owh.jpg2022-05-09 18:28 31K 
[IMG]tOT6oeXsGVsOIuc.jpg2022-05-09 18:28 25K 
[IMG]0HgKDUrG8BnLT1i.jpg2022-05-09 18:28 23K 
[IMG]hnWMXMf0L3NBtJR.jpg2022-05-09 18:28 25K 
[IMG]2klE6ICqVJHNviQ.jpg2022-05-09 18:28 35K 
[IMG]qMRdSKKAWKLZzig.jpg2022-05-09 18:28 35K 
[IMG]tXB1xce8eeVqHko.jpg2022-05-09 18:28 26K 
[IMG]bhA6LlUDlLjVXxo.jpg2022-05-09 18:28 30K 
[IMG]ansaROyzEVAOWEa.jpg2022-05-09 18:28 15K 
[IMG]2WIjLRNPnSdydFG.jpg2022-05-09 18:28 46K 
[IMG]THSbkTCy2Q5ILpe.jpg2022-05-09 18:28 30K 
[IMG]oMOcq0TfX1jHatB.jpg2022-05-09 18:28 36K 
[IMG]pB4r8w5ANvqkA6A.jpg2022-05-09 18:28 30K 
[IMG]5uGZalMaA1g2Gda.jpg2022-05-09 18:28 44K 
[IMG]Fz7m93S4BsPQekS.jpg2022-05-09 18:28 49K 
[IMG]GSBvH4dLlcoQ6Ke.jpg2022-05-09 18:28 41K 
[IMG]YP3O0cWwR4SgAdc.jpg2022-05-09 18:28 38K 
[IMG]yzr6ljGIk0ceddr.jpg2022-05-09 18:28 33K 
[IMG]67U6Zyx2pDr0WBz.jpg2022-05-09 18:28 22K 
[IMG]crn2lKzvLHHVPhj.jpg2022-05-09 18:28 26K 
[IMG]aqORyhcxLelUVLN.jpg2022-05-09 18:28 30K 
[IMG]h2vk5vmf1dHatVT.jpg2022-05-09 18:28 43K 
[IMG]6KNBPXXDR3gkire.jpg2022-05-09 18:28 40K 
[IMG]eZsEMwNn7xe1fI9.jpg2022-05-09 18:28 34K 
[IMG]6P6BIcb5AMg3Sym.jpg2022-05-09 18:28 23K 
[IMG]z7nG2v7JwOmbTL3.jpg2022-05-09 18:28 37K 
[IMG]SkRs6hTzB9oLUgh.jpg2022-05-09 18:28 25K 
[IMG]g8laIvRwBy6IyB3.jpg2022-05-09 18:28 38K 
[IMG]s8O9t2wlcPeW1yU.jpg2022-05-09 18:28 23K 
[IMG]Uquo2WyFdR61F2C.jpg2022-05-09 18:28 32K 
[IMG]rQCKgnoK5sXYrfY.jpg2022-05-09 18:28 37K 
[IMG]9QAn5zH82eqZ3X0.jpg2022-05-09 18:28 8.5K 
[IMG]cr7O9mkcEufdNaP.jpg2022-05-09 18:28 14K 
[IMG]nLExH2eovaYN1Ek.jpg2022-05-09 18:28 23K 
[IMG]1uK3vQNYxUFItcP.jpg2022-05-09 18:28 21K 
[IMG]auMCO1sTdpYTYTi.jpg2022-05-09 18:28 20K 
[IMG]WZByzNGBbLyMd3k.jpg2022-05-09 18:28 21K 
[IMG]NVzWkJQFt8JLpfp.jpg2022-05-09 18:28 32K 
[IMG]bqNqCj1KolZbFBr.jpg2022-05-09 18:29 27K 
[IMG]82XapLuX83YYg11.jpg2022-05-09 18:29 50K 
[IMG]aFdjYQJcQ5fnSSR.jpg2022-05-09 18:29 31K 
[IMG]fmi3PSXAQ3PYuVp.jpg2022-05-09 18:29 34K 
[IMG]17PurzyhoPOiMeb.jpg2022-05-09 18:29 18K 
[IMG]ZbyCa6TLGg20dZA.jpg2022-05-09 18:29 21K 
[IMG]CwbLEI0aMB0qCZH.jpg2022-05-09 18:29 10K 
[IMG]CUNvYQascCzZzve.jpg2022-05-09 18:29 58K 
[IMG]bnErYKOwJB0dG8i.jpg2022-05-09 18:29 23K 
[IMG]QTHMDCtpTlDFd57.jpg2022-05-09 18:29 65K 
[IMG]niuzx8MRxxNFYow.jpg2022-05-09 18:29 47K 
[IMG]9Wy8d0esv8azYNm.jpg2022-05-09 18:29 56K 
[IMG]LGq3vnvgv0TTjyQ.jpg2022-05-09 18:29 25K 
[IMG]AzP83hQn8zY2vpE.jpg2022-05-09 18:30 26K 
[IMG]UVILIDMwmo5jEaS.jpg2022-05-09 18:30 26K 
[IMG]Q59ILfEgflDVGwu.jpg2022-05-09 18:30 27K 
[IMG]LcpXwgprvRo7oJ9.jpg2022-05-09 18:30 33K 
[IMG]hZE2Yv8vX12cQ38.jpg2022-05-09 18:30 50K 
[IMG]MIjSrBVCp781Hz0.jpg2022-05-09 18:30 30K 
[IMG]ww6rPeocT0RqjLy.jpg2022-05-09 18:30 300K 
[IMG]u76msvHhql06ZcP.jpg2022-05-09 18:30 28K 
[IMG]oEOqtICyoc4zN9b.jpg2022-05-09 18:30 21K 
[IMG]RtxYp8W80Idwha6.jpg2022-05-09 18:30 20K 
[IMG]wYFi49vNgRfclbJ.jpg2022-05-09 18:30 57K 
[IMG]K2SxQj58pCRnOdw.jpg2022-05-09 18:30 59K 
[IMG]jbXRpcIT6ONN5ug.jpg2022-05-09 18:30 53K 
[IMG]NGPaU3awQFTKSNp.jpg2022-05-09 18:30 55K 
[IMG]RqxAvjGl7UHuhXZ.jpg2022-05-09 18:30 86K 
[IMG]7rj1xXvUrVEnEeA.jpg2022-05-09 18:30 821K 
[IMG]VMTYlQueCpEDA2w.jpg2022-05-09 18:30 35K 
[IMG]CcIaPLkl6ZNn1Es.jpg2022-05-09 18:30 37K 
[IMG]cz8X77lOHKZgrnC.jpg2022-05-09 18:30 22K 
[IMG]1I4h2ltgWbE9MRv.jpg2022-05-09 18:30 35K 
[IMG]we3iN4JbLA5l7Qv.jpg2022-05-09 18:30 28K 
[IMG]NagTygMhpp9SBEs.jpg2022-05-09 18:30 33K 
[IMG]3YahVQoyA53u5W1.jpg2022-05-09 18:30 45K 
[IMG]BoxPqVDEbdEP6iX.jpg2022-05-09 18:30 48K 
[IMG]ET3fkfvNycVKjmX.jpg2022-05-09 18:30 57K 
[IMG]R3LToUz30XdBmD9.jpg2022-05-09 18:30 78K 
[IMG]f4ankZYC8cuKi7o.jpg2022-05-09 18:30 62K 
[IMG]MJcsQDnvqlmSBcY.jpg2022-05-09 18:30 68K 
[IMG]8rZlsRbgkW78CHH.jpg2022-05-09 18:31 24K 
[IMG]6BgLMzsF1G7kqvG.jpg2022-05-09 18:31 28K 
[IMG]lY0xN0Qr7oTT9hP.jpg2022-05-09 18:31 38K 
[IMG]AH1YuqekCioinXF.jpg2022-05-09 18:31 68K 
[IMG]gVp6PmyYpgZKNc6.jpg2022-05-09 18:31 38K 
[IMG]HdtvAkofa5bMewH.jpg2022-05-09 18:31 45K 
[IMG]g3ubx70CnHffEwq.jpg2022-05-09 18:31 32K 
[IMG]eVF1auQnZ2O0eKM.jpg2022-05-09 18:31 46K 
[IMG]sRd3zUUiA8sfq5T.jpg2022-05-09 18:31 35K 
[IMG]Np9EWPvZ75zH7g3.jpg2022-05-09 18:31 37K 
[IMG]tGXLnyh9cTw8kWY.jpg2022-05-09 18:31 34K 
[IMG]xy1FPRkLJ01NfHd.jpg2022-05-09 18:31 37K 
[IMG]ETNif7yH46P6exi.jpg2022-05-09 18:31 49K 
[IMG]rC0keqZ561odrMy.jpg2022-05-09 18:31 26K 
[IMG]WUcAMaBTJvgSntK.jpg2022-05-09 18:31 25K 
[IMG]CAqn0ASXkFnNHm8.jpg2022-05-09 18:31 24K 
[IMG]PAB89hAzSYwvA7R.jpg2022-05-09 18:31 36K 
[IMG]YkT3jQAAHA7lpuj.jpg2022-05-09 18:31 19K 
[IMG]0CrgiuhJlguY69G.jpg2022-05-09 18:31 32K 
[IMG]QfE7x9MIRyUnFJi.jpg2022-05-09 18:31 48K 
[IMG]XtXz3ifYyvSbd2G.jpg2022-05-09 18:31 30K 
[IMG]DKxhUZ7CydwEFb9.jpg2022-05-09 18:31 19K 
[IMG]y85cqDQN4y6X88m.jpg2022-05-09 18:31 53K 
[IMG]uLh2dQ9gpL5TBPX.jpg2022-05-09 18:31 37K 
[IMG]PJmhx45u0QUrILo.jpg2022-05-09 18:31 24K 
[IMG]qKe6U0zMJ2kRdrY.jpg2022-05-09 18:31 40K 
[IMG]5X9jhr7kjtps3Uz.jpg2022-05-09 18:31 36K 
[IMG]lRPnjKaq5rDofxl.jpg2022-05-09 18:31 53K 
[IMG]QvnZN0tL8Y7Hn2C.jpg2022-05-09 18:31 41K 
[IMG]MjtVfNh42NdEX37.jpg2022-05-09 18:31 28K 
[IMG]H4iigJyM9wQcaSn.jpg2022-05-09 18:31 50K 
[IMG]4cWoW8ttyxJJ1wq.jpg2022-05-09 18:31 31K 
[IMG]Ce88xfIEH8AplBQ.jpg2022-05-09 18:31 51K 
[IMG]SCTpmUwa4jA6faq.jpg2022-05-09 18:31 50K 
[IMG]cKEbTshIFNLz5rL.jpg2022-05-09 18:31 47K 
[IMG]4z4ABc8EOPXGb2u.jpg2022-05-09 18:31 15K 
[IMG]KZtY6FqL7tBKe9V.jpg2022-05-09 18:31 31K 
[IMG]Wn6zRDwz3b74upz.jpg2022-05-09 18:31 38K 
[IMG]yh9iM0YmLLgQyVF.jpg2022-05-09 18:31 36K 
[IMG]8oZLSdY8Jiwf3gf.jpg2022-05-09 18:31 28K 
[IMG]7NWx2snGIv1FWlR.jpg2022-05-09 18:31 22K 
[IMG]43iKbooYV0xP0DU.jpg2022-05-09 18:31 35K 
[IMG]EdJslONPbBz4A4O.jpg2022-05-09 18:31 72K 
[IMG]Zf2O7oSWvtEB0Y7.jpg2022-05-09 18:31 33K 
[IMG]QUVb8fiOAHIQ7qH.jpg2022-05-09 18:31 51K 
[IMG]BuRu7FqpptTYdXy.jpg2022-05-09 18:31 47K 
[IMG]IylUVA3rIz5MHjW.jpg2022-05-09 18:31 17K 
[IMG]K6Xc1xmVwwDX0eA.jpg2022-05-09 18:31 17K 
[IMG]esJXX2qb90SQou4.jpg2022-05-09 18:31 42K 
[IMG]IZYBmiYVRtYAb0a.jpg2022-05-09 18:31 28K 
[IMG]bz6UT77zYCvUvaP.jpg2022-05-09 18:31 35K 
[IMG]bVlGTzgUDF02ZdS.jpg2022-05-09 18:31 30K 
[IMG]nlXzs4BbdErwuMd.jpg2022-05-09 18:31 42K 
[IMG]A2hEBgfpLVwcvVY.jpg2022-05-09 18:31 57K 
[IMG]64pqnwURYYgVjfY.jpg2022-05-09 18:31 55K 
[IMG]2uhzHfcCBn6qZXH.jpg2022-05-09 18:31 32K 
[IMG]IZAncTd3WWD234W.jpg2022-05-09 18:31 68K 
[IMG]2Dp5ASneSZpREpe.jpg2022-05-09 18:31 50K 
[IMG]qNseczi8XfWTRvG.jpg2022-05-09 18:31 75K 
[IMG]S4sNaGQl2nJtD64.jpg2022-05-09 18:31 29K 
[IMG]CHhsAcAecygaYUP.jpg2022-05-09 18:31 30K 
[IMG]cF2HASRfXOWKPez.jpg2022-05-09 18:31 42K 
[IMG]1lFDLjjbIGXOAun.jpg2022-05-09 18:31 36K 
[IMG]oX3mPahqLnCylYQ.jpg2022-05-09 18:31 61K 
[IMG]GJUIEn1c6ZYto4d.jpg2022-05-09 18:31 25K 
[IMG]SNiOb9QX0D0NH7c.jpg2022-05-09 18:31 63K 
[IMG]TnfIcAF3yZ31A2s.jpg2022-05-09 18:32 32K 
[IMG]ciTw9WAhB3Qp44I.jpg2022-05-09 18:32 20K 
[IMG]gcc3uBAAggsjo6e.jpg2022-05-09 18:32 33K 
[IMG]SPPX4cKnL3MEDc2.jpg2022-05-09 18:32 28K 
[IMG]ilapRm8t3Go6M71.jpg2022-05-09 18:32 27K 
[IMG]VeZrKv4E8wNr6hY.jpg2022-05-09 18:32 17K 
[IMG]Z5fYRmkfmfTYc23.jpg2022-05-09 18:32 41K 
[IMG]KJ7EK1APKfEDs5A.jpg2022-05-09 18:32 43K 
[IMG]RnNM0CITyuTuL4P.jpg2022-05-09 18:32 44K 
[IMG]oKGluXtbgE0mzw6.jpg2022-05-09 18:32 41K 
[IMG]dDxCnOIoWXXqERe.jpg2022-05-09 18:32 39K 
[IMG]oZJGIXyLbqT40ca.jpg2022-05-09 18:32 32K 
[IMG]iMrJZvZfZBgM0Mg.jpg2022-05-09 18:32 15K 
[IMG]TCkzv7HfYYgOcxh.jpg2022-05-09 18:32 22K 
[IMG]95S7SYzdtXunCKz.jpg2022-05-09 18:32 27K 
[IMG]uCAVMR8dkA6AMBF.jpg2022-05-09 18:32 19K 
[IMG]F1KRBrvt3OFw0Ww.jpg2022-05-09 18:32 21K 
[IMG]YQ90acomil1NjFQ.jpg2022-05-09 18:32 18K 
[IMG]1qfr5b8TuQDw43s.jpg2022-05-09 18:32 27K 
[IMG]nBHNFkgb17Eq31o.jpg2022-05-09 18:32 18K 
[IMG]LjCDrpfa3syfNHs.jpg2022-05-09 18:32 36K 
[IMG]ks4EyI2MjsybSoe.jpg2022-05-09 18:32 65K 
[IMG]0ikimhZBX2KTgOc.jpg2022-05-09 18:32 52K 
[IMG]AfYvkZ2OrKaYWPy.jpg2022-05-09 18:32 35K 
[IMG]y08NbjcMrBv3zAx.jpg2022-05-09 18:32 31K 
[IMG]m8IWygaBXNiZpAE.jpg2022-05-09 18:32 82K 
[IMG]hAHhM2ssQWCpQNX.jpg2022-05-09 18:32 33K 
[IMG]omWPOK6OOaAYEie.jpg2022-05-09 18:32 46K 
[IMG]TanNlEFTK7x6D3V.jpg2022-05-09 18:32 44K 
[IMG]wPbehLVNqZQw91I.jpg2022-05-09 18:32 44K 
[IMG]lmadtgrSosJVNYo.jpg2022-05-09 18:32 52K 
[IMG]tQn3hvkAtA701Bu.jpg2022-05-09 18:32 38K 
[IMG]6uVOrE74uHn7i9v.jpg2022-05-09 18:32 55K 
[IMG]c5IqY4Od6XJPlrS.jpg2022-05-09 18:32 41K 
[IMG]Y4EhoORp7LmsD0b.jpg2022-05-09 18:32 43K 
[IMG]QQhXR1qFvcJW7FQ.jpg2022-05-09 18:32 43K 
[IMG]BFH3KN9BJkwixrc.jpg2022-05-09 18:32 21K 
[IMG]BGyOauTs8v5F0DJ.jpg2022-05-09 18:32 51K 
[IMG]h2wcccSg3Xe7bQ0.jpg2022-05-09 18:32 47K 
[IMG]vkJBNybxOZLvwVK.jpg2022-05-09 18:32 38K 
[IMG]SIuMm7qaieZufMG.jpg2022-05-09 18:32 26K 
[IMG]GHNqTc9GjhmeekH.jpg2022-05-09 18:32 46K 
[IMG]bTErEUR68zcv71n.jpg2022-05-09 18:32 35K 
[IMG]tKU0tNHTC4QrzQ7.jpg2022-05-09 18:32 67K 
[IMG]xSGOP7oVcXtK93G.jpg2022-05-09 18:32 38K 
[IMG]8FNvpZbfwmujZkL.jpg2022-05-09 18:32 22K 
[IMG]1SLzFjNaQTaqAqF.jpg2022-05-09 18:32 29K 
[IMG]VxKN4SdCqyY5Q1I.jpg2022-05-09 18:32 22K 
[IMG]ofnGw85X4lRM2zU.jpg2022-05-09 18:32 34K 
[IMG]YXzDskqt00uLA3q.jpg2022-05-09 18:32 60K 
[IMG]dgZjIeSlZ1faUuB.jpg2022-05-09 18:32 34K 
[IMG]0RDzxN64mamg14A.jpg2022-05-09 18:32 26K 
[IMG]ZBPNn9aShscitSc.jpg2022-05-09 18:32 30K 
[IMG]dw9i64QW6y2Lpoo.jpg2022-05-09 18:32 22K 
[IMG]uv5MdNXe3jLmJsp.jpg2022-05-09 18:32 35K 
[IMG]LXMYpwGDGtfrawy.jpg2022-05-09 18:32 31K 
[IMG]FH46FmENMaZfTJl.jpg2022-05-09 18:32 23K 
[IMG]mghFHGICNKKdyXM.jpg2022-05-09 18:32 26K 
[IMG]87m2kIKfEGPUYRh.jpg2022-05-09 18:32 13K 
[IMG]oRJJHJ38Dh2T7ph.jpg2022-05-09 18:32 10K 
[IMG]8VOiu1FLmi1PjBm.jpg2022-05-09 18:32 39K 
[IMG]H87KeSVlDwWZ43R.jpg2022-05-09 18:32 23K 
[IMG]uJuD588905xZ6JJ.jpg2022-05-09 18:33 41K 
[IMG]vfSikVv8mKmVGQj.jpg2022-05-09 18:33 10K 
[IMG]7USy77VFzeZeYlC.jpg2022-05-09 18:33 29K 
[IMG]3oiC0xvYtS72iPD.jpg2022-05-09 18:33 22K 
[IMG]puNkw37VDIhWiv2.jpg2022-05-09 18:33 8.1K 
[IMG]dLFX6dZg8VDkf9d.jpg2022-05-09 18:33 26K 
[IMG]kJOj2lQHjJEXVmH.jpg2022-05-09 18:33 91K 
[IMG]BPip0XmMlLWpgxC.jpg2022-05-09 18:33 28K 
[IMG]hzNBADeUbAMbFCR.jpg2022-05-09 18:33 45K 
[IMG]keuZ2EhVmXCPjrV.jpg2022-05-09 18:33 28K 
[IMG]FsloN0OUgTiMxwV.jpg2022-05-09 18:33 24K 
[IMG]MfKPvIQnVj3d4S8.jpg2022-05-09 18:33 9.8K 
[IMG]TrMYNBHzQ3nNJUx.jpg2022-05-09 18:33 18K 
[IMG]Ic5tWadefBj0rXP.jpg2022-05-09 18:33 34K 
[IMG]80nEy2pwWWnro74.jpg2022-05-09 18:33 15K 
[IMG]ChaSG3ohXz7Skhr.jpg2022-05-09 18:33 30K 
[IMG]pW1PvsV6V05rCUf.jpg2022-05-09 18:33 37K 
[IMG]x1M8RdtZoMrDGdn.jpg2022-05-09 18:33 2.7K 
[IMG]4f9yuswg7SIA4uj.jpg2022-05-09 18:33 3.9K 
[IMG]sBzrMiXcKAGJoIC.jpg2022-05-09 18:33 3.5K 
[IMG]KAFLdyDo6yixg4T.jpg2022-05-09 18:33 19K 
[IMG]oPgaIhIb7GclWDb.jpg2022-05-09 18:33 9.1K 
[IMG]PiGv6wuLwSHztLk.jpg2022-05-09 18:33 12K 
[IMG]eY5WofrgHgTJBbW.jpg2022-05-09 18:33 22K 
[IMG]JZdKWnmwDm0KP0Y.jpg2022-05-09 18:33 40K 
[IMG]gtwMm30GNNbqbyG.jpg2022-05-09 18:33 39K 
[IMG]Ozgt72jVp0N5sO4.jpg2022-05-09 18:33 46K 
[IMG]yd6isoCz6rW2FyM.jpg2022-05-09 18:33 33K 
[IMG]cpZqYnWOeMJTDWM.jpg2022-05-09 18:33 33K 
[IMG]lnOzbNrrkEMBatL.jpg2022-05-09 18:33 29K 
[IMG]j8IZ3zODMNf8HWO.jpg2022-05-09 18:33 35K 
[IMG]VTOYFcRNpc7nOtT.jpg2022-05-09 18:33 48K 
[IMG]efMww9n1ufJdBL3.jpg2022-05-09 18:33 64K 
[IMG]AmLu3bYsTepaFjU.jpg2022-05-09 18:33 29K 
[IMG]kWZtPV2ckho9bSq.jpg2022-05-09 18:33 41K 
[IMG]T6ErL3QApPus5vp.jpg2022-05-09 18:33 27K 
[IMG]nZYHocD3sdbkfc8.jpg2022-05-09 18:33 44K 
[IMG]tIFOQPAzhesaYyp.jpg2022-05-09 18:33 34K 
[IMG]9zzEhZj63ZbzUsm.jpg2022-05-09 18:33 16K 
[IMG]gdVSKxgct9fFIzA.jpg2022-05-09 18:33 32K 
[IMG]YXUuYfonnJwJTPC.jpg2022-05-09 18:33 13K 
[IMG]KrQKvj4pZOhN4O3.jpg2022-05-09 18:33 25K 
[IMG]Rznq5lA1fcDs8hX.jpg2022-05-09 18:33 50K 
[IMG]w0hhwz0pY3cXgjo.jpg2022-05-09 18:33 15K 
[IMG]XOP8wIcdcBj8XMi.jpg2022-05-09 18:33 31K 
[IMG]rrXK091egWh4GUv.jpg2022-05-09 18:33 15K 
[IMG]MssS1NRVXdJbi5v.jpg2022-05-09 18:33 15K 
[IMG]L7zO4NEThL8A9oQ.jpg2022-05-09 18:33 54K 
[IMG]5RmDSU4SBgOSTGJ.jpg2022-05-09 18:33 17K 
[IMG]AyPSEJGHRHFo6Xc.jpg2022-05-09 18:33 57K 
[IMG]l3COJMspc5CtDA3.jpg2022-05-09 18:33 45K 
[IMG]Zd1tMaimRYmUvm7.jpg2022-05-09 18:33 36K 
[IMG]vZVaE82w7QIkZOs.jpg2022-05-09 18:33 72K 
[IMG]5x6RGxYWxtnQ3GJ.jpg2022-05-09 18:33 44K 
[IMG]yVRKS6uq5GSEpsK.jpg2022-05-09 18:33 26K 
[IMG]zf2pTM0zN2dGEyA.jpg2022-05-09 18:33 54K 
[IMG]eCWmks5j9KzXKQg.jpg2022-05-09 18:33 31K 
[IMG]eFXoPReP6Gqm7il.jpg2022-05-09 18:33 36K 
[IMG]B5XLVTWtFeWxcm2.jpg2022-05-09 18:33 20K 
[IMG]lz7ieKiRo4JIUoe.jpg2022-05-09 18:33 29K 
[IMG]NBll08PjmytqVuX.jpg2022-05-09 18:33 38K 
[IMG]63Gja5tpNiBEVmD.jpg2022-05-09 18:34 47K 
[IMG]VmOkM5p6NpVsiWd.jpg2022-05-09 18:34 39K 
[IMG]PkixmvP2JmmK5tu.jpg2022-05-09 18:34 27K 
[IMG]ipw3TKLrbKQeuWr.jpg2022-05-09 18:34 48K 
[IMG]h1oIZQCgenesPj6.jpg2022-05-09 18:34 20K 
[IMG]9wiWHcwDXYcpE6x.jpg2022-05-09 18:34 26K 
[IMG]iVi7rNn4BFQSRA1.jpg2022-05-09 18:34 1.6K 
[IMG]uxHku0bxioSrfMn.jpg2022-05-09 18:34 62K 
[IMG]5nid3FJe7jdffCk.jpg2022-05-09 18:34 65K 
[IMG]66ePbvL7qWPAEeZ.jpg2022-05-09 18:34 82K 
[IMG]pwQjcRPOoHnLiC0.jpg2022-05-09 18:34 37K 
[IMG]WwxU2pKdK6Va1LX.jpg2022-05-09 18:34 30K 
[IMG]LPwMEyHqeCAIiDT.jpg2022-05-09 18:34 51K 
[IMG]bxvIQ10yU9iOVwL.jpg2022-05-09 18:34 2.8M 
[IMG]iAYGbKpyrxlNApa.jpg2022-05-09 18:34 40K 
[IMG]p6ePSjUp0f7yKsz.jpg2022-05-09 18:34 34K 
[IMG]vUrxfA5oXs6GTcM.jpg2022-05-09 18:34 32K 
[IMG]7ZGbnIHiht6hX7e.jpg2022-05-09 18:34 39K 
[IMG]rvBNTjIZ0XYDAiT.jpg2022-05-09 18:34 36K 
[IMG]koCdbuXDJc2YOy6.jpg2022-05-09 18:34 24K 
[IMG]m0VFiOTj880QCIu.jpg2022-05-09 18:34 20K 
[IMG]OTfAmITZCmT0wFO.jpg2022-05-09 18:34 13K 
[IMG]x9LJ4KuSQLuvbsM.jpg2022-05-09 18:34 24K 
[IMG]o41fW5MSZ1KSNUd.jpg2022-05-09 18:34 45K 
[IMG]Vt6tQhZE8a7TftH.jpg2022-05-09 18:34 37K 
[IMG]QnK1Fs76BdVZn0G.jpg2022-05-09 18:34 27K 
[IMG]RLovS275ronchrn.jpg2022-05-09 18:34 37K 
[IMG]qZ13drSCWxAY5zu.jpg2022-05-09 18:34 32K 
[IMG]eAjbnfPGsInnbF4.jpg2022-05-09 18:34 34K 
[IMG]91ZIcePNSruUQE2.jpg2022-05-09 18:34 31K 
[IMG]iklaYX93EMcQpaG.jpg2022-05-09 18:34 11K 
[IMG]PbUXgIUZV1Z4s1D.jpg2022-05-09 18:34 41K 
[IMG]XX2oHzZoy1PK5eb.jpg2022-05-09 18:34 39K 
[IMG]eXZ6DP14TmnuaBL.jpg2022-05-09 18:34 28K 
[IMG]Yt50ZoFa0oLjaMv.jpg2022-05-09 18:34 40K 
[IMG]8g9Bbb93q9NHceD.jpg2022-05-09 18:34 21K 
[IMG]UuloTYdfUGxJfPm.jpg2022-05-09 18:34 34K 
[IMG]31Q6vCADaCCB9lg.jpg2022-05-09 18:34 32K 
[IMG]DtTOGeRslc9ZBbz.jpg2022-05-09 18:34 15K 
[IMG]AR9N8ubhBkWaIqv.jpg2022-05-09 18:34 25K 
[IMG]xoM8YBp0obLXoU6.jpg2022-05-09 18:34 29K 
[IMG]l0QnFFoKPzykwFm.jpg2022-05-09 18:34 36K 
[IMG]Bg7MSLs6WIpq8At.jpg2022-05-09 18:34 39K 
[IMG]QamjNjn6HfKSQog.jpg2022-05-09 18:34 46K 
[IMG]mczcxzXCawcDwzV.jpg2022-05-09 18:34 42K 
[IMG]6hR6gGmA2UL0UCG.jpg2022-05-09 18:34 35K 
[IMG]7hkOkwiWNKWilST.jpg2022-05-09 18:34 53K 
[IMG]jTnagHTJKxfRHtP.jpg2022-05-09 18:34 28K 
[IMG]Eg96sQDXLIwB1G8.jpg2022-05-09 18:34 55K 
[IMG]ZyYV9ugk1hnCMFy.jpg2022-05-09 18:34 60K 
[IMG]2oe0UrgvHElWCT9.jpg2022-05-09 18:34 2.0M 
[IMG]5phrD6M0NuzNfUL.jpg2022-05-09 18:34 15K 
[IMG]UABRp9ErLFQisUJ.jpg2022-05-09 18:34 32K 
[IMG]4U85SW1uUK2YqJy.jpg2022-05-09 18:34 34K 
[IMG]fHkT2edlVlIj9wi.jpg2022-05-09 18:34 32K 
[IMG]5ZmWpgbusaIMyA8.jpg2022-05-09 18:34 26K 
[IMG]c6MM3YLsUelzWjX.jpg2022-05-09 18:34 35K 
[IMG]I8r4MZvHVbP5VFe.jpg2022-05-09 18:34 28K 
[IMG]3yA3jXQNjGDhcx3.jpg2022-05-09 18:34 24K 
[IMG]h8mGgV1BF0BnZRs.jpg2022-05-09 18:35 25K 
[IMG]VPHDlPEbbKe6iXb.jpg2022-05-09 18:35 49K 
[IMG]XmSv8jJdxBSHeFm.jpg2022-05-09 18:35 51K 
[IMG]ESIe8pR7h72yNmU.jpg2022-05-09 18:35 45K 
[IMG]8kc2rFof6DDThMe.jpg2022-05-09 18:35 41K 
[IMG]uPZhl3VDjZ9B0AV.jpg2022-05-09 18:35 57K 
[IMG]yog8Q8mZrT3lqpQ.jpg2022-05-09 18:35 12K 
[IMG]SdIViE8OCDm9J6M.jpg2022-05-09 18:35 28K 
[IMG]Nyeq8tpOKvHMqfw.jpg2022-05-09 18:35 8.6K 
[IMG]5nD58mVtHipwkwa.jpg2022-05-09 18:35 35K 
[IMG]HuEBGGJgT5dpEf8.jpg2022-05-09 18:35 25K 
[IMG]Yfy93spV0XGntU6.jpg2022-05-09 18:35 18K 
[IMG]e7f3zy6l6tboWJW.jpg2022-05-09 18:35 37K 
[IMG]Lc53eqIiD4NGTHW.jpg2022-05-09 18:35 33K 
[IMG]QM6mLVeIMqSu9jM.jpg2022-05-09 18:35 15K 
[IMG]yBA7RiM92m1L1Jk.jpg2022-05-09 18:35 37K 
[IMG]MjrB9sfIg2x7ovu.jpg2022-05-09 18:35 17K 
[IMG]U7YtV7Qon70JBqU.jpg2022-05-09 18:35 29K 
[IMG]ghKN4kNxZs58sS8.jpg2022-05-09 18:35 27K 
[IMG]G8gIBsKZPEmUB2T.jpg2022-05-09 18:35 29K 
[IMG]P4z9Yfitcr4zfQm.jpg2022-05-09 18:35 31K 
[IMG]djGtWEhW5dSa4sT.jpg2022-05-09 18:35 39K 
[IMG]P9bXRUngidzEJYa.jpg2022-05-09 18:35 22K 
[IMG]960uF4fuzfHD8cy.jpg2022-05-09 18:35 11K 
[IMG]1AcrzUYM5dmlgdF.jpg2022-05-09 18:35 32K 
[IMG]Ni86zM943OrTdHl.jpg2022-05-09 18:35 25K 
[IMG]s4DwaBJzWsbNSAn.jpg2022-05-09 18:35 34K 
[IMG]WwNdtASBgKcRFxO.jpg2022-05-09 18:35 48K 
[IMG]0XjRdB6eKmPne6J.jpg2022-05-09 18:35 27K 
[IMG]wIHT7OlRV3Ij38r.jpg2022-05-09 18:35 55K 
[IMG]YK7Ylnj49qIlUM0.jpg2022-05-09 18:35 28K 
[IMG]lJP9UYOE8BfN4ch.jpg2022-05-09 18:35 48K 
[IMG]SRrCNQ4TONpGGr4.jpg2022-05-09 18:35 35K 
[IMG]jdDyu30w3YjWK83.jpg2022-05-09 18:35 57K 
[IMG]3aZJFIPsImYrYMI.jpg2022-05-09 18:35 28K 
[IMG]c39hx0263UfHM72.jpg2022-05-09 18:35 42K 
[IMG]LBOwcuGhmzsJmnL.jpg2022-05-09 18:35 61K 
[IMG]B5LKMkACUzIhyVx.jpg2022-05-09 18:35 37K 
[IMG]kRwO8tg2TnemfZ5.jpg2022-05-09 18:35 25K 
[IMG]kh6DWDGnSfwWmav.jpg2022-05-09 18:35 25K 
[IMG]82jpoE28oyiHs7E.jpg2022-05-09 18:35 29K 
[IMG]cGmaN0V1LH8XWVK.jpg2022-05-09 18:35 13K 
[IMG]SarSG8VgvSlDKWN.jpg2022-05-09 18:35 27K 
[IMG]5Fdsm8mCuJPrAX3.jpg2022-05-09 18:35 25K 
[IMG]iEW2pp9iwU7ByNY.jpg2022-05-09 18:35 41K 
[IMG]2qfCniCIpK1HdGE.jpg2022-05-09 18:35 27K 
[IMG]HMB0isbfZWgDkIq.jpg2022-05-09 18:35 39K 
[IMG]xdyYZlR4jeOm1RB.jpg2022-05-09 18:35 46K 
[IMG]VovgLrK1FVQw70x.jpg2022-05-09 18:35 40K 
[IMG]lBVSJhkGJGgmRWw.jpg2022-05-09 18:35 32K 
[IMG]4Z3mxxhEhAiQFEq.jpg2022-05-09 18:35 40K 
[IMG]3OLXe3V5PjflSaP.jpg2022-05-09 18:35 34K 
[IMG]ULZ6WnSybqlN8ME.jpg2022-05-09 18:35 33K 
[IMG]P92krJdQXf5pnkC.jpg2022-05-09 18:35 34K 
[IMG]XWEw0Xunvn02oy2.jpg2022-05-09 18:35 52K 
[IMG]xuMNueIEuCXNxGq.jpg2022-05-09 18:35 15K 
[IMG]alkCcd3IJmd7FZd.jpg2022-05-09 18:35 33K 
[IMG]gQfQOXX8URFXOsr.jpg2022-05-09 18:35 30K 
[IMG]BCXWKFB0ibsPo4h.jpg2022-05-09 18:35 38K 
[IMG]zCS75URujYvf6OD.jpg2022-05-09 18:35 66K 
[IMG]iFB4mX2lFqY4Ayu.jpg2022-05-09 18:35 30K 
[IMG]WaiNLtVxIK5CXhB.jpg2022-05-09 18:35 56K 
[IMG]3DCy3ejaKjI4v2s.jpg2022-05-09 18:35 54K 
[IMG]34seGBc0PzZTJRt.jpg2022-05-09 18:35 49K 
[IMG]qaHt0bdWCxQVG0q.jpg2022-05-09 18:35 45K 
[IMG]SoE0DZRrtwcjlQu.jpg2022-05-09 18:35 52K 
[IMG]n9TFcTuqpVjYjVd.jpg2022-05-09 18:35 66K 
[IMG]tnUlZdqXmlvAL1e.jpg2022-05-09 18:35 48K 
[IMG]cQA04r23x1SeGZi.jpg2022-05-09 18:35 34K 
[IMG]PvXzoIN4vJjHee1.jpg2022-05-09 18:35 31K 
[IMG]ioB9jSPNzFIWrWg.jpg2022-05-09 18:35 31K 
[IMG]MfhBhZx9YOt0dYk.jpg2022-05-09 18:35 37K 
[IMG]VTiSwst58zFETAG.jpg2022-05-09 18:35 18K 
[IMG]ho7dsdheg1mAOzO.jpg2022-05-09 18:35 34K 
[IMG]z6xisLpC2Q5fyKM.jpg2022-05-09 18:35 54K 
[IMG]7qs72INiQpMUdjX.jpg2022-05-09 18:35 10K 
[IMG]V6d8VKv5TLus3m3.jpg2022-05-09 18:35 48K 
[IMG]6xCMg8L3rSO6sec.jpg2022-05-09 18:35 29K 
[IMG]cVNuxfkyc6Jtwka.jpg2022-05-09 18:35 39K 
[IMG]IOYTCDA3YBP6Nlr.jpg2022-05-09 18:35 34K 
[IMG]At8WjM9rAH1ubI6.jpg2022-05-09 18:35 32K 
[IMG]o2hs7ESWzEQ5UH2.jpg2022-05-09 18:35 34K 
[IMG]FUZUAZ4ORR0pXhB.jpg2022-05-09 18:35 57K 
[IMG]iOTpfWI1jRjqSDN.jpg2022-05-09 18:35 36K 
[IMG]M3pf3wRfcM1CacF.jpg2022-05-09 18:35 45K 
[IMG]ti1HTZpicehPWjp.jpg2022-05-09 18:35 43K 
[IMG]Iibnj5LBcaF9jlf.jpg2022-05-09 18:35 49K 
[IMG]4GCnNniqXiMgK0F.jpg2022-05-09 18:35 82K 
[IMG]DJ0sx3v3tqXm0Gy.jpg2022-05-09 18:35 53K 
[IMG]pj29aAdANEF4Aa2.jpg2022-05-09 18:36 52K 
[IMG]jHo4QPBKop3KOYw.jpg2022-05-09 18:36 60K 
[IMG]NCyawEudZz3ePL2.jpg2022-05-09 18:36 43K 
[IMG]ZAB0LK6RLVLUM7p.jpg2022-05-09 18:36 34K 
[IMG]vZJeOaNNAUD7Iob.jpg2022-05-09 18:36 38K 
[IMG]2atQMM6t2iu9WNv.jpg2022-05-09 18:36 45K 
[IMG]9r6ABVXjnyOzpcw.jpg2022-05-09 18:36 38K 
[IMG]7oXiwb2zZ2sH5hC.jpg2022-05-09 18:36 57K 
[IMG]GPw5wuEvQZsMsSv.jpg2022-05-09 18:36 27K 
[IMG]PFyas1sfGKoMsTK.jpg2022-05-09 18:36 32K 
[IMG]5VAz4S6ALgidSR5.jpg2022-05-09 18:36 52K 
[IMG]th5tfeVai7vNApi.jpg2022-05-09 18:36 28K 
[IMG]hH8P3B2AkNgghKE.jpg2022-05-09 18:36 15K 
[IMG]Vk5w0RLg2cSls4Z.jpg2022-05-09 18:36 21K 
[IMG]PPlP2S5wFx30DyA.jpg2022-05-09 18:36 22K 
[IMG]vmvlik26yOT5SIu.jpg2022-05-09 18:36 24K 
[IMG]dFnZ33571QQyBXQ.jpg2022-05-09 18:36 42K 
[IMG]jGib98mDAPiJrTl.jpg2022-05-09 18:36 48K 
[IMG]MlSLNMnAg1QBqE8.jpg2022-05-09 18:36 31K 
[IMG]E8JSIK7FM7C49Ga.jpg2022-05-09 18:36 30K 
[IMG]gR0C946gYivflQD.jpg2022-05-09 18:36 45K 
[IMG]MgHPPlepAXFU1e7.jpg2022-05-09 18:36 27K 
[IMG]GPOetLLhWN7x9u8.jpg2022-05-09 18:36 41K 
[IMG]lxdhJONG8Q1zE1p.jpg2022-05-09 18:36 11K 
[IMG]lrssU8UCbjS5skw.jpg2022-05-09 18:36 28K 
[IMG]LTxhnVDrkyB6UHO.jpg2022-05-09 18:36 25K 
[IMG]ZwJQmbSqMXhsn0y.jpg2022-05-09 18:36 10K 
[IMG]upzZhFC3A12rMVY.jpg2022-05-09 18:36 30K 
[IMG]OppoNnUOPLPsrjM.jpg2022-05-09 18:36 76K 
[IMG]2HJJAHx0NvnpNPV.jpg2022-05-09 18:36 30K 
[IMG]v9yEvrNfxUPWTs2.jpg2022-05-09 18:36 13K 
[IMG]OHnwql8KYOALrz7.jpg2022-05-09 18:36 14K 
[IMG]YGJZVcM3bTfY8Xs.jpg2022-05-09 18:36 16K 
[IMG]bcHR4FuopmdIwdq.jpg2022-05-09 18:36 45K 
[IMG]9yZHszhyMJgTuu6.jpg2022-05-09 18:36 31K 
[IMG]Yliue0VBIdxTb9l.jpg2022-05-09 18:36 27K 
[IMG]DRuhp3gKI97hMqd.jpg2022-05-09 18:36 26K 
[IMG]aqEnD2nyVOpP9XE.jpg2022-05-09 18:36 33K 
[IMG]1wmS1kjEZ9c5RRM.jpg2022-05-09 18:36 42K 
[IMG]iBjUUV2nIPfdgy3.jpg2022-05-09 18:36 43K 
[IMG]bYINkrJiSEZgJVp.jpg2022-05-09 18:36 17K 
[IMG]FERKTiNJAM8PEKI.jpg2022-05-09 18:36 14K 
[IMG]pT2gjkjRX185EoD.jpg2022-05-09 18:36 18K 
[IMG]eH7KV5x2Os1PUXE.jpg2022-05-09 18:36 29K 
[IMG]LGo2Z04UBPHBjY4.jpg2022-05-09 18:36 19K 
[IMG]8ifzYCHR7IUM1Vo.jpg2022-05-09 18:36 21K 
[IMG]21tiCHt73suJ09L.jpg2022-05-09 18:36 9.5K 
[IMG]zKITHaoKBiEoPve.jpg2022-05-09 18:36 43K 
[IMG]FZsqu4Eeca3OxOU.jpg2022-05-09 18:36 39K 
[IMG]hbv9NABd1mHGn37.jpg2022-05-09 18:36 26K 
[IMG]UeA2Ng5CrLW31p0.jpg2022-05-09 18:36 34K 
[IMG]hYkSUCXMN5398HC.jpg2022-05-09 18:36 44K 
[IMG]z2Y5trJtB76Epf3.jpg2022-05-09 18:36 28K 
[IMG]Wy69FU0EmwEBROJ.jpg2022-05-09 18:36 7.0K 
[IMG]CCp8aZFYuU854PW.jpg2022-05-09 18:36 10K 
[IMG]ozp9PejCWTxx9yO.jpg2022-05-09 18:36 12K 
[IMG]tMPETC3wTdOiACd.jpg2022-05-09 18:36 9.5K 
[IMG]PUstTfoN6McX7e3.jpg2022-05-09 18:36 15K 
[IMG]snfXC6e92ViQ0ab.jpg2022-05-09 18:36 20K 
[IMG]ecwTpW4PnxmOyWP.jpg2022-05-09 18:37 15K 
[IMG]BnFCf2cFhwmc2kI.jpg2022-05-09 18:37 25K 
[IMG]LtVY5paMVw4N7dZ.jpg2022-05-09 18:37 33K 
[IMG]kht69PN07Iz425V.jpg2022-05-09 18:37 25K 
[IMG]qRq8RCT2aU2LCLx.jpg2022-05-09 18:37 34K 
[IMG]Q8l3nsvXZHHJMag.jpg2022-05-09 18:37 55K 
[IMG]GKHB5q8Fge3T20W.jpg2022-05-09 18:37 30K 
[IMG]BFLLMyarucJrAIh.jpg2022-05-09 18:37 13K 
[IMG]xJO3gZKUT0A8sC4.jpg2022-05-09 18:37 22K 
[IMG]3Rk5iGqfQ21gNan.jpg2022-05-09 18:37 25K 
[IMG]G6UXMf1y2FFeMze.jpg2022-05-09 18:37 29K 
[IMG]nhDmNk1718kAQuy.jpg2022-05-09 18:37 208K 
[IMG]YGCOuSQbJqXMkH7.jpg2022-05-09 18:37 22K 
[IMG]RB8k52EymGBaJr5.jpg2022-05-09 18:37 14K 
[IMG]ypxJ6bLYlAxlcxt.jpg2022-05-09 18:37 21K 
[IMG]iWyF0sZnWkOMS49.jpg2022-05-09 18:37 18K 
[IMG]X5FulPIsOWuV53k.jpg2022-05-09 18:37 16K 
[IMG]8h49XyGDtyLJ22m.jpg2022-05-09 18:37 25K 
[IMG]hJ2OBc6Sea4WQHk.jpg2022-05-09 18:37 29K 
[IMG]mbbeUsdXmgvnonQ.jpg2022-05-09 18:38 20K 
[IMG]utCiOBvkVRdmFqY.jpg2022-05-09 18:38 51K 
[IMG]aedhGE7yFzfjSKn.jpg2022-05-09 18:38 54K 
[IMG]qvSvWiN6qaSzOYO.jpg2022-05-09 18:38 49K 
[IMG]94N55lw3Lrig8MS.jpg2022-05-09 18:38 38K 
[IMG]1kCFsrQfoX1vYcD.jpg2022-05-09 18:38 45K 
[IMG]il17QKHP8wBcL4Q.jpg2022-05-09 18:38 33K 
[IMG]oH621FV9aMxwZBd.jpg2022-05-09 18:38 40K 
[IMG]2H2Fe4c0uCasBkJ.jpg2022-05-09 18:38 23K 
[IMG]qyd7N0bN6voL9Va.jpg2022-05-09 18:38 20K 
[IMG]UkVZ95ZQ9HHn6PC.jpg2022-05-09 18:38 39K 
[IMG]NIGS9cI6UVDWhjY.jpg2022-05-09 18:38 23K 
[IMG]H4G3E88KItIVgjY.jpg2022-05-09 18:38 19K 
[IMG]TDHiTpls4hcoirS.jpg2022-05-09 18:38 22K 
[IMG]73ZX4WEKebzQ67p.jpg2022-05-09 18:38 7.6K 
[IMG]0grnndqS8Ml2XTn.jpg2022-05-09 18:38 6.4K 
[IMG]GqYDKZITQdgXrFC.jpg2022-05-09 18:38 17K 
[IMG]tQCKFXANJST4K5y.jpg2022-05-09 18:38 40K 
[IMG]gT7z1Y2E7IsXYD8.jpg2022-05-09 18:38 36K 
[IMG]KOZtnQoyDdNV277.jpg2022-05-09 18:38 26K 
[IMG]XIT9ZqV6qSYOCcK.jpg2022-05-09 18:38 91K 
[IMG]FTPjCYgrWPCAuJv.jpg2022-05-09 18:38 22K 
[IMG]Au4XRw8kY2DSKHS.jpg2022-05-09 18:38 41K 
[IMG]eRejGoExyVGhS1P.jpg2022-05-09 18:38 36K 
[IMG]y8Un1tj6HUhGaqP.jpg2022-05-09 18:38 41K 
[IMG]Aa2haESUmLCMF0z.jpg2022-05-09 18:38 36K 
[IMG]3HjMFn9kJ5bXQt8.jpg2022-05-09 18:38 41K 
[IMG]BB0upNNKLUkSCen.jpg2022-05-09 18:38 32K 
[IMG]b9gtEFOkabWjOvf.jpg2022-05-09 18:38 20K 
[IMG]mzQIDGGa4VJUW6n.jpg2022-05-09 18:38 28K 
[IMG]5GFkglVwPBRGtqo.jpg2022-05-09 18:38 34K 
[IMG]dKnCX5pp3NcZvvo.jpg2022-05-09 18:38 37K 
[IMG]f4HBKGOYQ5j4oRr.jpg2022-05-09 18:38 34K 
[IMG]8x7aBCZ1P7SNSP4.jpg2022-05-09 18:38 49K 
[IMG]sKarnnE5RWKz4wo.jpg2022-05-09 18:38 48K 
[IMG]lgbmmITkeRNwBmz.jpg2022-05-09 18:38 7.7K 
[IMG]q4sDGTfqhGJ2mwz.jpg2022-05-09 18:38 11K 
[IMG]Xl1P1YOYAAD3l5t.jpg2022-05-09 18:38 29K 
[IMG]0zmlQMjcmWLld68.jpg2022-05-09 18:38 25K 
[IMG]m03DTy8y1nvmycd.jpg2022-05-09 18:38 13K 
[IMG]SEqRwZfbA8HHePi.jpg2022-05-09 18:38 40K 
[IMG]E1twtwigvbw30pi.jpg2022-05-09 18:38 17K 
[IMG]uu4y5UhQLchnwPY.jpg2022-05-09 18:38 14K 
[IMG]gPv36nd5x9yzc8X.jpg2022-05-09 18:38 50K 
[IMG]B5vVq2dDVjFBUR6.jpg2022-05-09 18:38 27K 
[IMG]JCUXMaea8fkDx1B.jpg2022-05-09 18:38 29K 
[IMG]sSPorUVZaOZqN59.jpg2022-05-09 18:38 49K 
[IMG]OHhGWQqwKO5TjUK.jpg2022-05-09 18:38 48K 
[IMG]WeZ6l2WiZPPqBti.jpg2022-05-09 18:38 41K 
[IMG]yL1DkzRDBLr2DSe.jpg2022-05-09 18:38 31K 
[IMG]eeh3idDi3G9u42S.jpg2022-05-09 18:38 48K 
[IMG]PJYaHsZUISw0dEx.jpg2022-05-09 18:38 24K 
[IMG]nDYQu4YEIg1t8to.jpg2022-05-09 18:38 31K 
[IMG]jw08NuOxO4Hfm4n.jpg2022-05-09 18:38 27K 
[IMG]Ruajy3q6apG1D6C.jpg2022-05-09 18:38 30K 
[IMG]V3KbrEOhUnSMiPi.jpg2022-05-09 18:38 25K 
[IMG]wfExsaDOzNzOWGi.jpg2022-05-09 18:38 26K 
[IMG]otJjAofY5JsvRPz.jpg2022-05-09 18:38 24K 
[IMG]Bem7hKoqLTc2Isj.jpg2022-05-09 18:38 32K 
[IMG]tpwnO2hEs4t8jOI.jpg2022-05-09 18:38 22K 
[IMG]diuxBD4mMcP8Bt7.jpg2022-05-09 18:38 27K 
[IMG]lCWiDxrAVvI6c2L.jpg2022-05-09 18:38 40K 
[IMG]9rYFdc9KPLE6uy8.jpg2022-05-09 18:38 44K 
[IMG]aR5plJxc7tGhmHo.jpg2022-05-09 18:38 19K 
[IMG]Rfem298GFSJjYGs.jpg2022-05-09 18:38 25K 
[IMG]WoY3qSfKOgTaYsf.jpg2022-05-09 18:38 14K 
[IMG]NyEsTgREhfiVsZC.jpg2022-05-09 18:38 24K 
[IMG]bb5hMtfuLTbCEwJ.jpg2022-05-09 18:38 12K 
[IMG]HmeYnljYyzGYbBM.jpg2022-05-09 18:38 27K 
[IMG]LkLwK8LYFu74xZD.jpg2022-05-09 18:38 737K 
[IMG]g4HwMpgbZ4j4020.jpg2022-05-09 18:39 13K 
[IMG]j5xfLrN8tXiervh.jpg2022-05-09 18:39 41K 
[IMG]UPyo4RLhFvVjYBa.jpg2022-05-09 18:39 19K 
[IMG]2g7Fbs3djaz84pD.jpg2022-05-09 18:39 36K 
[IMG]5hN1rvswY4tsGaB.jpg2022-05-09 18:39 32K 
[IMG]EUxgQM7spiAnxNC.jpg2022-05-09 18:39 53K 
[IMG]kc9qOIuksMvVG1L.jpg2022-05-09 18:39 53K 
[IMG]s8sKw4QiBMliJrc.jpg2022-05-09 18:39 32K 
[IMG]1ausN42iauCAL5Q.jpg2022-05-09 18:39 35K 
[IMG]6e3A04c8b1Ng5Z1.jpg2022-05-09 18:39 25K 
[IMG]VLcIe0GiQxJUTR7.jpg2022-05-09 18:39 40K 
[IMG]l3qHCrDlEiiQZOW.jpg2022-05-09 18:39 28K 
[IMG]46QWIc8wFiNP5jX.jpg2022-05-09 18:39 46K 
[IMG]WWKk1ncZW6W25f5.jpg2022-05-09 18:39 34K 
[IMG]9mDdMTpldNZkIdx.jpg2022-05-09 18:39 15K 
[IMG]AmCRUxu0xKKH7Hx.jpg2022-05-09 18:39 40K 
[IMG]MgjGRqyaD6E4fCf.jpg2022-05-09 18:39 18K 
[IMG]CFTYymyrnIxxlZ2.jpg2022-05-09 18:39 64K 
[IMG]4MgncacFTJhqhfh.jpg2022-05-09 18:39 13K 
[IMG]I8f4o9ZqJ08dLA9.jpg2022-05-09 18:39 15K 
[IMG]d4l7LggOEOl3rAk.jpg2022-05-09 18:39 12K 
[IMG]ySb3HDFXVdykDUO.jpg2022-05-09 18:39 14K 
[IMG]gLAog7AJmHREo5n.jpg2022-05-09 18:39 12K 
[IMG]uuZLql7E5LAmNsQ.jpg2022-05-09 18:39 23K 
[IMG]PzB6rlv7BAH31Xx.jpg2022-05-09 18:39 41K 
[IMG]6LCQUwunKluh8Gg.jpg2022-05-09 18:39 20K 
[IMG]6OlF53lyFyoMEYO.jpg2022-05-09 18:39 20K 
[IMG]5yQwy9YXwsa6TuS.jpg2022-05-09 18:39 27K 
[IMG]PalOsgx7yKYjxkf.jpg2022-05-09 18:39 24K 
[IMG]Kbbz5HHj7LEUibW.jpg2022-05-09 18:39 358K 
[IMG]R7bGifsLqCQxKjo.jpg2022-05-09 18:39 24K 
[IMG]ZIf9UgU7V8yIEIs.jpg2022-05-09 18:39 25K 
[IMG]ENhxFEth2XjpP9l.jpg2022-05-09 18:39 26K 
[IMG]RAzLE7reKngqwpj.jpg2022-05-09 18:39 6.6K 
[IMG]ndgJXLPY6PbaZth.jpg2022-05-09 18:39 23K 
[IMG]b2p7X1OaXl7ZeAV.jpg2022-05-09 18:39 31K 
[IMG]5unpnx90lzTYzJI.jpg2022-05-09 18:39 31K 
[IMG]snZD3GbynCZgn5s.jpg2022-05-09 18:39 19K 
[IMG]zAMvxR2BuNh063N.jpg2022-05-09 18:39 41K 
[IMG]ZKhGDaWTkfxKTbO.jpg2022-05-09 18:39 56K 
[IMG]v7dcYLuEiOHomOy.jpg2022-05-09 18:39 30K 
[IMG]tk51GCdHGtLJNHN.jpg2022-05-09 18:39 43K 
[IMG]7sIAEkBSmpNqe6x.jpg2022-05-09 18:39 25K 
[IMG]OPKqhjLeKnvBZiR.jpg2022-05-09 18:39 41K 
[IMG]5RiWFhrsxFBsEO5.jpg2022-05-09 18:39 16K 
[IMG]5VnXvXSddNUix2W.jpg2022-05-09 18:39 41K 
[IMG]JC8EBpEt5Y16M4m.jpg2022-05-09 18:39 29K 
[IMG]LgmyOMT0LCMOaFP.jpg2022-05-09 18:39 55K 
[IMG]nx7IX9GpIdyA3HS.jpg2022-05-09 18:39 31K 
[IMG]pWwvoVpza4Hwyw8.jpg2022-05-09 18:39 35K 
[IMG]4lR61zQfpTvVrGn.jpg2022-05-09 18:39 50K 
[IMG]P8KEitgtK2DmopD.jpg2022-05-09 18:39 40K 
[IMG]EpFVMdxF2Vv2pGj.jpg2022-05-09 18:39 40K 
[IMG]EWQiQwdtBXgnQT2.jpg2022-05-09 18:39 47K 
[IMG]qrBbQOWX97z5KIu.jpg2022-05-09 18:39 52K 
[IMG]GxvvzXO3didtTwz.jpg2022-05-09 18:39 33K 
[IMG]wobU11OA5mdsVeO.jpg2022-05-09 18:39 25K 
[IMG]DyLMlT1X3adTnlo.jpg2022-05-09 18:39 19K 
[IMG]GvagV9NKvDUF2ik.jpg2022-05-09 18:39 32K 
[IMG]2D1oGJOTFrmZTSn.jpg2022-05-09 18:39 19K 
[IMG]VrMIAiylOBpWz5j.jpg2022-05-09 18:39 20K 
[IMG]GELY1xZz5KHs6ZR.jpg2022-05-09 18:39 60K 
[IMG]AjYkylF6JUO1guX.jpg2022-05-09 18:39 38K 
[IMG]9IqjIUE81FvpdGg.jpg2022-05-09 18:39 14K 
[IMG]nm1F6Wck7LL4lMp.jpg2022-05-09 18:39 25K 
[IMG]c7XStoSNmWmGUe4.jpg2022-05-09 18:39 68K 
[IMG]0LwFCU7eA1GARnc.jpg2022-05-09 18:39 15K 
[IMG]RNBFKhS8pk8oIVN.jpg2022-05-09 18:39 36K 
[IMG]pLdf5jzeS9EQ12t.jpg2022-05-09 18:39 32K 
[IMG]QTsIvf10w4Ppls4.jpg2022-05-09 18:39 53K 
[IMG]tp4A2cz7D8YCnhw.jpg2022-05-09 18:39 22K 
[IMG]S49d9XpbprdDdLn.jpg2022-05-09 18:39 6.1K 
[IMG]LCiUp2GkLimCOgR.jpg2022-05-09 18:39 19K 
[IMG]z8QLQOdooI1gfMO.jpg2022-05-09 18:40 44K 
[IMG]YHKI5tlrvdVxyi4.jpg2022-05-09 18:40 15K 
[IMG]FDm3HU83OMZwFUK.jpg2022-05-09 18:40 50K 
[IMG]bfEq7mvwuY7NkZW.jpg2022-05-09 18:40 100K 
[IMG]NFyWPNS9CJakmvK.jpg2022-05-09 18:40 22K 
[IMG]3diienQI5CSzmSH.jpg2022-05-09 18:40 27K 
[IMG]PxctMmyuKLtxmCH.jpg2022-05-09 18:40 32K 
[IMG]kcCU2JSy1Akn47A.jpg2022-05-09 18:40 32K 
[IMG]zSfqV5iqLzpDLlo.jpg2022-05-09 18:40 40K 
[IMG]FJGxELY1vqIb92p.jpg2022-05-09 18:40 31K 
[IMG]nSwWUI1810MnjEw.jpg2022-05-09 18:40 16K 
[IMG]KQkyrhwCTqFydIt.jpg2022-05-09 18:40 1.1M 
[IMG]DrG528A4JgRwMtw.jpg2022-05-09 18:40 30K 
[IMG]QfKIawVOSzR1qET.jpg2022-05-09 18:40 16K 
[IMG]WVAiH6ecK6dllmt.jpg2022-05-09 18:40 43K 
[IMG]2CfUxJ2zJgqc0KU.jpg2022-05-09 18:40 32K 
[IMG]A1bqliAI6zlEIwC.jpg2022-05-09 18:40 31K 
[IMG]uvNBGPONw3SE6Yl.jpg2022-05-09 18:40 15K 
[IMG]SY5Acs4owKZnBWt.jpg2022-05-09 18:40 25K 
[IMG]71lBwBmlzjIRhsl.jpg2022-05-09 18:40 39K 
[IMG]8MkahLyPz8dRLU0.jpg2022-05-09 18:40 41K 
[IMG]zGN1ErdCBXPOa62.jpg2022-05-09 18:40 32K 
[IMG]0tWO57OpkBiefd3.jpg2022-05-09 18:40 110K 
[IMG]K43EFFf86BFYVwk.jpg2022-05-09 18:40 7.4K 
[IMG]zXbEiqEFNPDvJgd.jpg2022-05-09 18:40 27K 
[IMG]ti9SplugRwDxFlQ.jpg2022-05-09 18:40 27K 
[IMG]fUzOXpm7PaSy107.jpg2022-05-09 18:40 40K 
[IMG]L33bZZ4wAHjXFdB.jpg2022-05-09 18:40 32K 
[IMG]BPH6ewNM2h4UcEP.jpg2022-05-09 18:40 36K 
[IMG]SSdf2io3UdIoJCo.jpg2022-05-09 18:40 28K 
[IMG]iIeWDkhWAKed9aq.jpg2022-05-09 18:40 24K 
[IMG]sS2gkruz3pqZURM.jpg2022-05-09 18:40 39K 
[IMG]P9GuqEEx5Tf8aSU.jpg2022-05-09 18:40 53K 
[IMG]dGnBR7unkYDMEW0.jpg2022-05-09 18:40 40K 
[IMG]YqSXnMunLMaCtEm.jpg2022-05-09 18:40 22K 
[IMG]lEGr1nwrHVe0RNk.jpg2022-05-09 18:40 89K 
[IMG]ZFt5oIToKm3jf0W.jpg2022-05-09 18:40 53K 
[IMG]Wb44OJDXoHtCrB8.jpg2022-05-09 18:40 43K 
[IMG]vfjrvPoeVvzrteK.jpg2022-05-09 18:40 37K 
[IMG]BIMMGHRcZCoSGcL.jpg2022-05-09 18:40 57K 
[IMG]uCFLFH14zSlPUra.jpg2022-05-09 18:40 26K 
[IMG]G0kOugpfKdylXKz.jpg2022-05-09 18:40 61K 
[IMG]2vu0lPkhm1jMAkn.jpg2022-05-09 18:40 36K 
[IMG]k79qdhAlOkt2eJd.jpg2022-05-09 18:40 25K 
[IMG]dNmd1mkJcABBasn.jpg2022-05-09 18:40 18K 
[IMG]uCjji9UMsaMkQ8F.jpg2022-05-09 18:40 30K 
[IMG]AMxLjKlJzyRTl44.jpg2022-05-09 18:40 23K 
[IMG]zuucTKogPPlnFSY.jpg2022-05-09 18:40 30K 
[IMG]1YrK8VNjwOXAMSh.jpg2022-05-09 18:40 38K 
[IMG]1CgGfihHxwHw0gC.jpg2022-05-09 18:40 22K 
[IMG]PtYGXm03r9aAdhX.jpg2022-05-09 18:40 31K 
[IMG]VGTA2nhAr2ojUpq.jpg2022-05-09 18:40 19K 
[IMG]B2GCvDMQ039Sl43.jpg2022-05-09 18:41 18K 
[IMG]yg8UjVCwI9q5ian.jpg2022-05-09 18:41 16K 
[IMG]RkP2RSpLCftGXZ9.jpg2022-05-09 18:41 24K 
[IMG]b6w0gDiXloLm6r0.jpg2022-05-09 18:41 20K 
[IMG]HqhP3G7DtKvC47o.jpg2022-05-09 18:41 23K 
[IMG]wcfLiSUiDDUjgZX.jpg2022-05-09 18:41 23K 
[IMG]w60kBXJyFi8AgEz.jpg2022-05-09 18:41 46K 
[IMG]YlOIuMILicoZ8dt.jpg2022-05-09 18:41 34K 
[IMG]lR0vg9AMuD7bRgW.jpg2022-05-09 18:41 48K 
[IMG]og3ZevPGj8xasZ5.jpg2022-05-09 18:41 29K 
[IMG]T1AsYajaNaTOOcH.jpg2022-05-09 18:41 38K 
[IMG]r1b5T7GdRrTKBSg.jpg2022-05-09 18:41 33K 
[IMG]8Dmm2ULXBP6haeA.jpg2022-05-09 18:41 97K 
[IMG]YojpMTv2N5Y2cQz.jpg2022-05-09 18:41 40K 
[IMG]qm4akA8R61eiTN2.jpg2022-05-09 18:41 39K 
[IMG]x0j2mGWxcwZrmWl.jpg2022-05-09 18:41 38K 
[IMG]6ctnARYUeBKXzhx.jpg2022-05-09 18:41 28K 
[IMG]3UEMU0fVJrwgKEk.jpg2022-05-09 18:41 39K 
[IMG]nLQlRqFbVjfEXYP.jpg2022-05-09 18:41 33K 
[IMG]m2fw8na6suo7s5Y.jpg2022-05-09 18:41 40K 
[IMG]1sJD5AzRGkYWLCL.jpg2022-05-09 18:41 27K 
[IMG]uIn3sxinJvYEmtS.jpg2022-05-09 18:41 40K 
[IMG]f6oeh2VtSCeOsIj.jpg2022-05-09 18:41 45K 
[IMG]N3MSt4YER5dWW0F.jpg2022-05-09 18:41 31K 
[IMG]jmHc90zjDpMOcsT.jpg2022-05-09 18:41 41K 
[IMG]43c9USnr5SLmE07.jpg2022-05-09 18:41 32K 
[IMG]Kz0DMZ1NETPX2aU.jpg2022-05-09 18:41 38K 
[IMG]VUg2FsodeqDEeoB.jpg2022-05-09 18:41 38K 
[IMG]XnO4H74jcdqjJSX.jpg2022-05-09 18:41 35K 
[IMG]zODddB2UImBPvay.jpg2022-05-09 18:41 19K 
[IMG]EjcvEUBgUZOATRy.jpg2022-05-09 18:41 18K 
[IMG]gbgDdIzS1XcHWDq.jpg2022-05-09 18:41 22K 
[IMG]f2sUDLZib49xCIY.jpg2022-05-09 18:41 29K 
[IMG]CV6AARpYTBbgUYV.jpg2022-05-09 18:41 20K 
[IMG]8orRPWJ0J2X7QJx.jpg2022-05-09 18:41 57K 
[IMG]WRZc8n15CgnVUMV.jpg2022-05-09 18:41 18K 
[IMG]HdDN2i7rM5fnEQ7.jpg2022-05-09 18:41 51K 
[IMG]WOhHxQZWFFTqhB4.jpg2022-05-09 18:41 15K 
[IMG]uQRnPWAAcrWhNpG.jpg2022-05-09 18:41 32K 
[IMG]QTggAy1tmEwUsPz.jpg2022-05-09 18:41 3.1K 
[IMG]3g9wBXPoydvMqRV.jpg2022-05-09 18:41 21K 
[IMG]7Uvhudf9VdP6tVX.jpg2022-05-09 18:41 6.2K 
[IMG]VWVMMc9yUOegOhE.jpg2022-05-09 18:41 16K 
[IMG]JmicO8T4wbgesnu.jpg2022-05-09 18:41 7.3K 
[IMG]nJLWu64c2PUtECZ.jpg2022-05-09 18:41 29K 
[IMG]dHwr5CTYQNTNV6N.jpg2022-05-09 18:41 6.3K 
[IMG]jZFaudhI74l6ogO.jpg2022-05-09 18:41 28K 
[IMG]RbHzh2L0yJmB9oM.jpg2022-05-09 18:41 21K 
[IMG]hyXA9rRdCQ4sKFC.jpg2022-05-09 18:41 22K 
[IMG]DV1a6cuRuuBKYDx.jpg2022-05-09 18:41 552K 
[IMG]lXYWb1khy2oe81T.jpg2022-05-09 18:41 19K 
[IMG]C2NrRid0V6kgxNk.jpg2022-05-09 18:41 26K 
[IMG]6E2u989t1hsHoU8.jpg2022-05-09 18:41 29K 
[IMG]CeNfkmJiH1aKyQ7.jpg2022-05-09 18:41 42K 
[IMG]cnAhJyysx5jSsWN.jpg2022-05-09 18:41 36K 
[IMG]EahKilvcWRQFDNa.jpg2022-05-09 18:41 53K 
[IMG]LsZaFzHBD6nKIIs.jpg2022-05-09 18:41 47K 
[IMG]e0XopfAXZMAIWFs.jpg2022-05-09 18:41 34K 
[IMG]C8oVeLqMW0LDXUV.jpg2022-05-09 18:41 41K 
[IMG]skPE3IUnAU0pQTv.jpg2022-05-09 18:41 58K 
[IMG]BNQj7l8yxxssFHV.jpg2022-05-09 18:41 42K 
[IMG]xJgbTZuJhdZrBRz.jpg2022-05-09 18:41 43K 
[IMG]zXk8NBZCfGozFVp.jpg2022-05-09 18:41 34K 
[IMG]sDAiCOKMBbExoUj.jpg2022-05-09 18:41 25K 
[IMG]z0AKpwrmXDwT1Vk.jpg2022-05-09 18:42 62K 
[IMG]pHPfGzUjPwOQRGA.jpg2022-05-09 18:42 45K 
[IMG]69BRXHoVW92rNFA.jpg2022-05-09 18:42 18K 
[IMG]ypb7iJAL9wfjWhY.jpg2022-05-09 18:42 12K 
[IMG]acPDQuwsNgSz6p4.jpg2022-05-09 18:42 8.4K 
[IMG]MxuKcKQ64GUxLgw.jpg2022-05-09 18:42 27K 
[IMG]ba8VR97YQ2OOmb1.jpg2022-05-09 18:42 20K 
[IMG]t3wHlmsXODKIHNB.jpg2022-05-09 18:42 41K 
[IMG]hXFWSsusPPlt8Cx.jpg2022-05-09 18:42 39K 
[IMG]OOQqJhyHF8yP7iI.jpg2022-05-09 18:42 43K 
[IMG]KUzn3EvpDT1LPa4.jpg2022-05-09 18:42 60K 
[IMG]8kFBxrCw78i79g5.jpg2022-05-09 18:42 29K 
[IMG]3DbciKkNFOUoJtJ.jpg2022-05-09 18:42 39K 
[IMG]y9jxq6qTD6oGrjx.jpg2022-05-09 18:42 27K 
[IMG]chAoLkEdYCYSie4.jpg2022-05-09 18:42 37K 
[IMG]lRf2H5MhrFbCcS1.jpg2022-05-09 18:42 32K 
[IMG]kaftzfoK7vGOFSL.jpg2022-05-09 18:42 41K 
[IMG]0pgAFJuwX3zzV3w.jpg2022-05-09 18:42 28K 
[IMG]GTFeZ1xWHOQF2zr.jpg2022-05-09 18:42 39K 
[IMG]dT406Xm1hZHuZfr.jpg2022-05-09 18:42 32K 
[IMG]J30G2ycNOl9jXNf.jpg2022-05-09 18:42 33K 
[IMG]f45ZJ9LQB79LsJ5.jpg2022-05-09 18:42 39K 
[IMG]mu4Bf1aMbZ4dTF0.jpg2022-05-09 18:42 31K 
[IMG]4ZZOkt5kNEWtZTp.jpg2022-05-09 18:42 33K 
[IMG]uCjQcKAUEOaVSW6.jpg2022-05-09 18:42 65K 
[IMG]8SIKGXHGNS4RjaM.jpg2022-05-09 18:42 11K 
[IMG]pHHhEP256Eqlp5O.jpg2022-05-09 18:42 15K 
[IMG]6GVMCa5ANF8WDnf.jpg2022-05-09 18:42 46K 
[IMG]nUaepfFw3dlY7hp.jpg2022-05-09 18:42 29K 
[IMG]gMbEMdayhTkJRmU.jpg2022-05-09 18:42 40K 
[IMG]PFn46IZahZpMD4e.jpg2022-05-09 18:42 34K 
[IMG]1reTY9Ajlvn5fdb.jpg2022-05-09 18:42 32K 
[IMG]wFRt66Yxbd6qLON.jpg2022-05-09 18:42 34K 
[IMG]AT9pTNI1CFn1SEb.jpg2022-05-09 18:42 56K 
[IMG]L4qedEkWlZ9h44X.jpg2022-05-09 18:42 49K 
[IMG]KKSY2GFMvMuj7Sl.jpg2022-05-09 18:42 45K 
[IMG]WDDlbGpV4XebjZq.jpg2022-05-09 18:42 52K 
[IMG]mggn5RWUBABj8n0.jpg2022-05-09 18:42 35K 
[IMG]2woapUUWClGv6NH.jpg2022-05-09 18:42 55K 
[IMG]y19rC1jG6BwzzYn.jpg2022-05-09 18:42 28K 
[IMG]vOksH0XVGDpWF08.jpg2022-05-09 18:42 41K 
[IMG]KuiIr06YnXWsfyU.jpg2022-05-09 18:42 43K 
[IMG]qnHWI9FMhNPNUo3.jpg2022-05-09 18:42 46K 
[IMG]G6qtwxvbYesGnM9.jpg2022-05-09 18:42 47K 
[IMG]4sOyt8WP6SMZCDX.jpg2022-05-09 18:42 54K 
[IMG]bDMnBAJ3zoetgAB.jpg2022-05-09 18:42 36K 
[IMG]z8X6YaBL10HrdOk.jpg2022-05-09 18:42 58K 
[IMG]GfvPg0TwrtHMM0B.jpg2022-05-09 18:42 59K 
[IMG]dXoe6SyW4Peq1zO.jpg2022-05-09 18:42 21K 
[IMG]QCm0ClYvPVeDe6G.jpg2022-05-09 18:42 26K 
[IMG]ohFcD5l3GEuv0Z0.jpg2022-05-09 18:42 25K 
[IMG]899YEGzTtrDCO7o.jpg2022-05-09 18:42 35K 
[IMG]TM4otLRGohMfuKp.jpg2022-05-09 18:42 23K 
[IMG]Q2QtqMckHmyWwG6.jpg2022-05-09 18:42 14K 
[IMG]nulN47YbpJVCNM0.jpg2022-05-09 18:42 30K 
[IMG]oIlZs67NxG9y4Kj.jpg2022-05-09 18:42 26K 
[IMG]gudd1LpRBzvu86j.jpg2022-05-09 18:42 36K 
[IMG]GGHIuVky82KjeXT.jpg2022-05-09 18:42 38K 
[IMG]jgW6YIyPRuVLvpy.jpg2022-05-09 18:42 31K 
[IMG]pyO3PYv43vWobJm.jpg2022-05-09 18:42 38K 
[IMG]fX6lSMf2Kbtlww3.jpg2022-05-09 18:42 29K 
[IMG]OHJDKZXClTAlHQM.jpg2022-05-09 18:42 460K 
[IMG]Kx6kjkVU3vZDfZl.jpg2022-05-09 18:42 38K 
[IMG]NRW3fEGAedbsnHs.jpg2022-05-09 18:42 30K 
[IMG]yJAVSSXObv1LUf8.jpg2022-05-09 18:42 38K 
[IMG]7OiUCSFLgv8ukfp.jpg2022-05-09 18:42 43K 
[IMG]uuy5lw30q8bKwpp.jpg2022-05-09 18:42 36K 
[IMG]ad3WaMUR9hP0SHf.jpg2022-05-09 18:42 38K 
[IMG]JQvO0BoxfAJOsOH.jpg2022-05-09 18:42 27K 
[IMG]nQ5mQjjzF9ajIYR.jpg2022-05-09 18:42 45K 
[IMG]3Or5wABgwgHMZWQ.jpg2022-05-09 18:42 65K 
[IMG]CGPy53937rA9fYb.jpg2022-05-09 18:42 28K 
[IMG]Kx9U8BmX1vQHWao.jpg2022-05-09 18:42 22K 
[IMG]Ro6UT6zJi87Ma16.jpg2022-05-09 18:42 56K 
[IMG]09xNG2aMkPRLjc0.jpg2022-05-09 18:42 69K 
[IMG]xYEnaXgpAqya5BK.jpg2022-05-09 18:42 64K 
[IMG]s0rMI8205KIct3F.jpg2022-05-09 18:42 28K 
[IMG]07ctYAg2EZ3FUNK.jpg2022-05-09 18:42 41K 
[IMG]n5RCWqLHYR4Eyu0.jpg2022-05-09 18:42 29K 
[IMG]QrIncNRDrnsZk8s.jpg2022-05-09 18:42 37K 
[IMG]2gccLoDGnhsNXUU.jpg2022-05-09 18:42 32K 
[IMG]GaBKcRyE9Cycl7o.jpg2022-05-09 18:42 31K 
[IMG]f3reectT3nGPdav.jpg2022-05-09 18:42 28K 
[IMG]rBDJUxFetSa4gwE.jpg2022-05-09 18:42 12K 
[IMG]35ZMUZ9W8rRgWTG.jpg2022-05-09 18:42 26K 
[IMG]detW1LQQfE6wfjh.jpg2022-05-09 18:42 27K 
[IMG]pSp5yfHXdSrAZZy.jpg2022-05-09 18:42 32K 
[IMG]xPoD6jKdmlIJXYF.jpg2022-05-09 18:42 30K 
[IMG]4H2gPnu6OGuLLGK.jpg2022-05-09 18:42 45K 
[IMG]jHNRyB623o5jnQV.jpg2022-05-09 18:42 536K 
[IMG]Rj1sJz4eWTDGSy7.jpg2022-05-09 18:42 10K 
[IMG]AtfR9uaHMFEtlJP.jpg2022-05-09 18:42 17K 
[IMG]NTjx1nnIxGfZ5oF.jpg2022-05-09 18:42 35K 
[IMG]UZGKoTHE558uEel.jpg2022-05-09 18:42 19K 
[IMG]WH7o7pNwn1oXOMK.jpg2022-05-09 18:42 7.5K 
[IMG]snHV1MaBaVWPI0k.jpg2022-05-09 18:42 15K 
[IMG]bz77qV00ipVdIaL.jpg2022-05-09 18:42 14K 
[IMG]BwxCxwvNiOrd53o.jpg2022-05-09 18:42 31K 
[IMG]nU4hqNQXlHoczKe.jpg2022-05-09 18:42 27K 
[IMG]NcXvHeMjpa4nrGS.jpg2022-05-09 18:42 49K 
[IMG]tINZU0d5eCxkQ9F.jpg2022-05-09 18:42 66K 
[IMG]YVrr5Vuwr48iFHD.jpg2022-05-09 18:42 36K 
[IMG]38GJKgVvIOdi6Rs.jpg2022-05-09 18:42 20K 
[IMG]TYQd0U1s9WHP7Ta.jpg2022-05-09 18:42 41K 
[IMG]gauCORNqxYzmS3Q.jpg2022-05-09 18:42 25K 
[IMG]6mwtSNupy54MxGs.jpg2022-05-09 18:42 12K 
[IMG]2gIdH53alOqDmVQ.jpg2022-05-09 18:42 21K 
[IMG]0zne7bn3MGmPbpB.jpg2022-05-09 18:42 27K 
[IMG]khD9411S11Psht4.jpg2022-05-09 18:42 16K 
[IMG]06zJ0shUv17qTTU.jpg2022-05-09 18:42 33K 
[IMG]7KHGOVXjgCUkHsy.jpg2022-05-09 18:42 20K 
[IMG]ptmGVyJs4vL2xTD.jpg2022-05-09 18:42 48K 
[IMG]CjcvGGCOxlcGShg.jpg2022-05-09 18:42 25K 
[IMG]LrniE5NC4roEyPh.jpg2022-05-09 18:42 35K 
[IMG]rCOC0P304Y6W7Cl.jpg2022-05-09 18:42 23K 
[IMG]LcJhoFek6hxSrN7.jpg2022-05-09 18:42 39K 
[IMG]VwTjY3lvjFBgyjg.jpg2022-05-09 18:42 37K 
[IMG]ETPdeb5eQXTfUJF.jpg2022-05-09 18:42 21K 
[IMG]be9Zko5jVBc2G52.jpg2022-05-09 18:42 22K 
[IMG]6OTVoqWYIgcTkcJ.jpg2022-05-09 18:42 37K 
[IMG]3M6LXE3544BwwQK.jpg2022-05-09 18:42 26K 
[IMG]5pkGTuSv82S8sHf.jpg2022-05-09 18:42 34K 
[IMG]A2KFZx7N4PtiAZL.jpg2022-05-09 18:42 51K 
[IMG]pjZRPr7yEQigUQB.jpg2022-05-09 18:42 44K 
[IMG]Fq58IjYatIwZNQJ.jpg2022-05-09 18:42 21K 
[IMG]lbrhb9tBBOCTHiz.jpg2022-05-09 18:43 41K 
[IMG]18zoa2LB0J03siP.jpg2022-05-09 18:43 50K 
[IMG]cTk7SXn4wg2RSbi.jpg2022-05-09 18:43 49K 
[IMG]NBeHhzz4ldblRkX.jpg2022-05-09 18:43 53K 
[IMG]9qNVcggigTwCIwI.jpg2022-05-09 18:43 45K 
[IMG]mYLRzxusk8CQbRr.jpg2022-05-09 18:43 43K 
[IMG]0TZ0HKpe64rDfDY.jpg2022-05-09 18:43 58K 
[IMG]5evskqvG4YDfbdZ.jpg2022-05-09 18:43 16K 
[IMG]boufzij7Y4FotdP.jpg2022-05-09 18:43 17K 
[IMG]LSzQHlaS4LTUgok.jpg2022-05-09 18:43 48K 
[IMG]SiywVoyr3pMuidk.jpg2022-05-09 18:43 33K 
[IMG]07KwRPZm7BKQatA.jpg2022-05-09 18:43 58K 
[IMG]wLNOtm9yWnd6nxk.jpg2022-05-09 18:43 12K 
[IMG]zHFkTFxHOqOana0.jpg2022-05-09 18:43 23K 
[IMG]6AcWj7puOvRg8mZ.jpg2022-05-09 18:43 55K 
[IMG]iaiTkb11ZTAIGwN.jpg2022-05-09 18:43 22K 
[IMG]1yCoNRggZtL2Q7U.jpg2022-05-09 18:43 46K 
[IMG]PouYKuxLySOQVfZ.jpg2022-05-09 18:43 31K 
[IMG]N3YdxJzsuSAFzah.jpg2022-05-09 18:43 42K 
[IMG]XQb2ExbTJWSwEKR.jpg2022-05-09 18:43 35K 
[IMG]Vcj6VF834dGKgc6.jpg2022-05-09 18:43 46K 
[IMG]LB8yuJUufj8LLfV.jpg2022-05-09 18:43 36K 
[IMG]z3P9eHHwKhY8aGw.jpg2022-05-09 18:43 41K 
[IMG]IZeDJPsSrlsqMnH.jpg2022-05-09 18:43 27K 
[IMG]CIk1UjloPcTDppR.jpg2022-05-09 18:43 52K 
[IMG]H6iMKLSHSRYDynP.jpg2022-05-09 18:43 45K 
[IMG]Qt8dNdYaW3VZp9P.jpg2022-05-09 18:43 57K 
[IMG]rafk8d5HoVSOC9x.jpg2022-05-09 18:43 59K 
[IMG]Le54dvKO7zXfF7R.jpg2022-05-09 18:43 49K 
[IMG]Rx6CUvVqmB6Laa2.jpg2022-05-09 18:43 53K 
[IMG]Vst3gpAJE2oCgRz.jpg2022-05-09 18:43 233K 
[IMG]KqWei94vOydGTKs.jpg2022-05-09 18:43 16K 
[IMG]miM2qp1dPoWP2HC.jpg2022-05-09 18:43 30K 
[IMG]XEBABYuYzxLhN4K.jpg2022-05-09 18:43 24K 
[IMG]1Xh9pui6ZXjK1Qv.jpg2022-05-09 18:43 25K 
[IMG]FZGAJwob18Oz8hb.jpg2022-05-09 18:43 38K 
[IMG]8uBASl1mBOMJ5iF.jpg2022-05-09 18:43 38K 
[IMG]BfXi30mZsCt2Dvf.jpg2022-05-09 18:43 39K 
[IMG]s7t88bbfrtbOSjx.jpg2022-05-09 18:43 22K 
[IMG]dyihOdxA6msI2aU.jpg2022-05-09 18:43 26K 
[IMG]XNHAbmC0nwJp2NN.jpg2022-05-09 18:43 13K 
[IMG]LtfGxGuhsBAshiG.jpg2022-05-09 18:43 48K 
[IMG]U2jW9mx30qhk5SC.jpg2022-05-09 18:43 61K 
[IMG]C3AoVlkFldb2zFP.jpg2022-05-09 18:43 43K 
[IMG]aBEBmm1vHVKc45g.jpg2022-05-09 18:43 50K 
[IMG]5ULH6UuePzvgbdl.jpg2022-05-09 18:43 34K 
[IMG]85jCyogmepNjdN1.jpg2022-05-09 18:43 31K 
[IMG]0kgaKqjQpZ64S4A.jpg2022-05-09 18:43 33K 
[IMG]ZmIwEPVfQRLjclU.jpg2022-05-09 18:43 31K 
[IMG]yUGet4MKVddhECE.jpg2022-05-09 18:43 37K 
[IMG]2BYYyOLhWm6ZNUv.jpg2022-05-09 18:43 43K 
[IMG]Y8Qe6BmNmDdp3Ad.jpg2022-05-09 18:43 53K 
[IMG]MK9hrW00HsQwbqR.jpg2022-05-09 18:43 33K 
[IMG]S6lqHvZ9Q4ENJ97.jpg2022-05-09 18:43 39K 
[IMG]S4AOHp8fGuJUfJB.jpg2022-05-09 18:43 29K 
[IMG]10LqZDUFYOAO998.jpg2022-05-09 18:43 29K 
[IMG]eS3JgtlgEjDlEFP.jpg2022-05-09 18:43 31K 
[IMG]l02RgZNHP2u2BOe.jpg2022-05-09 18:43 46K 
[IMG]mnAQrYMzX3exq7X.jpg2022-05-09 18:43 47K 
[IMG]sTl5N9t1nOIZjHI.jpg2022-05-09 18:43 52K 
[IMG]Ag3nVyOmeqW2MLv.jpg2022-05-09 18:43 12K 
[IMG]zMKso5cbuyKofoh.jpg2022-05-09 18:43 28K 
[IMG]fBenjTBhRIFHy4L.jpg2022-05-09 18:43 33K 
[IMG]mcsp8cBtzqGgqC2.jpg2022-05-09 18:43 32K 
[IMG]2NN352g5RbWN2ul.jpg2022-05-09 18:43 25K 
[IMG]XIjv2pWwgJpn2jP.jpg2022-05-09 18:43 57K 
[IMG]bW8qua0W98xiy8L.jpg2022-05-09 18:43 28K 
[IMG]YCOUGDeFY0NfZlM.jpg2022-05-09 18:43 50K 
[IMG]XRLjPMQ6inAy8sk.jpg2022-05-09 18:44 8.5K 
[IMG]xq3pGruTpThpkyT.jpg2022-05-09 18:44 28K 
[IMG]hDoqextIiGL18Vu.jpg2022-05-09 18:44 30K 
[IMG]5vjnQ1beWQI8AhB.jpg2022-05-09 18:44 29K 
[IMG]84QIlWnrbXa68dJ.jpg2022-05-09 18:44 33K 
[IMG]JbrJJwb5i1U7qEC.jpg2022-05-09 18:44 44K 
[IMG]7woKAv3XTmbeklV.jpg2022-05-09 18:44 27K 
[IMG]NRTcgrAew8RIVIG.jpg2022-05-09 18:44 26K 
[IMG]xJ0GRrBhzZSStt1.jpg2022-05-09 18:44 36K 
[IMG]4ynu5nK2qNSfat6.jpg2022-05-09 18:44 27K 
[IMG]6rSx5rWONXfCkgw.jpg2022-05-09 18:44 30K 
[IMG]i9uyRpNxyxT60jB.jpg2022-05-09 18:44 27K 
[IMG]cR0aaHHdJDJ828M.jpg2022-05-09 18:44 26K 
[IMG]zF0k9b4Qvj7kP7G.jpg2022-05-09 18:44 21K 
[IMG]IPfxdjr3MU9bBkN.jpg2022-05-09 18:44 19K 
[IMG]V9CkK2ZcZ1R7ZKO.jpg2022-05-09 18:44 20K 
[IMG]NKJ5sA1C1mova2p.jpg2022-05-09 18:44 53K 
[IMG]Cfl3SBxuZ7sJqBZ.jpg2022-05-09 18:44 32K 
[IMG]e0AK9owndokcV3n.jpg2022-05-09 18:44 46K 
[IMG]bTkn4yYOWRIjpK9.jpg2022-05-09 18:44 12K 
[IMG]2azbJ1he4Sf7HMY.jpg2022-05-09 18:44 31K 
[IMG]UPe0DksN8d6KunV.jpg2022-05-09 18:44 33K 
[IMG]ht3kqbpt1WXqOmn.jpg2022-05-09 18:44 33K 
[IMG]3Mbf98MSeFPm9b4.jpg2022-05-09 18:44 39K 
[IMG]FiEefGunL11ahpZ.jpg2022-05-09 18:44 48K 
[IMG]Leifwfk6Cz3b5UQ.jpg2022-05-09 18:44 94K 
[IMG]Pgo2esu0dyPD2Wh.jpg2022-05-09 18:44 49K 
[IMG]QfKzhfHpNcZWe49.jpg2022-05-09 18:44 48K 
[IMG]l2MXHfoSSYq40lD.jpg2022-05-09 18:44 65K 
[IMG]zDh1OLfXyHdWegP.jpg2022-05-09 18:44 44K 
[IMG]4nZDSHccq3OMo8M.jpg2022-05-09 18:44 16K 
[IMG]3BzsLk3qB5bxEcF.jpg2022-05-09 18:44 20K 
[IMG]Ij6axqfzlq9QqIT.jpg2022-05-09 18:44 25K 
[IMG]313LB0PPXOM8aqj.jpg2022-05-09 18:44 21K 
[IMG]CIo0lbc2Fh5Rovi.jpg2022-05-09 18:44 28K 
[IMG]4IykvybUMnr43i7.jpg2022-05-09 18:44 27K 
[IMG]BcHIyxPp9CtXHFj.jpg2022-05-09 18:44 13K 
[IMG]CCQCZRMkoaU9k5K.jpg2022-05-09 18:44 66K 
[IMG]tGqvutk9OeSiVr4.jpg2022-05-09 18:44 42K 
[IMG]GhC88sddaOWX6cZ.jpg2022-05-09 18:44 37K 
[IMG]c6OExwDyypFDrgG.jpg2022-05-09 18:44 47K 
[IMG]p4h9yvEXlKHdyP2.jpg2022-05-09 18:44 18K 
[IMG]IMiJhNOPoWARp19.jpg2022-05-09 18:44 99K 
[IMG]nlgXMavHsst0csa.jpg2022-05-09 18:44 24K 
[IMG]HLymXaVdMEogMYI.jpg2022-05-09 18:44 55K 
[IMG]tzhDBsYL7gozQDh.jpg2022-05-09 18:44 28K 
[IMG]hhFo3CRGVLzaDmm.jpg2022-05-09 18:44 61K 
[IMG]ocQx0Aths8H2fhn.jpg2022-05-09 18:44 32K 
[IMG]xXoD5LERTbXcgSJ.jpg2022-05-09 18:44 36K 
[IMG]ZdI7PwXHpOfZP5D.jpg2022-05-09 18:44 40K 
[IMG]TuSdDAeLG4VQhvd.jpg2022-05-09 18:44 39K 
[IMG]rhQGSrNVvWzoXrp.jpg2022-05-09 18:44 61K 
[IMG]JklrUI7JJV9kIeo.jpg2022-05-09 18:45 22K 
[IMG]mI8iLhIWj6y0LCE.jpg2022-05-09 18:45 13K 
[IMG]H5ykkxtCn1H7Qdg.jpg2022-05-09 18:45 18K 
[IMG]IsKLCmpV82mSrbr.jpg2022-05-09 18:45 19K 
[IMG]TaZXtnGTQJLxcid.jpg2022-05-09 18:45 20K 
[IMG]4u04q32sNRScFv7.jpg2022-05-09 18:45 36K 
[IMG]EzX3fJAAUrcBww1.jpg2022-05-09 18:45 31K 
[IMG]ZV3CIup0u17b1K8.jpg2022-05-09 18:45 30K 
[IMG]ukxOwRVpAqKiq7i.jpg2022-05-09 18:45 38K 
[IMG]UkqQ9Qaz8LHDZx5.jpg2022-05-09 18:45 608K 
[IMG]lCV8d1acTnbYET4.jpg2022-05-09 18:45 37K 
[IMG]K1kPuEAOM7UEssj.jpg2022-05-09 18:45 25K 
[IMG]SPFYGCSv2PTuX7p.jpg2022-05-09 18:45 18K 
[IMG]f8gjn7TadDvaPpP.jpg2022-05-09 18:45 32K 
[IMG]6FdNTwOaVGWRtzu.jpg2022-05-09 18:45 29K 
[IMG]bAW045I3ZfFUe1e.jpg2022-05-09 18:45 27K 
[IMG]PaizFJMxIUoA2Tj.jpg2022-05-09 18:45 38K 
[IMG]aGb9OZf8t8ZqR8E.jpg2022-05-09 18:45 22K 
[IMG]gCVwbHrkDHvxs0y.jpg2022-05-09 18:45 35K 
[IMG]kyhwq6yRtNF85Zg.jpg2022-05-09 18:45 31K 
[IMG]7QXGuzfcfcJqW2T.jpg2022-05-09 18:45 31K 
[IMG]Bn3u0s7zwj4P0jj.jpg2022-05-09 18:45 31K 
[IMG]HomGnc2sqPaU0AV.jpg2022-05-09 18:45 38K 
[IMG]0hcdYRxtA0w66NF.jpg2022-05-09 18:45 545  
[IMG]vQOVJbm3rO0qJL4.jpg2022-05-09 18:45 28K 
[IMG]TTKihR1WsEiYoIX.jpg2022-05-09 18:45 24K 
[IMG]r7uQR6fPv4e4B8U.jpg2022-05-09 18:45 40K 
[IMG]SjGvjRvhjzYdGyZ.jpg2022-05-09 18:45 23K 
[IMG]eRWyLCFxkRVMACW.jpg2022-05-09 18:45 24K 
[IMG]sQG5GCfpMPi7tUW.jpg2022-05-09 18:45 42K 
[IMG]dyHLxgqwfEpUZvd.jpg2022-05-09 18:45 22K 
[IMG]pjJpJr4OZgtmDc9.jpg2022-05-09 18:45 45K 
[IMG]N0d4BQPys5zYjGx.jpg2022-05-09 18:45 33K 
[IMG]ubijTnIvpNoDMs1.jpg2022-05-09 18:45 48K 
[IMG]2TGg0Nx5tBjCbrA.jpg2022-05-09 18:45 52K 
[IMG]zcEZB8KuuaQoWjl.jpg2022-05-09 18:45 49K 
[IMG]nkjj3rptDefsFWO.jpg2022-05-09 18:45 27K 
[IMG]lQ8raxG3rgc15Qt.jpg2022-05-09 18:45 29K 
[IMG]Y0uqM5HkydtAnCk.jpg2022-05-09 18:45 22K 
[IMG]4wrrgVelGtMpH4a.jpg2022-05-09 18:45 47K 
[IMG]wtX03wUxwL6jEK4.jpg2022-05-09 18:45 36K 
[IMG]hYRO5c5DyUcUIcS.jpg2022-05-09 18:45 28K 
[IMG]jOTJtMXDeBre9Qc.jpg2022-05-09 18:45 30K 
[IMG]96SEnZ07nrDrCg1.jpg2022-05-09 18:45 24K 
[IMG]p41mvwFd7KKTXCu.jpg2022-05-09 18:45 40K 
[IMG]ClZO9BqnSAEnvuS.jpg2022-05-09 18:45 24K 
[IMG]Pe7YKD39rxsanbE.jpg2022-05-09 18:45 21K 
[IMG]3drMVC5vm5YH5EF.jpg2022-05-09 18:45 13K 
[IMG]52cgvc7m0LnTGpB.jpg2022-05-09 18:45 15K 
[IMG]lGiu7sAAqcbuEpX.jpg2022-05-09 18:45 23K 
[IMG]WK3EkQeIL9x51IQ.jpg2022-05-09 18:45 23K 
[IMG]h4Z5LXV3XLIfnVy.jpg2022-05-09 18:45 43K 
[IMG]mYET2uHzEwesqpB.jpg2022-05-09 18:45 16K 
[IMG]ER9HdRWwUNmfYjP.jpg2022-05-09 18:45 42K 
[IMG]8xf2h7FWbE6s697.jpg2022-05-09 18:45 43K 
[IMG]mfsEVBpVyTK2JYo.jpg2022-05-09 18:45 39K 
[IMG]dT6W2zQdWuLuApe.jpg2022-05-09 18:45 10K 
[IMG]deu1Bh0AfWvra9t.jpg2022-05-09 18:45 31K 
[IMG]slDudTmUp3norbu.jpg2022-05-09 18:45 28K 
[IMG]w8sLhkSLmlP6igk.jpg2022-05-09 18:45 30K 
[IMG]oDY6vUYTcoLHcfx.jpg2022-05-09 18:45 25K 
[IMG]S6A7pgZ5ydysgy9.jpg2022-05-09 18:45 40K 
[IMG]Pf82M59msC7DUCl.jpg2022-05-09 18:45 54K 
[IMG]NzHiX1Xn3rqDgbZ.jpg2022-05-09 18:45 39K 
[IMG]PtghB0GpWWZvG4V.jpg2022-05-09 18:45 67K 
[IMG]5DOTMCF9sKemOFV.jpg2022-05-09 18:45 33K 
[IMG]eq4TY0qVh59Cp3Y.jpg2022-05-09 18:45 34K 
[IMG]cj2cuGLWSunitmK.jpg2022-05-09 18:45 28K 
[IMG]zRCVwJZo6iYkViX.jpg2022-05-09 18:45 44K 
[IMG]QTmP1S16iLKwX98.jpg2022-05-09 18:45 49K 
[IMG]ZzdruX4ajY4Bnet.jpg2022-05-09 18:45 34K 
[IMG]SuBNQgJGQ9gMQCE.jpg2022-05-09 18:45 38K 
[IMG]TltvnT2HIhuptRn.jpg2022-05-09 18:45 312K 
[IMG]ZHR0lq8wo3pk84G.jpg2022-05-09 18:45 21K 
[IMG]izSg65RibSKxLNm.jpg2022-05-09 18:45 54K 
[IMG]t8wc9YSprZiWKSJ.jpg2022-05-09 18:45 42K 
[IMG]us7TSJx72q6i1SS.jpg2022-05-09 18:45 48K 
[IMG]006PGSXBwgp0w0n.jpg2022-05-09 18:45 40K 
[IMG]glV9oMcDCviMsAG.jpg2022-05-09 18:45 20K 
[IMG]7MGQlIbCA59oHLq.jpg2022-05-09 18:45 14K 
[IMG]Q7yQV4MpmhDtD3T.jpg2022-05-09 18:45 14K 
[IMG]CGFRc5mAFJmemWg.jpg2022-05-09 18:45 30K 
[IMG]WCfm3SYLYWOYPnI.jpg2022-05-09 18:45 25K 
[IMG]iuORXt5IAWg3glE.jpg2022-05-09 18:45 32K 
[IMG]nVHSdIwNVlYFQAE.jpg2022-05-09 18:45 12K 
[IMG]kVYeHosFXT1oC7B.jpg2022-05-09 18:45 48K 
[IMG]AxAD4Tc4oA4rOA9.jpg2022-05-09 18:46 30K 
[IMG]mYy06lMprDe9bSO.jpg2022-05-09 18:46 49K 
[IMG]W41q87Po8cCILnN.jpg2022-05-09 18:46 24K 
[IMG]PaJeLCMG80c025Y.jpg2022-05-09 18:46 25K 
[IMG]VYJCINF5CTXgrPg.jpg2022-05-09 18:46 41K 
[IMG]nhuwDbEnRkIPjqi.jpg2022-05-09 18:46 49K 
[IMG]rbka9fxgMgQBmHc.jpg2022-05-09 18:46 40K 
[IMG]0VlVrIE820X7TSw.jpg2022-05-09 18:46 34K 
[IMG]Mw87yTw0xfso17L.jpg2022-05-09 18:46 36K 
[IMG]pOFfInE6fUQFQ3p.jpg2022-05-09 18:46 16K 
[IMG]FbncEvxUciKIY2U.jpg2022-05-09 18:46 10K 
[IMG]anquAlHSiBr1gmv.jpg2022-05-09 18:46 28K 
[IMG]4dXNKo21H4ZMOSD.jpg2022-05-09 18:46 30K 
[IMG]yBTVegrfcpXin4u.jpg2022-05-09 18:46 29K 
[IMG]wL48Jtc2xFEbtZy.jpg2022-05-09 18:46 28K 
[IMG]0Km5nC0v2SiuEmf.jpg2022-05-09 18:46 17K 
[IMG]OvN0cCVuXhpPBU7.jpg2022-05-09 18:46 19K 
[IMG]cPy8vdsnZDNVk01.jpg2022-05-09 18:46 32K 
[IMG]lUghR0LDuixXrAe.jpg2022-05-09 18:46 45K 
[IMG]9EB43wzOEFRSD2z.jpg2022-05-09 18:46 44K 
[IMG]2OSDu5ntnZaf3Rx.jpg2022-05-09 18:46 60K 
[IMG]gNEFsb2TkNrAd95.jpg2022-05-09 18:46 53K 
[IMG]zaNJMGZejUiDgx6.jpg2022-05-09 18:46 23K 
[IMG]5jrfyey4CAbdLT6.jpg2022-05-09 18:46 39K 
[IMG]wFC7CiY94jZ3HsV.jpg2022-05-09 18:46 46K 
[IMG]VfpufAKCBe7YuoW.jpg2022-05-09 18:46 25K 
[IMG]558nQuEsCPL5Isc.jpg2022-05-09 18:46 32K 
[IMG]TNHvDap2o7Brmdn.jpg2022-05-09 18:46 58K 
[IMG]ABQyf58WC9NTqli.jpg2022-05-09 18:46 25K 
[IMG]LOiFBz6SdtnrmSn.jpg2022-05-09 18:46 20K 
[IMG]N2wqiFJEIT4fZvX.jpg2022-05-09 18:46 16K 
[IMG]hN4DJn7IOvLgvOF.jpg2022-05-09 18:46 31K 
[IMG]xB3UBWRaZAdmTwB.jpg2022-05-09 18:46 24K 
[IMG]UUpaFkQeZc57iOq.jpg2022-05-09 18:46 37K 
[IMG]4PZqM5H546EDAXn.jpg2022-05-09 18:46 19K 
[IMG]elEFs4ctpUuc4s7.jpg2022-05-09 18:46 38K 
[IMG]Aui22BD2ak7h44C.jpg2022-05-09 18:46 47K 
[IMG]rbPZvpV7EBP0WqL.jpg2022-05-09 18:46 31K 
[IMG]4uM0tPSXt8UeJ0U.jpg2022-05-09 18:46 29K 
[IMG]Wt2rITStZzCtAZH.jpg2022-05-09 18:46 24K 
[IMG]LHSBY86iFk0rfDB.jpg2022-05-09 18:46 46K 
[IMG]Pos19ewrnsUGCMw.jpg2022-05-09 18:46 61K 
[IMG]abkB8gzvoUr9cBo.jpg2022-05-09 18:46 33K 
[IMG]KnKhuvCa6JZDJZy.jpg2022-05-09 18:46 31K 
[IMG]jshBObeiTCUKaoq.jpg2022-05-09 18:46 5.7K 
[IMG]Qj6Yeptf3TILl2p.jpg2022-05-09 18:46 61K 
[IMG]8fnGdfLKWyi8hd3.jpg2022-05-09 18:46 34K 
[IMG]u038P1hseN1njS6.jpg2022-05-09 18:46 68K 
[IMG]ROzAEkvXBeYlXGJ.jpg2022-05-09 18:46 30K 
[IMG]H1NFNnQQZdh6B0E.jpg2022-05-09 18:46 30K 
[IMG]QBrZOMWYQB8gsxX.jpg2022-05-09 18:46 44K 
[IMG]tgEchFbvYjAF2VN.jpg2022-05-09 18:46 35K 
[IMG]cNOGmDhK6DZ0VIx.jpg2022-05-09 18:46 25K 
[IMG]vylgKz26Tzc8qJB.jpg2022-05-09 18:46 47K 
[IMG]YKpYJUdkDBvB1Ro.jpg2022-05-09 18:46 20K 
[IMG]FEgCvt372lEGsD3.jpg2022-05-09 18:46 42K 
[IMG]5cMj1kiLURatpNp.jpg2022-05-09 18:46 41K 
[IMG]hcPm6etMeD7pveb.jpg2022-05-09 18:46 51K 
[IMG]CpM5TCI4IpIj0Qq.jpg2022-05-09 18:46 32K 
[IMG]WgpX9cHbnjVsuYv.jpg2022-05-09 18:46 20K 
[IMG]dOx77Y0MKU2bqd4.jpg2022-05-09 18:46 29K 
[IMG]U2pRxQll9jtqe1F.jpg2022-05-09 18:46 18K 
[IMG]leX8CDD7nTAVk2J.jpg2022-05-09 18:46 27K 
[IMG]wVmAouYy3ZlWrmi.jpg2022-05-09 18:46 23K 
[IMG]Y138lqKlDSVyCyA.jpg2022-05-09 18:46 37K 
[IMG]3HGG9TXTHXh1iki.jpg2022-05-09 18:46 21K 
[IMG]GJFEikPnZ8MMO39.jpg2022-05-09 18:46 38K 
[IMG]Txuzz79XnJB9dCX.jpg2022-05-09 18:46 21K 
[IMG]PnyP8Cz68mvsRcd.jpg2022-05-09 18:46 34K 
[IMG]nwXZSlAKydaL6TD.jpg2022-05-09 18:46 40K 
[IMG]LTtiCeo6G7gJr7h.jpg2022-05-09 18:46 34K 
[IMG]b4fgYxp99domm4b.jpg2022-05-09 18:46 33K 
[IMG]NP3ni9T8l4oOOYC.jpg2022-05-09 18:46 61K 
[IMG]nVUanDT9Yn4qVAR.jpg2022-05-09 18:47 50K 
[IMG]tVwMfvDq2C1k2KD.jpg2022-05-09 18:47 32K 
[IMG]oOotGYZJvbVr6Cw.jpg2022-05-09 18:47 45K 
[IMG]7x6T3KXXBXOvdD2.jpg2022-05-09 18:47 114K 
[IMG]lNb8KwqGecZjWT8.jpg2022-05-09 18:47 54K 
[IMG]5vXon2nnJYnA2ii.jpg2022-05-09 18:47 85K 
[IMG]chSgXtCkPRavKK7.jpg2022-05-09 18:47 24K 
[IMG]GKYFSGJTq7qY4xC.jpg2022-05-09 18:47 26K 
[IMG]7uOYP4RHwMSFO06.jpg2022-05-09 18:47 29K 
[IMG]2iDlh2TLPEnw40e.jpg2022-05-09 18:47 39K 
[IMG]3990mOsDd4ZlcI7.jpg2022-05-09 18:47 29K 
[IMG]IIE3C3tExXgOqYo.jpg2022-05-09 18:47 43K 
[IMG]HESn0T3RLrmbefR.jpg2022-05-09 18:47 20K